<?xml version="1.0" encoding="UTF-8"?>
<gpx xmlns="http://www.topografix.com/GPX/1/1"
     creator="GpsDump 4.67"
     version="1.1"
     xmlns:xsi="http://www.w3.org/2001/XMLSchema-instance"
     xsi:schemaLocation="http://www.topografix.com/GPX/1/1 http://www.topografix.com/GPX/1/1/gpx.xsd">
  <metadata>
    <link href="http://www.gethome.no/stein.sorensen/">
      <text>GPS dump for www.flightlog.org</text>
    </link>
    <time>2013-06-16T18:15:07Z</time>
    <bounds minlat="41.053733" minlon="-3.741033" maxlat="41.110133" maxlon="-3.707800"/>
  </metadata>
  <trk>
    <name>Track 001</name>
    <trkseg>
      <trkpt lat="41.078600" lon="-3.707800">
        <ele>1856.0</ele>
        <time>2013-06-04T18:24:52Z</time>
      </trkpt>
      <trkpt lat="41.078650" lon="-3.707800">
        <ele>1857.0</ele>
        <time>2013-06-04T18:24:53Z</time>
      </trkpt>
      <trkpt lat="41.078700" lon="-3.707817">
        <ele>1857.0</ele>
        <time>2013-06-04T18:24:54Z</time>
      </trkpt>
      <trkpt lat="41.078750" lon="-3.707850">
        <ele>1858.0</ele>
        <time>2013-06-04T18:24:55Z</time>
      </trkpt>
      <trkpt lat="41.078783" lon="-3.707883">
        <ele>1858.0</ele>
        <time>2013-06-04T18:24:56Z</time>
      </trkpt>
      <trkpt lat="41.078833" lon="-3.707917">
        <ele>1858.0</ele>
        <time>2013-06-04T18:24:57Z</time>
      </trkpt>
      <trkpt lat="41.078867" lon="-3.707933">
        <ele>1858.0</ele>
        <time>2013-06-04T18:24:58Z</time>
      </trkpt>
      <trkpt lat="41.078917" lon="-3.707950">
        <ele>1858.0</ele>
        <time>2013-06-04T18:24:59Z</time>
      </trkpt>
      <trkpt lat="41.078950" lon="-3.707967">
        <ele>1858.0</ele>
        <time>2013-06-04T18:25:00Z</time>
      </trkpt>
      <trkpt lat="41.078967" lon="-3.708000">
        <ele>1858.0</ele>
        <time>2013-06-04T18:25:01Z</time>
      </trkpt>
      <trkpt lat="41.078967" lon="-3.708033">
        <ele>1858.0</ele>
        <time>2013-06-04T18:25:02Z</time>
      </trkpt>
      <trkpt lat="41.078967" lon="-3.708083">
        <ele>1857.0</ele>
        <time>2013-06-04T18:25:03Z</time>
      </trkpt>
      <trkpt lat="41.078950" lon="-3.708150">
        <ele>1857.0</ele>
        <time>2013-06-04T18:25:04Z</time>
      </trkpt>
      <trkpt lat="41.078950" lon="-3.708200">
        <ele>1857.0</ele>
        <time>2013-06-04T18:25:05Z</time>
      </trkpt>
      <trkpt lat="41.078933" lon="-3.708250">
        <ele>1857.0</ele>
        <time>2013-06-04T18:25:06Z</time>
      </trkpt>
      <trkpt lat="41.078900" lon="-3.708317">
        <ele>1857.0</ele>
        <time>2013-06-04T18:25:07Z</time>
      </trkpt>
      <trkpt lat="41.078883" lon="-3.708367">
        <ele>1857.0</ele>
        <time>2013-06-04T18:25:08Z</time>
      </trkpt>
      <trkpt lat="41.078850" lon="-3.708417">
        <ele>1856.0</ele>
        <time>2013-06-04T18:25:09Z</time>
      </trkpt>
      <trkpt lat="41.078833" lon="-3.708467">
        <ele>1856.0</ele>
        <time>2013-06-04T18:25:10Z</time>
      </trkpt>
      <trkpt lat="41.078800" lon="-3.708533">
        <ele>1856.0</ele>
        <time>2013-06-04T18:25:11Z</time>
      </trkpt>
      <trkpt lat="41.078783" lon="-3.708600">
        <ele>1856.0</ele>
        <time>2013-06-04T18:25:12Z</time>
      </trkpt>
      <trkpt lat="41.078750" lon="-3.708650">
        <ele>1856.0</ele>
        <time>2013-06-04T18:25:13Z</time>
      </trkpt>
      <trkpt lat="41.078717" lon="-3.708717">
        <ele>1856.0</ele>
        <time>2013-06-04T18:25:14Z</time>
      </trkpt>
      <trkpt lat="41.078683" lon="-3.708767">
        <ele>1856.0</ele>
        <time>2013-06-04T18:25:15Z</time>
      </trkpt>
      <trkpt lat="41.078667" lon="-3.708833">
        <ele>1855.0</ele>
        <time>2013-06-04T18:25:16Z</time>
      </trkpt>
      <trkpt lat="41.078650" lon="-3.708917">
        <ele>1855.0</ele>
        <time>2013-06-04T18:25:17Z</time>
      </trkpt>
      <trkpt lat="41.078633" lon="-3.708983">
        <ele>1855.0</ele>
        <time>2013-06-04T18:25:18Z</time>
      </trkpt>
      <trkpt lat="41.078633" lon="-3.709033">
        <ele>1856.0</ele>
        <time>2013-06-04T18:25:19Z</time>
      </trkpt>
      <trkpt lat="41.078617" lon="-3.709083">
        <ele>1856.0</ele>
        <time>2013-06-04T18:25:20Z</time>
      </trkpt>
      <trkpt lat="41.078583" lon="-3.709133">
        <ele>1856.0</ele>
        <time>2013-06-04T18:25:21Z</time>
      </trkpt>
      <trkpt lat="41.078567" lon="-3.709200">
        <ele>1855.0</ele>
        <time>2013-06-04T18:25:22Z</time>
      </trkpt>
      <trkpt lat="41.078550" lon="-3.709267">
        <ele>1855.0</ele>
        <time>2013-06-04T18:25:23Z</time>
      </trkpt>
      <trkpt lat="41.078533" lon="-3.709333">
        <ele>1855.0</ele>
        <time>2013-06-04T18:25:24Z</time>
      </trkpt>
      <trkpt lat="41.078517" lon="-3.709400">
        <ele>1855.0</ele>
        <time>2013-06-04T18:25:25Z</time>
      </trkpt>
      <trkpt lat="41.078483" lon="-3.709467">
        <ele>1856.0</ele>
        <time>2013-06-04T18:25:26Z</time>
      </trkpt>
      <trkpt lat="41.078467" lon="-3.709533">
        <ele>1856.0</ele>
        <time>2013-06-04T18:25:27Z</time>
      </trkpt>
      <trkpt lat="41.078433" lon="-3.709583">
        <ele>1857.0</ele>
        <time>2013-06-04T18:25:28Z</time>
      </trkpt>
      <trkpt lat="41.078417" lon="-3.709650">
        <ele>1857.0</ele>
        <time>2013-06-04T18:25:29Z</time>
      </trkpt>
      <trkpt lat="41.078400" lon="-3.709733">
        <ele>1857.0</ele>
        <time>2013-06-04T18:25:30Z</time>
      </trkpt>
      <trkpt lat="41.078400" lon="-3.709800">
        <ele>1857.0</ele>
        <time>2013-06-04T18:25:31Z</time>
      </trkpt>
      <trkpt lat="41.078383" lon="-3.709867">
        <ele>1858.0</ele>
        <time>2013-06-04T18:25:32Z</time>
      </trkpt>
      <trkpt lat="41.078367" lon="-3.709933">
        <ele>1858.0</ele>
        <time>2013-06-04T18:25:33Z</time>
      </trkpt>
      <trkpt lat="41.078333" lon="-3.710000">
        <ele>1859.0</ele>
        <time>2013-06-04T18:25:34Z</time>
      </trkpt>
      <trkpt lat="41.078317" lon="-3.710067">
        <ele>1860.0</ele>
        <time>2013-06-04T18:25:35Z</time>
      </trkpt>
      <trkpt lat="41.078300" lon="-3.710133">
        <ele>1861.0</ele>
        <time>2013-06-04T18:25:36Z</time>
      </trkpt>
      <trkpt lat="41.078267" lon="-3.710200">
        <ele>1861.0</ele>
        <time>2013-06-04T18:25:37Z</time>
      </trkpt>
      <trkpt lat="41.078250" lon="-3.710267">
        <ele>1862.0</ele>
        <time>2013-06-04T18:25:38Z</time>
      </trkpt>
      <trkpt lat="41.078217" lon="-3.710317">
        <ele>1862.0</ele>
        <time>2013-06-04T18:25:39Z</time>
      </trkpt>
      <trkpt lat="41.078183" lon="-3.710383">
        <ele>1862.0</ele>
        <time>2013-06-04T18:25:40Z</time>
      </trkpt>
      <trkpt lat="41.078150" lon="-3.710450">
        <ele>1863.0</ele>
        <time>2013-06-04T18:25:41Z</time>
      </trkpt>
      <trkpt lat="41.078133" lon="-3.710533">
        <ele>1863.0</ele>
        <time>2013-06-04T18:25:42Z</time>
      </trkpt>
      <trkpt lat="41.078083" lon="-3.710583">
        <ele>1864.0</ele>
        <time>2013-06-04T18:25:43Z</time>
      </trkpt>
      <trkpt lat="41.078067" lon="-3.710650">
        <ele>1864.0</ele>
        <time>2013-06-04T18:25:44Z</time>
      </trkpt>
      <trkpt lat="41.078033" lon="-3.710700">
        <ele>1864.0</ele>
        <time>2013-06-04T18:25:45Z</time>
      </trkpt>
      <trkpt lat="41.078017" lon="-3.710767">
        <ele>1864.0</ele>
        <time>2013-06-04T18:25:46Z</time>
      </trkpt>
      <trkpt lat="41.078017" lon="-3.710833">
        <ele>1864.0</ele>
        <time>2013-06-04T18:25:47Z</time>
      </trkpt>
      <trkpt lat="41.078000" lon="-3.710917">
        <ele>1865.0</ele>
        <time>2013-06-04T18:25:48Z</time>
      </trkpt>
      <trkpt lat="41.077983" lon="-3.710967">
        <ele>1867.0</ele>
        <time>2013-06-04T18:25:49Z</time>
      </trkpt>
      <trkpt lat="41.077967" lon="-3.711017">
        <ele>1869.0</ele>
        <time>2013-06-04T18:25:50Z</time>
      </trkpt>
      <trkpt lat="41.077933" lon="-3.711050">
        <ele>1870.0</ele>
        <time>2013-06-04T18:25:51Z</time>
      </trkpt>
      <trkpt lat="41.077900" lon="-3.711100">
        <ele>1871.0</ele>
        <time>2013-06-04T18:25:52Z</time>
      </trkpt>
      <trkpt lat="41.077867" lon="-3.711133">
        <ele>1870.0</ele>
        <time>2013-06-04T18:25:53Z</time>
      </trkpt>
      <trkpt lat="41.077833" lon="-3.711200">
        <ele>1870.0</ele>
        <time>2013-06-04T18:25:54Z</time>
      </trkpt>
      <trkpt lat="41.077800" lon="-3.711267">
        <ele>1870.0</ele>
        <time>2013-06-04T18:25:55Z</time>
      </trkpt>
      <trkpt lat="41.077767" lon="-3.711300">
        <ele>1871.0</ele>
        <time>2013-06-04T18:25:56Z</time>
      </trkpt>
      <trkpt lat="41.077750" lon="-3.711350">
        <ele>1872.0</ele>
        <time>2013-06-04T18:25:57Z</time>
      </trkpt>
      <trkpt lat="41.077733" lon="-3.711383">
        <ele>1872.0</ele>
        <time>2013-06-04T18:25:58Z</time>
      </trkpt>
      <trkpt lat="41.077700" lon="-3.711433">
        <ele>1872.0</ele>
        <time>2013-06-04T18:25:59Z</time>
      </trkpt>
      <trkpt lat="41.077667" lon="-3.711467">
        <ele>1871.0</ele>
        <time>2013-06-04T18:26:00Z</time>
      </trkpt>
      <trkpt lat="41.077633" lon="-3.711517">
        <ele>1870.0</ele>
        <time>2013-06-04T18:26:01Z</time>
      </trkpt>
      <trkpt lat="41.077600" lon="-3.711583">
        <ele>1870.0</ele>
        <time>2013-06-04T18:26:02Z</time>
      </trkpt>
      <trkpt lat="41.077567" lon="-3.711633">
        <ele>1871.0</ele>
        <time>2013-06-04T18:26:03Z</time>
      </trkpt>
      <trkpt lat="41.077533" lon="-3.711683">
        <ele>1871.0</ele>
        <time>2013-06-04T18:26:04Z</time>
      </trkpt>
      <trkpt lat="41.077500" lon="-3.711717">
        <ele>1871.0</ele>
        <time>2013-06-04T18:26:05Z</time>
      </trkpt>
      <trkpt lat="41.077450" lon="-3.711767">
        <ele>1871.0</ele>
        <time>2013-06-04T18:26:06Z</time>
      </trkpt>
      <trkpt lat="41.077417" lon="-3.711817">
        <ele>1871.0</ele>
        <time>2013-06-04T18:26:07Z</time>
      </trkpt>
      <trkpt lat="41.077367" lon="-3.711867">
        <ele>1871.0</ele>
        <time>2013-06-04T18:26:08Z</time>
      </trkpt>
      <trkpt lat="41.077333" lon="-3.711917">
        <ele>1872.0</ele>
        <time>2013-06-04T18:26:09Z</time>
      </trkpt>
      <trkpt lat="41.077300" lon="-3.711967">
        <ele>1872.0</ele>
        <time>2013-06-04T18:26:10Z</time>
      </trkpt>
      <trkpt lat="41.077283" lon="-3.712017">
        <ele>1873.0</ele>
        <time>2013-06-04T18:26:11Z</time>
      </trkpt>
      <trkpt lat="41.077250" lon="-3.712083">
        <ele>1873.0</ele>
        <time>2013-06-04T18:26:12Z</time>
      </trkpt>
      <trkpt lat="41.077233" lon="-3.712133">
        <ele>1873.0</ele>
        <time>2013-06-04T18:26:13Z</time>
      </trkpt>
      <trkpt lat="41.077200" lon="-3.712200">
        <ele>1873.0</ele>
        <time>2013-06-04T18:26:14Z</time>
      </trkpt>
      <trkpt lat="41.077183" lon="-3.712250">
        <ele>1874.0</ele>
        <time>2013-06-04T18:26:15Z</time>
      </trkpt>
      <trkpt lat="41.077167" lon="-3.712317">
        <ele>1874.0</ele>
        <time>2013-06-04T18:26:16Z</time>
      </trkpt>
      <trkpt lat="41.077150" lon="-3.712367">
        <ele>1874.0</ele>
        <time>2013-06-04T18:26:17Z</time>
      </trkpt>
      <trkpt lat="41.077150" lon="-3.712433">
        <ele>1874.0</ele>
        <time>2013-06-04T18:26:18Z</time>
      </trkpt>
      <trkpt lat="41.077133" lon="-3.712483">
        <ele>1875.0</ele>
        <time>2013-06-04T18:26:19Z</time>
      </trkpt>
      <trkpt lat="41.077133" lon="-3.712550">
        <ele>1876.0</ele>
        <time>2013-06-04T18:26:20Z</time>
      </trkpt>
      <trkpt lat="41.077117" lon="-3.712600">
        <ele>1876.0</ele>
        <time>2013-06-04T18:26:21Z</time>
      </trkpt>
      <trkpt lat="41.077117" lon="-3.712650">
        <ele>1876.0</ele>
        <time>2013-06-04T18:26:22Z</time>
      </trkpt>
      <trkpt lat="41.077100" lon="-3.712717">
        <ele>1876.0</ele>
        <time>2013-06-04T18:26:23Z</time>
      </trkpt>
      <trkpt lat="41.077100" lon="-3.712783">
        <ele>1875.0</ele>
        <time>2013-06-04T18:26:24Z</time>
      </trkpt>
      <trkpt lat="41.077100" lon="-3.712850">
        <ele>1875.0</ele>
        <time>2013-06-04T18:26:25Z</time>
      </trkpt>
      <trkpt lat="41.077100" lon="-3.712900">
        <ele>1876.0</ele>
        <time>2013-06-04T18:26:26Z</time>
      </trkpt>
      <trkpt lat="41.077100" lon="-3.712967">
        <ele>1876.0</ele>
        <time>2013-06-04T18:26:27Z</time>
      </trkpt>
      <trkpt lat="41.077100" lon="-3.713017">
        <ele>1876.0</ele>
        <time>2013-06-04T18:26:28Z</time>
      </trkpt>
      <trkpt lat="41.077083" lon="-3.713067">
        <ele>1877.0</ele>
        <time>2013-06-04T18:26:29Z</time>
      </trkpt>
      <trkpt lat="41.077083" lon="-3.713133">
        <ele>1876.0</ele>
        <time>2013-06-04T18:26:30Z</time>
      </trkpt>
      <trkpt lat="41.077067" lon="-3.713183">
        <ele>1876.0</ele>
        <time>2013-06-04T18:26:31Z</time>
      </trkpt>
      <trkpt lat="41.077033" lon="-3.713250">
        <ele>1875.0</ele>
        <time>2013-06-04T18:26:32Z</time>
      </trkpt>
      <trkpt lat="41.077017" lon="-3.713317">
        <ele>1876.0</ele>
        <time>2013-06-04T18:26:33Z</time>
      </trkpt>
      <trkpt lat="41.076983" lon="-3.713350">
        <ele>1877.0</ele>
        <time>2013-06-04T18:26:34Z</time>
      </trkpt>
      <trkpt lat="41.076933" lon="-3.713383">
        <ele>1877.0</ele>
        <time>2013-06-04T18:26:35Z</time>
      </trkpt>
      <trkpt lat="41.076883" lon="-3.713417">
        <ele>1878.0</ele>
        <time>2013-06-04T18:26:36Z</time>
      </trkpt>
      <trkpt lat="41.076833" lon="-3.713450">
        <ele>1877.0</ele>
        <time>2013-06-04T18:26:37Z</time>
      </trkpt>
      <trkpt lat="41.076767" lon="-3.713483">
        <ele>1877.0</ele>
        <time>2013-06-04T18:26:38Z</time>
      </trkpt>
      <trkpt lat="41.076717" lon="-3.713533">
        <ele>1876.0</ele>
        <time>2013-06-04T18:26:39Z</time>
      </trkpt>
      <trkpt lat="41.076650" lon="-3.713583">
        <ele>1876.0</ele>
        <time>2013-06-04T18:26:40Z</time>
      </trkpt>
      <trkpt lat="41.076583" lon="-3.713633">
        <ele>1877.0</ele>
        <time>2013-06-04T18:26:41Z</time>
      </trkpt>
      <trkpt lat="41.076517" lon="-3.713667">
        <ele>1878.0</ele>
        <time>2013-06-04T18:26:42Z</time>
      </trkpt>
      <trkpt lat="41.076450" lon="-3.713700">
        <ele>1878.0</ele>
        <time>2013-06-04T18:26:43Z</time>
      </trkpt>
      <trkpt lat="41.076383" lon="-3.713733">
        <ele>1878.0</ele>
        <time>2013-06-04T18:26:44Z</time>
      </trkpt>
      <trkpt lat="41.076317" lon="-3.713783">
        <ele>1878.0</ele>
        <time>2013-06-04T18:26:45Z</time>
      </trkpt>
      <trkpt lat="41.076250" lon="-3.713817">
        <ele>1878.0</ele>
        <time>2013-06-04T18:26:46Z</time>
      </trkpt>
      <trkpt lat="41.076167" lon="-3.713850">
        <ele>1878.0</ele>
        <time>2013-06-04T18:26:47Z</time>
      </trkpt>
      <trkpt lat="41.076100" lon="-3.713883">
        <ele>1879.0</ele>
        <time>2013-06-04T18:26:48Z</time>
      </trkpt>
      <trkpt lat="41.076033" lon="-3.713917">
        <ele>1879.0</ele>
        <time>2013-06-04T18:26:49Z</time>
      </trkpt>
      <trkpt lat="41.075967" lon="-3.713950">
        <ele>1880.0</ele>
        <time>2013-06-04T18:26:50Z</time>
      </trkpt>
      <trkpt lat="41.075900" lon="-3.714000">
        <ele>1879.0</ele>
        <time>2013-06-04T18:26:51Z</time>
      </trkpt>
      <trkpt lat="41.075850" lon="-3.714050">
        <ele>1879.0</ele>
        <time>2013-06-04T18:26:52Z</time>
      </trkpt>
      <trkpt lat="41.075817" lon="-3.714117">
        <ele>1879.0</ele>
        <time>2013-06-04T18:26:53Z</time>
      </trkpt>
      <trkpt lat="41.075783" lon="-3.714183">
        <ele>1880.0</ele>
        <time>2013-06-04T18:26:54Z</time>
      </trkpt>
      <trkpt lat="41.075750" lon="-3.714250">
        <ele>1880.0</ele>
        <time>2013-06-04T18:26:55Z</time>
      </trkpt>
      <trkpt lat="41.075733" lon="-3.714300">
        <ele>1881.0</ele>
        <time>2013-06-04T18:26:56Z</time>
      </trkpt>
      <trkpt lat="41.075700" lon="-3.714367">
        <ele>1882.0</ele>
        <time>2013-06-04T18:26:57Z</time>
      </trkpt>
      <trkpt lat="41.075683" lon="-3.714417">
        <ele>1881.0</ele>
        <time>2013-06-04T18:26:58Z</time>
      </trkpt>
      <trkpt lat="41.075667" lon="-3.714483">
        <ele>1881.0</ele>
        <time>2013-06-04T18:26:59Z</time>
      </trkpt>
      <trkpt lat="41.075650" lon="-3.714550">
        <ele>1881.0</ele>
        <time>2013-06-04T18:27:00Z</time>
      </trkpt>
      <trkpt lat="41.075633" lon="-3.714617">
        <ele>1882.0</ele>
        <time>2013-06-04T18:27:01Z</time>
      </trkpt>
      <trkpt lat="41.075600" lon="-3.714667">
        <ele>1883.0</ele>
        <time>2013-06-04T18:27:02Z</time>
      </trkpt>
      <trkpt lat="41.075583" lon="-3.714733">
        <ele>1883.0</ele>
        <time>2013-06-04T18:27:03Z</time>
      </trkpt>
      <trkpt lat="41.075567" lon="-3.714783">
        <ele>1883.0</ele>
        <time>2013-06-04T18:27:04Z</time>
      </trkpt>
      <trkpt lat="41.075533" lon="-3.714833">
        <ele>1883.0</ele>
        <time>2013-06-04T18:27:05Z</time>
      </trkpt>
      <trkpt lat="41.075500" lon="-3.714883">
        <ele>1883.0</ele>
        <time>2013-06-04T18:27:06Z</time>
      </trkpt>
      <trkpt lat="41.075450" lon="-3.714933">
        <ele>1883.0</ele>
        <time>2013-06-04T18:27:07Z</time>
      </trkpt>
      <trkpt lat="41.075400" lon="-3.714983">
        <ele>1883.0</ele>
        <time>2013-06-04T18:27:08Z</time>
      </trkpt>
      <trkpt lat="41.075350" lon="-3.715017">
        <ele>1883.0</ele>
        <time>2013-06-04T18:27:09Z</time>
      </trkpt>
      <trkpt lat="41.075300" lon="-3.715067">
        <ele>1883.0</ele>
        <time>2013-06-04T18:27:10Z</time>
      </trkpt>
      <trkpt lat="41.075233" lon="-3.715100">
        <ele>1883.0</ele>
        <time>2013-06-04T18:27:11Z</time>
      </trkpt>
      <trkpt lat="41.075183" lon="-3.715150">
        <ele>1882.0</ele>
        <time>2013-06-04T18:27:12Z</time>
      </trkpt>
      <trkpt lat="41.075133" lon="-3.715183">
        <ele>1882.0</ele>
        <time>2013-06-04T18:27:13Z</time>
      </trkpt>
      <trkpt lat="41.075067" lon="-3.715233">
        <ele>1881.0</ele>
        <time>2013-06-04T18:27:14Z</time>
      </trkpt>
      <trkpt lat="41.075017" lon="-3.715283">
        <ele>1881.0</ele>
        <time>2013-06-04T18:27:15Z</time>
      </trkpt>
      <trkpt lat="41.074950" lon="-3.715333">
        <ele>1881.0</ele>
        <time>2013-06-04T18:27:16Z</time>
      </trkpt>
      <trkpt lat="41.074900" lon="-3.715367">
        <ele>1882.0</ele>
        <time>2013-06-04T18:27:17Z</time>
      </trkpt>
      <trkpt lat="41.074833" lon="-3.715417">
        <ele>1882.0</ele>
        <time>2013-06-04T18:27:18Z</time>
      </trkpt>
      <trkpt lat="41.074783" lon="-3.715450">
        <ele>1882.0</ele>
        <time>2013-06-04T18:27:19Z</time>
      </trkpt>
      <trkpt lat="41.074733" lon="-3.715500">
        <ele>1882.0</ele>
        <time>2013-06-04T18:27:20Z</time>
      </trkpt>
      <trkpt lat="41.074683" lon="-3.715550">
        <ele>1882.0</ele>
        <time>2013-06-04T18:27:21Z</time>
      </trkpt>
      <trkpt lat="41.074633" lon="-3.715600">
        <ele>1882.0</ele>
        <time>2013-06-04T18:27:22Z</time>
      </trkpt>
      <trkpt lat="41.074583" lon="-3.715650">
        <ele>1882.0</ele>
        <time>2013-06-04T18:27:23Z</time>
      </trkpt>
      <trkpt lat="41.074550" lon="-3.715700">
        <ele>1882.0</ele>
        <time>2013-06-04T18:27:24Z</time>
      </trkpt>
      <trkpt lat="41.074500" lon="-3.715733">
        <ele>1882.0</ele>
        <time>2013-06-04T18:27:25Z</time>
      </trkpt>
      <trkpt lat="41.074467" lon="-3.715783">
        <ele>1882.0</ele>
        <time>2013-06-04T18:27:26Z</time>
      </trkpt>
      <trkpt lat="41.074433" lon="-3.715833">
        <ele>1881.0</ele>
        <time>2013-06-04T18:27:27Z</time>
      </trkpt>
      <trkpt lat="41.074400" lon="-3.715900">
        <ele>1881.0</ele>
        <time>2013-06-04T18:27:28Z</time>
      </trkpt>
      <trkpt lat="41.074367" lon="-3.715950">
        <ele>1881.0</ele>
        <time>2013-06-04T18:27:29Z</time>
      </trkpt>
      <trkpt lat="41.074333" lon="-3.716000">
        <ele>1880.0</ele>
        <time>2013-06-04T18:27:30Z</time>
      </trkpt>
      <trkpt lat="41.074317" lon="-3.716067">
        <ele>1880.0</ele>
        <time>2013-06-04T18:27:31Z</time>
      </trkpt>
      <trkpt lat="41.074300" lon="-3.716117">
        <ele>1880.0</ele>
        <time>2013-06-04T18:27:32Z</time>
      </trkpt>
      <trkpt lat="41.074267" lon="-3.716183">
        <ele>1881.0</ele>
        <time>2013-06-04T18:27:33Z</time>
      </trkpt>
      <trkpt lat="41.074250" lon="-3.716233">
        <ele>1881.0</ele>
        <time>2013-06-04T18:27:34Z</time>
      </trkpt>
      <trkpt lat="41.074233" lon="-3.716300">
        <ele>1881.0</ele>
        <time>2013-06-04T18:27:35Z</time>
      </trkpt>
      <trkpt lat="41.074217" lon="-3.716350">
        <ele>1881.0</ele>
        <time>2013-06-04T18:27:36Z</time>
      </trkpt>
      <trkpt lat="41.074200" lon="-3.716400">
        <ele>1881.0</ele>
        <time>2013-06-04T18:27:37Z</time>
      </trkpt>
      <trkpt lat="41.074167" lon="-3.716467">
        <ele>1880.0</ele>
        <time>2013-06-04T18:27:38Z</time>
      </trkpt>
      <trkpt lat="41.074150" lon="-3.716533">
        <ele>1880.0</ele>
        <time>2013-06-04T18:27:39Z</time>
      </trkpt>
      <trkpt lat="41.074117" lon="-3.716583">
        <ele>1880.0</ele>
        <time>2013-06-04T18:27:40Z</time>
      </trkpt>
      <trkpt lat="41.074083" lon="-3.716650">
        <ele>1880.0</ele>
        <time>2013-06-04T18:27:41Z</time>
      </trkpt>
      <trkpt lat="41.074050" lon="-3.716717">
        <ele>1880.0</ele>
        <time>2013-06-04T18:27:42Z</time>
      </trkpt>
      <trkpt lat="41.074017" lon="-3.716767">
        <ele>1880.0</ele>
        <time>2013-06-04T18:27:43Z</time>
      </trkpt>
      <trkpt lat="41.073983" lon="-3.716833">
        <ele>1880.0</ele>
        <time>2013-06-04T18:27:44Z</time>
      </trkpt>
      <trkpt lat="41.073950" lon="-3.716883">
        <ele>1880.0</ele>
        <time>2013-06-04T18:27:45Z</time>
      </trkpt>
      <trkpt lat="41.073917" lon="-3.716933">
        <ele>1879.0</ele>
        <time>2013-06-04T18:27:46Z</time>
      </trkpt>
      <trkpt lat="41.073883" lon="-3.716983">
        <ele>1879.0</ele>
        <time>2013-06-04T18:27:47Z</time>
      </trkpt>
      <trkpt lat="41.073833" lon="-3.717033">
        <ele>1879.0</ele>
        <time>2013-06-04T18:27:48Z</time>
      </trkpt>
      <trkpt lat="41.073800" lon="-3.717083">
        <ele>1879.0</ele>
        <time>2013-06-04T18:27:49Z</time>
      </trkpt>
      <trkpt lat="41.073767" lon="-3.717133">
        <ele>1880.0</ele>
        <time>2013-06-04T18:27:50Z</time>
      </trkpt>
      <trkpt lat="41.073717" lon="-3.717167">
        <ele>1881.0</ele>
        <time>2013-06-04T18:27:51Z</time>
      </trkpt>
      <trkpt lat="41.073683" lon="-3.717217">
        <ele>1881.0</ele>
        <time>2013-06-04T18:27:52Z</time>
      </trkpt>
      <trkpt lat="41.073633" lon="-3.717267">
        <ele>1880.0</ele>
        <time>2013-06-04T18:27:53Z</time>
      </trkpt>
      <trkpt lat="41.073600" lon="-3.717317">
        <ele>1880.0</ele>
        <time>2013-06-04T18:27:54Z</time>
      </trkpt>
      <trkpt lat="41.073567" lon="-3.717383">
        <ele>1880.0</ele>
        <time>2013-06-04T18:27:55Z</time>
      </trkpt>
      <trkpt lat="41.073533" lon="-3.717433">
        <ele>1881.0</ele>
        <time>2013-06-04T18:27:56Z</time>
      </trkpt>
      <trkpt lat="41.073500" lon="-3.717483">
        <ele>1881.0</ele>
        <time>2013-06-04T18:27:57Z</time>
      </trkpt>
      <trkpt lat="41.073450" lon="-3.717517">
        <ele>1881.0</ele>
        <time>2013-06-04T18:27:58Z</time>
      </trkpt>
      <trkpt lat="41.073400" lon="-3.717567">
        <ele>1881.0</ele>
        <time>2013-06-04T18:27:59Z</time>
      </trkpt>
      <trkpt lat="41.073367" lon="-3.717617">
        <ele>1880.0</ele>
        <time>2013-06-04T18:28:00Z</time>
      </trkpt>
      <trkpt lat="41.073317" lon="-3.717667">
        <ele>1880.0</ele>
        <time>2013-06-04T18:28:01Z</time>
      </trkpt>
      <trkpt lat="41.073267" lon="-3.717717">
        <ele>1880.0</ele>
        <time>2013-06-04T18:28:02Z</time>
      </trkpt>
      <trkpt lat="41.073217" lon="-3.717767">
        <ele>1881.0</ele>
        <time>2013-06-04T18:28:03Z</time>
      </trkpt>
      <trkpt lat="41.073167" lon="-3.717817">
        <ele>1881.0</ele>
        <time>2013-06-04T18:28:04Z</time>
      </trkpt>
      <trkpt lat="41.073117" lon="-3.717867">
        <ele>1881.0</ele>
        <time>2013-06-04T18:28:05Z</time>
      </trkpt>
      <trkpt lat="41.073067" lon="-3.717917">
        <ele>1881.0</ele>
        <time>2013-06-04T18:28:06Z</time>
      </trkpt>
      <trkpt lat="41.073017" lon="-3.717967">
        <ele>1881.0</ele>
        <time>2013-06-04T18:28:07Z</time>
      </trkpt>
      <trkpt lat="41.072983" lon="-3.718033">
        <ele>1881.0</ele>
        <time>2013-06-04T18:28:08Z</time>
      </trkpt>
      <trkpt lat="41.072933" lon="-3.718083">
        <ele>1882.0</ele>
        <time>2013-06-04T18:28:09Z</time>
      </trkpt>
      <trkpt lat="41.072900" lon="-3.718133">
        <ele>1882.0</ele>
        <time>2013-06-04T18:28:10Z</time>
      </trkpt>
      <trkpt lat="41.072850" lon="-3.718183">
        <ele>1882.0</ele>
        <time>2013-06-04T18:28:11Z</time>
      </trkpt>
      <trkpt lat="41.072817" lon="-3.718233">
        <ele>1882.0</ele>
        <time>2013-06-04T18:28:12Z</time>
      </trkpt>
      <trkpt lat="41.072767" lon="-3.718283">
        <ele>1882.0</ele>
        <time>2013-06-04T18:28:13Z</time>
      </trkpt>
      <trkpt lat="41.072733" lon="-3.718350">
        <ele>1882.0</ele>
        <time>2013-06-04T18:28:14Z</time>
      </trkpt>
      <trkpt lat="41.072700" lon="-3.718417">
        <ele>1883.0</ele>
        <time>2013-06-04T18:28:15Z</time>
      </trkpt>
      <trkpt lat="41.072667" lon="-3.718467">
        <ele>1883.0</ele>
        <time>2013-06-04T18:28:16Z</time>
      </trkpt>
      <trkpt lat="41.072633" lon="-3.718517">
        <ele>1883.0</ele>
        <time>2013-06-04T18:28:17Z</time>
      </trkpt>
      <trkpt lat="41.072583" lon="-3.718567">
        <ele>1883.0</ele>
        <time>2013-06-04T18:28:18Z</time>
      </trkpt>
      <trkpt lat="41.072533" lon="-3.718617">
        <ele>1882.0</ele>
        <time>2013-06-04T18:28:19Z</time>
      </trkpt>
      <trkpt lat="41.072483" lon="-3.718667">
        <ele>1881.0</ele>
        <time>2013-06-04T18:28:20Z</time>
      </trkpt>
      <trkpt lat="41.072417" lon="-3.718733">
        <ele>1881.0</ele>
        <time>2013-06-04T18:28:21Z</time>
      </trkpt>
      <trkpt lat="41.072367" lon="-3.718800">
        <ele>1881.0</ele>
        <time>2013-06-04T18:28:22Z</time>
      </trkpt>
      <trkpt lat="41.072300" lon="-3.718850">
        <ele>1882.0</ele>
        <time>2013-06-04T18:28:23Z</time>
      </trkpt>
      <trkpt lat="41.072250" lon="-3.718900">
        <ele>1883.0</ele>
        <time>2013-06-04T18:28:24Z</time>
      </trkpt>
      <trkpt lat="41.072183" lon="-3.718950">
        <ele>1884.0</ele>
        <time>2013-06-04T18:28:25Z</time>
      </trkpt>
      <trkpt lat="41.072133" lon="-3.718983">
        <ele>1884.0</ele>
        <time>2013-06-04T18:28:26Z</time>
      </trkpt>
      <trkpt lat="41.072083" lon="-3.719017">
        <ele>1885.0</ele>
        <time>2013-06-04T18:28:27Z</time>
      </trkpt>
      <trkpt lat="41.072050" lon="-3.719067">
        <ele>1884.0</ele>
        <time>2013-06-04T18:28:28Z</time>
      </trkpt>
      <trkpt lat="41.072000" lon="-3.719133">
        <ele>1884.0</ele>
        <time>2013-06-04T18:28:29Z</time>
      </trkpt>
      <trkpt lat="41.071950" lon="-3.719200">
        <ele>1885.0</ele>
        <time>2013-06-04T18:28:30Z</time>
      </trkpt>
      <trkpt lat="41.071917" lon="-3.719250">
        <ele>1887.0</ele>
        <time>2013-06-04T18:28:31Z</time>
      </trkpt>
      <trkpt lat="41.071883" lon="-3.719283">
        <ele>1889.0</ele>
        <time>2013-06-04T18:28:32Z</time>
      </trkpt>
      <trkpt lat="41.071833" lon="-3.719300">
        <ele>1890.0</ele>
        <time>2013-06-04T18:28:33Z</time>
      </trkpt>
      <trkpt lat="41.071817" lon="-3.719333">
        <ele>1890.0</ele>
        <time>2013-06-04T18:28:34Z</time>
      </trkpt>
      <trkpt lat="41.071783" lon="-3.719367">
        <ele>1889.0</ele>
        <time>2013-06-04T18:28:35Z</time>
      </trkpt>
      <trkpt lat="41.071733" lon="-3.719433">
        <ele>1887.0</ele>
        <time>2013-06-04T18:28:36Z</time>
      </trkpt>
      <trkpt lat="41.071700" lon="-3.719500">
        <ele>1886.0</ele>
        <time>2013-06-04T18:28:37Z</time>
      </trkpt>
      <trkpt lat="41.071650" lon="-3.719550">
        <ele>1886.0</ele>
        <time>2013-06-04T18:28:38Z</time>
      </trkpt>
      <trkpt lat="41.071600" lon="-3.719600">
        <ele>1887.0</ele>
        <time>2013-06-04T18:28:39Z</time>
      </trkpt>
      <trkpt lat="41.071533" lon="-3.719617">
        <ele>1887.0</ele>
        <time>2013-06-04T18:28:40Z</time>
      </trkpt>
      <trkpt lat="41.071467" lon="-3.719633">
        <ele>1887.0</ele>
        <time>2013-06-04T18:28:41Z</time>
      </trkpt>
      <trkpt lat="41.071400" lon="-3.719650">
        <ele>1887.0</ele>
        <time>2013-06-04T18:28:42Z</time>
      </trkpt>
      <trkpt lat="41.071333" lon="-3.719683">
        <ele>1886.0</ele>
        <time>2013-06-04T18:28:43Z</time>
      </trkpt>
      <trkpt lat="41.071267" lon="-3.719733">
        <ele>1885.0</ele>
        <time>2013-06-04T18:28:44Z</time>
      </trkpt>
      <trkpt lat="41.071200" lon="-3.719783">
        <ele>1885.0</ele>
        <time>2013-06-04T18:28:45Z</time>
      </trkpt>
      <trkpt lat="41.071133" lon="-3.719833">
        <ele>1887.0</ele>
        <time>2013-06-04T18:28:46Z</time>
      </trkpt>
      <trkpt lat="41.071083" lon="-3.719883">
        <ele>1888.0</ele>
        <time>2013-06-04T18:28:47Z</time>
      </trkpt>
      <trkpt lat="41.071033" lon="-3.719933">
        <ele>1890.0</ele>
        <time>2013-06-04T18:28:48Z</time>
      </trkpt>
      <trkpt lat="41.071017" lon="-3.719983">
        <ele>1891.0</ele>
        <time>2013-06-04T18:28:49Z</time>
      </trkpt>
      <trkpt lat="41.071000" lon="-3.720050">
        <ele>1891.0</ele>
        <time>2013-06-04T18:28:50Z</time>
      </trkpt>
      <trkpt lat="41.071017" lon="-3.720100">
        <ele>1891.0</ele>
        <time>2013-06-04T18:28:51Z</time>
      </trkpt>
      <trkpt lat="41.071017" lon="-3.720150">
        <ele>1891.0</ele>
        <time>2013-06-04T18:28:52Z</time>
      </trkpt>
      <trkpt lat="41.071050" lon="-3.720200">
        <ele>1891.0</ele>
        <time>2013-06-04T18:28:53Z</time>
      </trkpt>
      <trkpt lat="41.071083" lon="-3.720233">
        <ele>1890.0</ele>
        <time>2013-06-04T18:28:54Z</time>
      </trkpt>
      <trkpt lat="41.071117" lon="-3.720267">
        <ele>1890.0</ele>
        <time>2013-06-04T18:28:55Z</time>
      </trkpt>
      <trkpt lat="41.071167" lon="-3.720300">
        <ele>1890.0</ele>
        <time>2013-06-04T18:28:56Z</time>
      </trkpt>
      <trkpt lat="41.071217" lon="-3.720333">
        <ele>1890.0</ele>
        <time>2013-06-04T18:28:57Z</time>
      </trkpt>
      <trkpt lat="41.071283" lon="-3.720350">
        <ele>1890.0</ele>
        <time>2013-06-04T18:28:58Z</time>
      </trkpt>
      <trkpt lat="41.071350" lon="-3.720367">
        <ele>1890.0</ele>
        <time>2013-06-04T18:28:59Z</time>
      </trkpt>
      <trkpt lat="41.071417" lon="-3.720383">
        <ele>1890.0</ele>
        <time>2013-06-04T18:29:00Z</time>
      </trkpt>
      <trkpt lat="41.071483" lon="-3.720367">
        <ele>1891.0</ele>
        <time>2013-06-04T18:29:01Z</time>
      </trkpt>
      <trkpt lat="41.071550" lon="-3.720333">
        <ele>1891.0</ele>
        <time>2013-06-04T18:29:02Z</time>
      </trkpt>
      <trkpt lat="41.071617" lon="-3.720317">
        <ele>1891.0</ele>
        <time>2013-06-04T18:29:03Z</time>
      </trkpt>
      <trkpt lat="41.071700" lon="-3.720283">
        <ele>1890.0</ele>
        <time>2013-06-04T18:29:04Z</time>
      </trkpt>
      <trkpt lat="41.071800" lon="-3.720267">
        <ele>1890.0</ele>
        <time>2013-06-04T18:29:05Z</time>
      </trkpt>
      <trkpt lat="41.071900" lon="-3.720233">
        <ele>1890.0</ele>
        <time>2013-06-04T18:29:06Z</time>
      </trkpt>
      <trkpt lat="41.071983" lon="-3.720183">
        <ele>1891.0</ele>
        <time>2013-06-04T18:29:07Z</time>
      </trkpt>
      <trkpt lat="41.072067" lon="-3.720150">
        <ele>1893.0</ele>
        <time>2013-06-04T18:29:08Z</time>
      </trkpt>
      <trkpt lat="41.072133" lon="-3.720100">
        <ele>1894.0</ele>
        <time>2013-06-04T18:29:09Z</time>
      </trkpt>
      <trkpt lat="41.072200" lon="-3.720033">
        <ele>1894.0</ele>
        <time>2013-06-04T18:29:10Z</time>
      </trkpt>
      <trkpt lat="41.072267" lon="-3.719967">
        <ele>1893.0</ele>
        <time>2013-06-04T18:29:11Z</time>
      </trkpt>
      <trkpt lat="41.072350" lon="-3.719883">
        <ele>1891.0</ele>
        <time>2013-06-04T18:29:12Z</time>
      </trkpt>
      <trkpt lat="41.072450" lon="-3.719817">
        <ele>1891.0</ele>
        <time>2013-06-04T18:29:13Z</time>
      </trkpt>
      <trkpt lat="41.072533" lon="-3.719733">
        <ele>1891.0</ele>
        <time>2013-06-04T18:29:14Z</time>
      </trkpt>
      <trkpt lat="41.072617" lon="-3.719667">
        <ele>1893.0</ele>
        <time>2013-06-04T18:29:15Z</time>
      </trkpt>
      <trkpt lat="41.072700" lon="-3.719600">
        <ele>1894.0</ele>
        <time>2013-06-04T18:29:16Z</time>
      </trkpt>
      <trkpt lat="41.072783" lon="-3.719517">
        <ele>1894.0</ele>
        <time>2013-06-04T18:29:17Z</time>
      </trkpt>
      <trkpt lat="41.072850" lon="-3.719433">
        <ele>1893.0</ele>
        <time>2013-06-04T18:29:18Z</time>
      </trkpt>
      <trkpt lat="41.072933" lon="-3.719350">
        <ele>1892.0</ele>
        <time>2013-06-04T18:29:19Z</time>
      </trkpt>
      <trkpt lat="41.073017" lon="-3.719267">
        <ele>1892.0</ele>
        <time>2013-06-04T18:29:20Z</time>
      </trkpt>
      <trkpt lat="41.073100" lon="-3.719183">
        <ele>1892.0</ele>
        <time>2013-06-04T18:29:21Z</time>
      </trkpt>
      <trkpt lat="41.073167" lon="-3.719083">
        <ele>1893.0</ele>
        <time>2013-06-04T18:29:22Z</time>
      </trkpt>
      <trkpt lat="41.073233" lon="-3.719000">
        <ele>1893.0</ele>
        <time>2013-06-04T18:29:23Z</time>
      </trkpt>
      <trkpt lat="41.073300" lon="-3.718900">
        <ele>1893.0</ele>
        <time>2013-06-04T18:29:24Z</time>
      </trkpt>
      <trkpt lat="41.073367" lon="-3.718817">
        <ele>1893.0</ele>
        <time>2013-06-04T18:29:25Z</time>
      </trkpt>
      <trkpt lat="41.073433" lon="-3.718717">
        <ele>1893.0</ele>
        <time>2013-06-04T18:29:26Z</time>
      </trkpt>
      <trkpt lat="41.073517" lon="-3.718633">
        <ele>1893.0</ele>
        <time>2013-06-04T18:29:27Z</time>
      </trkpt>
      <trkpt lat="41.073583" lon="-3.718550">
        <ele>1893.0</ele>
        <time>2013-06-04T18:29:28Z</time>
      </trkpt>
      <trkpt lat="41.073650" lon="-3.718467">
        <ele>1892.0</ele>
        <time>2013-06-04T18:29:29Z</time>
      </trkpt>
      <trkpt lat="41.073733" lon="-3.718400">
        <ele>1892.0</ele>
        <time>2013-06-04T18:29:30Z</time>
      </trkpt>
      <trkpt lat="41.073817" lon="-3.718317">
        <ele>1891.0</ele>
        <time>2013-06-04T18:29:31Z</time>
      </trkpt>
      <trkpt lat="41.073900" lon="-3.718250">
        <ele>1890.0</ele>
        <time>2013-06-04T18:29:32Z</time>
      </trkpt>
      <trkpt lat="41.073983" lon="-3.718167">
        <ele>1890.0</ele>
        <time>2013-06-04T18:29:33Z</time>
      </trkpt>
      <trkpt lat="41.074050" lon="-3.718067">
        <ele>1891.0</ele>
        <time>2013-06-04T18:29:34Z</time>
      </trkpt>
      <trkpt lat="41.074117" lon="-3.717983">
        <ele>1891.0</ele>
        <time>2013-06-04T18:29:35Z</time>
      </trkpt>
      <trkpt lat="41.074183" lon="-3.717883">
        <ele>1892.0</ele>
        <time>2013-06-04T18:29:36Z</time>
      </trkpt>
      <trkpt lat="41.074250" lon="-3.717783">
        <ele>1891.0</ele>
        <time>2013-06-04T18:29:37Z</time>
      </trkpt>
      <trkpt lat="41.074317" lon="-3.717683">
        <ele>1890.0</ele>
        <time>2013-06-04T18:29:38Z</time>
      </trkpt>
      <trkpt lat="41.074400" lon="-3.717583">
        <ele>1889.0</ele>
        <time>2013-06-04T18:29:39Z</time>
      </trkpt>
      <trkpt lat="41.074483" lon="-3.717483">
        <ele>1889.0</ele>
        <time>2013-06-04T18:29:40Z</time>
      </trkpt>
      <trkpt lat="41.074550" lon="-3.717383">
        <ele>1890.0</ele>
        <time>2013-06-04T18:29:41Z</time>
      </trkpt>
      <trkpt lat="41.074617" lon="-3.717267">
        <ele>1891.0</ele>
        <time>2013-06-04T18:29:42Z</time>
      </trkpt>
      <trkpt lat="41.074683" lon="-3.717167">
        <ele>1892.0</ele>
        <time>2013-06-04T18:29:43Z</time>
      </trkpt>
      <trkpt lat="41.074750" lon="-3.717067">
        <ele>1892.0</ele>
        <time>2013-06-04T18:29:44Z</time>
      </trkpt>
      <trkpt lat="41.074817" lon="-3.716983">
        <ele>1891.0</ele>
        <time>2013-06-04T18:29:45Z</time>
      </trkpt>
      <trkpt lat="41.074883" lon="-3.716900">
        <ele>1891.0</ele>
        <time>2013-06-04T18:29:46Z</time>
      </trkpt>
      <trkpt lat="41.074950" lon="-3.716817">
        <ele>1891.0</ele>
        <time>2013-06-04T18:29:47Z</time>
      </trkpt>
      <trkpt lat="41.075017" lon="-3.716717">
        <ele>1891.0</ele>
        <time>2013-06-04T18:29:48Z</time>
      </trkpt>
      <trkpt lat="41.075067" lon="-3.716617">
        <ele>1891.0</ele>
        <time>2013-06-04T18:29:49Z</time>
      </trkpt>
      <trkpt lat="41.075133" lon="-3.716517">
        <ele>1892.0</ele>
        <time>2013-06-04T18:29:50Z</time>
      </trkpt>
      <trkpt lat="41.075183" lon="-3.716417">
        <ele>1891.0</ele>
        <time>2013-06-04T18:29:51Z</time>
      </trkpt>
      <trkpt lat="41.075250" lon="-3.716300">
        <ele>1891.0</ele>
        <time>2013-06-04T18:29:52Z</time>
      </trkpt>
      <trkpt lat="41.075317" lon="-3.716217">
        <ele>1890.0</ele>
        <time>2013-06-04T18:29:53Z</time>
      </trkpt>
      <trkpt lat="41.075383" lon="-3.716100">
        <ele>1891.0</ele>
        <time>2013-06-04T18:29:54Z</time>
      </trkpt>
      <trkpt lat="41.075450" lon="-3.716000">
        <ele>1891.0</ele>
        <time>2013-06-04T18:29:55Z</time>
      </trkpt>
      <trkpt lat="41.075517" lon="-3.715917">
        <ele>1892.0</ele>
        <time>2013-06-04T18:29:56Z</time>
      </trkpt>
      <trkpt lat="41.075567" lon="-3.715817">
        <ele>1891.0</ele>
        <time>2013-06-04T18:29:57Z</time>
      </trkpt>
      <trkpt lat="41.075617" lon="-3.715717">
        <ele>1891.0</ele>
        <time>2013-06-04T18:29:58Z</time>
      </trkpt>
      <trkpt lat="41.075683" lon="-3.715600">
        <ele>1890.0</ele>
        <time>2013-06-04T18:29:59Z</time>
      </trkpt>
      <trkpt lat="41.075750" lon="-3.715500">
        <ele>1889.0</ele>
        <time>2013-06-04T18:30:00Z</time>
      </trkpt>
      <trkpt lat="41.075817" lon="-3.715400">
        <ele>1889.0</ele>
        <time>2013-06-04T18:30:01Z</time>
      </trkpt>
      <trkpt lat="41.075883" lon="-3.715283">
        <ele>1889.0</ele>
        <time>2013-06-04T18:30:02Z</time>
      </trkpt>
      <trkpt lat="41.075933" lon="-3.715167">
        <ele>1889.0</ele>
        <time>2013-06-04T18:30:03Z</time>
      </trkpt>
      <trkpt lat="41.075983" lon="-3.715067">
        <ele>1888.0</ele>
        <time>2013-06-04T18:30:04Z</time>
      </trkpt>
      <trkpt lat="41.076050" lon="-3.714950">
        <ele>1888.0</ele>
        <time>2013-06-04T18:30:05Z</time>
      </trkpt>
      <trkpt lat="41.076100" lon="-3.714833">
        <ele>1887.0</ele>
        <time>2013-06-04T18:30:06Z</time>
      </trkpt>
      <trkpt lat="41.076167" lon="-3.714717">
        <ele>1887.0</ele>
        <time>2013-06-04T18:30:07Z</time>
      </trkpt>
      <trkpt lat="41.076217" lon="-3.714583">
        <ele>1887.0</ele>
        <time>2013-06-04T18:30:08Z</time>
      </trkpt>
      <trkpt lat="41.076267" lon="-3.714467">
        <ele>1887.0</ele>
        <time>2013-06-04T18:30:09Z</time>
      </trkpt>
      <trkpt lat="41.076317" lon="-3.714350">
        <ele>1887.0</ele>
        <time>2013-06-04T18:30:10Z</time>
      </trkpt>
      <trkpt lat="41.076367" lon="-3.714233">
        <ele>1887.0</ele>
        <time>2013-06-04T18:30:11Z</time>
      </trkpt>
      <trkpt lat="41.076433" lon="-3.714133">
        <ele>1887.0</ele>
        <time>2013-06-04T18:30:12Z</time>
      </trkpt>
      <trkpt lat="41.076500" lon="-3.714067">
        <ele>1886.0</ele>
        <time>2013-06-04T18:30:13Z</time>
      </trkpt>
      <trkpt lat="41.076583" lon="-3.714033">
        <ele>1885.0</ele>
        <time>2013-06-04T18:30:14Z</time>
      </trkpt>
      <trkpt lat="41.076650" lon="-3.714033">
        <ele>1884.0</ele>
        <time>2013-06-04T18:30:15Z</time>
      </trkpt>
      <trkpt lat="41.076700" lon="-3.714050">
        <ele>1884.0</ele>
        <time>2013-06-04T18:30:16Z</time>
      </trkpt>
      <trkpt lat="41.076733" lon="-3.714083">
        <ele>1884.0</ele>
        <time>2013-06-04T18:30:17Z</time>
      </trkpt>
      <trkpt lat="41.076750" lon="-3.714133">
        <ele>1884.0</ele>
        <time>2013-06-04T18:30:18Z</time>
      </trkpt>
      <trkpt lat="41.076733" lon="-3.714183">
        <ele>1883.0</ele>
        <time>2013-06-04T18:30:19Z</time>
      </trkpt>
      <trkpt lat="41.076717" lon="-3.714233">
        <ele>1882.0</ele>
        <time>2013-06-04T18:30:20Z</time>
      </trkpt>
      <trkpt lat="41.076700" lon="-3.714300">
        <ele>1881.0</ele>
        <time>2013-06-04T18:30:21Z</time>
      </trkpt>
      <trkpt lat="41.076650" lon="-3.714367">
        <ele>1880.0</ele>
        <time>2013-06-04T18:30:22Z</time>
      </trkpt>
      <trkpt lat="41.076617" lon="-3.714417">
        <ele>1880.0</ele>
        <time>2013-06-04T18:30:23Z</time>
      </trkpt>
      <trkpt lat="41.076567" lon="-3.714467">
        <ele>1881.0</ele>
        <time>2013-06-04T18:30:24Z</time>
      </trkpt>
      <trkpt lat="41.076533" lon="-3.714517">
        <ele>1881.0</ele>
        <time>2013-06-04T18:30:25Z</time>
      </trkpt>
      <trkpt lat="41.076483" lon="-3.714550">
        <ele>1881.0</ele>
        <time>2013-06-04T18:30:26Z</time>
      </trkpt>
      <trkpt lat="41.076433" lon="-3.714600">
        <ele>1881.0</ele>
        <time>2013-06-04T18:30:27Z</time>
      </trkpt>
      <trkpt lat="41.076367" lon="-3.714650">
        <ele>1880.0</ele>
        <time>2013-06-04T18:30:28Z</time>
      </trkpt>
      <trkpt lat="41.076317" lon="-3.714683">
        <ele>1880.0</ele>
        <time>2013-06-04T18:30:29Z</time>
      </trkpt>
      <trkpt lat="41.076267" lon="-3.714733">
        <ele>1881.0</ele>
        <time>2013-06-04T18:30:30Z</time>
      </trkpt>
      <trkpt lat="41.076200" lon="-3.714783">
        <ele>1880.0</ele>
        <time>2013-06-04T18:30:31Z</time>
      </trkpt>
      <trkpt lat="41.076150" lon="-3.714817">
        <ele>1880.0</ele>
        <time>2013-06-04T18:30:32Z</time>
      </trkpt>
      <trkpt lat="41.076100" lon="-3.714867">
        <ele>1879.0</ele>
        <time>2013-06-04T18:30:33Z</time>
      </trkpt>
      <trkpt lat="41.076050" lon="-3.714933">
        <ele>1879.0</ele>
        <time>2013-06-04T18:30:34Z</time>
      </trkpt>
      <trkpt lat="41.075983" lon="-3.714983">
        <ele>1879.0</ele>
        <time>2013-06-04T18:30:35Z</time>
      </trkpt>
      <trkpt lat="41.075933" lon="-3.715033">
        <ele>1879.0</ele>
        <time>2013-06-04T18:30:36Z</time>
      </trkpt>
      <trkpt lat="41.075900" lon="-3.715100">
        <ele>1879.0</ele>
        <time>2013-06-04T18:30:37Z</time>
      </trkpt>
      <trkpt lat="41.075850" lon="-3.715150">
        <ele>1879.0</ele>
        <time>2013-06-04T18:30:38Z</time>
      </trkpt>
      <trkpt lat="41.075800" lon="-3.715200">
        <ele>1878.0</ele>
        <time>2013-06-04T18:30:39Z</time>
      </trkpt>
      <trkpt lat="41.075767" lon="-3.715267">
        <ele>1878.0</ele>
        <time>2013-06-04T18:30:40Z</time>
      </trkpt>
      <trkpt lat="41.075717" lon="-3.715317">
        <ele>1878.0</ele>
        <time>2013-06-04T18:30:41Z</time>
      </trkpt>
      <trkpt lat="41.075667" lon="-3.715367">
        <ele>1878.0</ele>
        <time>2013-06-04T18:30:42Z</time>
      </trkpt>
      <trkpt lat="41.075617" lon="-3.715417">
        <ele>1879.0</ele>
        <time>2013-06-04T18:30:43Z</time>
      </trkpt>
      <trkpt lat="41.075567" lon="-3.715467">
        <ele>1879.0</ele>
        <time>2013-06-04T18:30:44Z</time>
      </trkpt>
      <trkpt lat="41.075533" lon="-3.715500">
        <ele>1879.0</ele>
        <time>2013-06-04T18:30:45Z</time>
      </trkpt>
      <trkpt lat="41.075483" lon="-3.715550">
        <ele>1878.0</ele>
        <time>2013-06-04T18:30:46Z</time>
      </trkpt>
      <trkpt lat="41.075433" lon="-3.715600">
        <ele>1878.0</ele>
        <time>2013-06-04T18:30:47Z</time>
      </trkpt>
      <trkpt lat="41.075383" lon="-3.715650">
        <ele>1878.0</ele>
        <time>2013-06-04T18:30:48Z</time>
      </trkpt>
      <trkpt lat="41.075333" lon="-3.715700">
        <ele>1878.0</ele>
        <time>2013-06-04T18:30:49Z</time>
      </trkpt>
      <trkpt lat="41.075283" lon="-3.715733">
        <ele>1878.0</ele>
        <time>2013-06-04T18:30:50Z</time>
      </trkpt>
      <trkpt lat="41.075233" lon="-3.715783">
        <ele>1878.0</ele>
        <time>2013-06-04T18:30:51Z</time>
      </trkpt>
      <trkpt lat="41.075167" lon="-3.715833">
        <ele>1878.0</ele>
        <time>2013-06-04T18:30:52Z</time>
      </trkpt>
      <trkpt lat="41.075117" lon="-3.715883">
        <ele>1879.0</ele>
        <time>2013-06-04T18:30:53Z</time>
      </trkpt>
      <trkpt lat="41.075050" lon="-3.715933">
        <ele>1879.0</ele>
        <time>2013-06-04T18:30:54Z</time>
      </trkpt>
      <trkpt lat="41.075000" lon="-3.715967">
        <ele>1878.0</ele>
        <time>2013-06-04T18:30:55Z</time>
      </trkpt>
      <trkpt lat="41.074950" lon="-3.716017">
        <ele>1878.0</ele>
        <time>2013-06-04T18:30:56Z</time>
      </trkpt>
      <trkpt lat="41.074900" lon="-3.716083">
        <ele>1878.0</ele>
        <time>2013-06-04T18:30:57Z</time>
      </trkpt>
      <trkpt lat="41.074850" lon="-3.716133">
        <ele>1878.0</ele>
        <time>2013-06-04T18:30:58Z</time>
      </trkpt>
      <trkpt lat="41.074800" lon="-3.716183">
        <ele>1878.0</ele>
        <time>2013-06-04T18:30:59Z</time>
      </trkpt>
      <trkpt lat="41.074750" lon="-3.716233">
        <ele>1878.0</ele>
        <time>2013-06-04T18:31:00Z</time>
      </trkpt>
      <trkpt lat="41.074700" lon="-3.716283">
        <ele>1878.0</ele>
        <time>2013-06-04T18:31:01Z</time>
      </trkpt>
      <trkpt lat="41.074650" lon="-3.716333">
        <ele>1877.0</ele>
        <time>2013-06-04T18:31:02Z</time>
      </trkpt>
      <trkpt lat="41.074600" lon="-3.716383">
        <ele>1877.0</ele>
        <time>2013-06-04T18:31:03Z</time>
      </trkpt>
      <trkpt lat="41.074550" lon="-3.716433">
        <ele>1876.0</ele>
        <time>2013-06-04T18:31:04Z</time>
      </trkpt>
      <trkpt lat="41.074500" lon="-3.716500">
        <ele>1876.0</ele>
        <time>2013-06-04T18:31:05Z</time>
      </trkpt>
      <trkpt lat="41.074433" lon="-3.716550">
        <ele>1876.0</ele>
        <time>2013-06-04T18:31:06Z</time>
      </trkpt>
      <trkpt lat="41.074383" lon="-3.716600">
        <ele>1876.0</ele>
        <time>2013-06-04T18:31:07Z</time>
      </trkpt>
      <trkpt lat="41.074333" lon="-3.716650">
        <ele>1876.0</ele>
        <time>2013-06-04T18:31:08Z</time>
      </trkpt>
      <trkpt lat="41.074267" lon="-3.716700">
        <ele>1876.0</ele>
        <time>2013-06-04T18:31:09Z</time>
      </trkpt>
      <trkpt lat="41.074217" lon="-3.716750">
        <ele>1876.0</ele>
        <time>2013-06-04T18:31:10Z</time>
      </trkpt>
      <trkpt lat="41.074167" lon="-3.716800">
        <ele>1877.0</ele>
        <time>2013-06-04T18:31:11Z</time>
      </trkpt>
      <trkpt lat="41.074100" lon="-3.716833">
        <ele>1877.0</ele>
        <time>2013-06-04T18:31:12Z</time>
      </trkpt>
      <trkpt lat="41.074033" lon="-3.716883">
        <ele>1877.0</ele>
        <time>2013-06-04T18:31:13Z</time>
      </trkpt>
      <trkpt lat="41.073967" lon="-3.716917">
        <ele>1877.0</ele>
        <time>2013-06-04T18:31:14Z</time>
      </trkpt>
      <trkpt lat="41.073917" lon="-3.716967">
        <ele>1876.0</ele>
        <time>2013-06-04T18:31:15Z</time>
      </trkpt>
      <trkpt lat="41.073850" lon="-3.717000">
        <ele>1876.0</ele>
        <time>2013-06-04T18:31:16Z</time>
      </trkpt>
      <trkpt lat="41.073783" lon="-3.717050">
        <ele>1877.0</ele>
        <time>2013-06-04T18:31:17Z</time>
      </trkpt>
      <trkpt lat="41.073717" lon="-3.717067">
        <ele>1877.0</ele>
        <time>2013-06-04T18:31:18Z</time>
      </trkpt>
      <trkpt lat="41.073650" lon="-3.717100">
        <ele>1878.0</ele>
        <time>2013-06-04T18:31:19Z</time>
      </trkpt>
      <trkpt lat="41.073583" lon="-3.717133">
        <ele>1878.0</ele>
        <time>2013-06-04T18:31:20Z</time>
      </trkpt>
      <trkpt lat="41.073500" lon="-3.717150">
        <ele>1878.0</ele>
        <time>2013-06-04T18:31:21Z</time>
      </trkpt>
      <trkpt lat="41.073433" lon="-3.717183">
        <ele>1878.0</ele>
        <time>2013-06-04T18:31:22Z</time>
      </trkpt>
      <trkpt lat="41.073367" lon="-3.717217">
        <ele>1878.0</ele>
        <time>2013-06-04T18:31:23Z</time>
      </trkpt>
      <trkpt lat="41.073300" lon="-3.717250">
        <ele>1878.0</ele>
        <time>2013-06-04T18:31:24Z</time>
      </trkpt>
      <trkpt lat="41.073233" lon="-3.717283">
        <ele>1878.0</ele>
        <time>2013-06-04T18:31:25Z</time>
      </trkpt>
      <trkpt lat="41.073167" lon="-3.717317">
        <ele>1879.0</ele>
        <time>2013-06-04T18:31:26Z</time>
      </trkpt>
      <trkpt lat="41.073100" lon="-3.717367">
        <ele>1879.0</ele>
        <time>2013-06-04T18:31:27Z</time>
      </trkpt>
      <trkpt lat="41.073033" lon="-3.717400">
        <ele>1880.0</ele>
        <time>2013-06-04T18:31:28Z</time>
      </trkpt>
      <trkpt lat="41.072967" lon="-3.717450">
        <ele>1880.0</ele>
        <time>2013-06-04T18:31:29Z</time>
      </trkpt>
      <trkpt lat="41.072900" lon="-3.717483">
        <ele>1881.0</ele>
        <time>2013-06-04T18:31:30Z</time>
      </trkpt>
      <trkpt lat="41.072850" lon="-3.717517">
        <ele>1881.0</ele>
        <time>2013-06-04T18:31:31Z</time>
      </trkpt>
      <trkpt lat="41.072783" lon="-3.717567">
        <ele>1882.0</ele>
        <time>2013-06-04T18:31:32Z</time>
      </trkpt>
      <trkpt lat="41.072717" lon="-3.717617">
        <ele>1882.0</ele>
        <time>2013-06-04T18:31:33Z</time>
      </trkpt>
      <trkpt lat="41.072650" lon="-3.717667">
        <ele>1882.0</ele>
        <time>2013-06-04T18:31:34Z</time>
      </trkpt>
      <trkpt lat="41.072583" lon="-3.717717">
        <ele>1883.0</ele>
        <time>2013-06-04T18:31:35Z</time>
      </trkpt>
      <trkpt lat="41.072533" lon="-3.717767">
        <ele>1883.0</ele>
        <time>2013-06-04T18:31:36Z</time>
      </trkpt>
      <trkpt lat="41.072483" lon="-3.717817">
        <ele>1884.0</ele>
        <time>2013-06-04T18:31:37Z</time>
      </trkpt>
      <trkpt lat="41.072433" lon="-3.717867">
        <ele>1884.0</ele>
        <time>2013-06-04T18:31:38Z</time>
      </trkpt>
      <trkpt lat="41.072383" lon="-3.717917">
        <ele>1883.0</ele>
        <time>2013-06-04T18:31:39Z</time>
      </trkpt>
      <trkpt lat="41.072350" lon="-3.717967">
        <ele>1883.0</ele>
        <time>2013-06-04T18:31:40Z</time>
      </trkpt>
      <trkpt lat="41.072300" lon="-3.718033">
        <ele>1883.0</ele>
        <time>2013-06-04T18:31:41Z</time>
      </trkpt>
      <trkpt lat="41.072267" lon="-3.718083">
        <ele>1883.0</ele>
        <time>2013-06-04T18:31:42Z</time>
      </trkpt>
      <trkpt lat="41.072233" lon="-3.718133">
        <ele>1884.0</ele>
        <time>2013-06-04T18:31:43Z</time>
      </trkpt>
      <trkpt lat="41.072183" lon="-3.718167">
        <ele>1884.0</ele>
        <time>2013-06-04T18:31:44Z</time>
      </trkpt>
      <trkpt lat="41.072133" lon="-3.718200">
        <ele>1883.0</ele>
        <time>2013-06-04T18:31:45Z</time>
      </trkpt>
      <trkpt lat="41.072067" lon="-3.718233">
        <ele>1883.0</ele>
        <time>2013-06-04T18:31:46Z</time>
      </trkpt>
      <trkpt lat="41.072000" lon="-3.718267">
        <ele>1882.0</ele>
        <time>2013-06-04T18:31:47Z</time>
      </trkpt>
      <trkpt lat="41.071933" lon="-3.718317">
        <ele>1882.0</ele>
        <time>2013-06-04T18:31:48Z</time>
      </trkpt>
      <trkpt lat="41.071883" lon="-3.718350">
        <ele>1883.0</ele>
        <time>2013-06-04T18:31:49Z</time>
      </trkpt>
      <trkpt lat="41.071817" lon="-3.718400">
        <ele>1884.0</ele>
        <time>2013-06-04T18:31:50Z</time>
      </trkpt>
      <trkpt lat="41.071750" lon="-3.718433">
        <ele>1886.0</ele>
        <time>2013-06-04T18:31:51Z</time>
      </trkpt>
      <trkpt lat="41.071683" lon="-3.718450">
        <ele>1886.0</ele>
        <time>2013-06-04T18:31:52Z</time>
      </trkpt>
      <trkpt lat="41.071633" lon="-3.718483">
        <ele>1887.0</ele>
        <time>2013-06-04T18:31:53Z</time>
      </trkpt>
      <trkpt lat="41.071567" lon="-3.718517">
        <ele>1888.0</ele>
        <time>2013-06-04T18:31:54Z</time>
      </trkpt>
      <trkpt lat="41.071517" lon="-3.718567">
        <ele>1888.0</ele>
        <time>2013-06-04T18:31:55Z</time>
      </trkpt>
      <trkpt lat="41.071467" lon="-3.718617">
        <ele>1888.0</ele>
        <time>2013-06-04T18:31:56Z</time>
      </trkpt>
      <trkpt lat="41.071417" lon="-3.718683">
        <ele>1888.0</ele>
        <time>2013-06-04T18:31:57Z</time>
      </trkpt>
      <trkpt lat="41.071367" lon="-3.718750">
        <ele>1889.0</ele>
        <time>2013-06-04T18:31:58Z</time>
      </trkpt>
      <trkpt lat="41.071317" lon="-3.718800">
        <ele>1891.0</ele>
        <time>2013-06-04T18:31:59Z</time>
      </trkpt>
      <trkpt lat="41.071267" lon="-3.718867">
        <ele>1893.0</ele>
        <time>2013-06-04T18:32:00Z</time>
      </trkpt>
      <trkpt lat="41.071233" lon="-3.718917">
        <ele>1895.0</ele>
        <time>2013-06-04T18:32:01Z</time>
      </trkpt>
      <trkpt lat="41.071200" lon="-3.718950">
        <ele>1896.0</ele>
        <time>2013-06-04T18:32:02Z</time>
      </trkpt>
      <trkpt lat="41.071150" lon="-3.718983">
        <ele>1898.0</ele>
        <time>2013-06-04T18:32:03Z</time>
      </trkpt>
      <trkpt lat="41.071100" lon="-3.719017">
        <ele>1898.0</ele>
        <time>2013-06-04T18:32:04Z</time>
      </trkpt>
      <trkpt lat="41.071033" lon="-3.719050">
        <ele>1898.0</ele>
        <time>2013-06-04T18:32:05Z</time>
      </trkpt>
      <trkpt lat="41.070967" lon="-3.719100">
        <ele>1899.0</ele>
        <time>2013-06-04T18:32:06Z</time>
      </trkpt>
      <trkpt lat="41.070900" lon="-3.719133">
        <ele>1899.0</ele>
        <time>2013-06-04T18:32:07Z</time>
      </trkpt>
      <trkpt lat="41.070850" lon="-3.719200">
        <ele>1902.0</ele>
        <time>2013-06-04T18:32:08Z</time>
      </trkpt>
      <trkpt lat="41.070817" lon="-3.719250">
        <ele>1904.0</ele>
        <time>2013-06-04T18:32:09Z</time>
      </trkpt>
      <trkpt lat="41.070817" lon="-3.719283">
        <ele>1905.0</ele>
        <time>2013-06-04T18:32:10Z</time>
      </trkpt>
      <trkpt lat="41.070850" lon="-3.719333">
        <ele>1907.0</ele>
        <time>2013-06-04T18:32:11Z</time>
      </trkpt>
      <trkpt lat="41.070883" lon="-3.719350">
        <ele>1908.0</ele>
        <time>2013-06-04T18:32:12Z</time>
      </trkpt>
      <trkpt lat="41.070933" lon="-3.719367">
        <ele>1909.0</ele>
        <time>2013-06-04T18:32:13Z</time>
      </trkpt>
      <trkpt lat="41.070983" lon="-3.719367">
        <ele>1911.0</ele>
        <time>2013-06-04T18:32:14Z</time>
      </trkpt>
      <trkpt lat="41.071050" lon="-3.719333">
        <ele>1912.0</ele>
        <time>2013-06-04T18:32:15Z</time>
      </trkpt>
      <trkpt lat="41.071100" lon="-3.719300">
        <ele>1913.0</ele>
        <time>2013-06-04T18:32:16Z</time>
      </trkpt>
      <trkpt lat="41.071167" lon="-3.719233">
        <ele>1913.0</ele>
        <time>2013-06-04T18:32:17Z</time>
      </trkpt>
      <trkpt lat="41.071217" lon="-3.719150">
        <ele>1912.0</ele>
        <time>2013-06-04T18:32:18Z</time>
      </trkpt>
      <trkpt lat="41.071283" lon="-3.719100">
        <ele>1912.0</ele>
        <time>2013-06-04T18:32:19Z</time>
      </trkpt>
      <trkpt lat="41.071350" lon="-3.719067">
        <ele>1911.0</ele>
        <time>2013-06-04T18:32:20Z</time>
      </trkpt>
      <trkpt lat="41.071400" lon="-3.719083">
        <ele>1911.0</ele>
        <time>2013-06-04T18:32:21Z</time>
      </trkpt>
      <trkpt lat="41.071433" lon="-3.719133">
        <ele>1911.0</ele>
        <time>2013-06-04T18:32:22Z</time>
      </trkpt>
      <trkpt lat="41.071433" lon="-3.719167">
        <ele>1911.0</ele>
        <time>2013-06-04T18:32:23Z</time>
      </trkpt>
      <trkpt lat="41.071417" lon="-3.719217">
        <ele>1911.0</ele>
        <time>2013-06-04T18:32:24Z</time>
      </trkpt>
      <trkpt lat="41.071383" lon="-3.719267">
        <ele>1910.0</ele>
        <time>2013-06-04T18:32:25Z</time>
      </trkpt>
      <trkpt lat="41.071333" lon="-3.719333">
        <ele>1910.0</ele>
        <time>2013-06-04T18:32:26Z</time>
      </trkpt>
      <trkpt lat="41.071283" lon="-3.719383">
        <ele>1911.0</ele>
        <time>2013-06-04T18:32:27Z</time>
      </trkpt>
      <trkpt lat="41.071200" lon="-3.719433">
        <ele>1913.0</ele>
        <time>2013-06-04T18:32:28Z</time>
      </trkpt>
      <trkpt lat="41.071133" lon="-3.719483">
        <ele>1914.0</ele>
        <time>2013-06-04T18:32:29Z</time>
      </trkpt>
      <trkpt lat="41.071083" lon="-3.719517">
        <ele>1916.0</ele>
        <time>2013-06-04T18:32:30Z</time>
      </trkpt>
      <trkpt lat="41.071017" lon="-3.719567">
        <ele>1917.0</ele>
        <time>2013-06-04T18:32:31Z</time>
      </trkpt>
      <trkpt lat="41.070950" lon="-3.719617">
        <ele>1918.0</ele>
        <time>2013-06-04T18:32:32Z</time>
      </trkpt>
      <trkpt lat="41.070883" lon="-3.719650">
        <ele>1919.0</ele>
        <time>2013-06-04T18:32:33Z</time>
      </trkpt>
      <trkpt lat="41.070817" lon="-3.719683">
        <ele>1919.0</ele>
        <time>2013-06-04T18:32:34Z</time>
      </trkpt>
      <trkpt lat="41.070733" lon="-3.719700">
        <ele>1920.0</ele>
        <time>2013-06-04T18:32:35Z</time>
      </trkpt>
      <trkpt lat="41.070650" lon="-3.719733">
        <ele>1920.0</ele>
        <time>2013-06-04T18:32:36Z</time>
      </trkpt>
      <trkpt lat="41.070567" lon="-3.719750">
        <ele>1920.0</ele>
        <time>2013-06-04T18:32:37Z</time>
      </trkpt>
      <trkpt lat="41.070500" lon="-3.719767">
        <ele>1921.0</ele>
        <time>2013-06-04T18:32:38Z</time>
      </trkpt>
      <trkpt lat="41.070417" lon="-3.719783">
        <ele>1922.0</ele>
        <time>2013-06-04T18:32:39Z</time>
      </trkpt>
      <trkpt lat="41.070350" lon="-3.719800">
        <ele>1923.0</ele>
        <time>2013-06-04T18:32:40Z</time>
      </trkpt>
      <trkpt lat="41.070283" lon="-3.719817">
        <ele>1923.0</ele>
        <time>2013-06-04T18:32:41Z</time>
      </trkpt>
      <trkpt lat="41.070217" lon="-3.719850">
        <ele>1922.0</ele>
        <time>2013-06-04T18:32:42Z</time>
      </trkpt>
      <trkpt lat="41.070150" lon="-3.719883">
        <ele>1921.0</ele>
        <time>2013-06-04T18:32:43Z</time>
      </trkpt>
      <trkpt lat="41.070083" lon="-3.719933">
        <ele>1921.0</ele>
        <time>2013-06-04T18:32:44Z</time>
      </trkpt>
      <trkpt lat="41.070033" lon="-3.719983">
        <ele>1922.0</ele>
        <time>2013-06-04T18:32:45Z</time>
      </trkpt>
      <trkpt lat="41.070033" lon="-3.720033">
        <ele>1922.0</ele>
        <time>2013-06-04T18:32:46Z</time>
      </trkpt>
      <trkpt lat="41.070067" lon="-3.720067">
        <ele>1921.0</ele>
        <time>2013-06-04T18:32:47Z</time>
      </trkpt>
      <trkpt lat="41.070133" lon="-3.720100">
        <ele>1921.0</ele>
        <time>2013-06-04T18:32:48Z</time>
      </trkpt>
      <trkpt lat="41.070200" lon="-3.720100">
        <ele>1922.0</ele>
        <time>2013-06-04T18:32:49Z</time>
      </trkpt>
      <trkpt lat="41.070250" lon="-3.720083">
        <ele>1923.0</ele>
        <time>2013-06-04T18:32:50Z</time>
      </trkpt>
      <trkpt lat="41.070300" lon="-3.720083">
        <ele>1925.0</ele>
        <time>2013-06-04T18:32:51Z</time>
      </trkpt>
      <trkpt lat="41.070350" lon="-3.720050">
        <ele>1925.0</ele>
        <time>2013-06-04T18:32:52Z</time>
      </trkpt>
      <trkpt lat="41.070417" lon="-3.720017">
        <ele>1924.0</ele>
        <time>2013-06-04T18:32:53Z</time>
      </trkpt>
      <trkpt lat="41.070500" lon="-3.719967">
        <ele>1923.0</ele>
        <time>2013-06-04T18:32:54Z</time>
      </trkpt>
      <trkpt lat="41.070583" lon="-3.719933">
        <ele>1923.0</ele>
        <time>2013-06-04T18:32:55Z</time>
      </trkpt>
      <trkpt lat="41.070667" lon="-3.719900">
        <ele>1925.0</ele>
        <time>2013-06-04T18:32:56Z</time>
      </trkpt>
      <trkpt lat="41.070733" lon="-3.719850">
        <ele>1927.0</ele>
        <time>2013-06-04T18:32:57Z</time>
      </trkpt>
      <trkpt lat="41.070800" lon="-3.719800">
        <ele>1928.0</ele>
        <time>2013-06-04T18:32:58Z</time>
      </trkpt>
      <trkpt lat="41.070867" lon="-3.719733">
        <ele>1929.0</ele>
        <time>2013-06-04T18:32:59Z</time>
      </trkpt>
      <trkpt lat="41.070933" lon="-3.719683">
        <ele>1929.0</ele>
        <time>2013-06-04T18:33:00Z</time>
      </trkpt>
      <trkpt lat="41.071000" lon="-3.719633">
        <ele>1929.0</ele>
        <time>2013-06-04T18:33:01Z</time>
      </trkpt>
      <trkpt lat="41.071067" lon="-3.719583">
        <ele>1929.0</ele>
        <time>2013-06-04T18:33:02Z</time>
      </trkpt>
      <trkpt lat="41.071133" lon="-3.719550">
        <ele>1930.0</ele>
        <time>2013-06-04T18:33:03Z</time>
      </trkpt>
      <trkpt lat="41.071200" lon="-3.719500">
        <ele>1930.0</ele>
        <time>2013-06-04T18:33:04Z</time>
      </trkpt>
      <trkpt lat="41.071267" lon="-3.719450">
        <ele>1930.0</ele>
        <time>2013-06-04T18:33:05Z</time>
      </trkpt>
      <trkpt lat="41.071317" lon="-3.719400">
        <ele>1930.0</ele>
        <time>2013-06-04T18:33:06Z</time>
      </trkpt>
      <trkpt lat="41.071383" lon="-3.719350">
        <ele>1930.0</ele>
        <time>2013-06-04T18:33:07Z</time>
      </trkpt>
      <trkpt lat="41.071450" lon="-3.719333">
        <ele>1930.0</ele>
        <time>2013-06-04T18:33:08Z</time>
      </trkpt>
      <trkpt lat="41.071517" lon="-3.719317">
        <ele>1930.0</ele>
        <time>2013-06-04T18:33:09Z</time>
      </trkpt>
      <trkpt lat="41.071550" lon="-3.719317">
        <ele>1930.0</ele>
        <time>2013-06-04T18:33:10Z</time>
      </trkpt>
      <trkpt lat="41.071583" lon="-3.719350">
        <ele>1930.0</ele>
        <time>2013-06-04T18:33:11Z</time>
      </trkpt>
      <trkpt lat="41.071583" lon="-3.719383">
        <ele>1929.0</ele>
        <time>2013-06-04T18:33:12Z</time>
      </trkpt>
      <trkpt lat="41.071567" lon="-3.719433">
        <ele>1929.0</ele>
        <time>2013-06-04T18:33:13Z</time>
      </trkpt>
      <trkpt lat="41.071550" lon="-3.719483">
        <ele>1928.0</ele>
        <time>2013-06-04T18:33:14Z</time>
      </trkpt>
      <trkpt lat="41.071500" lon="-3.719517">
        <ele>1928.0</ele>
        <time>2013-06-04T18:33:15Z</time>
      </trkpt>
      <trkpt lat="41.071433" lon="-3.719533">
        <ele>1928.0</ele>
        <time>2013-06-04T18:33:16Z</time>
      </trkpt>
      <trkpt lat="41.071350" lon="-3.719550">
        <ele>1927.0</ele>
        <time>2013-06-04T18:33:17Z</time>
      </trkpt>
      <trkpt lat="41.071283" lon="-3.719567">
        <ele>1927.0</ele>
        <time>2013-06-04T18:33:18Z</time>
      </trkpt>
      <trkpt lat="41.071200" lon="-3.719583">
        <ele>1927.0</ele>
        <time>2013-06-04T18:33:19Z</time>
      </trkpt>
      <trkpt lat="41.071117" lon="-3.719600">
        <ele>1927.0</ele>
        <time>2013-06-04T18:33:20Z</time>
      </trkpt>
      <trkpt lat="41.071033" lon="-3.719600">
        <ele>1927.0</ele>
        <time>2013-06-04T18:33:21Z</time>
      </trkpt>
      <trkpt lat="41.070950" lon="-3.719617">
        <ele>1927.0</ele>
        <time>2013-06-04T18:33:22Z</time>
      </trkpt>
      <trkpt lat="41.070867" lon="-3.719617">
        <ele>1927.0</ele>
        <time>2013-06-04T18:33:23Z</time>
      </trkpt>
      <trkpt lat="41.070767" lon="-3.719617">
        <ele>1928.0</ele>
        <time>2013-06-04T18:33:24Z</time>
      </trkpt>
      <trkpt lat="41.070683" lon="-3.719617">
        <ele>1928.0</ele>
        <time>2013-06-04T18:33:25Z</time>
      </trkpt>
      <trkpt lat="41.070600" lon="-3.719617">
        <ele>1928.0</ele>
        <time>2013-06-04T18:33:26Z</time>
      </trkpt>
      <trkpt lat="41.070500" lon="-3.719633">
        <ele>1928.0</ele>
        <time>2013-06-04T18:33:27Z</time>
      </trkpt>
      <trkpt lat="41.070417" lon="-3.719633">
        <ele>1928.0</ele>
        <time>2013-06-04T18:33:28Z</time>
      </trkpt>
      <trkpt lat="41.070333" lon="-3.719667">
        <ele>1928.0</ele>
        <time>2013-06-04T18:33:29Z</time>
      </trkpt>
      <trkpt lat="41.070250" lon="-3.719683">
        <ele>1929.0</ele>
        <time>2013-06-04T18:33:30Z</time>
      </trkpt>
      <trkpt lat="41.070167" lon="-3.719700">
        <ele>1930.0</ele>
        <time>2013-06-04T18:33:31Z</time>
      </trkpt>
      <trkpt lat="41.070100" lon="-3.719717">
        <ele>1930.0</ele>
        <time>2013-06-04T18:33:32Z</time>
      </trkpt>
      <trkpt lat="41.070017" lon="-3.719750">
        <ele>1930.0</ele>
        <time>2013-06-04T18:33:33Z</time>
      </trkpt>
      <trkpt lat="41.069950" lon="-3.719783">
        <ele>1930.0</ele>
        <time>2013-06-04T18:33:34Z</time>
      </trkpt>
      <trkpt lat="41.069867" lon="-3.719817">
        <ele>1930.0</ele>
        <time>2013-06-04T18:33:35Z</time>
      </trkpt>
      <trkpt lat="41.069800" lon="-3.719850">
        <ele>1931.0</ele>
        <time>2013-06-04T18:33:36Z</time>
      </trkpt>
      <trkpt lat="41.069733" lon="-3.719900">
        <ele>1932.0</ele>
        <time>2013-06-04T18:33:37Z</time>
      </trkpt>
      <trkpt lat="41.069683" lon="-3.719933">
        <ele>1933.0</ele>
        <time>2013-06-04T18:33:38Z</time>
      </trkpt>
      <trkpt lat="41.069633" lon="-3.719983">
        <ele>1933.0</ele>
        <time>2013-06-04T18:33:39Z</time>
      </trkpt>
      <trkpt lat="41.069583" lon="-3.720017">
        <ele>1933.0</ele>
        <time>2013-06-04T18:33:40Z</time>
      </trkpt>
      <trkpt lat="41.069550" lon="-3.720067">
        <ele>1933.0</ele>
        <time>2013-06-04T18:33:41Z</time>
      </trkpt>
      <trkpt lat="41.069517" lon="-3.720133">
        <ele>1934.0</ele>
        <time>2013-06-04T18:33:42Z</time>
      </trkpt>
      <trkpt lat="41.069483" lon="-3.720183">
        <ele>1935.0</ele>
        <time>2013-06-04T18:33:43Z</time>
      </trkpt>
      <trkpt lat="41.069467" lon="-3.720217">
        <ele>1936.0</ele>
        <time>2013-06-04T18:33:44Z</time>
      </trkpt>
      <trkpt lat="41.069450" lon="-3.720250">
        <ele>1937.0</ele>
        <time>2013-06-04T18:33:45Z</time>
      </trkpt>
      <trkpt lat="41.069433" lon="-3.720283">
        <ele>1937.0</ele>
        <time>2013-06-04T18:33:46Z</time>
      </trkpt>
      <trkpt lat="41.069417" lon="-3.720317">
        <ele>1937.0</ele>
        <time>2013-06-04T18:33:47Z</time>
      </trkpt>
      <trkpt lat="41.069400" lon="-3.720367">
        <ele>1936.0</ele>
        <time>2013-06-04T18:33:48Z</time>
      </trkpt>
      <trkpt lat="41.069367" lon="-3.720417">
        <ele>1936.0</ele>
        <time>2013-06-04T18:33:49Z</time>
      </trkpt>
      <trkpt lat="41.069333" lon="-3.720467">
        <ele>1936.0</ele>
        <time>2013-06-04T18:33:50Z</time>
      </trkpt>
      <trkpt lat="41.069300" lon="-3.720517">
        <ele>1936.0</ele>
        <time>2013-06-04T18:33:51Z</time>
      </trkpt>
      <trkpt lat="41.069267" lon="-3.720567">
        <ele>1936.0</ele>
        <time>2013-06-04T18:33:52Z</time>
      </trkpt>
      <trkpt lat="41.069233" lon="-3.720600">
        <ele>1936.0</ele>
        <time>2013-06-04T18:33:53Z</time>
      </trkpt>
      <trkpt lat="41.069200" lon="-3.720650">
        <ele>1936.0</ele>
        <time>2013-06-04T18:33:54Z</time>
      </trkpt>
      <trkpt lat="41.069150" lon="-3.720700">
        <ele>1936.0</ele>
        <time>2013-06-04T18:33:55Z</time>
      </trkpt>
      <trkpt lat="41.069100" lon="-3.720750">
        <ele>1936.0</ele>
        <time>2013-06-04T18:33:56Z</time>
      </trkpt>
      <trkpt lat="41.069067" lon="-3.720783">
        <ele>1937.0</ele>
        <time>2013-06-04T18:33:57Z</time>
      </trkpt>
      <trkpt lat="41.069017" lon="-3.720833">
        <ele>1937.0</ele>
        <time>2013-06-04T18:33:58Z</time>
      </trkpt>
      <trkpt lat="41.068967" lon="-3.720867">
        <ele>1937.0</ele>
        <time>2013-06-04T18:33:59Z</time>
      </trkpt>
      <trkpt lat="41.068933" lon="-3.720917">
        <ele>1937.0</ele>
        <time>2013-06-04T18:34:00Z</time>
      </trkpt>
      <trkpt lat="41.068900" lon="-3.720967">
        <ele>1937.0</ele>
        <time>2013-06-04T18:34:01Z</time>
      </trkpt>
      <trkpt lat="41.068867" lon="-3.721017">
        <ele>1937.0</ele>
        <time>2013-06-04T18:34:02Z</time>
      </trkpt>
      <trkpt lat="41.068833" lon="-3.721050">
        <ele>1938.0</ele>
        <time>2013-06-04T18:34:03Z</time>
      </trkpt>
      <trkpt lat="41.068783" lon="-3.721100">
        <ele>1938.0</ele>
        <time>2013-06-04T18:34:04Z</time>
      </trkpt>
      <trkpt lat="41.068750" lon="-3.721150">
        <ele>1939.0</ele>
        <time>2013-06-04T18:34:05Z</time>
      </trkpt>
      <trkpt lat="41.068733" lon="-3.721200">
        <ele>1939.0</ele>
        <time>2013-06-04T18:34:06Z</time>
      </trkpt>
      <trkpt lat="41.068700" lon="-3.721250">
        <ele>1940.0</ele>
        <time>2013-06-04T18:34:07Z</time>
      </trkpt>
      <trkpt lat="41.068683" lon="-3.721300">
        <ele>1940.0</ele>
        <time>2013-06-04T18:34:08Z</time>
      </trkpt>
      <trkpt lat="41.068650" lon="-3.721350">
        <ele>1941.0</ele>
        <time>2013-06-04T18:34:09Z</time>
      </trkpt>
      <trkpt lat="41.068633" lon="-3.721400">
        <ele>1942.0</ele>
        <time>2013-06-04T18:34:10Z</time>
      </trkpt>
      <trkpt lat="41.068600" lon="-3.721450">
        <ele>1943.0</ele>
        <time>2013-06-04T18:34:11Z</time>
      </trkpt>
      <trkpt lat="41.068550" lon="-3.721483">
        <ele>1945.0</ele>
        <time>2013-06-04T18:34:12Z</time>
      </trkpt>
      <trkpt lat="41.068500" lon="-3.721517">
        <ele>1945.0</ele>
        <time>2013-06-04T18:34:13Z</time>
      </trkpt>
      <trkpt lat="41.068450" lon="-3.721533">
        <ele>1946.0</ele>
        <time>2013-06-04T18:34:14Z</time>
      </trkpt>
      <trkpt lat="41.068383" lon="-3.721567">
        <ele>1946.0</ele>
        <time>2013-06-04T18:34:15Z</time>
      </trkpt>
      <trkpt lat="41.068317" lon="-3.721600">
        <ele>1946.0</ele>
        <time>2013-06-04T18:34:16Z</time>
      </trkpt>
      <trkpt lat="41.068250" lon="-3.721617">
        <ele>1946.0</ele>
        <time>2013-06-04T18:34:17Z</time>
      </trkpt>
      <trkpt lat="41.068200" lon="-3.721650">
        <ele>1947.0</ele>
        <time>2013-06-04T18:34:18Z</time>
      </trkpt>
      <trkpt lat="41.068150" lon="-3.721700">
        <ele>1948.0</ele>
        <time>2013-06-04T18:34:19Z</time>
      </trkpt>
      <trkpt lat="41.068083" lon="-3.721733">
        <ele>1949.0</ele>
        <time>2013-06-04T18:34:20Z</time>
      </trkpt>
      <trkpt lat="41.068033" lon="-3.721767">
        <ele>1949.0</ele>
        <time>2013-06-04T18:34:21Z</time>
      </trkpt>
      <trkpt lat="41.067983" lon="-3.721817">
        <ele>1949.0</ele>
        <time>2013-06-04T18:34:22Z</time>
      </trkpt>
      <trkpt lat="41.067950" lon="-3.721867">
        <ele>1949.0</ele>
        <time>2013-06-04T18:34:23Z</time>
      </trkpt>
      <trkpt lat="41.067900" lon="-3.721917">
        <ele>1949.0</ele>
        <time>2013-06-04T18:34:24Z</time>
      </trkpt>
      <trkpt lat="41.067850" lon="-3.721967">
        <ele>1949.0</ele>
        <time>2013-06-04T18:34:25Z</time>
      </trkpt>
      <trkpt lat="41.067783" lon="-3.722017">
        <ele>1950.0</ele>
        <time>2013-06-04T18:34:26Z</time>
      </trkpt>
      <trkpt lat="41.067733" lon="-3.722067">
        <ele>1952.0</ele>
        <time>2013-06-04T18:34:27Z</time>
      </trkpt>
      <trkpt lat="41.067700" lon="-3.722117">
        <ele>1954.0</ele>
        <time>2013-06-04T18:34:28Z</time>
      </trkpt>
      <trkpt lat="41.067667" lon="-3.722167">
        <ele>1955.0</ele>
        <time>2013-06-04T18:34:29Z</time>
      </trkpt>
      <trkpt lat="41.067650" lon="-3.722200">
        <ele>1956.0</ele>
        <time>2013-06-04T18:34:30Z</time>
      </trkpt>
      <trkpt lat="41.067617" lon="-3.722250">
        <ele>1956.0</ele>
        <time>2013-06-04T18:34:31Z</time>
      </trkpt>
      <trkpt lat="41.067583" lon="-3.722283">
        <ele>1956.0</ele>
        <time>2013-06-04T18:34:32Z</time>
      </trkpt>
      <trkpt lat="41.067533" lon="-3.722350">
        <ele>1956.0</ele>
        <time>2013-06-04T18:34:33Z</time>
      </trkpt>
      <trkpt lat="41.067500" lon="-3.722400">
        <ele>1957.0</ele>
        <time>2013-06-04T18:34:34Z</time>
      </trkpt>
      <trkpt lat="41.067467" lon="-3.722450">
        <ele>1958.0</ele>
        <time>2013-06-04T18:34:35Z</time>
      </trkpt>
      <trkpt lat="41.067417" lon="-3.722500">
        <ele>1959.0</ele>
        <time>2013-06-04T18:34:36Z</time>
      </trkpt>
      <trkpt lat="41.067367" lon="-3.722533">
        <ele>1961.0</ele>
        <time>2013-06-04T18:34:37Z</time>
      </trkpt>
      <trkpt lat="41.067317" lon="-3.722567">
        <ele>1962.0</ele>
        <time>2013-06-04T18:34:38Z</time>
      </trkpt>
      <trkpt lat="41.067233" lon="-3.722583">
        <ele>1963.0</ele>
        <time>2013-06-04T18:34:39Z</time>
      </trkpt>
      <trkpt lat="41.067167" lon="-3.722617">
        <ele>1963.0</ele>
        <time>2013-06-04T18:34:40Z</time>
      </trkpt>
      <trkpt lat="41.067117" lon="-3.722650">
        <ele>1963.0</ele>
        <time>2013-06-04T18:34:41Z</time>
      </trkpt>
      <trkpt lat="41.067067" lon="-3.722700">
        <ele>1963.0</ele>
        <time>2013-06-04T18:34:42Z</time>
      </trkpt>
      <trkpt lat="41.067017" lon="-3.722750">
        <ele>1964.0</ele>
        <time>2013-06-04T18:34:43Z</time>
      </trkpt>
      <trkpt lat="41.067000" lon="-3.722783">
        <ele>1965.0</ele>
        <time>2013-06-04T18:34:44Z</time>
      </trkpt>
      <trkpt lat="41.066967" lon="-3.722833">
        <ele>1966.0</ele>
        <time>2013-06-04T18:34:45Z</time>
      </trkpt>
      <trkpt lat="41.066950" lon="-3.722867">
        <ele>1967.0</ele>
        <time>2013-06-04T18:34:46Z</time>
      </trkpt>
      <trkpt lat="41.066950" lon="-3.722900">
        <ele>1967.0</ele>
        <time>2013-06-04T18:34:47Z</time>
      </trkpt>
      <trkpt lat="41.066950" lon="-3.722950">
        <ele>1967.0</ele>
        <time>2013-06-04T18:34:48Z</time>
      </trkpt>
      <trkpt lat="41.066967" lon="-3.722967">
        <ele>1967.0</ele>
        <time>2013-06-04T18:34:49Z</time>
      </trkpt>
      <trkpt lat="41.067000" lon="-3.723000">
        <ele>1967.0</ele>
        <time>2013-06-04T18:34:50Z</time>
      </trkpt>
      <trkpt lat="41.067033" lon="-3.723000">
        <ele>1967.0</ele>
        <time>2013-06-04T18:34:51Z</time>
      </trkpt>
      <trkpt lat="41.067083" lon="-3.723000">
        <ele>1968.0</ele>
        <time>2013-06-04T18:34:52Z</time>
      </trkpt>
      <trkpt lat="41.067133" lon="-3.723000">
        <ele>1968.0</ele>
        <time>2013-06-04T18:34:53Z</time>
      </trkpt>
      <trkpt lat="41.067183" lon="-3.722967">
        <ele>1968.0</ele>
        <time>2013-06-04T18:34:54Z</time>
      </trkpt>
      <trkpt lat="41.067250" lon="-3.722950">
        <ele>1969.0</ele>
        <time>2013-06-04T18:34:55Z</time>
      </trkpt>
      <trkpt lat="41.067300" lon="-3.722917">
        <ele>1969.0</ele>
        <time>2013-06-04T18:34:56Z</time>
      </trkpt>
      <trkpt lat="41.067367" lon="-3.722917">
        <ele>1970.0</ele>
        <time>2013-06-04T18:34:57Z</time>
      </trkpt>
      <trkpt lat="41.067400" lon="-3.722917">
        <ele>1970.0</ele>
        <time>2013-06-04T18:34:58Z</time>
      </trkpt>
      <trkpt lat="41.067433" lon="-3.722933">
        <ele>1971.0</ele>
        <time>2013-06-04T18:34:59Z</time>
      </trkpt>
      <trkpt lat="41.067467" lon="-3.722967">
        <ele>1972.0</ele>
        <time>2013-06-04T18:35:00Z</time>
      </trkpt>
      <trkpt lat="41.067467" lon="-3.723017">
        <ele>1973.0</ele>
        <time>2013-06-04T18:35:01Z</time>
      </trkpt>
      <trkpt lat="41.067433" lon="-3.723050">
        <ele>1973.0</ele>
        <time>2013-06-04T18:35:02Z</time>
      </trkpt>
      <trkpt lat="41.067400" lon="-3.723100">
        <ele>1974.0</ele>
        <time>2013-06-04T18:35:03Z</time>
      </trkpt>
      <trkpt lat="41.067367" lon="-3.723133">
        <ele>1975.0</ele>
        <time>2013-06-04T18:35:04Z</time>
      </trkpt>
      <trkpt lat="41.067300" lon="-3.723167">
        <ele>1976.0</ele>
        <time>2013-06-04T18:35:05Z</time>
      </trkpt>
      <trkpt lat="41.067233" lon="-3.723200">
        <ele>1977.0</ele>
        <time>2013-06-04T18:35:06Z</time>
      </trkpt>
      <trkpt lat="41.067150" lon="-3.723200">
        <ele>1977.0</ele>
        <time>2013-06-04T18:35:07Z</time>
      </trkpt>
      <trkpt lat="41.067067" lon="-3.723217">
        <ele>1978.0</ele>
        <time>2013-06-04T18:35:08Z</time>
      </trkpt>
      <trkpt lat="41.066983" lon="-3.723233">
        <ele>1978.0</ele>
        <time>2013-06-04T18:35:09Z</time>
      </trkpt>
      <trkpt lat="41.066900" lon="-3.723233">
        <ele>1979.0</ele>
        <time>2013-06-04T18:35:10Z</time>
      </trkpt>
      <trkpt lat="41.066817" lon="-3.723250">
        <ele>1979.0</ele>
        <time>2013-06-04T18:35:11Z</time>
      </trkpt>
      <trkpt lat="41.066750" lon="-3.723267">
        <ele>1980.0</ele>
        <time>2013-06-04T18:35:12Z</time>
      </trkpt>
      <trkpt lat="41.066667" lon="-3.723283">
        <ele>1981.0</ele>
        <time>2013-06-04T18:35:13Z</time>
      </trkpt>
      <trkpt lat="41.066600" lon="-3.723317">
        <ele>1982.0</ele>
        <time>2013-06-04T18:35:14Z</time>
      </trkpt>
      <trkpt lat="41.066550" lon="-3.723333">
        <ele>1982.0</ele>
        <time>2013-06-04T18:35:15Z</time>
      </trkpt>
      <trkpt lat="41.066517" lon="-3.723383">
        <ele>1982.0</ele>
        <time>2013-06-04T18:35:16Z</time>
      </trkpt>
      <trkpt lat="41.066483" lon="-3.723417">
        <ele>1983.0</ele>
        <time>2013-06-04T18:35:17Z</time>
      </trkpt>
      <trkpt lat="41.066500" lon="-3.723467">
        <ele>1982.0</ele>
        <time>2013-06-04T18:35:18Z</time>
      </trkpt>
      <trkpt lat="41.066517" lon="-3.723483">
        <ele>1982.0</ele>
        <time>2013-06-04T18:35:19Z</time>
      </trkpt>
      <trkpt lat="41.066567" lon="-3.723500">
        <ele>1982.0</ele>
        <time>2013-06-04T18:35:20Z</time>
      </trkpt>
      <trkpt lat="41.066617" lon="-3.723500">
        <ele>1983.0</ele>
        <time>2013-06-04T18:35:21Z</time>
      </trkpt>
      <trkpt lat="41.066667" lon="-3.723483">
        <ele>1984.0</ele>
        <time>2013-06-04T18:35:22Z</time>
      </trkpt>
      <trkpt lat="41.066717" lon="-3.723450">
        <ele>1984.0</ele>
        <time>2013-06-04T18:35:23Z</time>
      </trkpt>
      <trkpt lat="41.066767" lon="-3.723400">
        <ele>1984.0</ele>
        <time>2013-06-04T18:35:24Z</time>
      </trkpt>
      <trkpt lat="41.066833" lon="-3.723367">
        <ele>1984.0</ele>
        <time>2013-06-04T18:35:25Z</time>
      </trkpt>
      <trkpt lat="41.066900" lon="-3.723333">
        <ele>1983.0</ele>
        <time>2013-06-04T18:35:26Z</time>
      </trkpt>
      <trkpt lat="41.066967" lon="-3.723317">
        <ele>1984.0</ele>
        <time>2013-06-04T18:35:27Z</time>
      </trkpt>
      <trkpt lat="41.067000" lon="-3.723317">
        <ele>1984.0</ele>
        <time>2013-06-04T18:35:28Z</time>
      </trkpt>
      <trkpt lat="41.067033" lon="-3.723350">
        <ele>1984.0</ele>
        <time>2013-06-04T18:35:29Z</time>
      </trkpt>
      <trkpt lat="41.067050" lon="-3.723367">
        <ele>1984.0</ele>
        <time>2013-06-04T18:35:30Z</time>
      </trkpt>
      <trkpt lat="41.067050" lon="-3.723417">
        <ele>1984.0</ele>
        <time>2013-06-04T18:35:31Z</time>
      </trkpt>
      <trkpt lat="41.067050" lon="-3.723450">
        <ele>1984.0</ele>
        <time>2013-06-04T18:35:32Z</time>
      </trkpt>
      <trkpt lat="41.067017" lon="-3.723500">
        <ele>1984.0</ele>
        <time>2013-06-04T18:35:33Z</time>
      </trkpt>
      <trkpt lat="41.066967" lon="-3.723550">
        <ele>1984.0</ele>
        <time>2013-06-04T18:35:34Z</time>
      </trkpt>
      <trkpt lat="41.066900" lon="-3.723583">
        <ele>1984.0</ele>
        <time>2013-06-04T18:35:35Z</time>
      </trkpt>
      <trkpt lat="41.066817" lon="-3.723600">
        <ele>1985.0</ele>
        <time>2013-06-04T18:35:36Z</time>
      </trkpt>
      <trkpt lat="41.066750" lon="-3.723633">
        <ele>1986.0</ele>
        <time>2013-06-04T18:35:37Z</time>
      </trkpt>
      <trkpt lat="41.066683" lon="-3.723650">
        <ele>1986.0</ele>
        <time>2013-06-04T18:35:38Z</time>
      </trkpt>
      <trkpt lat="41.066617" lon="-3.723683">
        <ele>1986.0</ele>
        <time>2013-06-04T18:35:39Z</time>
      </trkpt>
      <trkpt lat="41.066533" lon="-3.723700">
        <ele>1987.0</ele>
        <time>2013-06-04T18:35:40Z</time>
      </trkpt>
      <trkpt lat="41.066467" lon="-3.723733">
        <ele>1987.0</ele>
        <time>2013-06-04T18:35:41Z</time>
      </trkpt>
      <trkpt lat="41.066383" lon="-3.723767">
        <ele>1987.0</ele>
        <time>2013-06-04T18:35:42Z</time>
      </trkpt>
      <trkpt lat="41.066333" lon="-3.723800">
        <ele>1987.0</ele>
        <time>2013-06-04T18:35:43Z</time>
      </trkpt>
      <trkpt lat="41.066267" lon="-3.723850">
        <ele>1987.0</ele>
        <time>2013-06-04T18:35:44Z</time>
      </trkpt>
      <trkpt lat="41.066217" lon="-3.723900">
        <ele>1988.0</ele>
        <time>2013-06-04T18:35:45Z</time>
      </trkpt>
      <trkpt lat="41.066167" lon="-3.723950">
        <ele>1989.0</ele>
        <time>2013-06-04T18:35:46Z</time>
      </trkpt>
      <trkpt lat="41.066117" lon="-3.723983">
        <ele>1989.0</ele>
        <time>2013-06-04T18:35:47Z</time>
      </trkpt>
      <trkpt lat="41.066083" lon="-3.724033">
        <ele>1989.0</ele>
        <time>2013-06-04T18:35:48Z</time>
      </trkpt>
      <trkpt lat="41.066067" lon="-3.724083">
        <ele>1990.0</ele>
        <time>2013-06-04T18:35:49Z</time>
      </trkpt>
      <trkpt lat="41.066033" lon="-3.724133">
        <ele>1990.0</ele>
        <time>2013-06-04T18:35:50Z</time>
      </trkpt>
      <trkpt lat="41.066000" lon="-3.724183">
        <ele>1991.0</ele>
        <time>2013-06-04T18:35:51Z</time>
      </trkpt>
      <trkpt lat="41.065983" lon="-3.724233">
        <ele>1991.0</ele>
        <time>2013-06-04T18:35:52Z</time>
      </trkpt>
      <trkpt lat="41.065967" lon="-3.724283">
        <ele>1992.0</ele>
        <time>2013-06-04T18:35:53Z</time>
      </trkpt>
      <trkpt lat="41.065950" lon="-3.724333">
        <ele>1992.0</ele>
        <time>2013-06-04T18:35:54Z</time>
      </trkpt>
      <trkpt lat="41.065950" lon="-3.724383">
        <ele>1992.0</ele>
        <time>2013-06-04T18:35:55Z</time>
      </trkpt>
      <trkpt lat="41.065933" lon="-3.724450">
        <ele>1991.0</ele>
        <time>2013-06-04T18:35:56Z</time>
      </trkpt>
      <trkpt lat="41.065917" lon="-3.724500">
        <ele>1992.0</ele>
        <time>2013-06-04T18:35:57Z</time>
      </trkpt>
      <trkpt lat="41.065900" lon="-3.724567">
        <ele>1992.0</ele>
        <time>2013-06-04T18:35:58Z</time>
      </trkpt>
      <trkpt lat="41.065867" lon="-3.724617">
        <ele>1993.0</ele>
        <time>2013-06-04T18:35:59Z</time>
      </trkpt>
      <trkpt lat="41.065850" lon="-3.724667">
        <ele>1993.0</ele>
        <time>2013-06-04T18:36:00Z</time>
      </trkpt>
      <trkpt lat="41.065817" lon="-3.724717">
        <ele>1994.0</ele>
        <time>2013-06-04T18:36:01Z</time>
      </trkpt>
      <trkpt lat="41.065783" lon="-3.724767">
        <ele>1994.0</ele>
        <time>2013-06-04T18:36:02Z</time>
      </trkpt>
      <trkpt lat="41.065750" lon="-3.724817">
        <ele>1993.0</ele>
        <time>2013-06-04T18:36:03Z</time>
      </trkpt>
      <trkpt lat="41.065700" lon="-3.724867">
        <ele>1993.0</ele>
        <time>2013-06-04T18:36:04Z</time>
      </trkpt>
      <trkpt lat="41.065650" lon="-3.724917">
        <ele>1994.0</ele>
        <time>2013-06-04T18:36:05Z</time>
      </trkpt>
      <trkpt lat="41.065617" lon="-3.724967">
        <ele>1995.0</ele>
        <time>2013-06-04T18:36:06Z</time>
      </trkpt>
      <trkpt lat="41.065567" lon="-3.725000">
        <ele>1995.0</ele>
        <time>2013-06-04T18:36:07Z</time>
      </trkpt>
      <trkpt lat="41.065517" lon="-3.725050">
        <ele>1995.0</ele>
        <time>2013-06-04T18:36:08Z</time>
      </trkpt>
      <trkpt lat="41.065467" lon="-3.725100">
        <ele>1996.0</ele>
        <time>2013-06-04T18:36:09Z</time>
      </trkpt>
      <trkpt lat="41.065417" lon="-3.725167">
        <ele>1996.0</ele>
        <time>2013-06-04T18:36:10Z</time>
      </trkpt>
      <trkpt lat="41.065383" lon="-3.725217">
        <ele>1996.0</ele>
        <time>2013-06-04T18:36:11Z</time>
      </trkpt>
      <trkpt lat="41.065333" lon="-3.725267">
        <ele>1997.0</ele>
        <time>2013-06-04T18:36:12Z</time>
      </trkpt>
      <trkpt lat="41.065283" lon="-3.725317">
        <ele>1997.0</ele>
        <time>2013-06-04T18:36:13Z</time>
      </trkpt>
      <trkpt lat="41.065250" lon="-3.725383">
        <ele>1998.0</ele>
        <time>2013-06-04T18:36:14Z</time>
      </trkpt>
      <trkpt lat="41.065200" lon="-3.725433">
        <ele>1999.0</ele>
        <time>2013-06-04T18:36:15Z</time>
      </trkpt>
      <trkpt lat="41.065167" lon="-3.725467">
        <ele>2000.0</ele>
        <time>2013-06-04T18:36:16Z</time>
      </trkpt>
      <trkpt lat="41.065133" lon="-3.725500">
        <ele>2000.0</ele>
        <time>2013-06-04T18:36:17Z</time>
      </trkpt>
      <trkpt lat="41.065100" lon="-3.725550">
        <ele>2000.0</ele>
        <time>2013-06-04T18:36:18Z</time>
      </trkpt>
      <trkpt lat="41.065067" lon="-3.725583">
        <ele>2000.0</ele>
        <time>2013-06-04T18:36:19Z</time>
      </trkpt>
      <trkpt lat="41.065033" lon="-3.725650">
        <ele>2000.0</ele>
        <time>2013-06-04T18:36:20Z</time>
      </trkpt>
      <trkpt lat="41.065017" lon="-3.725700">
        <ele>1999.0</ele>
        <time>2013-06-04T18:36:21Z</time>
      </trkpt>
      <trkpt lat="41.064983" lon="-3.725767">
        <ele>2000.0</ele>
        <time>2013-06-04T18:36:22Z</time>
      </trkpt>
      <trkpt lat="41.064950" lon="-3.725817">
        <ele>2001.0</ele>
        <time>2013-06-04T18:36:23Z</time>
      </trkpt>
      <trkpt lat="41.064933" lon="-3.725867">
        <ele>2002.0</ele>
        <time>2013-06-04T18:36:24Z</time>
      </trkpt>
      <trkpt lat="41.064900" lon="-3.725917">
        <ele>2003.0</ele>
        <time>2013-06-04T18:36:25Z</time>
      </trkpt>
      <trkpt lat="41.064883" lon="-3.725950">
        <ele>2003.0</ele>
        <time>2013-06-04T18:36:26Z</time>
      </trkpt>
      <trkpt lat="41.064850" lon="-3.726000">
        <ele>2003.0</ele>
        <time>2013-06-04T18:36:27Z</time>
      </trkpt>
      <trkpt lat="41.064800" lon="-3.726050">
        <ele>2002.0</ele>
        <time>2013-06-04T18:36:28Z</time>
      </trkpt>
      <trkpt lat="41.064767" lon="-3.726100">
        <ele>2002.0</ele>
        <time>2013-06-04T18:36:29Z</time>
      </trkpt>
      <trkpt lat="41.064733" lon="-3.726150">
        <ele>2002.0</ele>
        <time>2013-06-04T18:36:30Z</time>
      </trkpt>
      <trkpt lat="41.064700" lon="-3.726200">
        <ele>2002.0</ele>
        <time>2013-06-04T18:36:31Z</time>
      </trkpt>
      <trkpt lat="41.064667" lon="-3.726267">
        <ele>2002.0</ele>
        <time>2013-06-04T18:36:32Z</time>
      </trkpt>
      <trkpt lat="41.064633" lon="-3.726317">
        <ele>2002.0</ele>
        <time>2013-06-04T18:36:33Z</time>
      </trkpt>
      <trkpt lat="41.064617" lon="-3.726383">
        <ele>2002.0</ele>
        <time>2013-06-04T18:36:34Z</time>
      </trkpt>
      <trkpt lat="41.064583" lon="-3.726433">
        <ele>2002.0</ele>
        <time>2013-06-04T18:36:35Z</time>
      </trkpt>
      <trkpt lat="41.064567" lon="-3.726500">
        <ele>2002.0</ele>
        <time>2013-06-04T18:36:36Z</time>
      </trkpt>
      <trkpt lat="41.064533" lon="-3.726550">
        <ele>2003.0</ele>
        <time>2013-06-04T18:36:37Z</time>
      </trkpt>
      <trkpt lat="41.064517" lon="-3.726617">
        <ele>2003.0</ele>
        <time>2013-06-04T18:36:38Z</time>
      </trkpt>
      <trkpt lat="41.064483" lon="-3.726667">
        <ele>2003.0</ele>
        <time>2013-06-04T18:36:39Z</time>
      </trkpt>
      <trkpt lat="41.064467" lon="-3.726717">
        <ele>2003.0</ele>
        <time>2013-06-04T18:36:40Z</time>
      </trkpt>
      <trkpt lat="41.064450" lon="-3.726767">
        <ele>2002.0</ele>
        <time>2013-06-04T18:36:41Z</time>
      </trkpt>
      <trkpt lat="41.064433" lon="-3.726833">
        <ele>2002.0</ele>
        <time>2013-06-04T18:36:42Z</time>
      </trkpt>
      <trkpt lat="41.064400" lon="-3.726883">
        <ele>2002.0</ele>
        <time>2013-06-04T18:36:43Z</time>
      </trkpt>
      <trkpt lat="41.064383" lon="-3.726950">
        <ele>2002.0</ele>
        <time>2013-06-04T18:36:44Z</time>
      </trkpt>
      <trkpt lat="41.064367" lon="-3.727017">
        <ele>2002.0</ele>
        <time>2013-06-04T18:36:45Z</time>
      </trkpt>
      <trkpt lat="41.064333" lon="-3.727067">
        <ele>2003.0</ele>
        <time>2013-06-04T18:36:46Z</time>
      </trkpt>
      <trkpt lat="41.064317" lon="-3.727117">
        <ele>2003.0</ele>
        <time>2013-06-04T18:36:47Z</time>
      </trkpt>
      <trkpt lat="41.064300" lon="-3.727167">
        <ele>2002.0</ele>
        <time>2013-06-04T18:36:48Z</time>
      </trkpt>
      <trkpt lat="41.064267" lon="-3.727217">
        <ele>2002.0</ele>
        <time>2013-06-04T18:36:49Z</time>
      </trkpt>
      <trkpt lat="41.064233" lon="-3.727267">
        <ele>2002.0</ele>
        <time>2013-06-04T18:36:50Z</time>
      </trkpt>
      <trkpt lat="41.064217" lon="-3.727333">
        <ele>2001.0</ele>
        <time>2013-06-04T18:36:51Z</time>
      </trkpt>
      <trkpt lat="41.064183" lon="-3.727400">
        <ele>2001.0</ele>
        <time>2013-06-04T18:36:52Z</time>
      </trkpt>
      <trkpt lat="41.064133" lon="-3.727450">
        <ele>2000.0</ele>
        <time>2013-06-04T18:36:53Z</time>
      </trkpt>
      <trkpt lat="41.064100" lon="-3.727517">
        <ele>2000.0</ele>
        <time>2013-06-04T18:36:54Z</time>
      </trkpt>
      <trkpt lat="41.064050" lon="-3.727567">
        <ele>2001.0</ele>
        <time>2013-06-04T18:36:55Z</time>
      </trkpt>
      <trkpt lat="41.064000" lon="-3.727617">
        <ele>2000.0</ele>
        <time>2013-06-04T18:36:56Z</time>
      </trkpt>
      <trkpt lat="41.063967" lon="-3.727683">
        <ele>2000.0</ele>
        <time>2013-06-04T18:36:57Z</time>
      </trkpt>
      <trkpt lat="41.063917" lon="-3.727733">
        <ele>2000.0</ele>
        <time>2013-06-04T18:36:58Z</time>
      </trkpt>
      <trkpt lat="41.063883" lon="-3.727800">
        <ele>2000.0</ele>
        <time>2013-06-04T18:36:59Z</time>
      </trkpt>
      <trkpt lat="41.063850" lon="-3.727850">
        <ele>2000.0</ele>
        <time>2013-06-04T18:37:00Z</time>
      </trkpt>
      <trkpt lat="41.063817" lon="-3.727917">
        <ele>2000.0</ele>
        <time>2013-06-04T18:37:01Z</time>
      </trkpt>
      <trkpt lat="41.063783" lon="-3.727967">
        <ele>2000.0</ele>
        <time>2013-06-04T18:37:02Z</time>
      </trkpt>
      <trkpt lat="41.063750" lon="-3.728017">
        <ele>2000.0</ele>
        <time>2013-06-04T18:37:03Z</time>
      </trkpt>
      <trkpt lat="41.063717" lon="-3.728083">
        <ele>2000.0</ele>
        <time>2013-06-04T18:37:04Z</time>
      </trkpt>
      <trkpt lat="41.063683" lon="-3.728150">
        <ele>2000.0</ele>
        <time>2013-06-04T18:37:05Z</time>
      </trkpt>
      <trkpt lat="41.063650" lon="-3.728200">
        <ele>2000.0</ele>
        <time>2013-06-04T18:37:06Z</time>
      </trkpt>
      <trkpt lat="41.063633" lon="-3.728267">
        <ele>2000.0</ele>
        <time>2013-06-04T18:37:07Z</time>
      </trkpt>
      <trkpt lat="41.063600" lon="-3.728333">
        <ele>2000.0</ele>
        <time>2013-06-04T18:37:08Z</time>
      </trkpt>
      <trkpt lat="41.063567" lon="-3.728383">
        <ele>2000.0</ele>
        <time>2013-06-04T18:37:09Z</time>
      </trkpt>
      <trkpt lat="41.063550" lon="-3.728450">
        <ele>2000.0</ele>
        <time>2013-06-04T18:37:10Z</time>
      </trkpt>
      <trkpt lat="41.063517" lon="-3.728500">
        <ele>1999.0</ele>
        <time>2013-06-04T18:37:11Z</time>
      </trkpt>
      <trkpt lat="41.063483" lon="-3.728567">
        <ele>1999.0</ele>
        <time>2013-06-04T18:37:12Z</time>
      </trkpt>
      <trkpt lat="41.063467" lon="-3.728617">
        <ele>1999.0</ele>
        <time>2013-06-04T18:37:13Z</time>
      </trkpt>
      <trkpt lat="41.063433" lon="-3.728667">
        <ele>1999.0</ele>
        <time>2013-06-04T18:37:14Z</time>
      </trkpt>
      <trkpt lat="41.063417" lon="-3.728733">
        <ele>1999.0</ele>
        <time>2013-06-04T18:37:15Z</time>
      </trkpt>
      <trkpt lat="41.063383" lon="-3.728783">
        <ele>1998.0</ele>
        <time>2013-06-04T18:37:16Z</time>
      </trkpt>
      <trkpt lat="41.063367" lon="-3.728850">
        <ele>1997.0</ele>
        <time>2013-06-04T18:37:17Z</time>
      </trkpt>
      <trkpt lat="41.063333" lon="-3.728917">
        <ele>1996.0</ele>
        <time>2013-06-04T18:37:18Z</time>
      </trkpt>
      <trkpt lat="41.063300" lon="-3.728983">
        <ele>1996.0</ele>
        <time>2013-06-04T18:37:19Z</time>
      </trkpt>
      <trkpt lat="41.063283" lon="-3.729033">
        <ele>1996.0</ele>
        <time>2013-06-04T18:37:20Z</time>
      </trkpt>
      <trkpt lat="41.063250" lon="-3.729083">
        <ele>1996.0</ele>
        <time>2013-06-04T18:37:21Z</time>
      </trkpt>
      <trkpt lat="41.063217" lon="-3.729133">
        <ele>1995.0</ele>
        <time>2013-06-04T18:37:22Z</time>
      </trkpt>
      <trkpt lat="41.063183" lon="-3.729183">
        <ele>1993.0</ele>
        <time>2013-06-04T18:37:23Z</time>
      </trkpt>
      <trkpt lat="41.063150" lon="-3.729250">
        <ele>1992.0</ele>
        <time>2013-06-04T18:37:24Z</time>
      </trkpt>
      <trkpt lat="41.063133" lon="-3.729317">
        <ele>1990.0</ele>
        <time>2013-06-04T18:37:25Z</time>
      </trkpt>
      <trkpt lat="41.063100" lon="-3.729383">
        <ele>1989.0</ele>
        <time>2013-06-04T18:37:26Z</time>
      </trkpt>
      <trkpt lat="41.063067" lon="-3.729433">
        <ele>1988.0</ele>
        <time>2013-06-04T18:37:27Z</time>
      </trkpt>
      <trkpt lat="41.063033" lon="-3.729500">
        <ele>1987.0</ele>
        <time>2013-06-04T18:37:28Z</time>
      </trkpt>
      <trkpt lat="41.063000" lon="-3.729550">
        <ele>1986.0</ele>
        <time>2013-06-04T18:37:29Z</time>
      </trkpt>
      <trkpt lat="41.062967" lon="-3.729617">
        <ele>1984.0</ele>
        <time>2013-06-04T18:37:30Z</time>
      </trkpt>
      <trkpt lat="41.062917" lon="-3.729683">
        <ele>1984.0</ele>
        <time>2013-06-04T18:37:31Z</time>
      </trkpt>
      <trkpt lat="41.062883" lon="-3.729750">
        <ele>1983.0</ele>
        <time>2013-06-04T18:37:32Z</time>
      </trkpt>
      <trkpt lat="41.062850" lon="-3.729817">
        <ele>1983.0</ele>
        <time>2013-06-04T18:37:33Z</time>
      </trkpt>
      <trkpt lat="41.062800" lon="-3.729883">
        <ele>1983.0</ele>
        <time>2013-06-04T18:37:34Z</time>
      </trkpt>
      <trkpt lat="41.062767" lon="-3.729950">
        <ele>1982.0</ele>
        <time>2013-06-04T18:37:35Z</time>
      </trkpt>
      <trkpt lat="41.062733" lon="-3.730017">
        <ele>1982.0</ele>
        <time>2013-06-04T18:37:36Z</time>
      </trkpt>
      <trkpt lat="41.062700" lon="-3.730083">
        <ele>1982.0</ele>
        <time>2013-06-04T18:37:37Z</time>
      </trkpt>
      <trkpt lat="41.062667" lon="-3.730133">
        <ele>1982.0</ele>
        <time>2013-06-04T18:37:38Z</time>
      </trkpt>
      <trkpt lat="41.062617" lon="-3.730200">
        <ele>1982.0</ele>
        <time>2013-06-04T18:37:39Z</time>
      </trkpt>
      <trkpt lat="41.062583" lon="-3.730250">
        <ele>1982.0</ele>
        <time>2013-06-04T18:37:40Z</time>
      </trkpt>
      <trkpt lat="41.062550" lon="-3.730317">
        <ele>1982.0</ele>
        <time>2013-06-04T18:37:41Z</time>
      </trkpt>
      <trkpt lat="41.062517" lon="-3.730383">
        <ele>1981.0</ele>
        <time>2013-06-04T18:37:42Z</time>
      </trkpt>
      <trkpt lat="41.062483" lon="-3.730450">
        <ele>1981.0</ele>
        <time>2013-06-04T18:37:43Z</time>
      </trkpt>
      <trkpt lat="41.062433" lon="-3.730500">
        <ele>1981.0</ele>
        <time>2013-06-04T18:37:44Z</time>
      </trkpt>
      <trkpt lat="41.062400" lon="-3.730567">
        <ele>1981.0</ele>
        <time>2013-06-04T18:37:45Z</time>
      </trkpt>
      <trkpt lat="41.062350" lon="-3.730633">
        <ele>1981.0</ele>
        <time>2013-06-04T18:37:46Z</time>
      </trkpt>
      <trkpt lat="41.062317" lon="-3.730683">
        <ele>1980.0</ele>
        <time>2013-06-04T18:37:47Z</time>
      </trkpt>
      <trkpt lat="41.062283" lon="-3.730750">
        <ele>1980.0</ele>
        <time>2013-06-04T18:37:48Z</time>
      </trkpt>
      <trkpt lat="41.062250" lon="-3.730817">
        <ele>1980.0</ele>
        <time>2013-06-04T18:37:49Z</time>
      </trkpt>
      <trkpt lat="41.062200" lon="-3.730883">
        <ele>1980.0</ele>
        <time>2013-06-04T18:37:50Z</time>
      </trkpt>
      <trkpt lat="41.062167" lon="-3.730950">
        <ele>1979.0</ele>
        <time>2013-06-04T18:37:51Z</time>
      </trkpt>
      <trkpt lat="41.062133" lon="-3.731000">
        <ele>1979.0</ele>
        <time>2013-06-04T18:37:52Z</time>
      </trkpt>
      <trkpt lat="41.062083" lon="-3.731067">
        <ele>1979.0</ele>
        <time>2013-06-04T18:37:53Z</time>
      </trkpt>
      <trkpt lat="41.062050" lon="-3.731133">
        <ele>1979.0</ele>
        <time>2013-06-04T18:37:54Z</time>
      </trkpt>
      <trkpt lat="41.062017" lon="-3.731200">
        <ele>1979.0</ele>
        <time>2013-06-04T18:37:55Z</time>
      </trkpt>
      <trkpt lat="41.061967" lon="-3.731267">
        <ele>1979.0</ele>
        <time>2013-06-04T18:37:56Z</time>
      </trkpt>
      <trkpt lat="41.061933" lon="-3.731317">
        <ele>1979.0</ele>
        <time>2013-06-04T18:37:57Z</time>
      </trkpt>
      <trkpt lat="41.061900" lon="-3.731383">
        <ele>1978.0</ele>
        <time>2013-06-04T18:37:58Z</time>
      </trkpt>
      <trkpt lat="41.061867" lon="-3.731467">
        <ele>1978.0</ele>
        <time>2013-06-04T18:37:59Z</time>
      </trkpt>
      <trkpt lat="41.061833" lon="-3.731517">
        <ele>1978.0</ele>
        <time>2013-06-04T18:38:00Z</time>
      </trkpt>
      <trkpt lat="41.061800" lon="-3.731583">
        <ele>1978.0</ele>
        <time>2013-06-04T18:38:01Z</time>
      </trkpt>
      <trkpt lat="41.061750" lon="-3.731633">
        <ele>1978.0</ele>
        <time>2013-06-04T18:38:02Z</time>
      </trkpt>
      <trkpt lat="41.061717" lon="-3.731700">
        <ele>1978.0</ele>
        <time>2013-06-04T18:38:03Z</time>
      </trkpt>
      <trkpt lat="41.061683" lon="-3.731750">
        <ele>1977.0</ele>
        <time>2013-06-04T18:38:04Z</time>
      </trkpt>
      <trkpt lat="41.061667" lon="-3.731817">
        <ele>1977.0</ele>
        <time>2013-06-04T18:38:05Z</time>
      </trkpt>
      <trkpt lat="41.061633" lon="-3.731883">
        <ele>1977.0</ele>
        <time>2013-06-04T18:38:06Z</time>
      </trkpt>
      <trkpt lat="41.061600" lon="-3.731950">
        <ele>1977.0</ele>
        <time>2013-06-04T18:38:07Z</time>
      </trkpt>
      <trkpt lat="41.061567" lon="-3.732000">
        <ele>1978.0</ele>
        <time>2013-06-04T18:38:08Z</time>
      </trkpt>
      <trkpt lat="41.061533" lon="-3.732050">
        <ele>1977.0</ele>
        <time>2013-06-04T18:38:09Z</time>
      </trkpt>
      <trkpt lat="41.061483" lon="-3.732117">
        <ele>1977.0</ele>
        <time>2013-06-04T18:38:10Z</time>
      </trkpt>
      <trkpt lat="41.061450" lon="-3.732167">
        <ele>1976.0</ele>
        <time>2013-06-04T18:38:11Z</time>
      </trkpt>
      <trkpt lat="41.061417" lon="-3.732233">
        <ele>1975.0</ele>
        <time>2013-06-04T18:38:12Z</time>
      </trkpt>
      <trkpt lat="41.061383" lon="-3.732300">
        <ele>1975.0</ele>
        <time>2013-06-04T18:38:13Z</time>
      </trkpt>
      <trkpt lat="41.061333" lon="-3.732367">
        <ele>1974.0</ele>
        <time>2013-06-04T18:38:14Z</time>
      </trkpt>
      <trkpt lat="41.061300" lon="-3.732433">
        <ele>1974.0</ele>
        <time>2013-06-04T18:38:15Z</time>
      </trkpt>
      <trkpt lat="41.061267" lon="-3.732483">
        <ele>1974.0</ele>
        <time>2013-06-04T18:38:16Z</time>
      </trkpt>
      <trkpt lat="41.061217" lon="-3.732550">
        <ele>1974.0</ele>
        <time>2013-06-04T18:38:17Z</time>
      </trkpt>
      <trkpt lat="41.061183" lon="-3.732600">
        <ele>1973.0</ele>
        <time>2013-06-04T18:38:18Z</time>
      </trkpt>
      <trkpt lat="41.061133" lon="-3.732667">
        <ele>1972.0</ele>
        <time>2013-06-04T18:38:19Z</time>
      </trkpt>
      <trkpt lat="41.061100" lon="-3.732733">
        <ele>1971.0</ele>
        <time>2013-06-04T18:38:20Z</time>
      </trkpt>
      <trkpt lat="41.061050" lon="-3.732783">
        <ele>1971.0</ele>
        <time>2013-06-04T18:38:21Z</time>
      </trkpt>
      <trkpt lat="41.061000" lon="-3.732850">
        <ele>1970.0</ele>
        <time>2013-06-04T18:38:22Z</time>
      </trkpt>
      <trkpt lat="41.060967" lon="-3.732917">
        <ele>1970.0</ele>
        <time>2013-06-04T18:38:23Z</time>
      </trkpt>
      <trkpt lat="41.060917" lon="-3.732983">
        <ele>1969.0</ele>
        <time>2013-06-04T18:38:24Z</time>
      </trkpt>
      <trkpt lat="41.060883" lon="-3.733033">
        <ele>1969.0</ele>
        <time>2013-06-04T18:38:25Z</time>
      </trkpt>
      <trkpt lat="41.060833" lon="-3.733083">
        <ele>1969.0</ele>
        <time>2013-06-04T18:38:26Z</time>
      </trkpt>
      <trkpt lat="41.060783" lon="-3.733133">
        <ele>1968.0</ele>
        <time>2013-06-04T18:38:27Z</time>
      </trkpt>
      <trkpt lat="41.060733" lon="-3.733200">
        <ele>1968.0</ele>
        <time>2013-06-04T18:38:28Z</time>
      </trkpt>
      <trkpt lat="41.060700" lon="-3.733267">
        <ele>1967.0</ele>
        <time>2013-06-04T18:38:29Z</time>
      </trkpt>
      <trkpt lat="41.060650" lon="-3.733333">
        <ele>1966.0</ele>
        <time>2013-06-04T18:38:30Z</time>
      </trkpt>
      <trkpt lat="41.060617" lon="-3.733400">
        <ele>1965.0</ele>
        <time>2013-06-04T18:38:31Z</time>
      </trkpt>
      <trkpt lat="41.060583" lon="-3.733467">
        <ele>1965.0</ele>
        <time>2013-06-04T18:38:32Z</time>
      </trkpt>
      <trkpt lat="41.060550" lon="-3.733517">
        <ele>1966.0</ele>
        <time>2013-06-04T18:38:33Z</time>
      </trkpt>
      <trkpt lat="41.060517" lon="-3.733583">
        <ele>1965.0</ele>
        <time>2013-06-04T18:38:34Z</time>
      </trkpt>
      <trkpt lat="41.060483" lon="-3.733633">
        <ele>1965.0</ele>
        <time>2013-06-04T18:38:35Z</time>
      </trkpt>
      <trkpt lat="41.060433" lon="-3.733683">
        <ele>1964.0</ele>
        <time>2013-06-04T18:38:36Z</time>
      </trkpt>
      <trkpt lat="41.060400" lon="-3.733750">
        <ele>1963.0</ele>
        <time>2013-06-04T18:38:37Z</time>
      </trkpt>
      <trkpt lat="41.060350" lon="-3.733800">
        <ele>1963.0</ele>
        <time>2013-06-04T18:38:38Z</time>
      </trkpt>
      <trkpt lat="41.060317" lon="-3.733867">
        <ele>1963.0</ele>
        <time>2013-06-04T18:38:39Z</time>
      </trkpt>
      <trkpt lat="41.060267" lon="-3.733917">
        <ele>1962.0</ele>
        <time>2013-06-04T18:38:40Z</time>
      </trkpt>
      <trkpt lat="41.060233" lon="-3.733967">
        <ele>1962.0</ele>
        <time>2013-06-04T18:38:41Z</time>
      </trkpt>
      <trkpt lat="41.060183" lon="-3.734033">
        <ele>1961.0</ele>
        <time>2013-06-04T18:38:42Z</time>
      </trkpt>
      <trkpt lat="41.060133" lon="-3.734083">
        <ele>1961.0</ele>
        <time>2013-06-04T18:38:43Z</time>
      </trkpt>
      <trkpt lat="41.060100" lon="-3.734150">
        <ele>1961.0</ele>
        <time>2013-06-04T18:38:44Z</time>
      </trkpt>
      <trkpt lat="41.060050" lon="-3.734217">
        <ele>1960.0</ele>
        <time>2013-06-04T18:38:45Z</time>
      </trkpt>
      <trkpt lat="41.060000" lon="-3.734267">
        <ele>1960.0</ele>
        <time>2013-06-04T18:38:46Z</time>
      </trkpt>
      <trkpt lat="41.059950" lon="-3.734317">
        <ele>1960.0</ele>
        <time>2013-06-04T18:38:47Z</time>
      </trkpt>
      <trkpt lat="41.059900" lon="-3.734383">
        <ele>1959.0</ele>
        <time>2013-06-04T18:38:48Z</time>
      </trkpt>
      <trkpt lat="41.059850" lon="-3.734433">
        <ele>1958.0</ele>
        <time>2013-06-04T18:38:49Z</time>
      </trkpt>
      <trkpt lat="41.059800" lon="-3.734500">
        <ele>1958.0</ele>
        <time>2013-06-04T18:38:50Z</time>
      </trkpt>
      <trkpt lat="41.059750" lon="-3.734567">
        <ele>1957.0</ele>
        <time>2013-06-04T18:38:51Z</time>
      </trkpt>
      <trkpt lat="41.059700" lon="-3.734617">
        <ele>1957.0</ele>
        <time>2013-06-04T18:38:52Z</time>
      </trkpt>
      <trkpt lat="41.059650" lon="-3.734683">
        <ele>1957.0</ele>
        <time>2013-06-04T18:38:53Z</time>
      </trkpt>
      <trkpt lat="41.059600" lon="-3.734733">
        <ele>1956.0</ele>
        <time>2013-06-04T18:38:54Z</time>
      </trkpt>
      <trkpt lat="41.059550" lon="-3.734783">
        <ele>1956.0</ele>
        <time>2013-06-04T18:38:55Z</time>
      </trkpt>
      <trkpt lat="41.059500" lon="-3.734850">
        <ele>1955.0</ele>
        <time>2013-06-04T18:38:56Z</time>
      </trkpt>
      <trkpt lat="41.059450" lon="-3.734917">
        <ele>1954.0</ele>
        <time>2013-06-04T18:38:57Z</time>
      </trkpt>
      <trkpt lat="41.059400" lon="-3.734983">
        <ele>1954.0</ele>
        <time>2013-06-04T18:38:58Z</time>
      </trkpt>
      <trkpt lat="41.059333" lon="-3.735033">
        <ele>1954.0</ele>
        <time>2013-06-04T18:38:59Z</time>
      </trkpt>
      <trkpt lat="41.059283" lon="-3.735083">
        <ele>1953.0</ele>
        <time>2013-06-04T18:39:00Z</time>
      </trkpt>
      <trkpt lat="41.059233" lon="-3.735133">
        <ele>1953.0</ele>
        <time>2013-06-04T18:39:01Z</time>
      </trkpt>
      <trkpt lat="41.059183" lon="-3.735200">
        <ele>1952.0</ele>
        <time>2013-06-04T18:39:02Z</time>
      </trkpt>
      <trkpt lat="41.059117" lon="-3.735250">
        <ele>1951.0</ele>
        <time>2013-06-04T18:39:03Z</time>
      </trkpt>
      <trkpt lat="41.059050" lon="-3.735317">
        <ele>1950.0</ele>
        <time>2013-06-04T18:39:04Z</time>
      </trkpt>
      <trkpt lat="41.059000" lon="-3.735367">
        <ele>1949.0</ele>
        <time>2013-06-04T18:39:05Z</time>
      </trkpt>
      <trkpt lat="41.058933" lon="-3.735417">
        <ele>1949.0</ele>
        <time>2013-06-04T18:39:06Z</time>
      </trkpt>
      <trkpt lat="41.058867" lon="-3.735467">
        <ele>1949.0</ele>
        <time>2013-06-04T18:39:07Z</time>
      </trkpt>
      <trkpt lat="41.058817" lon="-3.735517">
        <ele>1948.0</ele>
        <time>2013-06-04T18:39:08Z</time>
      </trkpt>
      <trkpt lat="41.058750" lon="-3.735583">
        <ele>1947.0</ele>
        <time>2013-06-04T18:39:09Z</time>
      </trkpt>
      <trkpt lat="41.058700" lon="-3.735633">
        <ele>1946.0</ele>
        <time>2013-06-04T18:39:10Z</time>
      </trkpt>
      <trkpt lat="41.058650" lon="-3.735700">
        <ele>1945.0</ele>
        <time>2013-06-04T18:39:11Z</time>
      </trkpt>
      <trkpt lat="41.058600" lon="-3.735767">
        <ele>1944.0</ele>
        <time>2013-06-04T18:39:12Z</time>
      </trkpt>
      <trkpt lat="41.058550" lon="-3.735817">
        <ele>1944.0</ele>
        <time>2013-06-04T18:39:13Z</time>
      </trkpt>
      <trkpt lat="41.058500" lon="-3.735883">
        <ele>1943.0</ele>
        <time>2013-06-04T18:39:14Z</time>
      </trkpt>
      <trkpt lat="41.058467" lon="-3.735950">
        <ele>1942.0</ele>
        <time>2013-06-04T18:39:15Z</time>
      </trkpt>
      <trkpt lat="41.058417" lon="-3.736000">
        <ele>1942.0</ele>
        <time>2013-06-04T18:39:16Z</time>
      </trkpt>
      <trkpt lat="41.058367" lon="-3.736067">
        <ele>1941.0</ele>
        <time>2013-06-04T18:39:17Z</time>
      </trkpt>
      <trkpt lat="41.058317" lon="-3.736117">
        <ele>1941.0</ele>
        <time>2013-06-04T18:39:18Z</time>
      </trkpt>
      <trkpt lat="41.058283" lon="-3.736183">
        <ele>1940.0</ele>
        <time>2013-06-04T18:39:19Z</time>
      </trkpt>
      <trkpt lat="41.058250" lon="-3.736233">
        <ele>1939.0</ele>
        <time>2013-06-04T18:39:20Z</time>
      </trkpt>
      <trkpt lat="41.058217" lon="-3.736300">
        <ele>1938.0</ele>
        <time>2013-06-04T18:39:21Z</time>
      </trkpt>
      <trkpt lat="41.058167" lon="-3.736367">
        <ele>1936.0</ele>
        <time>2013-06-04T18:39:22Z</time>
      </trkpt>
      <trkpt lat="41.058117" lon="-3.736433">
        <ele>1935.0</ele>
        <time>2013-06-04T18:39:23Z</time>
      </trkpt>
      <trkpt lat="41.058067" lon="-3.736500">
        <ele>1935.0</ele>
        <time>2013-06-04T18:39:24Z</time>
      </trkpt>
      <trkpt lat="41.058000" lon="-3.736550">
        <ele>1935.0</ele>
        <time>2013-06-04T18:39:25Z</time>
      </trkpt>
      <trkpt lat="41.057950" lon="-3.736600">
        <ele>1935.0</ele>
        <time>2013-06-04T18:39:26Z</time>
      </trkpt>
      <trkpt lat="41.057883" lon="-3.736650">
        <ele>1934.0</ele>
        <time>2013-06-04T18:39:27Z</time>
      </trkpt>
      <trkpt lat="41.057833" lon="-3.736700">
        <ele>1933.0</ele>
        <time>2013-06-04T18:39:28Z</time>
      </trkpt>
      <trkpt lat="41.057767" lon="-3.736767">
        <ele>1932.0</ele>
        <time>2013-06-04T18:39:29Z</time>
      </trkpt>
      <trkpt lat="41.057700" lon="-3.736817">
        <ele>1931.0</ele>
        <time>2013-06-04T18:39:30Z</time>
      </trkpt>
      <trkpt lat="41.057650" lon="-3.736883">
        <ele>1931.0</ele>
        <time>2013-06-04T18:39:31Z</time>
      </trkpt>
      <trkpt lat="41.057583" lon="-3.736933">
        <ele>1931.0</ele>
        <time>2013-06-04T18:39:32Z</time>
      </trkpt>
      <trkpt lat="41.057533" lon="-3.737000">
        <ele>1930.0</ele>
        <time>2013-06-04T18:39:33Z</time>
      </trkpt>
      <trkpt lat="41.057483" lon="-3.737050">
        <ele>1929.0</ele>
        <time>2013-06-04T18:39:34Z</time>
      </trkpt>
      <trkpt lat="41.057433" lon="-3.737100">
        <ele>1928.0</ele>
        <time>2013-06-04T18:39:35Z</time>
      </trkpt>
      <trkpt lat="41.057383" lon="-3.737167">
        <ele>1927.0</ele>
        <time>2013-06-04T18:39:36Z</time>
      </trkpt>
      <trkpt lat="41.057333" lon="-3.737233">
        <ele>1926.0</ele>
        <time>2013-06-04T18:39:37Z</time>
      </trkpt>
      <trkpt lat="41.057283" lon="-3.737283">
        <ele>1926.0</ele>
        <time>2013-06-04T18:39:38Z</time>
      </trkpt>
      <trkpt lat="41.057233" lon="-3.737333">
        <ele>1926.0</ele>
        <time>2013-06-04T18:39:39Z</time>
      </trkpt>
      <trkpt lat="41.057167" lon="-3.737383">
        <ele>1925.0</ele>
        <time>2013-06-04T18:39:40Z</time>
      </trkpt>
      <trkpt lat="41.057117" lon="-3.737433">
        <ele>1924.0</ele>
        <time>2013-06-04T18:39:41Z</time>
      </trkpt>
      <trkpt lat="41.057050" lon="-3.737500">
        <ele>1922.0</ele>
        <time>2013-06-04T18:39:42Z</time>
      </trkpt>
      <trkpt lat="41.057000" lon="-3.737550">
        <ele>1922.0</ele>
        <time>2013-06-04T18:39:43Z</time>
      </trkpt>
      <trkpt lat="41.056933" lon="-3.737617">
        <ele>1921.0</ele>
        <time>2013-06-04T18:39:44Z</time>
      </trkpt>
      <trkpt lat="41.056883" lon="-3.737683">
        <ele>1921.0</ele>
        <time>2013-06-04T18:39:45Z</time>
      </trkpt>
      <trkpt lat="41.056817" lon="-3.737733">
        <ele>1921.0</ele>
        <time>2013-06-04T18:39:46Z</time>
      </trkpt>
      <trkpt lat="41.056767" lon="-3.737783">
        <ele>1920.0</ele>
        <time>2013-06-04T18:39:47Z</time>
      </trkpt>
      <trkpt lat="41.056717" lon="-3.737833">
        <ele>1919.0</ele>
        <time>2013-06-04T18:39:48Z</time>
      </trkpt>
      <trkpt lat="41.056650" lon="-3.737900">
        <ele>1918.0</ele>
        <time>2013-06-04T18:39:49Z</time>
      </trkpt>
      <trkpt lat="41.056600" lon="-3.737950">
        <ele>1918.0</ele>
        <time>2013-06-04T18:39:50Z</time>
      </trkpt>
      <trkpt lat="41.056550" lon="-3.738017">
        <ele>1917.0</ele>
        <time>2013-06-04T18:39:51Z</time>
      </trkpt>
      <trkpt lat="41.056500" lon="-3.738083">
        <ele>1917.0</ele>
        <time>2013-06-04T18:39:52Z</time>
      </trkpt>
      <trkpt lat="41.056433" lon="-3.738133">
        <ele>1917.0</ele>
        <time>2013-06-04T18:39:53Z</time>
      </trkpt>
      <trkpt lat="41.056383" lon="-3.738200">
        <ele>1917.0</ele>
        <time>2013-06-04T18:39:54Z</time>
      </trkpt>
      <trkpt lat="41.056333" lon="-3.738250">
        <ele>1916.0</ele>
        <time>2013-06-04T18:39:55Z</time>
      </trkpt>
      <trkpt lat="41.056283" lon="-3.738300">
        <ele>1916.0</ele>
        <time>2013-06-04T18:39:56Z</time>
      </trkpt>
      <trkpt lat="41.056250" lon="-3.738350">
        <ele>1915.0</ele>
        <time>2013-06-04T18:39:57Z</time>
      </trkpt>
      <trkpt lat="41.056200" lon="-3.738417">
        <ele>1914.0</ele>
        <time>2013-06-04T18:39:58Z</time>
      </trkpt>
      <trkpt lat="41.056133" lon="-3.738467">
        <ele>1914.0</ele>
        <time>2013-06-04T18:39:59Z</time>
      </trkpt>
      <trkpt lat="41.056083" lon="-3.738517">
        <ele>1913.0</ele>
        <time>2013-06-04T18:40:00Z</time>
      </trkpt>
      <trkpt lat="41.056033" lon="-3.738567">
        <ele>1913.0</ele>
        <time>2013-06-04T18:40:01Z</time>
      </trkpt>
      <trkpt lat="41.055983" lon="-3.738617">
        <ele>1912.0</ele>
        <time>2013-06-04T18:40:02Z</time>
      </trkpt>
      <trkpt lat="41.055933" lon="-3.738683">
        <ele>1912.0</ele>
        <time>2013-06-04T18:40:03Z</time>
      </trkpt>
      <trkpt lat="41.055883" lon="-3.738733">
        <ele>1911.0</ele>
        <time>2013-06-04T18:40:04Z</time>
      </trkpt>
      <trkpt lat="41.055833" lon="-3.738783">
        <ele>1910.0</ele>
        <time>2013-06-04T18:40:05Z</time>
      </trkpt>
      <trkpt lat="41.055783" lon="-3.738850">
        <ele>1909.0</ele>
        <time>2013-06-04T18:40:06Z</time>
      </trkpt>
      <trkpt lat="41.055733" lon="-3.738917">
        <ele>1909.0</ele>
        <time>2013-06-04T18:40:07Z</time>
      </trkpt>
      <trkpt lat="41.055683" lon="-3.738983">
        <ele>1908.0</ele>
        <time>2013-06-04T18:40:08Z</time>
      </trkpt>
      <trkpt lat="41.055633" lon="-3.739033">
        <ele>1908.0</ele>
        <time>2013-06-04T18:40:09Z</time>
      </trkpt>
      <trkpt lat="41.055583" lon="-3.739100">
        <ele>1908.0</ele>
        <time>2013-06-04T18:40:10Z</time>
      </trkpt>
      <trkpt lat="41.055533" lon="-3.739150">
        <ele>1908.0</ele>
        <time>2013-06-04T18:40:11Z</time>
      </trkpt>
      <trkpt lat="41.055483" lon="-3.739200">
        <ele>1907.0</ele>
        <time>2013-06-04T18:40:12Z</time>
      </trkpt>
      <trkpt lat="41.055433" lon="-3.739250">
        <ele>1906.0</ele>
        <time>2013-06-04T18:40:13Z</time>
      </trkpt>
      <trkpt lat="41.055383" lon="-3.739317">
        <ele>1906.0</ele>
        <time>2013-06-04T18:40:14Z</time>
      </trkpt>
      <trkpt lat="41.055333" lon="-3.739367">
        <ele>1905.0</ele>
        <time>2013-06-04T18:40:15Z</time>
      </trkpt>
      <trkpt lat="41.055283" lon="-3.739433">
        <ele>1905.0</ele>
        <time>2013-06-04T18:40:16Z</time>
      </trkpt>
      <trkpt lat="41.055233" lon="-3.739483">
        <ele>1904.0</ele>
        <time>2013-06-04T18:40:17Z</time>
      </trkpt>
      <trkpt lat="41.055167" lon="-3.739533">
        <ele>1903.0</ele>
        <time>2013-06-04T18:40:18Z</time>
      </trkpt>
      <trkpt lat="41.055117" lon="-3.739600">
        <ele>1903.0</ele>
        <time>2013-06-04T18:40:19Z</time>
      </trkpt>
      <trkpt lat="41.055067" lon="-3.739667">
        <ele>1903.0</ele>
        <time>2013-06-04T18:40:20Z</time>
      </trkpt>
      <trkpt lat="41.055000" lon="-3.739750">
        <ele>1903.0</ele>
        <time>2013-06-04T18:40:21Z</time>
      </trkpt>
      <trkpt lat="41.054950" lon="-3.739817">
        <ele>1904.0</ele>
        <time>2013-06-04T18:40:22Z</time>
      </trkpt>
      <trkpt lat="41.054900" lon="-3.739883">
        <ele>1906.0</ele>
        <time>2013-06-04T18:40:23Z</time>
      </trkpt>
      <trkpt lat="41.054850" lon="-3.739933">
        <ele>1907.0</ele>
        <time>2013-06-04T18:40:24Z</time>
      </trkpt>
      <trkpt lat="41.054800" lon="-3.739983">
        <ele>1907.0</ele>
        <time>2013-06-04T18:40:25Z</time>
      </trkpt>
      <trkpt lat="41.054750" lon="-3.740033">
        <ele>1907.0</ele>
        <time>2013-06-04T18:40:26Z</time>
      </trkpt>
      <trkpt lat="41.054683" lon="-3.740083">
        <ele>1906.0</ele>
        <time>2013-06-04T18:40:27Z</time>
      </trkpt>
      <trkpt lat="41.054617" lon="-3.740150">
        <ele>1905.0</ele>
        <time>2013-06-04T18:40:28Z</time>
      </trkpt>
      <trkpt lat="41.054550" lon="-3.740217">
        <ele>1906.0</ele>
        <time>2013-06-04T18:40:29Z</time>
      </trkpt>
      <trkpt lat="41.054500" lon="-3.740267">
        <ele>1906.0</ele>
        <time>2013-06-04T18:40:30Z</time>
      </trkpt>
      <trkpt lat="41.054450" lon="-3.740317">
        <ele>1905.0</ele>
        <time>2013-06-04T18:40:31Z</time>
      </trkpt>
      <trkpt lat="41.054383" lon="-3.740367">
        <ele>1904.0</ele>
        <time>2013-06-04T18:40:32Z</time>
      </trkpt>
      <trkpt lat="41.054317" lon="-3.740400">
        <ele>1903.0</ele>
        <time>2013-06-04T18:40:33Z</time>
      </trkpt>
      <trkpt lat="41.054250" lon="-3.740467">
        <ele>1902.0</ele>
        <time>2013-06-04T18:40:34Z</time>
      </trkpt>
      <trkpt lat="41.054183" lon="-3.740517">
        <ele>1901.0</ele>
        <time>2013-06-04T18:40:35Z</time>
      </trkpt>
      <trkpt lat="41.054117" lon="-3.740550">
        <ele>1902.0</ele>
        <time>2013-06-04T18:40:36Z</time>
      </trkpt>
      <trkpt lat="41.054033" lon="-3.740583">
        <ele>1902.0</ele>
        <time>2013-06-04T18:40:37Z</time>
      </trkpt>
      <trkpt lat="41.053967" lon="-3.740617">
        <ele>1901.0</ele>
        <time>2013-06-04T18:40:38Z</time>
      </trkpt>
      <trkpt lat="41.053900" lon="-3.740650">
        <ele>1900.0</ele>
        <time>2013-06-04T18:40:39Z</time>
      </trkpt>
      <trkpt lat="41.053833" lon="-3.740700">
        <ele>1899.0</ele>
        <time>2013-06-04T18:40:40Z</time>
      </trkpt>
      <trkpt lat="41.053783" lon="-3.740750">
        <ele>1897.0</ele>
        <time>2013-06-04T18:40:41Z</time>
      </trkpt>
      <trkpt lat="41.053750" lon="-3.740817">
        <ele>1896.0</ele>
        <time>2013-06-04T18:40:42Z</time>
      </trkpt>
      <trkpt lat="41.053733" lon="-3.740883">
        <ele>1896.0</ele>
        <time>2013-06-04T18:40:43Z</time>
      </trkpt>
      <trkpt lat="41.053733" lon="-3.740950">
        <ele>1895.0</ele>
        <time>2013-06-04T18:40:44Z</time>
      </trkpt>
      <trkpt lat="41.053783" lon="-3.741000">
        <ele>1895.0</ele>
        <time>2013-06-04T18:40:45Z</time>
      </trkpt>
      <trkpt lat="41.053833" lon="-3.741033">
        <ele>1895.0</ele>
        <time>2013-06-04T18:40:46Z</time>
      </trkpt>
      <trkpt lat="41.053900" lon="-3.741033">
        <ele>1896.0</ele>
        <time>2013-06-04T18:40:47Z</time>
      </trkpt>
      <trkpt lat="41.053950" lon="-3.741017">
        <ele>1896.0</ele>
        <time>2013-06-04T18:40:48Z</time>
      </trkpt>
      <trkpt lat="41.054000" lon="-3.741017">
        <ele>1896.0</ele>
        <time>2013-06-04T18:40:49Z</time>
      </trkpt>
      <trkpt lat="41.054067" lon="-3.740983">
        <ele>1895.0</ele>
        <time>2013-06-04T18:40:50Z</time>
      </trkpt>
      <trkpt lat="41.054150" lon="-3.740950">
        <ele>1894.0</ele>
        <time>2013-06-04T18:40:51Z</time>
      </trkpt>
      <trkpt lat="41.054217" lon="-3.740883">
        <ele>1894.0</ele>
        <time>2013-06-04T18:40:52Z</time>
      </trkpt>
      <trkpt lat="41.054283" lon="-3.740800">
        <ele>1894.0</ele>
        <time>2013-06-04T18:40:53Z</time>
      </trkpt>
      <trkpt lat="41.054350" lon="-3.740733">
        <ele>1894.0</ele>
        <time>2013-06-04T18:40:54Z</time>
      </trkpt>
      <trkpt lat="41.054417" lon="-3.740683">
        <ele>1895.0</ele>
        <time>2013-06-04T18:40:55Z</time>
      </trkpt>
      <trkpt lat="41.054467" lon="-3.740633">
        <ele>1894.0</ele>
        <time>2013-06-04T18:40:56Z</time>
      </trkpt>
      <trkpt lat="41.054533" lon="-3.740567">
        <ele>1894.0</ele>
        <time>2013-06-04T18:40:57Z</time>
      </trkpt>
      <trkpt lat="41.054583" lon="-3.740500">
        <ele>1893.0</ele>
        <time>2013-06-04T18:40:58Z</time>
      </trkpt>
      <trkpt lat="41.054650" lon="-3.740433">
        <ele>1893.0</ele>
        <time>2013-06-04T18:40:59Z</time>
      </trkpt>
      <trkpt lat="41.054717" lon="-3.740367">
        <ele>1892.0</ele>
        <time>2013-06-04T18:41:00Z</time>
      </trkpt>
      <trkpt lat="41.054783" lon="-3.740317">
        <ele>1892.0</ele>
        <time>2013-06-04T18:41:01Z</time>
      </trkpt>
      <trkpt lat="41.054833" lon="-3.740250">
        <ele>1893.0</ele>
        <time>2013-06-04T18:41:02Z</time>
      </trkpt>
      <trkpt lat="41.054900" lon="-3.740183">
        <ele>1893.0</ele>
        <time>2013-06-04T18:41:03Z</time>
      </trkpt>
      <trkpt lat="41.054967" lon="-3.740133">
        <ele>1893.0</ele>
        <time>2013-06-04T18:41:04Z</time>
      </trkpt>
      <trkpt lat="41.055033" lon="-3.740067">
        <ele>1893.0</ele>
        <time>2013-06-04T18:41:05Z</time>
      </trkpt>
      <trkpt lat="41.055100" lon="-3.740000">
        <ele>1893.0</ele>
        <time>2013-06-04T18:41:06Z</time>
      </trkpt>
      <trkpt lat="41.055150" lon="-3.739933">
        <ele>1893.0</ele>
        <time>2013-06-04T18:41:07Z</time>
      </trkpt>
      <trkpt lat="41.055200" lon="-3.739867">
        <ele>1893.0</ele>
        <time>2013-06-04T18:41:08Z</time>
      </trkpt>
      <trkpt lat="41.055267" lon="-3.739783">
        <ele>1892.0</ele>
        <time>2013-06-04T18:41:09Z</time>
      </trkpt>
      <trkpt lat="41.055317" lon="-3.739717">
        <ele>1892.0</ele>
        <time>2013-06-04T18:41:10Z</time>
      </trkpt>
      <trkpt lat="41.055383" lon="-3.739650">
        <ele>1891.0</ele>
        <time>2013-06-04T18:41:11Z</time>
      </trkpt>
      <trkpt lat="41.055450" lon="-3.739583">
        <ele>1891.0</ele>
        <time>2013-06-04T18:41:12Z</time>
      </trkpt>
      <trkpt lat="41.055500" lon="-3.739517">
        <ele>1890.0</ele>
        <time>2013-06-04T18:41:13Z</time>
      </trkpt>
      <trkpt lat="41.055567" lon="-3.739433">
        <ele>1890.0</ele>
        <time>2013-06-04T18:41:14Z</time>
      </trkpt>
      <trkpt lat="41.055617" lon="-3.739350">
        <ele>1889.0</ele>
        <time>2013-06-04T18:41:15Z</time>
      </trkpt>
      <trkpt lat="41.055667" lon="-3.739267">
        <ele>1889.0</ele>
        <time>2013-06-04T18:41:16Z</time>
      </trkpt>
      <trkpt lat="41.055733" lon="-3.739183">
        <ele>1888.0</ele>
        <time>2013-06-04T18:41:17Z</time>
      </trkpt>
      <trkpt lat="41.055800" lon="-3.739100">
        <ele>1888.0</ele>
        <time>2013-06-04T18:41:18Z</time>
      </trkpt>
      <trkpt lat="41.055850" lon="-3.739017">
        <ele>1888.0</ele>
        <time>2013-06-04T18:41:19Z</time>
      </trkpt>
      <trkpt lat="41.055917" lon="-3.738950">
        <ele>1889.0</ele>
        <time>2013-06-04T18:41:20Z</time>
      </trkpt>
      <trkpt lat="41.055983" lon="-3.738867">
        <ele>1889.0</ele>
        <time>2013-06-04T18:41:21Z</time>
      </trkpt>
      <trkpt lat="41.056033" lon="-3.738800">
        <ele>1889.0</ele>
        <time>2013-06-04T18:41:22Z</time>
      </trkpt>
      <trkpt lat="41.056100" lon="-3.738733">
        <ele>1889.0</ele>
        <time>2013-06-04T18:41:23Z</time>
      </trkpt>
      <trkpt lat="41.056167" lon="-3.738683">
        <ele>1889.0</ele>
        <time>2013-06-04T18:41:24Z</time>
      </trkpt>
      <trkpt lat="41.056233" lon="-3.738617">
        <ele>1888.0</ele>
        <time>2013-06-04T18:41:25Z</time>
      </trkpt>
      <trkpt lat="41.056283" lon="-3.738550">
        <ele>1888.0</ele>
        <time>2013-06-04T18:41:26Z</time>
      </trkpt>
      <trkpt lat="41.056350" lon="-3.738483">
        <ele>1888.0</ele>
        <time>2013-06-04T18:41:27Z</time>
      </trkpt>
      <trkpt lat="41.056417" lon="-3.738417">
        <ele>1888.0</ele>
        <time>2013-06-04T18:41:28Z</time>
      </trkpt>
      <trkpt lat="41.056483" lon="-3.738367">
        <ele>1888.0</ele>
        <time>2013-06-04T18:41:29Z</time>
      </trkpt>
      <trkpt lat="41.056533" lon="-3.738283">
        <ele>1888.0</ele>
        <time>2013-06-04T18:41:30Z</time>
      </trkpt>
      <trkpt lat="41.056600" lon="-3.738217">
        <ele>1888.0</ele>
        <time>2013-06-04T18:41:31Z</time>
      </trkpt>
      <trkpt lat="41.056667" lon="-3.738133">
        <ele>1888.0</ele>
        <time>2013-06-04T18:41:32Z</time>
      </trkpt>
      <trkpt lat="41.056717" lon="-3.738067">
        <ele>1888.0</ele>
        <time>2013-06-04T18:41:33Z</time>
      </trkpt>
      <trkpt lat="41.056783" lon="-3.738000">
        <ele>1888.0</ele>
        <time>2013-06-04T18:41:34Z</time>
      </trkpt>
      <trkpt lat="41.056833" lon="-3.737933">
        <ele>1888.0</ele>
        <time>2013-06-04T18:41:35Z</time>
      </trkpt>
      <trkpt lat="41.056900" lon="-3.737867">
        <ele>1888.0</ele>
        <time>2013-06-04T18:41:36Z</time>
      </trkpt>
      <trkpt lat="41.056950" lon="-3.737783">
        <ele>1887.0</ele>
        <time>2013-06-04T18:41:37Z</time>
      </trkpt>
      <trkpt lat="41.057017" lon="-3.737717">
        <ele>1887.0</ele>
        <time>2013-06-04T18:41:38Z</time>
      </trkpt>
      <trkpt lat="41.057067" lon="-3.737633">
        <ele>1887.0</ele>
        <time>2013-06-04T18:41:39Z</time>
      </trkpt>
      <trkpt lat="41.057133" lon="-3.737550">
        <ele>1887.0</ele>
        <time>2013-06-04T18:41:40Z</time>
      </trkpt>
      <trkpt lat="41.057183" lon="-3.737467">
        <ele>1886.0</ele>
        <time>2013-06-04T18:41:41Z</time>
      </trkpt>
      <trkpt lat="41.057250" lon="-3.737367">
        <ele>1886.0</ele>
        <time>2013-06-04T18:41:42Z</time>
      </trkpt>
      <trkpt lat="41.057300" lon="-3.737283">
        <ele>1886.0</ele>
        <time>2013-06-04T18:41:43Z</time>
      </trkpt>
      <trkpt lat="41.057367" lon="-3.737200">
        <ele>1886.0</ele>
        <time>2013-06-04T18:41:44Z</time>
      </trkpt>
      <trkpt lat="41.057433" lon="-3.737117">
        <ele>1886.0</ele>
        <time>2013-06-04T18:41:45Z</time>
      </trkpt>
      <trkpt lat="41.057483" lon="-3.737050">
        <ele>1886.0</ele>
        <time>2013-06-04T18:41:46Z</time>
      </trkpt>
      <trkpt lat="41.057550" lon="-3.736967">
        <ele>1886.0</ele>
        <time>2013-06-04T18:41:47Z</time>
      </trkpt>
      <trkpt lat="41.057617" lon="-3.736900">
        <ele>1886.0</ele>
        <time>2013-06-04T18:41:48Z</time>
      </trkpt>
      <trkpt lat="41.057667" lon="-3.736833">
        <ele>1886.0</ele>
        <time>2013-06-04T18:41:49Z</time>
      </trkpt>
      <trkpt lat="41.057733" lon="-3.736750">
        <ele>1886.0</ele>
        <time>2013-06-04T18:41:50Z</time>
      </trkpt>
      <trkpt lat="41.057800" lon="-3.736683">
        <ele>1886.0</ele>
        <time>2013-06-04T18:41:51Z</time>
      </trkpt>
      <trkpt lat="41.057850" lon="-3.736600">
        <ele>1886.0</ele>
        <time>2013-06-04T18:41:52Z</time>
      </trkpt>
      <trkpt lat="41.057900" lon="-3.736533">
        <ele>1887.0</ele>
        <time>2013-06-04T18:41:53Z</time>
      </trkpt>
      <trkpt lat="41.057950" lon="-3.736450">
        <ele>1887.0</ele>
        <time>2013-06-04T18:41:54Z</time>
      </trkpt>
      <trkpt lat="41.058017" lon="-3.736383">
        <ele>1887.0</ele>
        <time>2013-06-04T18:41:55Z</time>
      </trkpt>
      <trkpt lat="41.058067" lon="-3.736300">
        <ele>1887.0</ele>
        <time>2013-06-04T18:41:56Z</time>
      </trkpt>
      <trkpt lat="41.058117" lon="-3.736233">
        <ele>1887.0</ele>
        <time>2013-06-04T18:41:57Z</time>
      </trkpt>
      <trkpt lat="41.058167" lon="-3.736167">
        <ele>1886.0</ele>
        <time>2013-06-04T18:41:58Z</time>
      </trkpt>
      <trkpt lat="41.058217" lon="-3.736100">
        <ele>1886.0</ele>
        <time>2013-06-04T18:41:59Z</time>
      </trkpt>
      <trkpt lat="41.058283" lon="-3.736033">
        <ele>1886.0</ele>
        <time>2013-06-04T18:42:00Z</time>
      </trkpt>
      <trkpt lat="41.058333" lon="-3.735967">
        <ele>1886.0</ele>
        <time>2013-06-04T18:42:01Z</time>
      </trkpt>
      <trkpt lat="41.058383" lon="-3.735900">
        <ele>1885.0</ele>
        <time>2013-06-04T18:42:02Z</time>
      </trkpt>
      <trkpt lat="41.058433" lon="-3.735850">
        <ele>1885.0</ele>
        <time>2013-06-04T18:42:03Z</time>
      </trkpt>
      <trkpt lat="41.058500" lon="-3.735783">
        <ele>1885.0</ele>
        <time>2013-06-04T18:42:04Z</time>
      </trkpt>
      <trkpt lat="41.058550" lon="-3.735717">
        <ele>1886.0</ele>
        <time>2013-06-04T18:42:05Z</time>
      </trkpt>
      <trkpt lat="41.058600" lon="-3.735650">
        <ele>1886.0</ele>
        <time>2013-06-04T18:42:06Z</time>
      </trkpt>
      <trkpt lat="41.058650" lon="-3.735583">
        <ele>1887.0</ele>
        <time>2013-06-04T18:42:07Z</time>
      </trkpt>
      <trkpt lat="41.058717" lon="-3.735533">
        <ele>1887.0</ele>
        <time>2013-06-04T18:42:08Z</time>
      </trkpt>
      <trkpt lat="41.058767" lon="-3.735467">
        <ele>1887.0</ele>
        <time>2013-06-04T18:42:09Z</time>
      </trkpt>
      <trkpt lat="41.058817" lon="-3.735400">
        <ele>1887.0</ele>
        <time>2013-06-04T18:42:10Z</time>
      </trkpt>
      <trkpt lat="41.058867" lon="-3.735333">
        <ele>1887.0</ele>
        <time>2013-06-04T18:42:11Z</time>
      </trkpt>
      <trkpt lat="41.058933" lon="-3.735250">
        <ele>1887.0</ele>
        <time>2013-06-04T18:42:12Z</time>
      </trkpt>
      <trkpt lat="41.058983" lon="-3.735167">
        <ele>1887.0</ele>
        <time>2013-06-04T18:42:13Z</time>
      </trkpt>
      <trkpt lat="41.059033" lon="-3.735100">
        <ele>1887.0</ele>
        <time>2013-06-04T18:42:14Z</time>
      </trkpt>
      <trkpt lat="41.059083" lon="-3.735033">
        <ele>1887.0</ele>
        <time>2013-06-04T18:42:15Z</time>
      </trkpt>
      <trkpt lat="41.059133" lon="-3.734950">
        <ele>1887.0</ele>
        <time>2013-06-04T18:42:16Z</time>
      </trkpt>
      <trkpt lat="41.059183" lon="-3.734883">
        <ele>1887.0</ele>
        <time>2013-06-04T18:42:17Z</time>
      </trkpt>
      <trkpt lat="41.059233" lon="-3.734817">
        <ele>1887.0</ele>
        <time>2013-06-04T18:42:18Z</time>
      </trkpt>
      <trkpt lat="41.059283" lon="-3.734750">
        <ele>1887.0</ele>
        <time>2013-06-04T18:42:19Z</time>
      </trkpt>
      <trkpt lat="41.059317" lon="-3.734683">
        <ele>1887.0</ele>
        <time>2013-06-04T18:42:20Z</time>
      </trkpt>
      <trkpt lat="41.059367" lon="-3.734600">
        <ele>1887.0</ele>
        <time>2013-06-04T18:42:21Z</time>
      </trkpt>
      <trkpt lat="41.059433" lon="-3.734533">
        <ele>1887.0</ele>
        <time>2013-06-04T18:42:22Z</time>
      </trkpt>
      <trkpt lat="41.059483" lon="-3.734467">
        <ele>1887.0</ele>
        <time>2013-06-04T18:42:23Z</time>
      </trkpt>
      <trkpt lat="41.059533" lon="-3.734400">
        <ele>1888.0</ele>
        <time>2013-06-04T18:42:24Z</time>
      </trkpt>
      <trkpt lat="41.059600" lon="-3.734333">
        <ele>1888.0</ele>
        <time>2013-06-04T18:42:25Z</time>
      </trkpt>
      <trkpt lat="41.059650" lon="-3.734283">
        <ele>1889.0</ele>
        <time>2013-06-04T18:42:26Z</time>
      </trkpt>
      <trkpt lat="41.059700" lon="-3.734217">
        <ele>1889.0</ele>
        <time>2013-06-04T18:42:27Z</time>
      </trkpt>
      <trkpt lat="41.059750" lon="-3.734167">
        <ele>1890.0</ele>
        <time>2013-06-04T18:42:28Z</time>
      </trkpt>
      <trkpt lat="41.059817" lon="-3.734100">
        <ele>1890.0</ele>
        <time>2013-06-04T18:42:29Z</time>
      </trkpt>
      <trkpt lat="41.059867" lon="-3.734017">
        <ele>1891.0</ele>
        <time>2013-06-04T18:42:30Z</time>
      </trkpt>
      <trkpt lat="41.059917" lon="-3.733950">
        <ele>1891.0</ele>
        <time>2013-06-04T18:42:31Z</time>
      </trkpt>
      <trkpt lat="41.059983" lon="-3.733883">
        <ele>1891.0</ele>
        <time>2013-06-04T18:42:32Z</time>
      </trkpt>
      <trkpt lat="41.060033" lon="-3.733800">
        <ele>1892.0</ele>
        <time>2013-06-04T18:42:33Z</time>
      </trkpt>
      <trkpt lat="41.060083" lon="-3.733733">
        <ele>1893.0</ele>
        <time>2013-06-04T18:42:34Z</time>
      </trkpt>
      <trkpt lat="41.060117" lon="-3.733650">
        <ele>1894.0</ele>
        <time>2013-06-04T18:42:35Z</time>
      </trkpt>
      <trkpt lat="41.060167" lon="-3.733567">
        <ele>1894.0</ele>
        <time>2013-06-04T18:42:36Z</time>
      </trkpt>
      <trkpt lat="41.060217" lon="-3.733483">
        <ele>1894.0</ele>
        <time>2013-06-04T18:42:37Z</time>
      </trkpt>
      <trkpt lat="41.060267" lon="-3.733417">
        <ele>1895.0</ele>
        <time>2013-06-04T18:42:38Z</time>
      </trkpt>
      <trkpt lat="41.060317" lon="-3.733350">
        <ele>1895.0</ele>
        <time>2013-06-04T18:42:39Z</time>
      </trkpt>
      <trkpt lat="41.060383" lon="-3.733283">
        <ele>1896.0</ele>
        <time>2013-06-04T18:42:40Z</time>
      </trkpt>
      <trkpt lat="41.060417" lon="-3.733233">
        <ele>1897.0</ele>
        <time>2013-06-04T18:42:41Z</time>
      </trkpt>
      <trkpt lat="41.060467" lon="-3.733200">
        <ele>1898.0</ele>
        <time>2013-06-04T18:42:42Z</time>
      </trkpt>
      <trkpt lat="41.060517" lon="-3.733167">
        <ele>1898.0</ele>
        <time>2013-06-04T18:42:43Z</time>
      </trkpt>
      <trkpt lat="41.060550" lon="-3.733117">
        <ele>1898.0</ele>
        <time>2013-06-04T18:42:44Z</time>
      </trkpt>
      <trkpt lat="41.060600" lon="-3.733067">
        <ele>1898.0</ele>
        <time>2013-06-04T18:42:45Z</time>
      </trkpt>
      <trkpt lat="41.060650" lon="-3.733033">
        <ele>1898.0</ele>
        <time>2013-06-04T18:42:46Z</time>
      </trkpt>
      <trkpt lat="41.060700" lon="-3.732983">
        <ele>1898.0</ele>
        <time>2013-06-04T18:42:47Z</time>
      </trkpt>
      <trkpt lat="41.060750" lon="-3.732933">
        <ele>1898.0</ele>
        <time>2013-06-04T18:42:48Z</time>
      </trkpt>
      <trkpt lat="41.060783" lon="-3.732900">
        <ele>1898.0</ele>
        <time>2013-06-04T18:42:49Z</time>
      </trkpt>
      <trkpt lat="41.060833" lon="-3.732850">
        <ele>1898.0</ele>
        <time>2013-06-04T18:42:50Z</time>
      </trkpt>
      <trkpt lat="41.060883" lon="-3.732800">
        <ele>1898.0</ele>
        <time>2013-06-04T18:42:51Z</time>
      </trkpt>
      <trkpt lat="41.060933" lon="-3.732767">
        <ele>1899.0</ele>
        <time>2013-06-04T18:42:52Z</time>
      </trkpt>
      <trkpt lat="41.060983" lon="-3.732733">
        <ele>1899.0</ele>
        <time>2013-06-04T18:42:53Z</time>
      </trkpt>
      <trkpt lat="41.061017" lon="-3.732700">
        <ele>1899.0</ele>
        <time>2013-06-04T18:42:54Z</time>
      </trkpt>
      <trkpt lat="41.061067" lon="-3.732650">
        <ele>1899.0</ele>
        <time>2013-06-04T18:42:55Z</time>
      </trkpt>
      <trkpt lat="41.061117" lon="-3.732617">
        <ele>1899.0</ele>
        <time>2013-06-04T18:42:56Z</time>
      </trkpt>
      <trkpt lat="41.061167" lon="-3.732583">
        <ele>1899.0</ele>
        <time>2013-06-04T18:42:57Z</time>
      </trkpt>
      <trkpt lat="41.061217" lon="-3.732550">
        <ele>1899.0</ele>
        <time>2013-06-04T18:42:58Z</time>
      </trkpt>
      <trkpt lat="41.061267" lon="-3.732517">
        <ele>1899.0</ele>
        <time>2013-06-04T18:42:59Z</time>
      </trkpt>
      <trkpt lat="41.061317" lon="-3.732467">
        <ele>1900.0</ele>
        <time>2013-06-04T18:43:00Z</time>
      </trkpt>
      <trkpt lat="41.061367" lon="-3.732433">
        <ele>1901.0</ele>
        <time>2013-06-04T18:43:01Z</time>
      </trkpt>
      <trkpt lat="41.061417" lon="-3.732367">
        <ele>1901.0</ele>
        <time>2013-06-04T18:43:02Z</time>
      </trkpt>
      <trkpt lat="41.061467" lon="-3.732317">
        <ele>1901.0</ele>
        <time>2013-06-04T18:43:03Z</time>
      </trkpt>
      <trkpt lat="41.061517" lon="-3.732250">
        <ele>1901.0</ele>
        <time>2013-06-04T18:43:04Z</time>
      </trkpt>
      <trkpt lat="41.061567" lon="-3.732183">
        <ele>1901.0</ele>
        <time>2013-06-04T18:43:05Z</time>
      </trkpt>
      <trkpt lat="41.061633" lon="-3.732117">
        <ele>1901.0</ele>
        <time>2013-06-04T18:43:06Z</time>
      </trkpt>
      <trkpt lat="41.061700" lon="-3.732050">
        <ele>1902.0</ele>
        <time>2013-06-04T18:43:07Z</time>
      </trkpt>
      <trkpt lat="41.061750" lon="-3.731983">
        <ele>1903.0</ele>
        <time>2013-06-04T18:43:08Z</time>
      </trkpt>
      <trkpt lat="41.061800" lon="-3.731917">
        <ele>1905.0</ele>
        <time>2013-06-04T18:43:09Z</time>
      </trkpt>
      <trkpt lat="41.061867" lon="-3.731883">
        <ele>1905.0</ele>
        <time>2013-06-04T18:43:10Z</time>
      </trkpt>
      <trkpt lat="41.061917" lon="-3.731867">
        <ele>1906.0</ele>
        <time>2013-06-04T18:43:11Z</time>
      </trkpt>
      <trkpt lat="41.061950" lon="-3.731883">
        <ele>1905.0</ele>
        <time>2013-06-04T18:43:12Z</time>
      </trkpt>
      <trkpt lat="41.061983" lon="-3.731933">
        <ele>1904.0</ele>
        <time>2013-06-04T18:43:13Z</time>
      </trkpt>
      <trkpt lat="41.061983" lon="-3.732000">
        <ele>1904.0</ele>
        <time>2013-06-04T18:43:14Z</time>
      </trkpt>
      <trkpt lat="41.061950" lon="-3.732050">
        <ele>1904.0</ele>
        <time>2013-06-04T18:43:15Z</time>
      </trkpt>
      <trkpt lat="41.061900" lon="-3.732117">
        <ele>1905.0</ele>
        <time>2013-06-04T18:43:16Z</time>
      </trkpt>
      <trkpt lat="41.061850" lon="-3.732183">
        <ele>1906.0</ele>
        <time>2013-06-04T18:43:17Z</time>
      </trkpt>
      <trkpt lat="41.061800" lon="-3.732233">
        <ele>1908.0</ele>
        <time>2013-06-04T18:43:18Z</time>
      </trkpt>
      <trkpt lat="41.061733" lon="-3.732267">
        <ele>1909.0</ele>
        <time>2013-06-04T18:43:19Z</time>
      </trkpt>
      <trkpt lat="41.061650" lon="-3.732300">
        <ele>1910.0</ele>
        <time>2013-06-04T18:43:20Z</time>
      </trkpt>
      <trkpt lat="41.061567" lon="-3.732317">
        <ele>1909.0</ele>
        <time>2013-06-04T18:43:21Z</time>
      </trkpt>
      <trkpt lat="41.061467" lon="-3.732333">
        <ele>1909.0</ele>
        <time>2013-06-04T18:43:22Z</time>
      </trkpt>
      <trkpt lat="41.061350" lon="-3.732350">
        <ele>1909.0</ele>
        <time>2013-06-04T18:43:23Z</time>
      </trkpt>
      <trkpt lat="41.061250" lon="-3.732350">
        <ele>1910.0</ele>
        <time>2013-06-04T18:43:24Z</time>
      </trkpt>
      <trkpt lat="41.061150" lon="-3.732383">
        <ele>1911.0</ele>
        <time>2013-06-04T18:43:25Z</time>
      </trkpt>
      <trkpt lat="41.061083" lon="-3.732417">
        <ele>1911.0</ele>
        <time>2013-06-04T18:43:26Z</time>
      </trkpt>
      <trkpt lat="41.061050" lon="-3.732483">
        <ele>1910.0</ele>
        <time>2013-06-04T18:43:27Z</time>
      </trkpt>
      <trkpt lat="41.061033" lon="-3.732533">
        <ele>1909.0</ele>
        <time>2013-06-04T18:43:28Z</time>
      </trkpt>
      <trkpt lat="41.061050" lon="-3.732583">
        <ele>1909.0</ele>
        <time>2013-06-04T18:43:29Z</time>
      </trkpt>
      <trkpt lat="41.061100" lon="-3.732617">
        <ele>1910.0</ele>
        <time>2013-06-04T18:43:30Z</time>
      </trkpt>
      <trkpt lat="41.061150" lon="-3.732617">
        <ele>1910.0</ele>
        <time>2013-06-04T18:43:31Z</time>
      </trkpt>
      <trkpt lat="41.061183" lon="-3.732600">
        <ele>1910.0</ele>
        <time>2013-06-04T18:43:32Z</time>
      </trkpt>
      <trkpt lat="41.061233" lon="-3.732583">
        <ele>1910.0</ele>
        <time>2013-06-04T18:43:33Z</time>
      </trkpt>
      <trkpt lat="41.061283" lon="-3.732550">
        <ele>1911.0</ele>
        <time>2013-06-04T18:43:34Z</time>
      </trkpt>
      <trkpt lat="41.061333" lon="-3.732500">
        <ele>1910.0</ele>
        <time>2013-06-04T18:43:35Z</time>
      </trkpt>
      <trkpt lat="41.061383" lon="-3.732450">
        <ele>1908.0</ele>
        <time>2013-06-04T18:43:36Z</time>
      </trkpt>
      <trkpt lat="41.061450" lon="-3.732367">
        <ele>1908.0</ele>
        <time>2013-06-04T18:43:37Z</time>
      </trkpt>
      <trkpt lat="41.061517" lon="-3.732283">
        <ele>1908.0</ele>
        <time>2013-06-04T18:43:38Z</time>
      </trkpt>
      <trkpt lat="41.061567" lon="-3.732200">
        <ele>1908.0</ele>
        <time>2013-06-04T18:43:39Z</time>
      </trkpt>
      <trkpt lat="41.061617" lon="-3.732117">
        <ele>1909.0</ele>
        <time>2013-06-04T18:43:40Z</time>
      </trkpt>
      <trkpt lat="41.061667" lon="-3.732033">
        <ele>1910.0</ele>
        <time>2013-06-04T18:43:41Z</time>
      </trkpt>
      <trkpt lat="41.061717" lon="-3.731950">
        <ele>1910.0</ele>
        <time>2013-06-04T18:43:42Z</time>
      </trkpt>
      <trkpt lat="41.061767" lon="-3.731867">
        <ele>1909.0</ele>
        <time>2013-06-04T18:43:43Z</time>
      </trkpt>
      <trkpt lat="41.061833" lon="-3.731767">
        <ele>1910.0</ele>
        <time>2013-06-04T18:43:44Z</time>
      </trkpt>
      <trkpt lat="41.061883" lon="-3.731667">
        <ele>1910.0</ele>
        <time>2013-06-04T18:43:45Z</time>
      </trkpt>
      <trkpt lat="41.061917" lon="-3.731567">
        <ele>1911.0</ele>
        <time>2013-06-04T18:43:46Z</time>
      </trkpt>
      <trkpt lat="41.061967" lon="-3.731450">
        <ele>1911.0</ele>
        <time>2013-06-04T18:43:47Z</time>
      </trkpt>
      <trkpt lat="41.062000" lon="-3.731333">
        <ele>1911.0</ele>
        <time>2013-06-04T18:43:48Z</time>
      </trkpt>
      <trkpt lat="41.062050" lon="-3.731217">
        <ele>1910.0</ele>
        <time>2013-06-04T18:43:49Z</time>
      </trkpt>
      <trkpt lat="41.062083" lon="-3.731100">
        <ele>1910.0</ele>
        <time>2013-06-04T18:43:50Z</time>
      </trkpt>
      <trkpt lat="41.062133" lon="-3.730983">
        <ele>1910.0</ele>
        <time>2013-06-04T18:43:51Z</time>
      </trkpt>
      <trkpt lat="41.062183" lon="-3.730867">
        <ele>1911.0</ele>
        <time>2013-06-04T18:43:52Z</time>
      </trkpt>
      <trkpt lat="41.062217" lon="-3.730733">
        <ele>1912.0</ele>
        <time>2013-06-04T18:43:53Z</time>
      </trkpt>
      <trkpt lat="41.062267" lon="-3.730617">
        <ele>1912.0</ele>
        <time>2013-06-04T18:43:54Z</time>
      </trkpt>
      <trkpt lat="41.062300" lon="-3.730500">
        <ele>1913.0</ele>
        <time>2013-06-04T18:43:55Z</time>
      </trkpt>
      <trkpt lat="41.062350" lon="-3.730400">
        <ele>1913.0</ele>
        <time>2013-06-04T18:43:56Z</time>
      </trkpt>
      <trkpt lat="41.062400" lon="-3.730300">
        <ele>1913.0</ele>
        <time>2013-06-04T18:43:57Z</time>
      </trkpt>
      <trkpt lat="41.062450" lon="-3.730217">
        <ele>1913.0</ele>
        <time>2013-06-04T18:43:58Z</time>
      </trkpt>
      <trkpt lat="41.062517" lon="-3.730150">
        <ele>1913.0</ele>
        <time>2013-06-04T18:43:59Z</time>
      </trkpt>
      <trkpt lat="41.062583" lon="-3.730100">
        <ele>1914.0</ele>
        <time>2013-06-04T18:44:00Z</time>
      </trkpt>
      <trkpt lat="41.062633" lon="-3.730050">
        <ele>1914.0</ele>
        <time>2013-06-04T18:44:01Z</time>
      </trkpt>
      <trkpt lat="41.062683" lon="-3.730050">
        <ele>1915.0</ele>
        <time>2013-06-04T18:44:02Z</time>
      </trkpt>
      <trkpt lat="41.062733" lon="-3.730050">
        <ele>1915.0</ele>
        <time>2013-06-04T18:44:03Z</time>
      </trkpt>
      <trkpt lat="41.062750" lon="-3.730083">
        <ele>1915.0</ele>
        <time>2013-06-04T18:44:04Z</time>
      </trkpt>
      <trkpt lat="41.062750" lon="-3.730133">
        <ele>1915.0</ele>
        <time>2013-06-04T18:44:05Z</time>
      </trkpt>
      <trkpt lat="41.062733" lon="-3.730200">
        <ele>1914.0</ele>
        <time>2013-06-04T18:44:06Z</time>
      </trkpt>
      <trkpt lat="41.062700" lon="-3.730267">
        <ele>1914.0</ele>
        <time>2013-06-04T18:44:07Z</time>
      </trkpt>
      <trkpt lat="41.062650" lon="-3.730317">
        <ele>1914.0</ele>
        <time>2013-06-04T18:44:08Z</time>
      </trkpt>
      <trkpt lat="41.062583" lon="-3.730383">
        <ele>1915.0</ele>
        <time>2013-06-04T18:44:09Z</time>
      </trkpt>
      <trkpt lat="41.062500" lon="-3.730417">
        <ele>1915.0</ele>
        <time>2013-06-04T18:44:10Z</time>
      </trkpt>
      <trkpt lat="41.062400" lon="-3.730467">
        <ele>1916.0</ele>
        <time>2013-06-04T18:44:11Z</time>
      </trkpt>
      <trkpt lat="41.062317" lon="-3.730500">
        <ele>1917.0</ele>
        <time>2013-06-04T18:44:12Z</time>
      </trkpt>
      <trkpt lat="41.062233" lon="-3.730533">
        <ele>1918.0</ele>
        <time>2013-06-04T18:44:13Z</time>
      </trkpt>
      <trkpt lat="41.062150" lon="-3.730567">
        <ele>1919.0</ele>
        <time>2013-06-04T18:44:14Z</time>
      </trkpt>
      <trkpt lat="41.062083" lon="-3.730600">
        <ele>1919.0</ele>
        <time>2013-06-04T18:44:15Z</time>
      </trkpt>
      <trkpt lat="41.062017" lon="-3.730650">
        <ele>1919.0</ele>
        <time>2013-06-04T18:44:16Z</time>
      </trkpt>
      <trkpt lat="41.061967" lon="-3.730733">
        <ele>1919.0</ele>
        <time>2013-06-04T18:44:17Z</time>
      </trkpt>
      <trkpt lat="41.061933" lon="-3.730800">
        <ele>1919.0</ele>
        <time>2013-06-04T18:44:18Z</time>
      </trkpt>
      <trkpt lat="41.061900" lon="-3.730867">
        <ele>1921.0</ele>
        <time>2013-06-04T18:44:19Z</time>
      </trkpt>
      <trkpt lat="41.061867" lon="-3.730917">
        <ele>1922.0</ele>
        <time>2013-06-04T18:44:20Z</time>
      </trkpt>
      <trkpt lat="41.061817" lon="-3.730967">
        <ele>1923.0</ele>
        <time>2013-06-04T18:44:21Z</time>
      </trkpt>
      <trkpt lat="41.061783" lon="-3.731017">
        <ele>1922.0</ele>
        <time>2013-06-04T18:44:22Z</time>
      </trkpt>
      <trkpt lat="41.061750" lon="-3.731083">
        <ele>1922.0</ele>
        <time>2013-06-04T18:44:23Z</time>
      </trkpt>
      <trkpt lat="41.061733" lon="-3.731150">
        <ele>1922.0</ele>
        <time>2013-06-04T18:44:24Z</time>
      </trkpt>
      <trkpt lat="41.061700" lon="-3.731233">
        <ele>1923.0</ele>
        <time>2013-06-04T18:44:25Z</time>
      </trkpt>
      <trkpt lat="41.061683" lon="-3.731283">
        <ele>1924.0</ele>
        <time>2013-06-04T18:44:26Z</time>
      </trkpt>
      <trkpt lat="41.061650" lon="-3.731333">
        <ele>1926.0</ele>
        <time>2013-06-04T18:44:27Z</time>
      </trkpt>
      <trkpt lat="41.061617" lon="-3.731383">
        <ele>1927.0</ele>
        <time>2013-06-04T18:44:28Z</time>
      </trkpt>
      <trkpt lat="41.061583" lon="-3.731433">
        <ele>1927.0</ele>
        <time>2013-06-04T18:44:29Z</time>
      </trkpt>
      <trkpt lat="41.061567" lon="-3.731467">
        <ele>1927.0</ele>
        <time>2013-06-04T18:44:30Z</time>
      </trkpt>
      <trkpt lat="41.061567" lon="-3.731533">
        <ele>1927.0</ele>
        <time>2013-06-04T18:44:31Z</time>
      </trkpt>
      <trkpt lat="41.061567" lon="-3.731583">
        <ele>1927.0</ele>
        <time>2013-06-04T18:44:32Z</time>
      </trkpt>
      <trkpt lat="41.061550" lon="-3.731650">
        <ele>1928.0</ele>
        <time>2013-06-04T18:44:33Z</time>
      </trkpt>
      <trkpt lat="41.061533" lon="-3.731700">
        <ele>1929.0</ele>
        <time>2013-06-04T18:44:34Z</time>
      </trkpt>
      <trkpt lat="41.061483" lon="-3.731733">
        <ele>1929.0</ele>
        <time>2013-06-04T18:44:35Z</time>
      </trkpt>
      <trkpt lat="41.061433" lon="-3.731767">
        <ele>1930.0</ele>
        <time>2013-06-04T18:44:36Z</time>
      </trkpt>
      <trkpt lat="41.061383" lon="-3.731817">
        <ele>1929.0</ele>
        <time>2013-06-04T18:44:37Z</time>
      </trkpt>
      <trkpt lat="41.061367" lon="-3.731867">
        <ele>1927.0</ele>
        <time>2013-06-04T18:44:38Z</time>
      </trkpt>
      <trkpt lat="41.061350" lon="-3.731933">
        <ele>1927.0</ele>
        <time>2013-06-04T18:44:39Z</time>
      </trkpt>
      <trkpt lat="41.061367" lon="-3.731983">
        <ele>1927.0</ele>
        <time>2013-06-04T18:44:40Z</time>
      </trkpt>
      <trkpt lat="41.061417" lon="-3.731983">
        <ele>1927.0</ele>
        <time>2013-06-04T18:44:41Z</time>
      </trkpt>
      <trkpt lat="41.061467" lon="-3.731967">
        <ele>1927.0</ele>
        <time>2013-06-04T18:44:42Z</time>
      </trkpt>
      <trkpt lat="41.061533" lon="-3.731950">
        <ele>1928.0</ele>
        <time>2013-06-04T18:44:43Z</time>
      </trkpt>
      <trkpt lat="41.061567" lon="-3.731917">
        <ele>1929.0</ele>
        <time>2013-06-04T18:44:44Z</time>
      </trkpt>
      <trkpt lat="41.061617" lon="-3.731883">
        <ele>1929.0</ele>
        <time>2013-06-04T18:44:45Z</time>
      </trkpt>
      <trkpt lat="41.061667" lon="-3.731833">
        <ele>1928.0</ele>
        <time>2013-06-04T18:44:46Z</time>
      </trkpt>
      <trkpt lat="41.061717" lon="-3.731767">
        <ele>1927.0</ele>
        <time>2013-06-04T18:44:47Z</time>
      </trkpt>
      <trkpt lat="41.061767" lon="-3.731667">
        <ele>1927.0</ele>
        <time>2013-06-04T18:44:48Z</time>
      </trkpt>
      <trkpt lat="41.061833" lon="-3.731567">
        <ele>1927.0</ele>
        <time>2013-06-04T18:44:49Z</time>
      </trkpt>
      <trkpt lat="41.061867" lon="-3.731467">
        <ele>1928.0</ele>
        <time>2013-06-04T18:44:50Z</time>
      </trkpt>
      <trkpt lat="41.061917" lon="-3.731383">
        <ele>1930.0</ele>
        <time>2013-06-04T18:44:51Z</time>
      </trkpt>
      <trkpt lat="41.061967" lon="-3.731283">
        <ele>1930.0</ele>
        <time>2013-06-04T18:44:52Z</time>
      </trkpt>
      <trkpt lat="41.062033" lon="-3.731200">
        <ele>1931.0</ele>
        <time>2013-06-04T18:44:53Z</time>
      </trkpt>
      <trkpt lat="41.062083" lon="-3.731100">
        <ele>1932.0</ele>
        <time>2013-06-04T18:44:54Z</time>
      </trkpt>
      <trkpt lat="41.062133" lon="-3.731000">
        <ele>1933.0</ele>
        <time>2013-06-04T18:44:55Z</time>
      </trkpt>
      <trkpt lat="41.062183" lon="-3.730883">
        <ele>1934.0</ele>
        <time>2013-06-04T18:44:56Z</time>
      </trkpt>
      <trkpt lat="41.062217" lon="-3.730783">
        <ele>1934.0</ele>
        <time>2013-06-04T18:44:57Z</time>
      </trkpt>
      <trkpt lat="41.062267" lon="-3.730700">
        <ele>1934.0</ele>
        <time>2013-06-04T18:44:58Z</time>
      </trkpt>
      <trkpt lat="41.062300" lon="-3.730600">
        <ele>1933.0</ele>
        <time>2013-06-04T18:44:59Z</time>
      </trkpt>
      <trkpt lat="41.062367" lon="-3.730517">
        <ele>1933.0</ele>
        <time>2013-06-04T18:45:00Z</time>
      </trkpt>
      <trkpt lat="41.062417" lon="-3.730450">
        <ele>1933.0</ele>
        <time>2013-06-04T18:45:01Z</time>
      </trkpt>
      <trkpt lat="41.062467" lon="-3.730417">
        <ele>1933.0</ele>
        <time>2013-06-04T18:45:02Z</time>
      </trkpt>
      <trkpt lat="41.062517" lon="-3.730417">
        <ele>1933.0</ele>
        <time>2013-06-04T18:45:03Z</time>
      </trkpt>
      <trkpt lat="41.062533" lon="-3.730450">
        <ele>1933.0</ele>
        <time>2013-06-04T18:45:04Z</time>
      </trkpt>
      <trkpt lat="41.062550" lon="-3.730483">
        <ele>1933.0</ele>
        <time>2013-06-04T18:45:05Z</time>
      </trkpt>
      <trkpt lat="41.062533" lon="-3.730550">
        <ele>1933.0</ele>
        <time>2013-06-04T18:45:06Z</time>
      </trkpt>
      <trkpt lat="41.062500" lon="-3.730600">
        <ele>1933.0</ele>
        <time>2013-06-04T18:45:07Z</time>
      </trkpt>
      <trkpt lat="41.062467" lon="-3.730667">
        <ele>1934.0</ele>
        <time>2013-06-04T18:45:08Z</time>
      </trkpt>
      <trkpt lat="41.062417" lon="-3.730717">
        <ele>1934.0</ele>
        <time>2013-06-04T18:45:09Z</time>
      </trkpt>
      <trkpt lat="41.062367" lon="-3.730767">
        <ele>1934.0</ele>
        <time>2013-06-04T18:45:10Z</time>
      </trkpt>
      <trkpt lat="41.062317" lon="-3.730817">
        <ele>1933.0</ele>
        <time>2013-06-04T18:45:11Z</time>
      </trkpt>
      <trkpt lat="41.062267" lon="-3.730883">
        <ele>1933.0</ele>
        <time>2013-06-04T18:45:12Z</time>
      </trkpt>
      <trkpt lat="41.062200" lon="-3.730933">
        <ele>1933.0</ele>
        <time>2013-06-04T18:45:13Z</time>
      </trkpt>
      <trkpt lat="41.062150" lon="-3.731000">
        <ele>1933.0</ele>
        <time>2013-06-04T18:45:14Z</time>
      </trkpt>
      <trkpt lat="41.062100" lon="-3.731067">
        <ele>1934.0</ele>
        <time>2013-06-04T18:45:15Z</time>
      </trkpt>
      <trkpt lat="41.062067" lon="-3.731133">
        <ele>1934.0</ele>
        <time>2013-06-04T18:45:16Z</time>
      </trkpt>
      <trkpt lat="41.062017" lon="-3.731183">
        <ele>1935.0</ele>
        <time>2013-06-04T18:45:17Z</time>
      </trkpt>
      <trkpt lat="41.061983" lon="-3.731250">
        <ele>1935.0</ele>
        <time>2013-06-04T18:45:18Z</time>
      </trkpt>
      <trkpt lat="41.061933" lon="-3.731300">
        <ele>1935.0</ele>
        <time>2013-06-04T18:45:19Z</time>
      </trkpt>
      <trkpt lat="41.061900" lon="-3.731367">
        <ele>1934.0</ele>
        <time>2013-06-04T18:45:20Z</time>
      </trkpt>
      <trkpt lat="41.061867" lon="-3.731450">
        <ele>1934.0</ele>
        <time>2013-06-04T18:45:21Z</time>
      </trkpt>
      <trkpt lat="41.061833" lon="-3.731533">
        <ele>1934.0</ele>
        <time>2013-06-04T18:45:22Z</time>
      </trkpt>
      <trkpt lat="41.061800" lon="-3.731633">
        <ele>1936.0</ele>
        <time>2013-06-04T18:45:23Z</time>
      </trkpt>
      <trkpt lat="41.061767" lon="-3.731700">
        <ele>1938.0</ele>
        <time>2013-06-04T18:45:24Z</time>
      </trkpt>
      <trkpt lat="41.061733" lon="-3.731750">
        <ele>1940.0</ele>
        <time>2013-06-04T18:45:25Z</time>
      </trkpt>
      <trkpt lat="41.061700" lon="-3.731783">
        <ele>1941.0</ele>
        <time>2013-06-04T18:45:26Z</time>
      </trkpt>
      <trkpt lat="41.061633" lon="-3.731833">
        <ele>1941.0</ele>
        <time>2013-06-04T18:45:27Z</time>
      </trkpt>
      <trkpt lat="41.061583" lon="-3.731883">
        <ele>1940.0</ele>
        <time>2013-06-04T18:45:28Z</time>
      </trkpt>
      <trkpt lat="41.061533" lon="-3.731933">
        <ele>1940.0</ele>
        <time>2013-06-04T18:45:29Z</time>
      </trkpt>
      <trkpt lat="41.061500" lon="-3.732000">
        <ele>1940.0</ele>
        <time>2013-06-04T18:45:30Z</time>
      </trkpt>
      <trkpt lat="41.061517" lon="-3.732050">
        <ele>1940.0</ele>
        <time>2013-06-04T18:45:31Z</time>
      </trkpt>
      <trkpt lat="41.061550" lon="-3.732100">
        <ele>1939.0</ele>
        <time>2013-06-04T18:45:32Z</time>
      </trkpt>
      <trkpt lat="41.061600" lon="-3.732117">
        <ele>1940.0</ele>
        <time>2013-06-04T18:45:33Z</time>
      </trkpt>
      <trkpt lat="41.061633" lon="-3.732117">
        <ele>1940.0</ele>
        <time>2013-06-04T18:45:34Z</time>
      </trkpt>
      <trkpt lat="41.061683" lon="-3.732100">
        <ele>1941.0</ele>
        <time>2013-06-04T18:45:35Z</time>
      </trkpt>
      <trkpt lat="41.061717" lon="-3.732083">
        <ele>1941.0</ele>
        <time>2013-06-04T18:45:36Z</time>
      </trkpt>
      <trkpt lat="41.061783" lon="-3.732033">
        <ele>1941.0</ele>
        <time>2013-06-04T18:45:37Z</time>
      </trkpt>
      <trkpt lat="41.061850" lon="-3.731967">
        <ele>1940.0</ele>
        <time>2013-06-04T18:45:38Z</time>
      </trkpt>
      <trkpt lat="41.061900" lon="-3.731883">
        <ele>1940.0</ele>
        <time>2013-06-04T18:45:39Z</time>
      </trkpt>
      <trkpt lat="41.061967" lon="-3.731783">
        <ele>1941.0</ele>
        <time>2013-06-04T18:45:40Z</time>
      </trkpt>
      <trkpt lat="41.062017" lon="-3.731700">
        <ele>1942.0</ele>
        <time>2013-06-04T18:45:41Z</time>
      </trkpt>
      <trkpt lat="41.062050" lon="-3.731600">
        <ele>1943.0</ele>
        <time>2013-06-04T18:45:42Z</time>
      </trkpt>
      <trkpt lat="41.062100" lon="-3.731483">
        <ele>1942.0</ele>
        <time>2013-06-04T18:45:43Z</time>
      </trkpt>
      <trkpt lat="41.062133" lon="-3.731367">
        <ele>1942.0</ele>
        <time>2013-06-04T18:45:44Z</time>
      </trkpt>
      <trkpt lat="41.062183" lon="-3.731233">
        <ele>1941.0</ele>
        <time>2013-06-04T18:45:45Z</time>
      </trkpt>
      <trkpt lat="41.062217" lon="-3.731100">
        <ele>1941.0</ele>
        <time>2013-06-04T18:45:46Z</time>
      </trkpt>
      <trkpt lat="41.062267" lon="-3.730983">
        <ele>1941.0</ele>
        <time>2013-06-04T18:45:47Z</time>
      </trkpt>
      <trkpt lat="41.062300" lon="-3.730850">
        <ele>1942.0</ele>
        <time>2013-06-04T18:45:48Z</time>
      </trkpt>
      <trkpt lat="41.062350" lon="-3.730750">
        <ele>1942.0</ele>
        <time>2013-06-04T18:45:49Z</time>
      </trkpt>
      <trkpt lat="41.062383" lon="-3.730650">
        <ele>1942.0</ele>
        <time>2013-06-04T18:45:50Z</time>
      </trkpt>
      <trkpt lat="41.062433" lon="-3.730583">
        <ele>1942.0</ele>
        <time>2013-06-04T18:45:51Z</time>
      </trkpt>
      <trkpt lat="41.062500" lon="-3.730550">
        <ele>1942.0</ele>
        <time>2013-06-04T18:45:52Z</time>
      </trkpt>
      <trkpt lat="41.062550" lon="-3.730550">
        <ele>1941.0</ele>
        <time>2013-06-04T18:45:53Z</time>
      </trkpt>
      <trkpt lat="41.062583" lon="-3.730583">
        <ele>1941.0</ele>
        <time>2013-06-04T18:45:54Z</time>
      </trkpt>
      <trkpt lat="41.062583" lon="-3.730650">
        <ele>1941.0</ele>
        <time>2013-06-04T18:45:55Z</time>
      </trkpt>
      <trkpt lat="41.062567" lon="-3.730700">
        <ele>1942.0</ele>
        <time>2013-06-04T18:45:56Z</time>
      </trkpt>
      <trkpt lat="41.062533" lon="-3.730767">
        <ele>1942.0</ele>
        <time>2013-06-04T18:45:57Z</time>
      </trkpt>
      <trkpt lat="41.062500" lon="-3.730817">
        <ele>1943.0</ele>
        <time>2013-06-04T18:45:58Z</time>
      </trkpt>
      <trkpt lat="41.062467" lon="-3.730867">
        <ele>1943.0</ele>
        <time>2013-06-04T18:45:59Z</time>
      </trkpt>
      <trkpt lat="41.062417" lon="-3.730917">
        <ele>1943.0</ele>
        <time>2013-06-04T18:46:00Z</time>
      </trkpt>
      <trkpt lat="41.062367" lon="-3.730983">
        <ele>1943.0</ele>
        <time>2013-06-04T18:46:01Z</time>
      </trkpt>
      <trkpt lat="41.062317" lon="-3.731033">
        <ele>1943.0</ele>
        <time>2013-06-04T18:46:02Z</time>
      </trkpt>
      <trkpt lat="41.062250" lon="-3.731083">
        <ele>1943.0</ele>
        <time>2013-06-04T18:46:03Z</time>
      </trkpt>
      <trkpt lat="41.062200" lon="-3.731133">
        <ele>1944.0</ele>
        <time>2013-06-04T18:46:04Z</time>
      </trkpt>
      <trkpt lat="41.062150" lon="-3.731183">
        <ele>1944.0</ele>
        <time>2013-06-04T18:46:05Z</time>
      </trkpt>
      <trkpt lat="41.062083" lon="-3.731250">
        <ele>1943.0</ele>
        <time>2013-06-04T18:46:06Z</time>
      </trkpt>
      <trkpt lat="41.062033" lon="-3.731300">
        <ele>1943.0</ele>
        <time>2013-06-04T18:46:07Z</time>
      </trkpt>
      <trkpt lat="41.062000" lon="-3.731367">
        <ele>1943.0</ele>
        <time>2013-06-04T18:46:08Z</time>
      </trkpt>
      <trkpt lat="41.061967" lon="-3.731417">
        <ele>1943.0</ele>
        <time>2013-06-04T18:46:09Z</time>
      </trkpt>
      <trkpt lat="41.061967" lon="-3.731483">
        <ele>1943.0</ele>
        <time>2013-06-04T18:46:10Z</time>
      </trkpt>
      <trkpt lat="41.061950" lon="-3.731533">
        <ele>1944.0</ele>
        <time>2013-06-04T18:46:11Z</time>
      </trkpt>
      <trkpt lat="41.061950" lon="-3.731567">
        <ele>1944.0</ele>
        <time>2013-06-04T18:46:12Z</time>
      </trkpt>
      <trkpt lat="41.061950" lon="-3.731617">
        <ele>1943.0</ele>
        <time>2013-06-04T18:46:13Z</time>
      </trkpt>
      <trkpt lat="41.061983" lon="-3.731650">
        <ele>1942.0</ele>
        <time>2013-06-04T18:46:14Z</time>
      </trkpt>
      <trkpt lat="41.062017" lon="-3.731667">
        <ele>1941.0</ele>
        <time>2013-06-04T18:46:15Z</time>
      </trkpt>
      <trkpt lat="41.062067" lon="-3.731667">
        <ele>1940.0</ele>
        <time>2013-06-04T18:46:16Z</time>
      </trkpt>
      <trkpt lat="41.062133" lon="-3.731650">
        <ele>1940.0</ele>
        <time>2013-06-04T18:46:17Z</time>
      </trkpt>
      <trkpt lat="41.062183" lon="-3.731617">
        <ele>1940.0</ele>
        <time>2013-06-04T18:46:18Z</time>
      </trkpt>
      <trkpt lat="41.062233" lon="-3.731550">
        <ele>1940.0</ele>
        <time>2013-06-04T18:46:19Z</time>
      </trkpt>
      <trkpt lat="41.062300" lon="-3.731467">
        <ele>1941.0</ele>
        <time>2013-06-04T18:46:20Z</time>
      </trkpt>
      <trkpt lat="41.062350" lon="-3.731367">
        <ele>1940.0</ele>
        <time>2013-06-04T18:46:21Z</time>
      </trkpt>
      <trkpt lat="41.062383" lon="-3.731250">
        <ele>1941.0</ele>
        <time>2013-06-04T18:46:22Z</time>
      </trkpt>
      <trkpt lat="41.062417" lon="-3.731117">
        <ele>1941.0</ele>
        <time>2013-06-04T18:46:23Z</time>
      </trkpt>
      <trkpt lat="41.062450" lon="-3.730967">
        <ele>1941.0</ele>
        <time>2013-06-04T18:46:24Z</time>
      </trkpt>
      <trkpt lat="41.062467" lon="-3.730817">
        <ele>1940.0</ele>
        <time>2013-06-04T18:46:25Z</time>
      </trkpt>
      <trkpt lat="41.062467" lon="-3.730650">
        <ele>1941.0</ele>
        <time>2013-06-04T18:46:26Z</time>
      </trkpt>
      <trkpt lat="41.062483" lon="-3.730483">
        <ele>1941.0</ele>
        <time>2013-06-04T18:46:27Z</time>
      </trkpt>
      <trkpt lat="41.062483" lon="-3.730317">
        <ele>1941.0</ele>
        <time>2013-06-04T18:46:28Z</time>
      </trkpt>
      <trkpt lat="41.062500" lon="-3.730167">
        <ele>1941.0</ele>
        <time>2013-06-04T18:46:29Z</time>
      </trkpt>
      <trkpt lat="41.062517" lon="-3.730000">
        <ele>1940.0</ele>
        <time>2013-06-04T18:46:30Z</time>
      </trkpt>
      <trkpt lat="41.062533" lon="-3.729850">
        <ele>1940.0</ele>
        <time>2013-06-04T18:46:31Z</time>
      </trkpt>
      <trkpt lat="41.062550" lon="-3.729700">
        <ele>1941.0</ele>
        <time>2013-06-04T18:46:32Z</time>
      </trkpt>
      <trkpt lat="41.062567" lon="-3.729550">
        <ele>1941.0</ele>
        <time>2013-06-04T18:46:33Z</time>
      </trkpt>
      <trkpt lat="41.062583" lon="-3.729417">
        <ele>1941.0</ele>
        <time>2013-06-04T18:46:34Z</time>
      </trkpt>
      <trkpt lat="41.062600" lon="-3.729267">
        <ele>1941.0</ele>
        <time>2013-06-04T18:46:35Z</time>
      </trkpt>
      <trkpt lat="41.062617" lon="-3.729133">
        <ele>1942.0</ele>
        <time>2013-06-04T18:46:36Z</time>
      </trkpt>
      <trkpt lat="41.062650" lon="-3.729000">
        <ele>1943.0</ele>
        <time>2013-06-04T18:46:37Z</time>
      </trkpt>
      <trkpt lat="41.062667" lon="-3.728850">
        <ele>1943.0</ele>
        <time>2013-06-04T18:46:38Z</time>
      </trkpt>
      <trkpt lat="41.062700" lon="-3.728733">
        <ele>1943.0</ele>
        <time>2013-06-04T18:46:39Z</time>
      </trkpt>
      <trkpt lat="41.062717" lon="-3.728600">
        <ele>1943.0</ele>
        <time>2013-06-04T18:46:40Z</time>
      </trkpt>
      <trkpt lat="41.062750" lon="-3.728467">
        <ele>1943.0</ele>
        <time>2013-06-04T18:46:41Z</time>
      </trkpt>
      <trkpt lat="41.062783" lon="-3.728350">
        <ele>1944.0</ele>
        <time>2013-06-04T18:46:42Z</time>
      </trkpt>
      <trkpt lat="41.062817" lon="-3.728217">
        <ele>1945.0</ele>
        <time>2013-06-04T18:46:43Z</time>
      </trkpt>
      <trkpt lat="41.062833" lon="-3.728100">
        <ele>1947.0</ele>
        <time>2013-06-04T18:46:44Z</time>
      </trkpt>
      <trkpt lat="41.062867" lon="-3.727983">
        <ele>1948.0</ele>
        <time>2013-06-04T18:46:45Z</time>
      </trkpt>
      <trkpt lat="41.062917" lon="-3.727883">
        <ele>1948.0</ele>
        <time>2013-06-04T18:46:46Z</time>
      </trkpt>
      <trkpt lat="41.062967" lon="-3.727783">
        <ele>1948.0</ele>
        <time>2013-06-04T18:46:47Z</time>
      </trkpt>
      <trkpt lat="41.063017" lon="-3.727700">
        <ele>1948.0</ele>
        <time>2013-06-04T18:46:48Z</time>
      </trkpt>
      <trkpt lat="41.063067" lon="-3.727600">
        <ele>1948.0</ele>
        <time>2013-06-04T18:46:49Z</time>
      </trkpt>
      <trkpt lat="41.063117" lon="-3.727500">
        <ele>1949.0</ele>
        <time>2013-06-04T18:46:50Z</time>
      </trkpt>
      <trkpt lat="41.063150" lon="-3.727417">
        <ele>1950.0</ele>
        <time>2013-06-04T18:46:51Z</time>
      </trkpt>
      <trkpt lat="41.063200" lon="-3.727317">
        <ele>1950.0</ele>
        <time>2013-06-04T18:46:52Z</time>
      </trkpt>
      <trkpt lat="41.063250" lon="-3.727217">
        <ele>1950.0</ele>
        <time>2013-06-04T18:46:53Z</time>
      </trkpt>
      <trkpt lat="41.063300" lon="-3.727117">
        <ele>1950.0</ele>
        <time>2013-06-04T18:46:54Z</time>
      </trkpt>
      <trkpt lat="41.063350" lon="-3.727033">
        <ele>1950.0</ele>
        <time>2013-06-04T18:46:55Z</time>
      </trkpt>
      <trkpt lat="41.063400" lon="-3.726933">
        <ele>1949.0</ele>
        <time>2013-06-04T18:46:56Z</time>
      </trkpt>
      <trkpt lat="41.063450" lon="-3.726817">
        <ele>1950.0</ele>
        <time>2013-06-04T18:46:57Z</time>
      </trkpt>
      <trkpt lat="41.063500" lon="-3.726700">
        <ele>1950.0</ele>
        <time>2013-06-04T18:46:58Z</time>
      </trkpt>
      <trkpt lat="41.063533" lon="-3.726600">
        <ele>1950.0</ele>
        <time>2013-06-04T18:46:59Z</time>
      </trkpt>
      <trkpt lat="41.063583" lon="-3.726500">
        <ele>1950.0</ele>
        <time>2013-06-04T18:47:00Z</time>
      </trkpt>
      <trkpt lat="41.063650" lon="-3.726400">
        <ele>1951.0</ele>
        <time>2013-06-04T18:47:01Z</time>
      </trkpt>
      <trkpt lat="41.063700" lon="-3.726317">
        <ele>1952.0</ele>
        <time>2013-06-04T18:47:02Z</time>
      </trkpt>
      <trkpt lat="41.063750" lon="-3.726233">
        <ele>1953.0</ele>
        <time>2013-06-04T18:47:03Z</time>
      </trkpt>
      <trkpt lat="41.063800" lon="-3.726150">
        <ele>1953.0</ele>
        <time>2013-06-04T18:47:04Z</time>
      </trkpt>
      <trkpt lat="41.063867" lon="-3.726067">
        <ele>1954.0</ele>
        <time>2013-06-04T18:47:05Z</time>
      </trkpt>
      <trkpt lat="41.063917" lon="-3.726000">
        <ele>1954.0</ele>
        <time>2013-06-04T18:47:06Z</time>
      </trkpt>
      <trkpt lat="41.063967" lon="-3.725917">
        <ele>1954.0</ele>
        <time>2013-06-04T18:47:07Z</time>
      </trkpt>
      <trkpt lat="41.064033" lon="-3.725833">
        <ele>1954.0</ele>
        <time>2013-06-04T18:47:08Z</time>
      </trkpt>
      <trkpt lat="41.064083" lon="-3.725733">
        <ele>1955.0</ele>
        <time>2013-06-04T18:47:09Z</time>
      </trkpt>
      <trkpt lat="41.064133" lon="-3.725650">
        <ele>1956.0</ele>
        <time>2013-06-04T18:47:10Z</time>
      </trkpt>
      <trkpt lat="41.064183" lon="-3.725550">
        <ele>1956.0</ele>
        <time>2013-06-04T18:47:11Z</time>
      </trkpt>
      <trkpt lat="41.064250" lon="-3.725467">
        <ele>1957.0</ele>
        <time>2013-06-04T18:47:12Z</time>
      </trkpt>
      <trkpt lat="41.064300" lon="-3.725383">
        <ele>1957.0</ele>
        <time>2013-06-04T18:47:13Z</time>
      </trkpt>
      <trkpt lat="41.064367" lon="-3.725283">
        <ele>1958.0</ele>
        <time>2013-06-04T18:47:14Z</time>
      </trkpt>
      <trkpt lat="41.064417" lon="-3.725200">
        <ele>1959.0</ele>
        <time>2013-06-04T18:47:15Z</time>
      </trkpt>
      <trkpt lat="41.064467" lon="-3.725117">
        <ele>1959.0</ele>
        <time>2013-06-04T18:47:16Z</time>
      </trkpt>
      <trkpt lat="41.064517" lon="-3.725033">
        <ele>1959.0</ele>
        <time>2013-06-04T18:47:17Z</time>
      </trkpt>
      <trkpt lat="41.064583" lon="-3.724950">
        <ele>1959.0</ele>
        <time>2013-06-04T18:47:18Z</time>
      </trkpt>
      <trkpt lat="41.064633" lon="-3.724883">
        <ele>1958.0</ele>
        <time>2013-06-04T18:47:19Z</time>
      </trkpt>
      <trkpt lat="41.064717" lon="-3.724833">
        <ele>1958.0</ele>
        <time>2013-06-04T18:47:20Z</time>
      </trkpt>
      <trkpt lat="41.064783" lon="-3.724750">
        <ele>1958.0</ele>
        <time>2013-06-04T18:47:21Z</time>
      </trkpt>
      <trkpt lat="41.064833" lon="-3.724683">
        <ele>1959.0</ele>
        <time>2013-06-04T18:47:22Z</time>
      </trkpt>
      <trkpt lat="41.064883" lon="-3.724617">
        <ele>1960.0</ele>
        <time>2013-06-04T18:47:23Z</time>
      </trkpt>
      <trkpt lat="41.064950" lon="-3.724567">
        <ele>1961.0</ele>
        <time>2013-06-04T18:47:24Z</time>
      </trkpt>
      <trkpt lat="41.065000" lon="-3.724500">
        <ele>1960.0</ele>
        <time>2013-06-04T18:47:25Z</time>
      </trkpt>
      <trkpt lat="41.065067" lon="-3.724433">
        <ele>1960.0</ele>
        <time>2013-06-04T18:47:26Z</time>
      </trkpt>
      <trkpt lat="41.065117" lon="-3.724367">
        <ele>1960.0</ele>
        <time>2013-06-04T18:47:27Z</time>
      </trkpt>
      <trkpt lat="41.065183" lon="-3.724300">
        <ele>1960.0</ele>
        <time>2013-06-04T18:47:28Z</time>
      </trkpt>
      <trkpt lat="41.065233" lon="-3.724233">
        <ele>1960.0</ele>
        <time>2013-06-04T18:47:29Z</time>
      </trkpt>
      <trkpt lat="41.065300" lon="-3.724167">
        <ele>1961.0</ele>
        <time>2013-06-04T18:47:30Z</time>
      </trkpt>
      <trkpt lat="41.065350" lon="-3.724083">
        <ele>1961.0</ele>
        <time>2013-06-04T18:47:31Z</time>
      </trkpt>
      <trkpt lat="41.065400" lon="-3.724017">
        <ele>1962.0</ele>
        <time>2013-06-04T18:47:32Z</time>
      </trkpt>
      <trkpt lat="41.065450" lon="-3.723950">
        <ele>1962.0</ele>
        <time>2013-06-04T18:47:33Z</time>
      </trkpt>
      <trkpt lat="41.065517" lon="-3.723883">
        <ele>1962.0</ele>
        <time>2013-06-04T18:47:34Z</time>
      </trkpt>
      <trkpt lat="41.065567" lon="-3.723817">
        <ele>1961.0</ele>
        <time>2013-06-04T18:47:35Z</time>
      </trkpt>
      <trkpt lat="41.065633" lon="-3.723750">
        <ele>1962.0</ele>
        <time>2013-06-04T18:47:36Z</time>
      </trkpt>
      <trkpt lat="41.065683" lon="-3.723683">
        <ele>1962.0</ele>
        <time>2013-06-04T18:47:37Z</time>
      </trkpt>
      <trkpt lat="41.065733" lon="-3.723617">
        <ele>1963.0</ele>
        <time>2013-06-04T18:47:38Z</time>
      </trkpt>
      <trkpt lat="41.065783" lon="-3.723550">
        <ele>1963.0</ele>
        <time>2013-06-04T18:47:39Z</time>
      </trkpt>
      <trkpt lat="41.065850" lon="-3.723500">
        <ele>1963.0</ele>
        <time>2013-06-04T18:47:40Z</time>
      </trkpt>
      <trkpt lat="41.065900" lon="-3.723433">
        <ele>1963.0</ele>
        <time>2013-06-04T18:47:41Z</time>
      </trkpt>
      <trkpt lat="41.065967" lon="-3.723367">
        <ele>1964.0</ele>
        <time>2013-06-04T18:47:42Z</time>
      </trkpt>
      <trkpt lat="41.066017" lon="-3.723317">
        <ele>1964.0</ele>
        <time>2013-06-04T18:47:43Z</time>
      </trkpt>
      <trkpt lat="41.066067" lon="-3.723250">
        <ele>1964.0</ele>
        <time>2013-06-04T18:47:44Z</time>
      </trkpt>
      <trkpt lat="41.066133" lon="-3.723183">
        <ele>1965.0</ele>
        <time>2013-06-04T18:47:45Z</time>
      </trkpt>
      <trkpt lat="41.066200" lon="-3.723100">
        <ele>1965.0</ele>
        <time>2013-06-04T18:47:46Z</time>
      </trkpt>
      <trkpt lat="41.066250" lon="-3.723017">
        <ele>1966.0</ele>
        <time>2013-06-04T18:47:47Z</time>
      </trkpt>
      <trkpt lat="41.066317" lon="-3.722917">
        <ele>1966.0</ele>
        <time>2013-06-04T18:47:48Z</time>
      </trkpt>
      <trkpt lat="41.066367" lon="-3.722817">
        <ele>1967.0</ele>
        <time>2013-06-04T18:47:49Z</time>
      </trkpt>
      <trkpt lat="41.066433" lon="-3.722733">
        <ele>1967.0</ele>
        <time>2013-06-04T18:47:50Z</time>
      </trkpt>
      <trkpt lat="41.066500" lon="-3.722633">
        <ele>1968.0</ele>
        <time>2013-06-04T18:47:51Z</time>
      </trkpt>
      <trkpt lat="41.066550" lon="-3.722550">
        <ele>1968.0</ele>
        <time>2013-06-04T18:47:52Z</time>
      </trkpt>
      <trkpt lat="41.066600" lon="-3.722467">
        <ele>1968.0</ele>
        <time>2013-06-04T18:47:53Z</time>
      </trkpt>
      <trkpt lat="41.066667" lon="-3.722383">
        <ele>1968.0</ele>
        <time>2013-06-04T18:47:54Z</time>
      </trkpt>
      <trkpt lat="41.066733" lon="-3.722317">
        <ele>1968.0</ele>
        <time>2013-06-04T18:47:55Z</time>
      </trkpt>
      <trkpt lat="41.066783" lon="-3.722250">
        <ele>1968.0</ele>
        <time>2013-06-04T18:47:56Z</time>
      </trkpt>
      <trkpt lat="41.066850" lon="-3.722200">
        <ele>1968.0</ele>
        <time>2013-06-04T18:47:57Z</time>
      </trkpt>
      <trkpt lat="41.066900" lon="-3.722150">
        <ele>1967.0</ele>
        <time>2013-06-04T18:47:58Z</time>
      </trkpt>
      <trkpt lat="41.066967" lon="-3.722117">
        <ele>1967.0</ele>
        <time>2013-06-04T18:47:59Z</time>
      </trkpt>
      <trkpt lat="41.067017" lon="-3.722100">
        <ele>1967.0</ele>
        <time>2013-06-04T18:48:00Z</time>
      </trkpt>
      <trkpt lat="41.067083" lon="-3.722067">
        <ele>1967.0</ele>
        <time>2013-06-04T18:48:01Z</time>
      </trkpt>
      <trkpt lat="41.067133" lon="-3.722050">
        <ele>1967.0</ele>
        <time>2013-06-04T18:48:02Z</time>
      </trkpt>
      <trkpt lat="41.067183" lon="-3.722033">
        <ele>1968.0</ele>
        <time>2013-06-04T18:48:03Z</time>
      </trkpt>
      <trkpt lat="41.067250" lon="-3.722000">
        <ele>1968.0</ele>
        <time>2013-06-04T18:48:04Z</time>
      </trkpt>
      <trkpt lat="41.067300" lon="-3.721967">
        <ele>1969.0</ele>
        <time>2013-06-04T18:48:05Z</time>
      </trkpt>
      <trkpt lat="41.067350" lon="-3.721933">
        <ele>1968.0</ele>
        <time>2013-06-04T18:48:06Z</time>
      </trkpt>
      <trkpt lat="41.067400" lon="-3.721900">
        <ele>1968.0</ele>
        <time>2013-06-04T18:48:07Z</time>
      </trkpt>
      <trkpt lat="41.067467" lon="-3.721850">
        <ele>1968.0</ele>
        <time>2013-06-04T18:48:08Z</time>
      </trkpt>
      <trkpt lat="41.067533" lon="-3.721817">
        <ele>1969.0</ele>
        <time>2013-06-04T18:48:09Z</time>
      </trkpt>
      <trkpt lat="41.067583" lon="-3.721767">
        <ele>1969.0</ele>
        <time>2013-06-04T18:48:10Z</time>
      </trkpt>
      <trkpt lat="41.067633" lon="-3.721717">
        <ele>1970.0</ele>
        <time>2013-06-04T18:48:11Z</time>
      </trkpt>
      <trkpt lat="41.067700" lon="-3.721667">
        <ele>1969.0</ele>
        <time>2013-06-04T18:48:12Z</time>
      </trkpt>
      <trkpt lat="41.067750" lon="-3.721600">
        <ele>1969.0</ele>
        <time>2013-06-04T18:48:13Z</time>
      </trkpt>
      <trkpt lat="41.067817" lon="-3.721550">
        <ele>1968.0</ele>
        <time>2013-06-04T18:48:14Z</time>
      </trkpt>
      <trkpt lat="41.067883" lon="-3.721500">
        <ele>1968.0</ele>
        <time>2013-06-04T18:48:15Z</time>
      </trkpt>
      <trkpt lat="41.067933" lon="-3.721450">
        <ele>1969.0</ele>
        <time>2013-06-04T18:48:16Z</time>
      </trkpt>
      <trkpt lat="41.068000" lon="-3.721400">
        <ele>1969.0</ele>
        <time>2013-06-04T18:48:17Z</time>
      </trkpt>
      <trkpt lat="41.068050" lon="-3.721350">
        <ele>1969.0</ele>
        <time>2013-06-04T18:48:18Z</time>
      </trkpt>
      <trkpt lat="41.068117" lon="-3.721300">
        <ele>1969.0</ele>
        <time>2013-06-04T18:48:19Z</time>
      </trkpt>
      <trkpt lat="41.068183" lon="-3.721267">
        <ele>1969.0</ele>
        <time>2013-06-04T18:48:20Z</time>
      </trkpt>
      <trkpt lat="41.068233" lon="-3.721217">
        <ele>1969.0</ele>
        <time>2013-06-04T18:48:21Z</time>
      </trkpt>
      <trkpt lat="41.068300" lon="-3.721183">
        <ele>1969.0</ele>
        <time>2013-06-04T18:48:22Z</time>
      </trkpt>
      <trkpt lat="41.068350" lon="-3.721133">
        <ele>1969.0</ele>
        <time>2013-06-04T18:48:23Z</time>
      </trkpt>
      <trkpt lat="41.068417" lon="-3.721100">
        <ele>1969.0</ele>
        <time>2013-06-04T18:48:24Z</time>
      </trkpt>
      <trkpt lat="41.068467" lon="-3.721050">
        <ele>1969.0</ele>
        <time>2013-06-04T18:48:25Z</time>
      </trkpt>
      <trkpt lat="41.068533" lon="-3.721017">
        <ele>1969.0</ele>
        <time>2013-06-04T18:48:26Z</time>
      </trkpt>
      <trkpt lat="41.068583" lon="-3.720983">
        <ele>1969.0</ele>
        <time>2013-06-04T18:48:27Z</time>
      </trkpt>
      <trkpt lat="41.068650" lon="-3.720950">
        <ele>1969.0</ele>
        <time>2013-06-04T18:48:28Z</time>
      </trkpt>
      <trkpt lat="41.068700" lon="-3.720917">
        <ele>1969.0</ele>
        <time>2013-06-04T18:48:29Z</time>
      </trkpt>
      <trkpt lat="41.068767" lon="-3.720867">
        <ele>1969.0</ele>
        <time>2013-06-04T18:48:30Z</time>
      </trkpt>
      <trkpt lat="41.068833" lon="-3.720817">
        <ele>1970.0</ele>
        <time>2013-06-04T18:48:31Z</time>
      </trkpt>
      <trkpt lat="41.068883" lon="-3.720767">
        <ele>1970.0</ele>
        <time>2013-06-04T18:48:32Z</time>
      </trkpt>
      <trkpt lat="41.068950" lon="-3.720717">
        <ele>1970.0</ele>
        <time>2013-06-04T18:48:33Z</time>
      </trkpt>
      <trkpt lat="41.069000" lon="-3.720667">
        <ele>1970.0</ele>
        <time>2013-06-04T18:48:34Z</time>
      </trkpt>
      <trkpt lat="41.069067" lon="-3.720600">
        <ele>1970.0</ele>
        <time>2013-06-04T18:48:35Z</time>
      </trkpt>
      <trkpt lat="41.069133" lon="-3.720550">
        <ele>1971.0</ele>
        <time>2013-06-04T18:48:36Z</time>
      </trkpt>
      <trkpt lat="41.069200" lon="-3.720483">
        <ele>1971.0</ele>
        <time>2013-06-04T18:48:37Z</time>
      </trkpt>
      <trkpt lat="41.069250" lon="-3.720417">
        <ele>1971.0</ele>
        <time>2013-06-04T18:48:38Z</time>
      </trkpt>
      <trkpt lat="41.069317" lon="-3.720367">
        <ele>1971.0</ele>
        <time>2013-06-04T18:48:39Z</time>
      </trkpt>
      <trkpt lat="41.069383" lon="-3.720317">
        <ele>1971.0</ele>
        <time>2013-06-04T18:48:40Z</time>
      </trkpt>
      <trkpt lat="41.069450" lon="-3.720250">
        <ele>1971.0</ele>
        <time>2013-06-04T18:48:41Z</time>
      </trkpt>
      <trkpt lat="41.069500" lon="-3.720200">
        <ele>1971.0</ele>
        <time>2013-06-04T18:48:42Z</time>
      </trkpt>
      <trkpt lat="41.069567" lon="-3.720133">
        <ele>1971.0</ele>
        <time>2013-06-04T18:48:43Z</time>
      </trkpt>
      <trkpt lat="41.069633" lon="-3.720067">
        <ele>1971.0</ele>
        <time>2013-06-04T18:48:44Z</time>
      </trkpt>
      <trkpt lat="41.069700" lon="-3.720000">
        <ele>1971.0</ele>
        <time>2013-06-04T18:48:45Z</time>
      </trkpt>
      <trkpt lat="41.069767" lon="-3.719933">
        <ele>1971.0</ele>
        <time>2013-06-04T18:48:46Z</time>
      </trkpt>
      <trkpt lat="41.069817" lon="-3.719867">
        <ele>1971.0</ele>
        <time>2013-06-04T18:48:47Z</time>
      </trkpt>
      <trkpt lat="41.069883" lon="-3.719800">
        <ele>1971.0</ele>
        <time>2013-06-04T18:48:48Z</time>
      </trkpt>
      <trkpt lat="41.069950" lon="-3.719733">
        <ele>1970.0</ele>
        <time>2013-06-04T18:48:49Z</time>
      </trkpt>
      <trkpt lat="41.070017" lon="-3.719667">
        <ele>1970.0</ele>
        <time>2013-06-04T18:48:50Z</time>
      </trkpt>
      <trkpt lat="41.070083" lon="-3.719600">
        <ele>1971.0</ele>
        <time>2013-06-04T18:48:51Z</time>
      </trkpt>
      <trkpt lat="41.070150" lon="-3.719550">
        <ele>1971.0</ele>
        <time>2013-06-04T18:48:52Z</time>
      </trkpt>
      <trkpt lat="41.070217" lon="-3.719483">
        <ele>1971.0</ele>
        <time>2013-06-04T18:48:53Z</time>
      </trkpt>
      <trkpt lat="41.070267" lon="-3.719417">
        <ele>1971.0</ele>
        <time>2013-06-04T18:48:54Z</time>
      </trkpt>
      <trkpt lat="41.070333" lon="-3.719367">
        <ele>1970.0</ele>
        <time>2013-06-04T18:48:55Z</time>
      </trkpt>
      <trkpt lat="41.070400" lon="-3.719300">
        <ele>1970.0</ele>
        <time>2013-06-04T18:48:56Z</time>
      </trkpt>
      <trkpt lat="41.070467" lon="-3.719250">
        <ele>1969.0</ele>
        <time>2013-06-04T18:48:57Z</time>
      </trkpt>
      <trkpt lat="41.070533" lon="-3.719183">
        <ele>1969.0</ele>
        <time>2013-06-04T18:48:58Z</time>
      </trkpt>
      <trkpt lat="41.070583" lon="-3.719117">
        <ele>1969.0</ele>
        <time>2013-06-04T18:48:59Z</time>
      </trkpt>
      <trkpt lat="41.070650" lon="-3.719067">
        <ele>1969.0</ele>
        <time>2013-06-04T18:49:00Z</time>
      </trkpt>
      <trkpt lat="41.070717" lon="-3.719000">
        <ele>1969.0</ele>
        <time>2013-06-04T18:49:01Z</time>
      </trkpt>
      <trkpt lat="41.070783" lon="-3.718933">
        <ele>1968.0</ele>
        <time>2013-06-04T18:49:02Z</time>
      </trkpt>
      <trkpt lat="41.070850" lon="-3.718867">
        <ele>1968.0</ele>
        <time>2013-06-04T18:49:03Z</time>
      </trkpt>
      <trkpt lat="41.070917" lon="-3.718817">
        <ele>1968.0</ele>
        <time>2013-06-04T18:49:04Z</time>
      </trkpt>
      <trkpt lat="41.070983" lon="-3.718750">
        <ele>1968.0</ele>
        <time>2013-06-04T18:49:05Z</time>
      </trkpt>
      <trkpt lat="41.071050" lon="-3.718700">
        <ele>1967.0</ele>
        <time>2013-06-04T18:49:06Z</time>
      </trkpt>
      <trkpt lat="41.071100" lon="-3.718633">
        <ele>1967.0</ele>
        <time>2013-06-04T18:49:07Z</time>
      </trkpt>
      <trkpt lat="41.071183" lon="-3.718567">
        <ele>1966.0</ele>
        <time>2013-06-04T18:49:08Z</time>
      </trkpt>
      <trkpt lat="41.071250" lon="-3.718517">
        <ele>1966.0</ele>
        <time>2013-06-04T18:49:09Z</time>
      </trkpt>
      <trkpt lat="41.071317" lon="-3.718450">
        <ele>1966.0</ele>
        <time>2013-06-04T18:49:10Z</time>
      </trkpt>
      <trkpt lat="41.071383" lon="-3.718400">
        <ele>1966.0</ele>
        <time>2013-06-04T18:49:11Z</time>
      </trkpt>
      <trkpt lat="41.071433" lon="-3.718333">
        <ele>1966.0</ele>
        <time>2013-06-04T18:49:12Z</time>
      </trkpt>
      <trkpt lat="41.071500" lon="-3.718283">
        <ele>1965.0</ele>
        <time>2013-06-04T18:49:13Z</time>
      </trkpt>
      <trkpt lat="41.071567" lon="-3.718217">
        <ele>1964.0</ele>
        <time>2013-06-04T18:49:14Z</time>
      </trkpt>
      <trkpt lat="41.071633" lon="-3.718150">
        <ele>1964.0</ele>
        <time>2013-06-04T18:49:15Z</time>
      </trkpt>
      <trkpt lat="41.071700" lon="-3.718083">
        <ele>1963.0</ele>
        <time>2013-06-04T18:49:16Z</time>
      </trkpt>
      <trkpt lat="41.071767" lon="-3.718017">
        <ele>1963.0</ele>
        <time>2013-06-04T18:49:17Z</time>
      </trkpt>
      <trkpt lat="41.071833" lon="-3.717950">
        <ele>1963.0</ele>
        <time>2013-06-04T18:49:18Z</time>
      </trkpt>
      <trkpt lat="41.071900" lon="-3.717867">
        <ele>1963.0</ele>
        <time>2013-06-04T18:49:19Z</time>
      </trkpt>
      <trkpt lat="41.071950" lon="-3.717783">
        <ele>1963.0</ele>
        <time>2013-06-04T18:49:20Z</time>
      </trkpt>
      <trkpt lat="41.072017" lon="-3.717700">
        <ele>1962.0</ele>
        <time>2013-06-04T18:49:21Z</time>
      </trkpt>
      <trkpt lat="41.072083" lon="-3.717617">
        <ele>1962.0</ele>
        <time>2013-06-04T18:49:22Z</time>
      </trkpt>
      <trkpt lat="41.072150" lon="-3.717533">
        <ele>1962.0</ele>
        <time>2013-06-04T18:49:23Z</time>
      </trkpt>
      <trkpt lat="41.072200" lon="-3.717450">
        <ele>1962.0</ele>
        <time>2013-06-04T18:49:24Z</time>
      </trkpt>
      <trkpt lat="41.072267" lon="-3.717350">
        <ele>1962.0</ele>
        <time>2013-06-04T18:49:25Z</time>
      </trkpt>
      <trkpt lat="41.072317" lon="-3.717267">
        <ele>1962.0</ele>
        <time>2013-06-04T18:49:26Z</time>
      </trkpt>
      <trkpt lat="41.072383" lon="-3.717167">
        <ele>1962.0</ele>
        <time>2013-06-04T18:49:27Z</time>
      </trkpt>
      <trkpt lat="41.072450" lon="-3.717083">
        <ele>1961.0</ele>
        <time>2013-06-04T18:49:28Z</time>
      </trkpt>
      <trkpt lat="41.072500" lon="-3.716983">
        <ele>1961.0</ele>
        <time>2013-06-04T18:49:29Z</time>
      </trkpt>
      <trkpt lat="41.072567" lon="-3.716883">
        <ele>1960.0</ele>
        <time>2013-06-04T18:49:30Z</time>
      </trkpt>
      <trkpt lat="41.072633" lon="-3.716800">
        <ele>1960.0</ele>
        <time>2013-06-04T18:49:31Z</time>
      </trkpt>
      <trkpt lat="41.072683" lon="-3.716700">
        <ele>1960.0</ele>
        <time>2013-06-04T18:49:32Z</time>
      </trkpt>
      <trkpt lat="41.072750" lon="-3.716600">
        <ele>1960.0</ele>
        <time>2013-06-04T18:49:33Z</time>
      </trkpt>
      <trkpt lat="41.072800" lon="-3.716500">
        <ele>1959.0</ele>
        <time>2013-06-04T18:49:34Z</time>
      </trkpt>
      <trkpt lat="41.072867" lon="-3.716400">
        <ele>1959.0</ele>
        <time>2013-06-04T18:49:35Z</time>
      </trkpt>
      <trkpt lat="41.072933" lon="-3.716300">
        <ele>1958.0</ele>
        <time>2013-06-04T18:49:36Z</time>
      </trkpt>
      <trkpt lat="41.073000" lon="-3.716200">
        <ele>1958.0</ele>
        <time>2013-06-04T18:49:37Z</time>
      </trkpt>
      <trkpt lat="41.073050" lon="-3.716117">
        <ele>1958.0</ele>
        <time>2013-06-04T18:49:38Z</time>
      </trkpt>
      <trkpt lat="41.073117" lon="-3.716017">
        <ele>1957.0</ele>
        <time>2013-06-04T18:49:39Z</time>
      </trkpt>
      <trkpt lat="41.073183" lon="-3.715917">
        <ele>1957.0</ele>
        <time>2013-06-04T18:49:40Z</time>
      </trkpt>
      <trkpt lat="41.073233" lon="-3.715817">
        <ele>1956.0</ele>
        <time>2013-06-04T18:49:41Z</time>
      </trkpt>
      <trkpt lat="41.073300" lon="-3.715717">
        <ele>1956.0</ele>
        <time>2013-06-04T18:49:42Z</time>
      </trkpt>
      <trkpt lat="41.073367" lon="-3.715617">
        <ele>1955.0</ele>
        <time>2013-06-04T18:49:43Z</time>
      </trkpt>
      <trkpt lat="41.073433" lon="-3.715517">
        <ele>1955.0</ele>
        <time>2013-06-04T18:49:44Z</time>
      </trkpt>
      <trkpt lat="41.073500" lon="-3.715417">
        <ele>1954.0</ele>
        <time>2013-06-04T18:49:45Z</time>
      </trkpt>
      <trkpt lat="41.073550" lon="-3.715333">
        <ele>1954.0</ele>
        <time>2013-06-04T18:49:46Z</time>
      </trkpt>
      <trkpt lat="41.073617" lon="-3.715233">
        <ele>1954.0</ele>
        <time>2013-06-04T18:49:47Z</time>
      </trkpt>
      <trkpt lat="41.073683" lon="-3.715133">
        <ele>1953.0</ele>
        <time>2013-06-04T18:49:48Z</time>
      </trkpt>
      <trkpt lat="41.073733" lon="-3.715033">
        <ele>1953.0</ele>
        <time>2013-06-04T18:49:49Z</time>
      </trkpt>
      <trkpt lat="41.073800" lon="-3.714933">
        <ele>1952.0</ele>
        <time>2013-06-04T18:49:50Z</time>
      </trkpt>
      <trkpt lat="41.073867" lon="-3.714850">
        <ele>1951.0</ele>
        <time>2013-06-04T18:49:51Z</time>
      </trkpt>
      <trkpt lat="41.073933" lon="-3.714750">
        <ele>1950.0</ele>
        <time>2013-06-04T18:49:52Z</time>
      </trkpt>
      <trkpt lat="41.074000" lon="-3.714650">
        <ele>1950.0</ele>
        <time>2013-06-04T18:49:53Z</time>
      </trkpt>
      <trkpt lat="41.074050" lon="-3.714567">
        <ele>1949.0</ele>
        <time>2013-06-04T18:49:54Z</time>
      </trkpt>
      <trkpt lat="41.074117" lon="-3.714467">
        <ele>1949.0</ele>
        <time>2013-06-04T18:49:55Z</time>
      </trkpt>
      <trkpt lat="41.074183" lon="-3.714383">
        <ele>1949.0</ele>
        <time>2013-06-04T18:49:56Z</time>
      </trkpt>
      <trkpt lat="41.074233" lon="-3.714300">
        <ele>1949.0</ele>
        <time>2013-06-04T18:49:57Z</time>
      </trkpt>
      <trkpt lat="41.074300" lon="-3.714217">
        <ele>1948.0</ele>
        <time>2013-06-04T18:49:58Z</time>
      </trkpt>
      <trkpt lat="41.074367" lon="-3.714133">
        <ele>1948.0</ele>
        <time>2013-06-04T18:49:59Z</time>
      </trkpt>
      <trkpt lat="41.074433" lon="-3.714050">
        <ele>1947.0</ele>
        <time>2013-06-04T18:50:00Z</time>
      </trkpt>
      <trkpt lat="41.074500" lon="-3.713983">
        <ele>1947.0</ele>
        <time>2013-06-04T18:50:01Z</time>
      </trkpt>
      <trkpt lat="41.074567" lon="-3.713900">
        <ele>1947.0</ele>
        <time>2013-06-04T18:50:02Z</time>
      </trkpt>
      <trkpt lat="41.074617" lon="-3.713833">
        <ele>1947.0</ele>
        <time>2013-06-04T18:50:03Z</time>
      </trkpt>
      <trkpt lat="41.074683" lon="-3.713750">
        <ele>1947.0</ele>
        <time>2013-06-04T18:50:04Z</time>
      </trkpt>
      <trkpt lat="41.074750" lon="-3.713667">
        <ele>1947.0</ele>
        <time>2013-06-04T18:50:05Z</time>
      </trkpt>
      <trkpt lat="41.074817" lon="-3.713600">
        <ele>1947.0</ele>
        <time>2013-06-04T18:50:06Z</time>
      </trkpt>
      <trkpt lat="41.074883" lon="-3.713517">
        <ele>1947.0</ele>
        <time>2013-06-04T18:50:07Z</time>
      </trkpt>
      <trkpt lat="41.074950" lon="-3.713433">
        <ele>1947.0</ele>
        <time>2013-06-04T18:50:08Z</time>
      </trkpt>
      <trkpt lat="41.075017" lon="-3.713367">
        <ele>1947.0</ele>
        <time>2013-06-04T18:50:09Z</time>
      </trkpt>
      <trkpt lat="41.075083" lon="-3.713283">
        <ele>1947.0</ele>
        <time>2013-06-04T18:50:10Z</time>
      </trkpt>
      <trkpt lat="41.075133" lon="-3.713217">
        <ele>1947.0</ele>
        <time>2013-06-04T18:50:11Z</time>
      </trkpt>
      <trkpt lat="41.075200" lon="-3.713133">
        <ele>1946.0</ele>
        <time>2013-06-04T18:50:12Z</time>
      </trkpt>
      <trkpt lat="41.075267" lon="-3.713050">
        <ele>1946.0</ele>
        <time>2013-06-04T18:50:13Z</time>
      </trkpt>
      <trkpt lat="41.075333" lon="-3.712967">
        <ele>1946.0</ele>
        <time>2013-06-04T18:50:14Z</time>
      </trkpt>
      <trkpt lat="41.075400" lon="-3.712883">
        <ele>1946.0</ele>
        <time>2013-06-04T18:50:15Z</time>
      </trkpt>
      <trkpt lat="41.075467" lon="-3.712783">
        <ele>1946.0</ele>
        <time>2013-06-04T18:50:16Z</time>
      </trkpt>
      <trkpt lat="41.075533" lon="-3.712700">
        <ele>1946.0</ele>
        <time>2013-06-04T18:50:17Z</time>
      </trkpt>
      <trkpt lat="41.075600" lon="-3.712600">
        <ele>1946.0</ele>
        <time>2013-06-04T18:50:18Z</time>
      </trkpt>
      <trkpt lat="41.075667" lon="-3.712517">
        <ele>1946.0</ele>
        <time>2013-06-04T18:50:19Z</time>
      </trkpt>
      <trkpt lat="41.075733" lon="-3.712417">
        <ele>1946.0</ele>
        <time>2013-06-04T18:50:20Z</time>
      </trkpt>
      <trkpt lat="41.075800" lon="-3.712317">
        <ele>1946.0</ele>
        <time>2013-06-04T18:50:21Z</time>
      </trkpt>
      <trkpt lat="41.075850" lon="-3.712217">
        <ele>1946.0</ele>
        <time>2013-06-04T18:50:22Z</time>
      </trkpt>
      <trkpt lat="41.075917" lon="-3.712133">
        <ele>1946.0</ele>
        <time>2013-06-04T18:50:23Z</time>
      </trkpt>
      <trkpt lat="41.075983" lon="-3.712033">
        <ele>1946.0</ele>
        <time>2013-06-04T18:50:24Z</time>
      </trkpt>
      <trkpt lat="41.076050" lon="-3.711950">
        <ele>1946.0</ele>
        <time>2013-06-04T18:50:25Z</time>
      </trkpt>
      <trkpt lat="41.076100" lon="-3.711850">
        <ele>1947.0</ele>
        <time>2013-06-04T18:50:26Z</time>
      </trkpt>
      <trkpt lat="41.076167" lon="-3.711767">
        <ele>1947.0</ele>
        <time>2013-06-04T18:50:27Z</time>
      </trkpt>
      <trkpt lat="41.076233" lon="-3.711667">
        <ele>1947.0</ele>
        <time>2013-06-04T18:50:28Z</time>
      </trkpt>
      <trkpt lat="41.076300" lon="-3.711583">
        <ele>1947.0</ele>
        <time>2013-06-04T18:50:29Z</time>
      </trkpt>
      <trkpt lat="41.076367" lon="-3.711483">
        <ele>1947.0</ele>
        <time>2013-06-04T18:50:30Z</time>
      </trkpt>
      <trkpt lat="41.076433" lon="-3.711400">
        <ele>1947.0</ele>
        <time>2013-06-04T18:50:31Z</time>
      </trkpt>
      <trkpt lat="41.076483" lon="-3.711300">
        <ele>1947.0</ele>
        <time>2013-06-04T18:50:32Z</time>
      </trkpt>
      <trkpt lat="41.076550" lon="-3.711217">
        <ele>1947.0</ele>
        <time>2013-06-04T18:50:33Z</time>
      </trkpt>
      <trkpt lat="41.076617" lon="-3.711133">
        <ele>1947.0</ele>
        <time>2013-06-04T18:50:34Z</time>
      </trkpt>
      <trkpt lat="41.076683" lon="-3.711050">
        <ele>1947.0</ele>
        <time>2013-06-04T18:50:35Z</time>
      </trkpt>
      <trkpt lat="41.076750" lon="-3.710967">
        <ele>1947.0</ele>
        <time>2013-06-04T18:50:36Z</time>
      </trkpt>
      <trkpt lat="41.076817" lon="-3.710867">
        <ele>1947.0</ele>
        <time>2013-06-04T18:50:37Z</time>
      </trkpt>
      <trkpt lat="41.076883" lon="-3.710767">
        <ele>1947.0</ele>
        <time>2013-06-04T18:50:38Z</time>
      </trkpt>
      <trkpt lat="41.076950" lon="-3.710683">
        <ele>1947.0</ele>
        <time>2013-06-04T18:50:39Z</time>
      </trkpt>
      <trkpt lat="41.077017" lon="-3.710583">
        <ele>1947.0</ele>
        <time>2013-06-04T18:50:40Z</time>
      </trkpt>
      <trkpt lat="41.077067" lon="-3.710500">
        <ele>1947.0</ele>
        <time>2013-06-04T18:50:41Z</time>
      </trkpt>
      <trkpt lat="41.077150" lon="-3.710417">
        <ele>1947.0</ele>
        <time>2013-06-04T18:50:42Z</time>
      </trkpt>
      <trkpt lat="41.077217" lon="-3.710333">
        <ele>1947.0</ele>
        <time>2013-06-04T18:50:43Z</time>
      </trkpt>
      <trkpt lat="41.077283" lon="-3.710250">
        <ele>1947.0</ele>
        <time>2013-06-04T18:50:44Z</time>
      </trkpt>
      <trkpt lat="41.077350" lon="-3.710150">
        <ele>1947.0</ele>
        <time>2013-06-04T18:50:45Z</time>
      </trkpt>
      <trkpt lat="41.077417" lon="-3.710067">
        <ele>1946.0</ele>
        <time>2013-06-04T18:50:46Z</time>
      </trkpt>
      <trkpt lat="41.077483" lon="-3.709983">
        <ele>1946.0</ele>
        <time>2013-06-04T18:50:47Z</time>
      </trkpt>
      <trkpt lat="41.077567" lon="-3.709917">
        <ele>1946.0</ele>
        <time>2013-06-04T18:50:48Z</time>
      </trkpt>
      <trkpt lat="41.077633" lon="-3.709833">
        <ele>1946.0</ele>
        <time>2013-06-04T18:50:49Z</time>
      </trkpt>
      <trkpt lat="41.077700" lon="-3.709767">
        <ele>1946.0</ele>
        <time>2013-06-04T18:50:50Z</time>
      </trkpt>
      <trkpt lat="41.077767" lon="-3.709700">
        <ele>1946.0</ele>
        <time>2013-06-04T18:50:51Z</time>
      </trkpt>
      <trkpt lat="41.077833" lon="-3.709633">
        <ele>1946.0</ele>
        <time>2013-06-04T18:50:52Z</time>
      </trkpt>
      <trkpt lat="41.077900" lon="-3.709583">
        <ele>1945.0</ele>
        <time>2013-06-04T18:50:53Z</time>
      </trkpt>
      <trkpt lat="41.077983" lon="-3.709533">
        <ele>1945.0</ele>
        <time>2013-06-04T18:50:54Z</time>
      </trkpt>
      <trkpt lat="41.078050" lon="-3.709483">
        <ele>1945.0</ele>
        <time>2013-06-04T18:50:55Z</time>
      </trkpt>
      <trkpt lat="41.078117" lon="-3.709433">
        <ele>1945.0</ele>
        <time>2013-06-04T18:50:56Z</time>
      </trkpt>
      <trkpt lat="41.078183" lon="-3.709400">
        <ele>1944.0</ele>
        <time>2013-06-04T18:50:57Z</time>
      </trkpt>
      <trkpt lat="41.078267" lon="-3.709367">
        <ele>1943.0</ele>
        <time>2013-06-04T18:50:58Z</time>
      </trkpt>
      <trkpt lat="41.078333" lon="-3.709367">
        <ele>1942.0</ele>
        <time>2013-06-04T18:50:59Z</time>
      </trkpt>
      <trkpt lat="41.078400" lon="-3.709383">
        <ele>1941.0</ele>
        <time>2013-06-04T18:51:00Z</time>
      </trkpt>
      <trkpt lat="41.078433" lon="-3.709433">
        <ele>1941.0</ele>
        <time>2013-06-04T18:51:01Z</time>
      </trkpt>
      <trkpt lat="41.078450" lon="-3.709483">
        <ele>1940.0</ele>
        <time>2013-06-04T18:51:02Z</time>
      </trkpt>
      <trkpt lat="41.078450" lon="-3.709550">
        <ele>1941.0</ele>
        <time>2013-06-04T18:51:03Z</time>
      </trkpt>
      <trkpt lat="41.078433" lon="-3.709600">
        <ele>1941.0</ele>
        <time>2013-06-04T18:51:04Z</time>
      </trkpt>
      <trkpt lat="41.078417" lon="-3.709667">
        <ele>1940.0</ele>
        <time>2013-06-04T18:51:05Z</time>
      </trkpt>
      <trkpt lat="41.078383" lon="-3.709717">
        <ele>1940.0</ele>
        <time>2013-06-04T18:51:06Z</time>
      </trkpt>
      <trkpt lat="41.078350" lon="-3.709767">
        <ele>1940.0</ele>
        <time>2013-06-04T18:51:07Z</time>
      </trkpt>
      <trkpt lat="41.078317" lon="-3.709833">
        <ele>1939.0</ele>
        <time>2013-06-04T18:51:08Z</time>
      </trkpt>
      <trkpt lat="41.078283" lon="-3.709917">
        <ele>1938.0</ele>
        <time>2013-06-04T18:51:09Z</time>
      </trkpt>
      <trkpt lat="41.078267" lon="-3.709983">
        <ele>1938.0</ele>
        <time>2013-06-04T18:51:10Z</time>
      </trkpt>
      <trkpt lat="41.078233" lon="-3.710050">
        <ele>1938.0</ele>
        <time>2013-06-04T18:51:11Z</time>
      </trkpt>
      <trkpt lat="41.078183" lon="-3.710117">
        <ele>1939.0</ele>
        <time>2013-06-04T18:51:12Z</time>
      </trkpt>
      <trkpt lat="41.078150" lon="-3.710167">
        <ele>1939.0</ele>
        <time>2013-06-04T18:51:13Z</time>
      </trkpt>
      <trkpt lat="41.078117" lon="-3.710233">
        <ele>1939.0</ele>
        <time>2013-06-04T18:51:14Z</time>
      </trkpt>
      <trkpt lat="41.078083" lon="-3.710300">
        <ele>1939.0</ele>
        <time>2013-06-04T18:51:15Z</time>
      </trkpt>
      <trkpt lat="41.078050" lon="-3.710367">
        <ele>1938.0</ele>
        <time>2013-06-04T18:51:16Z</time>
      </trkpt>
      <trkpt lat="41.078017" lon="-3.710417">
        <ele>1938.0</ele>
        <time>2013-06-04T18:51:17Z</time>
      </trkpt>
      <trkpt lat="41.077983" lon="-3.710483">
        <ele>1938.0</ele>
        <time>2013-06-04T18:51:18Z</time>
      </trkpt>
      <trkpt lat="41.077950" lon="-3.710533">
        <ele>1939.0</ele>
        <time>2013-06-04T18:51:19Z</time>
      </trkpt>
      <trkpt lat="41.077917" lon="-3.710583">
        <ele>1938.0</ele>
        <time>2013-06-04T18:51:20Z</time>
      </trkpt>
      <trkpt lat="41.077867" lon="-3.710633">
        <ele>1938.0</ele>
        <time>2013-06-04T18:51:21Z</time>
      </trkpt>
      <trkpt lat="41.077833" lon="-3.710683">
        <ele>1938.0</ele>
        <time>2013-06-04T18:51:22Z</time>
      </trkpt>
      <trkpt lat="41.077800" lon="-3.710733">
        <ele>1937.0</ele>
        <time>2013-06-04T18:51:23Z</time>
      </trkpt>
      <trkpt lat="41.077750" lon="-3.710783">
        <ele>1937.0</ele>
        <time>2013-06-04T18:51:24Z</time>
      </trkpt>
      <trkpt lat="41.077717" lon="-3.710850">
        <ele>1937.0</ele>
        <time>2013-06-04T18:51:25Z</time>
      </trkpt>
      <trkpt lat="41.077667" lon="-3.710900">
        <ele>1937.0</ele>
        <time>2013-06-04T18:51:26Z</time>
      </trkpt>
      <trkpt lat="41.077633" lon="-3.710950">
        <ele>1936.0</ele>
        <time>2013-06-04T18:51:27Z</time>
      </trkpt>
      <trkpt lat="41.077583" lon="-3.711000">
        <ele>1935.0</ele>
        <time>2013-06-04T18:51:28Z</time>
      </trkpt>
      <trkpt lat="41.077533" lon="-3.711050">
        <ele>1935.0</ele>
        <time>2013-06-04T18:51:29Z</time>
      </trkpt>
      <trkpt lat="41.077483" lon="-3.711100">
        <ele>1935.0</ele>
        <time>2013-06-04T18:51:30Z</time>
      </trkpt>
      <trkpt lat="41.077450" lon="-3.711167">
        <ele>1935.0</ele>
        <time>2013-06-04T18:51:31Z</time>
      </trkpt>
      <trkpt lat="41.077400" lon="-3.711200">
        <ele>1935.0</ele>
        <time>2013-06-04T18:51:32Z</time>
      </trkpt>
      <trkpt lat="41.077367" lon="-3.711250">
        <ele>1935.0</ele>
        <time>2013-06-04T18:51:33Z</time>
      </trkpt>
      <trkpt lat="41.077317" lon="-3.711300">
        <ele>1935.0</ele>
        <time>2013-06-04T18:51:34Z</time>
      </trkpt>
      <trkpt lat="41.077267" lon="-3.711350">
        <ele>1934.0</ele>
        <time>2013-06-04T18:51:35Z</time>
      </trkpt>
      <trkpt lat="41.077217" lon="-3.711400">
        <ele>1934.0</ele>
        <time>2013-06-04T18:51:36Z</time>
      </trkpt>
      <trkpt lat="41.077167" lon="-3.711467">
        <ele>1934.0</ele>
        <time>2013-06-04T18:51:37Z</time>
      </trkpt>
      <trkpt lat="41.077133" lon="-3.711517">
        <ele>1934.0</ele>
        <time>2013-06-04T18:51:38Z</time>
      </trkpt>
      <trkpt lat="41.077083" lon="-3.711567">
        <ele>1934.0</ele>
        <time>2013-06-04T18:51:39Z</time>
      </trkpt>
      <trkpt lat="41.077033" lon="-3.711617">
        <ele>1934.0</ele>
        <time>2013-06-04T18:51:40Z</time>
      </trkpt>
      <trkpt lat="41.077000" lon="-3.711667">
        <ele>1933.0</ele>
        <time>2013-06-04T18:51:41Z</time>
      </trkpt>
      <trkpt lat="41.076950" lon="-3.711733">
        <ele>1933.0</ele>
        <time>2013-06-04T18:51:42Z</time>
      </trkpt>
      <trkpt lat="41.076917" lon="-3.711800">
        <ele>1932.0</ele>
        <time>2013-06-04T18:51:43Z</time>
      </trkpt>
      <trkpt lat="41.076883" lon="-3.711867">
        <ele>1932.0</ele>
        <time>2013-06-04T18:51:44Z</time>
      </trkpt>
      <trkpt lat="41.076850" lon="-3.711917">
        <ele>1933.0</ele>
        <time>2013-06-04T18:51:45Z</time>
      </trkpt>
      <trkpt lat="41.076800" lon="-3.711967">
        <ele>1933.0</ele>
        <time>2013-06-04T18:51:46Z</time>
      </trkpt>
      <trkpt lat="41.076767" lon="-3.712017">
        <ele>1933.0</ele>
        <time>2013-06-04T18:51:47Z</time>
      </trkpt>
      <trkpt lat="41.076717" lon="-3.712083">
        <ele>1932.0</ele>
        <time>2013-06-04T18:51:48Z</time>
      </trkpt>
      <trkpt lat="41.076667" lon="-3.712133">
        <ele>1932.0</ele>
        <time>2013-06-04T18:51:49Z</time>
      </trkpt>
      <trkpt lat="41.076617" lon="-3.712183">
        <ele>1932.0</ele>
        <time>2013-06-04T18:51:50Z</time>
      </trkpt>
      <trkpt lat="41.076567" lon="-3.712233">
        <ele>1932.0</ele>
        <time>2013-06-04T18:51:51Z</time>
      </trkpt>
      <trkpt lat="41.076517" lon="-3.712283">
        <ele>1932.0</ele>
        <time>2013-06-04T18:51:52Z</time>
      </trkpt>
      <trkpt lat="41.076467" lon="-3.712333">
        <ele>1932.0</ele>
        <time>2013-06-04T18:51:53Z</time>
      </trkpt>
      <trkpt lat="41.076400" lon="-3.712383">
        <ele>1932.0</ele>
        <time>2013-06-04T18:51:54Z</time>
      </trkpt>
      <trkpt lat="41.076350" lon="-3.712433">
        <ele>1931.0</ele>
        <time>2013-06-04T18:51:55Z</time>
      </trkpt>
      <trkpt lat="41.076300" lon="-3.712500">
        <ele>1931.0</ele>
        <time>2013-06-04T18:51:56Z</time>
      </trkpt>
      <trkpt lat="41.076250" lon="-3.712550">
        <ele>1931.0</ele>
        <time>2013-06-04T18:51:57Z</time>
      </trkpt>
      <trkpt lat="41.076183" lon="-3.712600">
        <ele>1931.0</ele>
        <time>2013-06-04T18:51:58Z</time>
      </trkpt>
      <trkpt lat="41.076133" lon="-3.712650">
        <ele>1931.0</ele>
        <time>2013-06-04T18:51:59Z</time>
      </trkpt>
      <trkpt lat="41.076067" lon="-3.712683">
        <ele>1931.0</ele>
        <time>2013-06-04T18:52:00Z</time>
      </trkpt>
      <trkpt lat="41.076017" lon="-3.712733">
        <ele>1931.0</ele>
        <time>2013-06-04T18:52:01Z</time>
      </trkpt>
      <trkpt lat="41.075967" lon="-3.712800">
        <ele>1930.0</ele>
        <time>2013-06-04T18:52:02Z</time>
      </trkpt>
      <trkpt lat="41.075917" lon="-3.712850">
        <ele>1930.0</ele>
        <time>2013-06-04T18:52:03Z</time>
      </trkpt>
      <trkpt lat="41.075867" lon="-3.712917">
        <ele>1930.0</ele>
        <time>2013-06-04T18:52:04Z</time>
      </trkpt>
      <trkpt lat="41.075817" lon="-3.712983">
        <ele>1930.0</ele>
        <time>2013-06-04T18:52:05Z</time>
      </trkpt>
      <trkpt lat="41.075783" lon="-3.713033">
        <ele>1931.0</ele>
        <time>2013-06-04T18:52:06Z</time>
      </trkpt>
      <trkpt lat="41.075733" lon="-3.713083">
        <ele>1931.0</ele>
        <time>2013-06-04T18:52:07Z</time>
      </trkpt>
      <trkpt lat="41.075683" lon="-3.713133">
        <ele>1931.0</ele>
        <time>2013-06-04T18:52:08Z</time>
      </trkpt>
      <trkpt lat="41.075633" lon="-3.713183">
        <ele>1930.0</ele>
        <time>2013-06-04T18:52:09Z</time>
      </trkpt>
      <trkpt lat="41.075583" lon="-3.713250">
        <ele>1930.0</ele>
        <time>2013-06-04T18:52:10Z</time>
      </trkpt>
      <trkpt lat="41.075517" lon="-3.713300">
        <ele>1930.0</ele>
        <time>2013-06-04T18:52:11Z</time>
      </trkpt>
      <trkpt lat="41.075467" lon="-3.713350">
        <ele>1930.0</ele>
        <time>2013-06-04T18:52:12Z</time>
      </trkpt>
      <trkpt lat="41.075417" lon="-3.713400">
        <ele>1930.0</ele>
        <time>2013-06-04T18:52:13Z</time>
      </trkpt>
      <trkpt lat="41.075350" lon="-3.713450">
        <ele>1930.0</ele>
        <time>2013-06-04T18:52:14Z</time>
      </trkpt>
      <trkpt lat="41.075300" lon="-3.713483">
        <ele>1930.0</ele>
        <time>2013-06-04T18:52:15Z</time>
      </trkpt>
      <trkpt lat="41.075250" lon="-3.713533">
        <ele>1930.0</ele>
        <time>2013-06-04T18:52:16Z</time>
      </trkpt>
      <trkpt lat="41.075183" lon="-3.713583">
        <ele>1930.0</ele>
        <time>2013-06-04T18:52:17Z</time>
      </trkpt>
      <trkpt lat="41.075133" lon="-3.713633">
        <ele>1930.0</ele>
        <time>2013-06-04T18:52:18Z</time>
      </trkpt>
      <trkpt lat="41.075067" lon="-3.713683">
        <ele>1930.0</ele>
        <time>2013-06-04T18:52:19Z</time>
      </trkpt>
      <trkpt lat="41.075017" lon="-3.713733">
        <ele>1929.0</ele>
        <time>2013-06-04T18:52:20Z</time>
      </trkpt>
      <trkpt lat="41.074967" lon="-3.713783">
        <ele>1928.0</ele>
        <time>2013-06-04T18:52:21Z</time>
      </trkpt>
      <trkpt lat="41.074917" lon="-3.713833">
        <ele>1928.0</ele>
        <time>2013-06-04T18:52:22Z</time>
      </trkpt>
      <trkpt lat="41.074867" lon="-3.713900">
        <ele>1928.0</ele>
        <time>2013-06-04T18:52:23Z</time>
      </trkpt>
      <trkpt lat="41.074800" lon="-3.713967">
        <ele>1929.0</ele>
        <time>2013-06-04T18:52:24Z</time>
      </trkpt>
      <trkpt lat="41.074767" lon="-3.714017">
        <ele>1929.0</ele>
        <time>2013-06-04T18:52:25Z</time>
      </trkpt>
      <trkpt lat="41.074717" lon="-3.714067">
        <ele>1930.0</ele>
        <time>2013-06-04T18:52:26Z</time>
      </trkpt>
      <trkpt lat="41.074683" lon="-3.714117">
        <ele>1930.0</ele>
        <time>2013-06-04T18:52:27Z</time>
      </trkpt>
      <trkpt lat="41.074633" lon="-3.714167">
        <ele>1929.0</ele>
        <time>2013-06-04T18:52:28Z</time>
      </trkpt>
      <trkpt lat="41.074583" lon="-3.714233">
        <ele>1928.0</ele>
        <time>2013-06-04T18:52:29Z</time>
      </trkpt>
      <trkpt lat="41.074533" lon="-3.714300">
        <ele>1928.0</ele>
        <time>2013-06-04T18:52:30Z</time>
      </trkpt>
      <trkpt lat="41.074483" lon="-3.714350">
        <ele>1929.0</ele>
        <time>2013-06-04T18:52:31Z</time>
      </trkpt>
      <trkpt lat="41.074433" lon="-3.714400">
        <ele>1930.0</ele>
        <time>2013-06-04T18:52:32Z</time>
      </trkpt>
      <trkpt lat="41.074383" lon="-3.714450">
        <ele>1930.0</ele>
        <time>2013-06-04T18:52:33Z</time>
      </trkpt>
      <trkpt lat="41.074333" lon="-3.714500">
        <ele>1930.0</ele>
        <time>2013-06-04T18:52:34Z</time>
      </trkpt>
      <trkpt lat="41.074283" lon="-3.714550">
        <ele>1929.0</ele>
        <time>2013-06-04T18:52:35Z</time>
      </trkpt>
      <trkpt lat="41.074217" lon="-3.714600">
        <ele>1929.0</ele>
        <time>2013-06-04T18:52:36Z</time>
      </trkpt>
      <trkpt lat="41.074167" lon="-3.714667">
        <ele>1929.0</ele>
        <time>2013-06-04T18:52:37Z</time>
      </trkpt>
      <trkpt lat="41.074117" lon="-3.714717">
        <ele>1929.0</ele>
        <time>2013-06-04T18:52:38Z</time>
      </trkpt>
      <trkpt lat="41.074067" lon="-3.714767">
        <ele>1929.0</ele>
        <time>2013-06-04T18:52:39Z</time>
      </trkpt>
      <trkpt lat="41.074017" lon="-3.714817">
        <ele>1929.0</ele>
        <time>2013-06-04T18:52:40Z</time>
      </trkpt>
      <trkpt lat="41.073983" lon="-3.714883">
        <ele>1929.0</ele>
        <time>2013-06-04T18:52:41Z</time>
      </trkpt>
      <trkpt lat="41.073933" lon="-3.714950">
        <ele>1928.0</ele>
        <time>2013-06-04T18:52:42Z</time>
      </trkpt>
      <trkpt lat="41.073900" lon="-3.715000">
        <ele>1928.0</ele>
        <time>2013-06-04T18:52:43Z</time>
      </trkpt>
      <trkpt lat="41.073867" lon="-3.715067">
        <ele>1928.0</ele>
        <time>2013-06-04T18:52:44Z</time>
      </trkpt>
      <trkpt lat="41.073833" lon="-3.715117">
        <ele>1928.0</ele>
        <time>2013-06-04T18:52:45Z</time>
      </trkpt>
      <trkpt lat="41.073800" lon="-3.715167">
        <ele>1928.0</ele>
        <time>2013-06-04T18:52:46Z</time>
      </trkpt>
      <trkpt lat="41.073750" lon="-3.715217">
        <ele>1928.0</ele>
        <time>2013-06-04T18:52:47Z</time>
      </trkpt>
      <trkpt lat="41.073717" lon="-3.715267">
        <ele>1927.0</ele>
        <time>2013-06-04T18:52:48Z</time>
      </trkpt>
      <trkpt lat="41.073683" lon="-3.715317">
        <ele>1927.0</ele>
        <time>2013-06-04T18:52:49Z</time>
      </trkpt>
      <trkpt lat="41.073633" lon="-3.715383">
        <ele>1927.0</ele>
        <time>2013-06-04T18:52:50Z</time>
      </trkpt>
      <trkpt lat="41.073600" lon="-3.715433">
        <ele>1927.0</ele>
        <time>2013-06-04T18:52:51Z</time>
      </trkpt>
      <trkpt lat="41.073550" lon="-3.715483">
        <ele>1927.0</ele>
        <time>2013-06-04T18:52:52Z</time>
      </trkpt>
      <trkpt lat="41.073500" lon="-3.715517">
        <ele>1927.0</ele>
        <time>2013-06-04T18:52:53Z</time>
      </trkpt>
      <trkpt lat="41.073450" lon="-3.715583">
        <ele>1926.0</ele>
        <time>2013-06-04T18:52:54Z</time>
      </trkpt>
      <trkpt lat="41.073417" lon="-3.715633">
        <ele>1926.0</ele>
        <time>2013-06-04T18:52:55Z</time>
      </trkpt>
      <trkpt lat="41.073367" lon="-3.715683">
        <ele>1926.0</ele>
        <time>2013-06-04T18:52:56Z</time>
      </trkpt>
      <trkpt lat="41.073317" lon="-3.715733">
        <ele>1927.0</ele>
        <time>2013-06-04T18:52:57Z</time>
      </trkpt>
      <trkpt lat="41.073250" lon="-3.715767">
        <ele>1927.0</ele>
        <time>2013-06-04T18:52:58Z</time>
      </trkpt>
      <trkpt lat="41.073200" lon="-3.715817">
        <ele>1927.0</ele>
        <time>2013-06-04T18:52:59Z</time>
      </trkpt>
      <trkpt lat="41.073150" lon="-3.715850">
        <ele>1926.0</ele>
        <time>2013-06-04T18:53:00Z</time>
      </trkpt>
      <trkpt lat="41.073083" lon="-3.715917">
        <ele>1925.0</ele>
        <time>2013-06-04T18:53:01Z</time>
      </trkpt>
      <trkpt lat="41.073033" lon="-3.715967">
        <ele>1925.0</ele>
        <time>2013-06-04T18:53:02Z</time>
      </trkpt>
      <trkpt lat="41.072967" lon="-3.716017">
        <ele>1925.0</ele>
        <time>2013-06-04T18:53:03Z</time>
      </trkpt>
      <trkpt lat="41.072917" lon="-3.716067">
        <ele>1924.0</ele>
        <time>2013-06-04T18:53:04Z</time>
      </trkpt>
      <trkpt lat="41.072850" lon="-3.716117">
        <ele>1924.0</ele>
        <time>2013-06-04T18:53:05Z</time>
      </trkpt>
      <trkpt lat="41.072800" lon="-3.716167">
        <ele>1924.0</ele>
        <time>2013-06-04T18:53:06Z</time>
      </trkpt>
      <trkpt lat="41.072733" lon="-3.716200">
        <ele>1923.0</ele>
        <time>2013-06-04T18:53:07Z</time>
      </trkpt>
      <trkpt lat="41.072683" lon="-3.716250">
        <ele>1923.0</ele>
        <time>2013-06-04T18:53:08Z</time>
      </trkpt>
      <trkpt lat="41.072633" lon="-3.716317">
        <ele>1922.0</ele>
        <time>2013-06-04T18:53:09Z</time>
      </trkpt>
      <trkpt lat="41.072583" lon="-3.716367">
        <ele>1922.0</ele>
        <time>2013-06-04T18:53:10Z</time>
      </trkpt>
      <trkpt lat="41.072550" lon="-3.716417">
        <ele>1922.0</ele>
        <time>2013-06-04T18:53:11Z</time>
      </trkpt>
      <trkpt lat="41.072500" lon="-3.716467">
        <ele>1923.0</ele>
        <time>2013-06-04T18:53:12Z</time>
      </trkpt>
      <trkpt lat="41.072450" lon="-3.716517">
        <ele>1923.0</ele>
        <time>2013-06-04T18:53:13Z</time>
      </trkpt>
      <trkpt lat="41.072400" lon="-3.716567">
        <ele>1923.0</ele>
        <time>2013-06-04T18:53:14Z</time>
      </trkpt>
      <trkpt lat="41.072350" lon="-3.716617">
        <ele>1923.0</ele>
        <time>2013-06-04T18:53:15Z</time>
      </trkpt>
      <trkpt lat="41.072300" lon="-3.716667">
        <ele>1923.0</ele>
        <time>2013-06-04T18:53:16Z</time>
      </trkpt>
      <trkpt lat="41.072250" lon="-3.716717">
        <ele>1923.0</ele>
        <time>2013-06-04T18:53:17Z</time>
      </trkpt>
      <trkpt lat="41.072200" lon="-3.716750">
        <ele>1923.0</ele>
        <time>2013-06-04T18:53:18Z</time>
      </trkpt>
      <trkpt lat="41.072150" lon="-3.716800">
        <ele>1924.0</ele>
        <time>2013-06-04T18:53:19Z</time>
      </trkpt>
      <trkpt lat="41.072100" lon="-3.716850">
        <ele>1924.0</ele>
        <time>2013-06-04T18:53:20Z</time>
      </trkpt>
      <trkpt lat="41.072050" lon="-3.716900">
        <ele>1923.0</ele>
        <time>2013-06-04T18:53:21Z</time>
      </trkpt>
      <trkpt lat="41.072017" lon="-3.716950">
        <ele>1923.0</ele>
        <time>2013-06-04T18:53:22Z</time>
      </trkpt>
      <trkpt lat="41.071967" lon="-3.717000">
        <ele>1923.0</ele>
        <time>2013-06-04T18:53:23Z</time>
      </trkpt>
      <trkpt lat="41.071917" lon="-3.717033">
        <ele>1923.0</ele>
        <time>2013-06-04T18:53:24Z</time>
      </trkpt>
      <trkpt lat="41.071867" lon="-3.717083">
        <ele>1923.0</ele>
        <time>2013-06-04T18:53:25Z</time>
      </trkpt>
      <trkpt lat="41.071817" lon="-3.717133">
        <ele>1923.0</ele>
        <time>2013-06-04T18:53:26Z</time>
      </trkpt>
      <trkpt lat="41.071767" lon="-3.717183">
        <ele>1923.0</ele>
        <time>2013-06-04T18:53:27Z</time>
      </trkpt>
      <trkpt lat="41.071717" lon="-3.717233">
        <ele>1923.0</ele>
        <time>2013-06-04T18:53:28Z</time>
      </trkpt>
      <trkpt lat="41.071667" lon="-3.717300">
        <ele>1923.0</ele>
        <time>2013-06-04T18:53:29Z</time>
      </trkpt>
      <trkpt lat="41.071633" lon="-3.717350">
        <ele>1924.0</ele>
        <time>2013-06-04T18:53:30Z</time>
      </trkpt>
      <trkpt lat="41.071600" lon="-3.717400">
        <ele>1924.0</ele>
        <time>2013-06-04T18:53:31Z</time>
      </trkpt>
      <trkpt lat="41.071567" lon="-3.717450">
        <ele>1925.0</ele>
        <time>2013-06-04T18:53:32Z</time>
      </trkpt>
      <trkpt lat="41.071533" lon="-3.717500">
        <ele>1924.0</ele>
        <time>2013-06-04T18:53:33Z</time>
      </trkpt>
      <trkpt lat="41.071500" lon="-3.717567">
        <ele>1924.0</ele>
        <time>2013-06-04T18:53:34Z</time>
      </trkpt>
      <trkpt lat="41.071467" lon="-3.717617">
        <ele>1925.0</ele>
        <time>2013-06-04T18:53:35Z</time>
      </trkpt>
      <trkpt lat="41.071433" lon="-3.717667">
        <ele>1925.0</ele>
        <time>2013-06-04T18:53:36Z</time>
      </trkpt>
      <trkpt lat="41.071417" lon="-3.717717">
        <ele>1926.0</ele>
        <time>2013-06-04T18:53:37Z</time>
      </trkpt>
      <trkpt lat="41.071383" lon="-3.717750">
        <ele>1925.0</ele>
        <time>2013-06-04T18:53:38Z</time>
      </trkpt>
      <trkpt lat="41.071333" lon="-3.717817">
        <ele>1925.0</ele>
        <time>2013-06-04T18:53:39Z</time>
      </trkpt>
      <trkpt lat="41.071300" lon="-3.717867">
        <ele>1924.0</ele>
        <time>2013-06-04T18:53:40Z</time>
      </trkpt>
      <trkpt lat="41.071267" lon="-3.717933">
        <ele>1924.0</ele>
        <time>2013-06-04T18:53:41Z</time>
      </trkpt>
      <trkpt lat="41.071233" lon="-3.717983">
        <ele>1924.0</ele>
        <time>2013-06-04T18:53:42Z</time>
      </trkpt>
      <trkpt lat="41.071200" lon="-3.718033">
        <ele>1925.0</ele>
        <time>2013-06-04T18:53:43Z</time>
      </trkpt>
      <trkpt lat="41.071167" lon="-3.718067">
        <ele>1925.0</ele>
        <time>2013-06-04T18:53:44Z</time>
      </trkpt>
      <trkpt lat="41.071117" lon="-3.718117">
        <ele>1924.0</ele>
        <time>2013-06-04T18:53:45Z</time>
      </trkpt>
      <trkpt lat="41.071083" lon="-3.718183">
        <ele>1924.0</ele>
        <time>2013-06-04T18:53:46Z</time>
      </trkpt>
      <trkpt lat="41.071033" lon="-3.718233">
        <ele>1923.0</ele>
        <time>2013-06-04T18:53:47Z</time>
      </trkpt>
      <trkpt lat="41.071000" lon="-3.718300">
        <ele>1924.0</ele>
        <time>2013-06-04T18:53:48Z</time>
      </trkpt>
      <trkpt lat="41.070967" lon="-3.718350">
        <ele>1924.0</ele>
        <time>2013-06-04T18:53:49Z</time>
      </trkpt>
      <trkpt lat="41.070933" lon="-3.718400">
        <ele>1925.0</ele>
        <time>2013-06-04T18:53:50Z</time>
      </trkpt>
      <trkpt lat="41.070883" lon="-3.718467">
        <ele>1926.0</ele>
        <time>2013-06-04T18:53:51Z</time>
      </trkpt>
      <trkpt lat="41.070850" lon="-3.718517">
        <ele>1926.0</ele>
        <time>2013-06-04T18:53:52Z</time>
      </trkpt>
      <trkpt lat="41.070800" lon="-3.718567">
        <ele>1926.0</ele>
        <time>2013-06-04T18:53:53Z</time>
      </trkpt>
      <trkpt lat="41.070750" lon="-3.718633">
        <ele>1927.0</ele>
        <time>2013-06-04T18:53:54Z</time>
      </trkpt>
      <trkpt lat="41.070700" lon="-3.718683">
        <ele>1927.0</ele>
        <time>2013-06-04T18:53:55Z</time>
      </trkpt>
      <trkpt lat="41.070633" lon="-3.718733">
        <ele>1928.0</ele>
        <time>2013-06-04T18:53:56Z</time>
      </trkpt>
      <trkpt lat="41.070583" lon="-3.718767">
        <ele>1928.0</ele>
        <time>2013-06-04T18:53:57Z</time>
      </trkpt>
      <trkpt lat="41.070533" lon="-3.718817">
        <ele>1928.0</ele>
        <time>2013-06-04T18:53:58Z</time>
      </trkpt>
      <trkpt lat="41.070483" lon="-3.718867">
        <ele>1929.0</ele>
        <time>2013-06-04T18:53:59Z</time>
      </trkpt>
      <trkpt lat="41.070433" lon="-3.718917">
        <ele>1929.0</ele>
        <time>2013-06-04T18:54:00Z</time>
      </trkpt>
      <trkpt lat="41.070400" lon="-3.718950">
        <ele>1929.0</ele>
        <time>2013-06-04T18:54:01Z</time>
      </trkpt>
      <trkpt lat="41.070350" lon="-3.719000">
        <ele>1929.0</ele>
        <time>2013-06-04T18:54:02Z</time>
      </trkpt>
      <trkpt lat="41.070300" lon="-3.719050">
        <ele>1929.0</ele>
        <time>2013-06-04T18:54:03Z</time>
      </trkpt>
      <trkpt lat="41.070250" lon="-3.719100">
        <ele>1929.0</ele>
        <time>2013-06-04T18:54:04Z</time>
      </trkpt>
      <trkpt lat="41.070200" lon="-3.719150">
        <ele>1930.0</ele>
        <time>2013-06-04T18:54:05Z</time>
      </trkpt>
      <trkpt lat="41.070150" lon="-3.719200">
        <ele>1931.0</ele>
        <time>2013-06-04T18:54:06Z</time>
      </trkpt>
      <trkpt lat="41.070100" lon="-3.719250">
        <ele>1931.0</ele>
        <time>2013-06-04T18:54:07Z</time>
      </trkpt>
      <trkpt lat="41.070050" lon="-3.719283">
        <ele>1931.0</ele>
        <time>2013-06-04T18:54:08Z</time>
      </trkpt>
      <trkpt lat="41.070000" lon="-3.719333">
        <ele>1931.0</ele>
        <time>2013-06-04T18:54:09Z</time>
      </trkpt>
      <trkpt lat="41.069967" lon="-3.719383">
        <ele>1931.0</ele>
        <time>2013-06-04T18:54:10Z</time>
      </trkpt>
      <trkpt lat="41.069917" lon="-3.719450">
        <ele>1932.0</ele>
        <time>2013-06-04T18:54:11Z</time>
      </trkpt>
      <trkpt lat="41.069867" lon="-3.719500">
        <ele>1933.0</ele>
        <time>2013-06-04T18:54:12Z</time>
      </trkpt>
      <trkpt lat="41.069817" lon="-3.719533">
        <ele>1933.0</ele>
        <time>2013-06-04T18:54:13Z</time>
      </trkpt>
      <trkpt lat="41.069767" lon="-3.719583">
        <ele>1934.0</ele>
        <time>2013-06-04T18:54:14Z</time>
      </trkpt>
      <trkpt lat="41.069717" lon="-3.719633">
        <ele>1934.0</ele>
        <time>2013-06-04T18:54:15Z</time>
      </trkpt>
      <trkpt lat="41.069683" lon="-3.719683">
        <ele>1934.0</ele>
        <time>2013-06-04T18:54:16Z</time>
      </trkpt>
      <trkpt lat="41.069633" lon="-3.719733">
        <ele>1935.0</ele>
        <time>2013-06-04T18:54:17Z</time>
      </trkpt>
      <trkpt lat="41.069600" lon="-3.719783">
        <ele>1935.0</ele>
        <time>2013-06-04T18:54:18Z</time>
      </trkpt>
      <trkpt lat="41.069550" lon="-3.719817">
        <ele>1936.0</ele>
        <time>2013-06-04T18:54:19Z</time>
      </trkpt>
      <trkpt lat="41.069500" lon="-3.719867">
        <ele>1936.0</ele>
        <time>2013-06-04T18:54:20Z</time>
      </trkpt>
      <trkpt lat="41.069450" lon="-3.719900">
        <ele>1936.0</ele>
        <time>2013-06-04T18:54:21Z</time>
      </trkpt>
      <trkpt lat="41.069400" lon="-3.719950">
        <ele>1936.0</ele>
        <time>2013-06-04T18:54:22Z</time>
      </trkpt>
      <trkpt lat="41.069350" lon="-3.720000">
        <ele>1937.0</ele>
        <time>2013-06-04T18:54:23Z</time>
      </trkpt>
      <trkpt lat="41.069317" lon="-3.720050">
        <ele>1937.0</ele>
        <time>2013-06-04T18:54:24Z</time>
      </trkpt>
      <trkpt lat="41.069267" lon="-3.720100">
        <ele>1938.0</ele>
        <time>2013-06-04T18:54:25Z</time>
      </trkpt>
      <trkpt lat="41.069217" lon="-3.720150">
        <ele>1938.0</ele>
        <time>2013-06-04T18:54:26Z</time>
      </trkpt>
      <trkpt lat="41.069167" lon="-3.720200">
        <ele>1939.0</ele>
        <time>2013-06-04T18:54:27Z</time>
      </trkpt>
      <trkpt lat="41.069117" lon="-3.720250">
        <ele>1939.0</ele>
        <time>2013-06-04T18:54:28Z</time>
      </trkpt>
      <trkpt lat="41.069083" lon="-3.720300">
        <ele>1939.0</ele>
        <time>2013-06-04T18:54:29Z</time>
      </trkpt>
      <trkpt lat="41.069033" lon="-3.720350">
        <ele>1939.0</ele>
        <time>2013-06-04T18:54:30Z</time>
      </trkpt>
      <trkpt lat="41.068983" lon="-3.720400">
        <ele>1939.0</ele>
        <time>2013-06-04T18:54:31Z</time>
      </trkpt>
      <trkpt lat="41.068950" lon="-3.720450">
        <ele>1939.0</ele>
        <time>2013-06-04T18:54:32Z</time>
      </trkpt>
      <trkpt lat="41.068917" lon="-3.720517">
        <ele>1939.0</ele>
        <time>2013-06-04T18:54:33Z</time>
      </trkpt>
      <trkpt lat="41.068867" lon="-3.720567">
        <ele>1939.0</ele>
        <time>2013-06-04T18:54:34Z</time>
      </trkpt>
      <trkpt lat="41.068833" lon="-3.720617">
        <ele>1940.0</ele>
        <time>2013-06-04T18:54:35Z</time>
      </trkpt>
      <trkpt lat="41.068783" lon="-3.720667">
        <ele>1940.0</ele>
        <time>2013-06-04T18:54:36Z</time>
      </trkpt>
      <trkpt lat="41.068750" lon="-3.720717">
        <ele>1941.0</ele>
        <time>2013-06-04T18:54:37Z</time>
      </trkpt>
      <trkpt lat="41.068717" lon="-3.720767">
        <ele>1942.0</ele>
        <time>2013-06-04T18:54:38Z</time>
      </trkpt>
      <trkpt lat="41.068683" lon="-3.720817">
        <ele>1942.0</ele>
        <time>2013-06-04T18:54:39Z</time>
      </trkpt>
      <trkpt lat="41.068650" lon="-3.720867">
        <ele>1943.0</ele>
        <time>2013-06-04T18:54:40Z</time>
      </trkpt>
      <trkpt lat="41.068600" lon="-3.720917">
        <ele>1943.0</ele>
        <time>2013-06-04T18:54:41Z</time>
      </trkpt>
      <trkpt lat="41.068567" lon="-3.720967">
        <ele>1943.0</ele>
        <time>2013-06-04T18:54:42Z</time>
      </trkpt>
      <trkpt lat="41.068517" lon="-3.721017">
        <ele>1942.0</ele>
        <time>2013-06-04T18:54:43Z</time>
      </trkpt>
      <trkpt lat="41.068483" lon="-3.721067">
        <ele>1942.0</ele>
        <time>2013-06-04T18:54:44Z</time>
      </trkpt>
      <trkpt lat="41.068450" lon="-3.721117">
        <ele>1943.0</ele>
        <time>2013-06-04T18:54:45Z</time>
      </trkpt>
      <trkpt lat="41.068417" lon="-3.721150">
        <ele>1943.0</ele>
        <time>2013-06-04T18:54:46Z</time>
      </trkpt>
      <trkpt lat="41.068383" lon="-3.721183">
        <ele>1943.0</ele>
        <time>2013-06-04T18:54:47Z</time>
      </trkpt>
      <trkpt lat="41.068333" lon="-3.721233">
        <ele>1942.0</ele>
        <time>2013-06-04T18:54:48Z</time>
      </trkpt>
      <trkpt lat="41.068300" lon="-3.721283">
        <ele>1941.0</ele>
        <time>2013-06-04T18:54:49Z</time>
      </trkpt>
      <trkpt lat="41.068267" lon="-3.721350">
        <ele>1941.0</ele>
        <time>2013-06-04T18:54:50Z</time>
      </trkpt>
      <trkpt lat="41.068233" lon="-3.721400">
        <ele>1942.0</ele>
        <time>2013-06-04T18:54:51Z</time>
      </trkpt>
      <trkpt lat="41.068200" lon="-3.721450">
        <ele>1943.0</ele>
        <time>2013-06-04T18:54:52Z</time>
      </trkpt>
      <trkpt lat="41.068167" lon="-3.721483">
        <ele>1944.0</ele>
        <time>2013-06-04T18:54:53Z</time>
      </trkpt>
      <trkpt lat="41.068133" lon="-3.721533">
        <ele>1944.0</ele>
        <time>2013-06-04T18:54:54Z</time>
      </trkpt>
      <trkpt lat="41.068100" lon="-3.721583">
        <ele>1945.0</ele>
        <time>2013-06-04T18:54:55Z</time>
      </trkpt>
      <trkpt lat="41.068067" lon="-3.721650">
        <ele>1945.0</ele>
        <time>2013-06-04T18:54:56Z</time>
      </trkpt>
      <trkpt lat="41.068050" lon="-3.721700">
        <ele>1946.0</ele>
        <time>2013-06-04T18:54:57Z</time>
      </trkpt>
      <trkpt lat="41.068050" lon="-3.721750">
        <ele>1947.0</ele>
        <time>2013-06-04T18:54:58Z</time>
      </trkpt>
      <trkpt lat="41.068050" lon="-3.721800">
        <ele>1948.0</ele>
        <time>2013-06-04T18:54:59Z</time>
      </trkpt>
      <trkpt lat="41.068050" lon="-3.721833">
        <ele>1949.0</ele>
        <time>2013-06-04T18:55:00Z</time>
      </trkpt>
      <trkpt lat="41.068083" lon="-3.721883">
        <ele>1950.0</ele>
        <time>2013-06-04T18:55:01Z</time>
      </trkpt>
      <trkpt lat="41.068133" lon="-3.721917">
        <ele>1951.0</ele>
        <time>2013-06-04T18:55:02Z</time>
      </trkpt>
      <trkpt lat="41.068167" lon="-3.721933">
        <ele>1953.0</ele>
        <time>2013-06-04T18:55:03Z</time>
      </trkpt>
      <trkpt lat="41.068200" lon="-3.721933">
        <ele>1954.0</ele>
        <time>2013-06-04T18:55:04Z</time>
      </trkpt>
      <trkpt lat="41.068233" lon="-3.721933">
        <ele>1955.0</ele>
        <time>2013-06-04T18:55:05Z</time>
      </trkpt>
      <trkpt lat="41.068283" lon="-3.721900">
        <ele>1955.0</ele>
        <time>2013-06-04T18:55:06Z</time>
      </trkpt>
      <trkpt lat="41.068350" lon="-3.721883">
        <ele>1954.0</ele>
        <time>2013-06-04T18:55:07Z</time>
      </trkpt>
      <trkpt lat="41.068417" lon="-3.721850">
        <ele>1953.0</ele>
        <time>2013-06-04T18:55:08Z</time>
      </trkpt>
      <trkpt lat="41.068483" lon="-3.721833">
        <ele>1953.0</ele>
        <time>2013-06-04T18:55:09Z</time>
      </trkpt>
      <trkpt lat="41.068517" lon="-3.721850">
        <ele>1954.0</ele>
        <time>2013-06-04T18:55:10Z</time>
      </trkpt>
      <trkpt lat="41.068550" lon="-3.721867">
        <ele>1954.0</ele>
        <time>2013-06-04T18:55:11Z</time>
      </trkpt>
      <trkpt lat="41.068550" lon="-3.721917">
        <ele>1953.0</ele>
        <time>2013-06-04T18:55:12Z</time>
      </trkpt>
      <trkpt lat="41.068533" lon="-3.721967">
        <ele>1953.0</ele>
        <time>2013-06-04T18:55:13Z</time>
      </trkpt>
      <trkpt lat="41.068500" lon="-3.722000">
        <ele>1953.0</ele>
        <time>2013-06-04T18:55:14Z</time>
      </trkpt>
      <trkpt lat="41.068467" lon="-3.722050">
        <ele>1952.0</ele>
        <time>2013-06-04T18:55:15Z</time>
      </trkpt>
      <trkpt lat="41.068400" lon="-3.722083">
        <ele>1952.0</ele>
        <time>2013-06-04T18:55:16Z</time>
      </trkpt>
      <trkpt lat="41.068317" lon="-3.722117">
        <ele>1952.0</ele>
        <time>2013-06-04T18:55:17Z</time>
      </trkpt>
      <trkpt lat="41.068250" lon="-3.722133">
        <ele>1952.0</ele>
        <time>2013-06-04T18:55:18Z</time>
      </trkpt>
      <trkpt lat="41.068167" lon="-3.722167">
        <ele>1952.0</ele>
        <time>2013-06-04T18:55:19Z</time>
      </trkpt>
      <trkpt lat="41.068100" lon="-3.722200">
        <ele>1952.0</ele>
        <time>2013-06-04T18:55:20Z</time>
      </trkpt>
      <trkpt lat="41.068033" lon="-3.722250">
        <ele>1953.0</ele>
        <time>2013-06-04T18:55:21Z</time>
      </trkpt>
      <trkpt lat="41.067967" lon="-3.722283">
        <ele>1953.0</ele>
        <time>2013-06-04T18:55:22Z</time>
      </trkpt>
      <trkpt lat="41.067900" lon="-3.722333">
        <ele>1953.0</ele>
        <time>2013-06-04T18:55:23Z</time>
      </trkpt>
      <trkpt lat="41.067850" lon="-3.722383">
        <ele>1954.0</ele>
        <time>2013-06-04T18:55:24Z</time>
      </trkpt>
      <trkpt lat="41.067800" lon="-3.722433">
        <ele>1954.0</ele>
        <time>2013-06-04T18:55:25Z</time>
      </trkpt>
      <trkpt lat="41.067750" lon="-3.722483">
        <ele>1955.0</ele>
        <time>2013-06-04T18:55:26Z</time>
      </trkpt>
      <trkpt lat="41.067700" lon="-3.722533">
        <ele>1956.0</ele>
        <time>2013-06-04T18:55:27Z</time>
      </trkpt>
      <trkpt lat="41.067650" lon="-3.722567">
        <ele>1956.0</ele>
        <time>2013-06-04T18:55:28Z</time>
      </trkpt>
      <trkpt lat="41.067600" lon="-3.722617">
        <ele>1957.0</ele>
        <time>2013-06-04T18:55:29Z</time>
      </trkpt>
      <trkpt lat="41.067550" lon="-3.722667">
        <ele>1957.0</ele>
        <time>2013-06-04T18:55:30Z</time>
      </trkpt>
      <trkpt lat="41.067483" lon="-3.722700">
        <ele>1957.0</ele>
        <time>2013-06-04T18:55:31Z</time>
      </trkpt>
      <trkpt lat="41.067433" lon="-3.722750">
        <ele>1958.0</ele>
        <time>2013-06-04T18:55:32Z</time>
      </trkpt>
      <trkpt lat="41.067367" lon="-3.722783">
        <ele>1958.0</ele>
        <time>2013-06-04T18:55:33Z</time>
      </trkpt>
      <trkpt lat="41.067300" lon="-3.722833">
        <ele>1959.0</ele>
        <time>2013-06-04T18:55:34Z</time>
      </trkpt>
      <trkpt lat="41.067233" lon="-3.722867">
        <ele>1959.0</ele>
        <time>2013-06-04T18:55:35Z</time>
      </trkpt>
      <trkpt lat="41.067167" lon="-3.722900">
        <ele>1960.0</ele>
        <time>2013-06-04T18:55:36Z</time>
      </trkpt>
      <trkpt lat="41.067083" lon="-3.722933">
        <ele>1960.0</ele>
        <time>2013-06-04T18:55:37Z</time>
      </trkpt>
      <trkpt lat="41.067017" lon="-3.722967">
        <ele>1960.0</ele>
        <time>2013-06-04T18:55:38Z</time>
      </trkpt>
      <trkpt lat="41.066933" lon="-3.723000">
        <ele>1961.0</ele>
        <time>2013-06-04T18:55:39Z</time>
      </trkpt>
      <trkpt lat="41.066867" lon="-3.723033">
        <ele>1961.0</ele>
        <time>2013-06-04T18:55:40Z</time>
      </trkpt>
      <trkpt lat="41.066783" lon="-3.723067">
        <ele>1961.0</ele>
        <time>2013-06-04T18:55:41Z</time>
      </trkpt>
      <trkpt lat="41.066717" lon="-3.723117">
        <ele>1961.0</ele>
        <time>2013-06-04T18:55:42Z</time>
      </trkpt>
      <trkpt lat="41.066667" lon="-3.723167">
        <ele>1962.0</ele>
        <time>2013-06-04T18:55:43Z</time>
      </trkpt>
      <trkpt lat="41.066617" lon="-3.723217">
        <ele>1963.0</ele>
        <time>2013-06-04T18:55:44Z</time>
      </trkpt>
      <trkpt lat="41.066567" lon="-3.723250">
        <ele>1963.0</ele>
        <time>2013-06-04T18:55:45Z</time>
      </trkpt>
      <trkpt lat="41.066533" lon="-3.723317">
        <ele>1964.0</ele>
        <time>2013-06-04T18:55:46Z</time>
      </trkpt>
      <trkpt lat="41.066500" lon="-3.723367">
        <ele>1964.0</ele>
        <time>2013-06-04T18:55:47Z</time>
      </trkpt>
      <trkpt lat="41.066500" lon="-3.723417">
        <ele>1965.0</ele>
        <time>2013-06-04T18:55:48Z</time>
      </trkpt>
      <trkpt lat="41.066483" lon="-3.723467">
        <ele>1966.0</ele>
        <time>2013-06-04T18:55:49Z</time>
      </trkpt>
      <trkpt lat="41.066467" lon="-3.723517">
        <ele>1967.0</ele>
        <time>2013-06-04T18:55:50Z</time>
      </trkpt>
      <trkpt lat="41.066450" lon="-3.723550">
        <ele>1968.0</ele>
        <time>2013-06-04T18:55:51Z</time>
      </trkpt>
      <trkpt lat="41.066450" lon="-3.723583">
        <ele>1968.0</ele>
        <time>2013-06-04T18:55:52Z</time>
      </trkpt>
      <trkpt lat="41.066483" lon="-3.723617">
        <ele>1968.0</ele>
        <time>2013-06-04T18:55:53Z</time>
      </trkpt>
      <trkpt lat="41.066517" lon="-3.723633">
        <ele>1967.0</ele>
        <time>2013-06-04T18:55:54Z</time>
      </trkpt>
      <trkpt lat="41.066567" lon="-3.723650">
        <ele>1967.0</ele>
        <time>2013-06-04T18:55:55Z</time>
      </trkpt>
      <trkpt lat="41.066617" lon="-3.723633">
        <ele>1968.0</ele>
        <time>2013-06-04T18:55:56Z</time>
      </trkpt>
      <trkpt lat="41.066667" lon="-3.723617">
        <ele>1968.0</ele>
        <time>2013-06-04T18:55:57Z</time>
      </trkpt>
      <trkpt lat="41.066717" lon="-3.723583">
        <ele>1969.0</ele>
        <time>2013-06-04T18:55:58Z</time>
      </trkpt>
      <trkpt lat="41.066767" lon="-3.723533">
        <ele>1969.0</ele>
        <time>2013-06-04T18:55:59Z</time>
      </trkpt>
      <trkpt lat="41.066833" lon="-3.723483">
        <ele>1969.0</ele>
        <time>2013-06-04T18:56:00Z</time>
      </trkpt>
      <trkpt lat="41.066900" lon="-3.723400">
        <ele>1969.0</ele>
        <time>2013-06-04T18:56:01Z</time>
      </trkpt>
      <trkpt lat="41.066950" lon="-3.723300">
        <ele>1970.0</ele>
        <time>2013-06-04T18:56:02Z</time>
      </trkpt>
      <trkpt lat="41.067000" lon="-3.723183">
        <ele>1970.0</ele>
        <time>2013-06-04T18:56:03Z</time>
      </trkpt>
      <trkpt lat="41.067050" lon="-3.723067">
        <ele>1970.0</ele>
        <time>2013-06-04T18:56:04Z</time>
      </trkpt>
      <trkpt lat="41.067100" lon="-3.722967">
        <ele>1971.0</ele>
        <time>2013-06-04T18:56:05Z</time>
      </trkpt>
      <trkpt lat="41.067150" lon="-3.722850">
        <ele>1971.0</ele>
        <time>2013-06-04T18:56:06Z</time>
      </trkpt>
      <trkpt lat="41.067217" lon="-3.722733">
        <ele>1970.0</ele>
        <time>2013-06-04T18:56:07Z</time>
      </trkpt>
      <trkpt lat="41.067267" lon="-3.722633">
        <ele>1971.0</ele>
        <time>2013-06-04T18:56:08Z</time>
      </trkpt>
      <trkpt lat="41.067333" lon="-3.722533">
        <ele>1971.0</ele>
        <time>2013-06-04T18:56:09Z</time>
      </trkpt>
      <trkpt lat="41.067383" lon="-3.722450">
        <ele>1972.0</ele>
        <time>2013-06-04T18:56:10Z</time>
      </trkpt>
      <trkpt lat="41.067450" lon="-3.722383">
        <ele>1972.0</ele>
        <time>2013-06-04T18:56:11Z</time>
      </trkpt>
      <trkpt lat="41.067517" lon="-3.722333">
        <ele>1972.0</ele>
        <time>2013-06-04T18:56:12Z</time>
      </trkpt>
      <trkpt lat="41.067567" lon="-3.722300">
        <ele>1972.0</ele>
        <time>2013-06-04T18:56:13Z</time>
      </trkpt>
      <trkpt lat="41.067617" lon="-3.722300">
        <ele>1971.0</ele>
        <time>2013-06-04T18:56:14Z</time>
      </trkpt>
      <trkpt lat="41.067667" lon="-3.722317">
        <ele>1971.0</ele>
        <time>2013-06-04T18:56:15Z</time>
      </trkpt>
      <trkpt lat="41.067683" lon="-3.722350">
        <ele>1971.0</ele>
        <time>2013-06-04T18:56:16Z</time>
      </trkpt>
      <trkpt lat="41.067683" lon="-3.722400">
        <ele>1971.0</ele>
        <time>2013-06-04T18:56:17Z</time>
      </trkpt>
      <trkpt lat="41.067667" lon="-3.722467">
        <ele>1971.0</ele>
        <time>2013-06-04T18:56:18Z</time>
      </trkpt>
      <trkpt lat="41.067650" lon="-3.722517">
        <ele>1971.0</ele>
        <time>2013-06-04T18:56:19Z</time>
      </trkpt>
      <trkpt lat="41.067600" lon="-3.722550">
        <ele>1971.0</ele>
        <time>2013-06-04T18:56:20Z</time>
      </trkpt>
      <trkpt lat="41.067567" lon="-3.722600">
        <ele>1971.0</ele>
        <time>2013-06-04T18:56:21Z</time>
      </trkpt>
      <trkpt lat="41.067500" lon="-3.722633">
        <ele>1971.0</ele>
        <time>2013-06-04T18:56:22Z</time>
      </trkpt>
      <trkpt lat="41.067433" lon="-3.722667">
        <ele>1971.0</ele>
        <time>2013-06-04T18:56:23Z</time>
      </trkpt>
      <trkpt lat="41.067367" lon="-3.722717">
        <ele>1971.0</ele>
        <time>2013-06-04T18:56:24Z</time>
      </trkpt>
      <trkpt lat="41.067300" lon="-3.722750">
        <ele>1971.0</ele>
        <time>2013-06-04T18:56:25Z</time>
      </trkpt>
      <trkpt lat="41.067233" lon="-3.722800">
        <ele>1972.0</ele>
        <time>2013-06-04T18:56:26Z</time>
      </trkpt>
      <trkpt lat="41.067183" lon="-3.722850">
        <ele>1972.0</ele>
        <time>2013-06-04T18:56:27Z</time>
      </trkpt>
      <trkpt lat="41.067150" lon="-3.722900">
        <ele>1973.0</ele>
        <time>2013-06-04T18:56:28Z</time>
      </trkpt>
      <trkpt lat="41.067117" lon="-3.722950">
        <ele>1973.0</ele>
        <time>2013-06-04T18:56:29Z</time>
      </trkpt>
      <trkpt lat="41.067083" lon="-3.723000">
        <ele>1973.0</ele>
        <time>2013-06-04T18:56:30Z</time>
      </trkpt>
      <trkpt lat="41.067067" lon="-3.723050">
        <ele>1972.0</ele>
        <time>2013-06-04T18:56:31Z</time>
      </trkpt>
      <trkpt lat="41.067050" lon="-3.723100">
        <ele>1972.0</ele>
        <time>2013-06-04T18:56:32Z</time>
      </trkpt>
      <trkpt lat="41.067017" lon="-3.723167">
        <ele>1972.0</ele>
        <time>2013-06-04T18:56:33Z</time>
      </trkpt>
      <trkpt lat="41.067000" lon="-3.723217">
        <ele>1972.0</ele>
        <time>2013-06-04T18:56:34Z</time>
      </trkpt>
      <trkpt lat="41.066967" lon="-3.723283">
        <ele>1973.0</ele>
        <time>2013-06-04T18:56:35Z</time>
      </trkpt>
      <trkpt lat="41.066933" lon="-3.723333">
        <ele>1973.0</ele>
        <time>2013-06-04T18:56:36Z</time>
      </trkpt>
      <trkpt lat="41.066900" lon="-3.723383">
        <ele>1974.0</ele>
        <time>2013-06-04T18:56:37Z</time>
      </trkpt>
      <trkpt lat="41.066867" lon="-3.723433">
        <ele>1974.0</ele>
        <time>2013-06-04T18:56:38Z</time>
      </trkpt>
      <trkpt lat="41.066817" lon="-3.723483">
        <ele>1974.0</ele>
        <time>2013-06-04T18:56:39Z</time>
      </trkpt>
      <trkpt lat="41.066783" lon="-3.723533">
        <ele>1974.0</ele>
        <time>2013-06-04T18:56:40Z</time>
      </trkpt>
      <trkpt lat="41.066733" lon="-3.723583">
        <ele>1974.0</ele>
        <time>2013-06-04T18:56:41Z</time>
      </trkpt>
      <trkpt lat="41.066667" lon="-3.723633">
        <ele>1975.0</ele>
        <time>2013-06-04T18:56:42Z</time>
      </trkpt>
      <trkpt lat="41.066617" lon="-3.723683">
        <ele>1975.0</ele>
        <time>2013-06-04T18:56:43Z</time>
      </trkpt>
      <trkpt lat="41.066550" lon="-3.723717">
        <ele>1975.0</ele>
        <time>2013-06-04T18:56:44Z</time>
      </trkpt>
      <trkpt lat="41.066483" lon="-3.723750">
        <ele>1975.0</ele>
        <time>2013-06-04T18:56:45Z</time>
      </trkpt>
      <trkpt lat="41.066400" lon="-3.723783">
        <ele>1975.0</ele>
        <time>2013-06-04T18:56:46Z</time>
      </trkpt>
      <trkpt lat="41.066317" lon="-3.723817">
        <ele>1976.0</ele>
        <time>2013-06-04T18:56:47Z</time>
      </trkpt>
      <trkpt lat="41.066233" lon="-3.723850">
        <ele>1976.0</ele>
        <time>2013-06-04T18:56:48Z</time>
      </trkpt>
      <trkpt lat="41.066150" lon="-3.723867">
        <ele>1976.0</ele>
        <time>2013-06-04T18:56:49Z</time>
      </trkpt>
      <trkpt lat="41.066067" lon="-3.723900">
        <ele>1977.0</ele>
        <time>2013-06-04T18:56:50Z</time>
      </trkpt>
      <trkpt lat="41.065983" lon="-3.723917">
        <ele>1977.0</ele>
        <time>2013-06-04T18:56:51Z</time>
      </trkpt>
      <trkpt lat="41.065900" lon="-3.723933">
        <ele>1977.0</ele>
        <time>2013-06-04T18:56:52Z</time>
      </trkpt>
      <trkpt lat="41.065817" lon="-3.723983">
        <ele>1977.0</ele>
        <time>2013-06-04T18:56:53Z</time>
      </trkpt>
      <trkpt lat="41.065750" lon="-3.724033">
        <ele>1977.0</ele>
        <time>2013-06-04T18:56:54Z</time>
      </trkpt>
      <trkpt lat="41.065667" lon="-3.724083">
        <ele>1978.0</ele>
        <time>2013-06-04T18:56:55Z</time>
      </trkpt>
      <trkpt lat="41.065600" lon="-3.724133">
        <ele>1979.0</ele>
        <time>2013-06-04T18:56:56Z</time>
      </trkpt>
      <trkpt lat="41.065533" lon="-3.724167">
        <ele>1980.0</ele>
        <time>2013-06-04T18:56:57Z</time>
      </trkpt>
      <trkpt lat="41.065483" lon="-3.724217">
        <ele>1980.0</ele>
        <time>2013-06-04T18:56:58Z</time>
      </trkpt>
      <trkpt lat="41.065417" lon="-3.724250">
        <ele>1980.0</ele>
        <time>2013-06-04T18:56:59Z</time>
      </trkpt>
      <trkpt lat="41.065367" lon="-3.724317">
        <ele>1979.0</ele>
        <time>2013-06-04T18:57:00Z</time>
      </trkpt>
      <trkpt lat="41.065317" lon="-3.724367">
        <ele>1979.0</ele>
        <time>2013-06-04T18:57:01Z</time>
      </trkpt>
      <trkpt lat="41.065267" lon="-3.724417">
        <ele>1980.0</ele>
        <time>2013-06-04T18:57:02Z</time>
      </trkpt>
      <trkpt lat="41.065217" lon="-3.724467">
        <ele>1980.0</ele>
        <time>2013-06-04T18:57:03Z</time>
      </trkpt>
      <trkpt lat="41.065167" lon="-3.724500">
        <ele>1980.0</ele>
        <time>2013-06-04T18:57:04Z</time>
      </trkpt>
      <trkpt lat="41.065117" lon="-3.724550">
        <ele>1980.0</ele>
        <time>2013-06-04T18:57:05Z</time>
      </trkpt>
      <trkpt lat="41.065067" lon="-3.724617">
        <ele>1980.0</ele>
        <time>2013-06-04T18:57:06Z</time>
      </trkpt>
      <trkpt lat="41.065017" lon="-3.724667">
        <ele>1979.0</ele>
        <time>2013-06-04T18:57:07Z</time>
      </trkpt>
      <trkpt lat="41.064983" lon="-3.724717">
        <ele>1979.0</ele>
        <time>2013-06-04T18:57:08Z</time>
      </trkpt>
      <trkpt lat="41.064933" lon="-3.724767">
        <ele>1979.0</ele>
        <time>2013-06-04T18:57:09Z</time>
      </trkpt>
      <trkpt lat="41.064883" lon="-3.724817">
        <ele>1980.0</ele>
        <time>2013-06-04T18:57:10Z</time>
      </trkpt>
      <trkpt lat="41.064833" lon="-3.724867">
        <ele>1980.0</ele>
        <time>2013-06-04T18:57:11Z</time>
      </trkpt>
      <trkpt lat="41.064783" lon="-3.724917">
        <ele>1980.0</ele>
        <time>2013-06-04T18:57:12Z</time>
      </trkpt>
      <trkpt lat="41.064750" lon="-3.724967">
        <ele>1980.0</ele>
        <time>2013-06-04T18:57:13Z</time>
      </trkpt>
      <trkpt lat="41.064700" lon="-3.725033">
        <ele>1981.0</ele>
        <time>2013-06-04T18:57:14Z</time>
      </trkpt>
      <trkpt lat="41.064650" lon="-3.725083">
        <ele>1981.0</ele>
        <time>2013-06-04T18:57:15Z</time>
      </trkpt>
      <trkpt lat="41.064617" lon="-3.725133">
        <ele>1981.0</ele>
        <time>2013-06-04T18:57:16Z</time>
      </trkpt>
      <trkpt lat="41.064567" lon="-3.725183">
        <ele>1981.0</ele>
        <time>2013-06-04T18:57:17Z</time>
      </trkpt>
      <trkpt lat="41.064533" lon="-3.725233">
        <ele>1981.0</ele>
        <time>2013-06-04T18:57:18Z</time>
      </trkpt>
      <trkpt lat="41.064500" lon="-3.725283">
        <ele>1981.0</ele>
        <time>2013-06-04T18:57:19Z</time>
      </trkpt>
      <trkpt lat="41.064467" lon="-3.725333">
        <ele>1981.0</ele>
        <time>2013-06-04T18:57:20Z</time>
      </trkpt>
      <trkpt lat="41.064433" lon="-3.725383">
        <ele>1981.0</ele>
        <time>2013-06-04T18:57:21Z</time>
      </trkpt>
      <trkpt lat="41.064417" lon="-3.725433">
        <ele>1981.0</ele>
        <time>2013-06-04T18:57:22Z</time>
      </trkpt>
      <trkpt lat="41.064400" lon="-3.725500">
        <ele>1981.0</ele>
        <time>2013-06-04T18:57:23Z</time>
      </trkpt>
      <trkpt lat="41.064383" lon="-3.725533">
        <ele>1982.0</ele>
        <time>2013-06-04T18:57:24Z</time>
      </trkpt>
      <trkpt lat="41.064400" lon="-3.725583">
        <ele>1981.0</ele>
        <time>2013-06-04T18:57:25Z</time>
      </trkpt>
      <trkpt lat="41.064433" lon="-3.725600">
        <ele>1980.0</ele>
        <time>2013-06-04T18:57:26Z</time>
      </trkpt>
      <trkpt lat="41.064483" lon="-3.725617">
        <ele>1980.0</ele>
        <time>2013-06-04T18:57:27Z</time>
      </trkpt>
      <trkpt lat="41.064533" lon="-3.725617">
        <ele>1980.0</ele>
        <time>2013-06-04T18:57:28Z</time>
      </trkpt>
      <trkpt lat="41.064600" lon="-3.725583">
        <ele>1981.0</ele>
        <time>2013-06-04T18:57:29Z</time>
      </trkpt>
      <trkpt lat="41.064650" lon="-3.725533">
        <ele>1981.0</ele>
        <time>2013-06-04T18:57:30Z</time>
      </trkpt>
      <trkpt lat="41.064700" lon="-3.725450">
        <ele>1981.0</ele>
        <time>2013-06-04T18:57:31Z</time>
      </trkpt>
      <trkpt lat="41.064767" lon="-3.725383">
        <ele>1981.0</ele>
        <time>2013-06-04T18:57:32Z</time>
      </trkpt>
      <trkpt lat="41.064817" lon="-3.725300">
        <ele>1981.0</ele>
        <time>2013-06-04T18:57:33Z</time>
      </trkpt>
      <trkpt lat="41.064867" lon="-3.725200">
        <ele>1981.0</ele>
        <time>2013-06-04T18:57:34Z</time>
      </trkpt>
      <trkpt lat="41.064933" lon="-3.725117">
        <ele>1982.0</ele>
        <time>2013-06-04T18:57:35Z</time>
      </trkpt>
      <trkpt lat="41.064983" lon="-3.725017">
        <ele>1982.0</ele>
        <time>2013-06-04T18:57:36Z</time>
      </trkpt>
      <trkpt lat="41.065033" lon="-3.724917">
        <ele>1982.0</ele>
        <time>2013-06-04T18:57:37Z</time>
      </trkpt>
      <trkpt lat="41.065083" lon="-3.724817">
        <ele>1982.0</ele>
        <time>2013-06-04T18:57:38Z</time>
      </trkpt>
      <trkpt lat="41.065133" lon="-3.724733">
        <ele>1983.0</ele>
        <time>2013-06-04T18:57:39Z</time>
      </trkpt>
      <trkpt lat="41.065200" lon="-3.724633">
        <ele>1984.0</ele>
        <time>2013-06-04T18:57:40Z</time>
      </trkpt>
      <trkpt lat="41.065250" lon="-3.724550">
        <ele>1984.0</ele>
        <time>2013-06-04T18:57:41Z</time>
      </trkpt>
      <trkpt lat="41.065300" lon="-3.724467">
        <ele>1985.0</ele>
        <time>2013-06-04T18:57:42Z</time>
      </trkpt>
      <trkpt lat="41.065350" lon="-3.724383">
        <ele>1985.0</ele>
        <time>2013-06-04T18:57:43Z</time>
      </trkpt>
      <trkpt lat="41.065417" lon="-3.724300">
        <ele>1984.0</ele>
        <time>2013-06-04T18:57:44Z</time>
      </trkpt>
      <trkpt lat="41.065483" lon="-3.724233">
        <ele>1984.0</ele>
        <time>2013-06-04T18:57:45Z</time>
      </trkpt>
      <trkpt lat="41.065533" lon="-3.724167">
        <ele>1984.0</ele>
        <time>2013-06-04T18:57:46Z</time>
      </trkpt>
      <trkpt lat="41.065600" lon="-3.724117">
        <ele>1984.0</ele>
        <time>2013-06-04T18:57:47Z</time>
      </trkpt>
      <trkpt lat="41.065667" lon="-3.724067">
        <ele>1984.0</ele>
        <time>2013-06-04T18:57:48Z</time>
      </trkpt>
      <trkpt lat="41.065717" lon="-3.724050">
        <ele>1984.0</ele>
        <time>2013-06-04T18:57:49Z</time>
      </trkpt>
      <trkpt lat="41.065767" lon="-3.724017">
        <ele>1984.0</ele>
        <time>2013-06-04T18:57:50Z</time>
      </trkpt>
      <trkpt lat="41.065817" lon="-3.724017">
        <ele>1984.0</ele>
        <time>2013-06-04T18:57:51Z</time>
      </trkpt>
      <trkpt lat="41.065867" lon="-3.724033">
        <ele>1984.0</ele>
        <time>2013-06-04T18:57:52Z</time>
      </trkpt>
      <trkpt lat="41.065883" lon="-3.724050">
        <ele>1984.0</ele>
        <time>2013-06-04T18:57:53Z</time>
      </trkpt>
      <trkpt lat="41.065900" lon="-3.724100">
        <ele>1984.0</ele>
        <time>2013-06-04T18:57:54Z</time>
      </trkpt>
      <trkpt lat="41.065900" lon="-3.724150">
        <ele>1984.0</ele>
        <time>2013-06-04T18:57:55Z</time>
      </trkpt>
      <trkpt lat="41.065900" lon="-3.724200">
        <ele>1984.0</ele>
        <time>2013-06-04T18:57:56Z</time>
      </trkpt>
      <trkpt lat="41.065867" lon="-3.724250">
        <ele>1984.0</ele>
        <time>2013-06-04T18:57:57Z</time>
      </trkpt>
      <trkpt lat="41.065833" lon="-3.724283">
        <ele>1984.0</ele>
        <time>2013-06-04T18:57:58Z</time>
      </trkpt>
      <trkpt lat="41.065800" lon="-3.724333">
        <ele>1984.0</ele>
        <time>2013-06-04T18:57:59Z</time>
      </trkpt>
      <trkpt lat="41.065733" lon="-3.724383">
        <ele>1984.0</ele>
        <time>2013-06-04T18:58:00Z</time>
      </trkpt>
      <trkpt lat="41.065683" lon="-3.724417">
        <ele>1984.0</ele>
        <time>2013-06-04T18:58:01Z</time>
      </trkpt>
      <trkpt lat="41.065617" lon="-3.724467">
        <ele>1984.0</ele>
        <time>2013-06-04T18:58:02Z</time>
      </trkpt>
      <trkpt lat="41.065533" lon="-3.724500">
        <ele>1985.0</ele>
        <time>2013-06-04T18:58:03Z</time>
      </trkpt>
      <trkpt lat="41.065467" lon="-3.724533">
        <ele>1985.0</ele>
        <time>2013-06-04T18:58:04Z</time>
      </trkpt>
      <trkpt lat="41.065383" lon="-3.724550">
        <ele>1986.0</ele>
        <time>2013-06-04T18:58:05Z</time>
      </trkpt>
      <trkpt lat="41.065300" lon="-3.724583">
        <ele>1986.0</ele>
        <time>2013-06-04T18:58:06Z</time>
      </trkpt>
      <trkpt lat="41.065217" lon="-3.724617">
        <ele>1986.0</ele>
        <time>2013-06-04T18:58:07Z</time>
      </trkpt>
      <trkpt lat="41.065150" lon="-3.724650">
        <ele>1986.0</ele>
        <time>2013-06-04T18:58:08Z</time>
      </trkpt>
      <trkpt lat="41.065067" lon="-3.724683">
        <ele>1985.0</ele>
        <time>2013-06-04T18:58:09Z</time>
      </trkpt>
      <trkpt lat="41.065000" lon="-3.724717">
        <ele>1985.0</ele>
        <time>2013-06-04T18:58:10Z</time>
      </trkpt>
      <trkpt lat="41.064933" lon="-3.724767">
        <ele>1986.0</ele>
        <time>2013-06-04T18:58:11Z</time>
      </trkpt>
      <trkpt lat="41.064883" lon="-3.724817">
        <ele>1986.0</ele>
        <time>2013-06-04T18:58:12Z</time>
      </trkpt>
      <trkpt lat="41.064833" lon="-3.724850">
        <ele>1987.0</ele>
        <time>2013-06-04T18:58:13Z</time>
      </trkpt>
      <trkpt lat="41.064783" lon="-3.724900">
        <ele>1987.0</ele>
        <time>2013-06-04T18:58:14Z</time>
      </trkpt>
      <trkpt lat="41.064733" lon="-3.724933">
        <ele>1987.0</ele>
        <time>2013-06-04T18:58:15Z</time>
      </trkpt>
      <trkpt lat="41.064683" lon="-3.724983">
        <ele>1986.0</ele>
        <time>2013-06-04T18:58:16Z</time>
      </trkpt>
      <trkpt lat="41.064633" lon="-3.725033">
        <ele>1986.0</ele>
        <time>2013-06-04T18:58:17Z</time>
      </trkpt>
      <trkpt lat="41.064600" lon="-3.725083">
        <ele>1986.0</ele>
        <time>2013-06-04T18:58:18Z</time>
      </trkpt>
      <trkpt lat="41.064550" lon="-3.725133">
        <ele>1987.0</ele>
        <time>2013-06-04T18:58:19Z</time>
      </trkpt>
      <trkpt lat="41.064517" lon="-3.725183">
        <ele>1987.0</ele>
        <time>2013-06-04T18:58:20Z</time>
      </trkpt>
      <trkpt lat="41.064483" lon="-3.725233">
        <ele>1987.0</ele>
        <time>2013-06-04T18:58:21Z</time>
      </trkpt>
      <trkpt lat="41.064450" lon="-3.725283">
        <ele>1987.0</ele>
        <time>2013-06-04T18:58:22Z</time>
      </trkpt>
      <trkpt lat="41.064417" lon="-3.725333">
        <ele>1987.0</ele>
        <time>2013-06-04T18:58:23Z</time>
      </trkpt>
      <trkpt lat="41.064383" lon="-3.725383">
        <ele>1987.0</ele>
        <time>2013-06-04T18:58:24Z</time>
      </trkpt>
      <trkpt lat="41.064350" lon="-3.725433">
        <ele>1987.0</ele>
        <time>2013-06-04T18:58:25Z</time>
      </trkpt>
      <trkpt lat="41.064317" lon="-3.725483">
        <ele>1987.0</ele>
        <time>2013-06-04T18:58:26Z</time>
      </trkpt>
      <trkpt lat="41.064300" lon="-3.725533">
        <ele>1987.0</ele>
        <time>2013-06-04T18:58:27Z</time>
      </trkpt>
      <trkpt lat="41.064283" lon="-3.725583">
        <ele>1987.0</ele>
        <time>2013-06-04T18:58:28Z</time>
      </trkpt>
      <trkpt lat="41.064250" lon="-3.725650">
        <ele>1987.0</ele>
        <time>2013-06-04T18:58:29Z</time>
      </trkpt>
      <trkpt lat="41.064233" lon="-3.725700">
        <ele>1987.0</ele>
        <time>2013-06-04T18:58:30Z</time>
      </trkpt>
      <trkpt lat="41.064217" lon="-3.725750">
        <ele>1987.0</ele>
        <time>2013-06-04T18:58:31Z</time>
      </trkpt>
      <trkpt lat="41.064183" lon="-3.725800">
        <ele>1987.0</ele>
        <time>2013-06-04T18:58:32Z</time>
      </trkpt>
      <trkpt lat="41.064167" lon="-3.725850">
        <ele>1987.0</ele>
        <time>2013-06-04T18:58:33Z</time>
      </trkpt>
      <trkpt lat="41.064167" lon="-3.725900">
        <ele>1987.0</ele>
        <time>2013-06-04T18:58:34Z</time>
      </trkpt>
      <trkpt lat="41.064150" lon="-3.725950">
        <ele>1987.0</ele>
        <time>2013-06-04T18:58:35Z</time>
      </trkpt>
      <trkpt lat="41.064133" lon="-3.726017">
        <ele>1987.0</ele>
        <time>2013-06-04T18:58:36Z</time>
      </trkpt>
      <trkpt lat="41.064117" lon="-3.726067">
        <ele>1987.0</ele>
        <time>2013-06-04T18:58:37Z</time>
      </trkpt>
      <trkpt lat="41.064100" lon="-3.726117">
        <ele>1987.0</ele>
        <time>2013-06-04T18:58:38Z</time>
      </trkpt>
      <trkpt lat="41.064067" lon="-3.726183">
        <ele>1988.0</ele>
        <time>2013-06-04T18:58:39Z</time>
      </trkpt>
      <trkpt lat="41.064050" lon="-3.726233">
        <ele>1988.0</ele>
        <time>2013-06-04T18:58:40Z</time>
      </trkpt>
      <trkpt lat="41.064033" lon="-3.726283">
        <ele>1988.0</ele>
        <time>2013-06-04T18:58:41Z</time>
      </trkpt>
      <trkpt lat="41.064017" lon="-3.726333">
        <ele>1988.0</ele>
        <time>2013-06-04T18:58:42Z</time>
      </trkpt>
      <trkpt lat="41.064000" lon="-3.726383">
        <ele>1988.0</ele>
        <time>2013-06-04T18:58:43Z</time>
      </trkpt>
      <trkpt lat="41.063967" lon="-3.726433">
        <ele>1988.0</ele>
        <time>2013-06-04T18:58:44Z</time>
      </trkpt>
      <trkpt lat="41.063950" lon="-3.726483">
        <ele>1988.0</ele>
        <time>2013-06-04T18:58:45Z</time>
      </trkpt>
      <trkpt lat="41.063933" lon="-3.726533">
        <ele>1988.0</ele>
        <time>2013-06-04T18:58:46Z</time>
      </trkpt>
      <trkpt lat="41.063917" lon="-3.726583">
        <ele>1988.0</ele>
        <time>2013-06-04T18:58:47Z</time>
      </trkpt>
      <trkpt lat="41.063900" lon="-3.726633">
        <ele>1988.0</ele>
        <time>2013-06-04T18:58:48Z</time>
      </trkpt>
      <trkpt lat="41.063883" lon="-3.726700">
        <ele>1988.0</ele>
        <time>2013-06-04T18:58:49Z</time>
      </trkpt>
      <trkpt lat="41.063867" lon="-3.726750">
        <ele>1988.0</ele>
        <time>2013-06-04T18:58:50Z</time>
      </trkpt>
      <trkpt lat="41.063850" lon="-3.726817">
        <ele>1988.0</ele>
        <time>2013-06-04T18:58:51Z</time>
      </trkpt>
      <trkpt lat="41.063817" lon="-3.726883">
        <ele>1987.0</ele>
        <time>2013-06-04T18:58:52Z</time>
      </trkpt>
      <trkpt lat="41.063800" lon="-3.726950">
        <ele>1987.0</ele>
        <time>2013-06-04T18:58:53Z</time>
      </trkpt>
      <trkpt lat="41.063783" lon="-3.727017">
        <ele>1988.0</ele>
        <time>2013-06-04T18:58:54Z</time>
      </trkpt>
      <trkpt lat="41.063750" lon="-3.727083">
        <ele>1988.0</ele>
        <time>2013-06-04T18:58:55Z</time>
      </trkpt>
      <trkpt lat="41.063717" lon="-3.727150">
        <ele>1988.0</ele>
        <time>2013-06-04T18:58:56Z</time>
      </trkpt>
      <trkpt lat="41.063700" lon="-3.727200">
        <ele>1988.0</ele>
        <time>2013-06-04T18:58:57Z</time>
      </trkpt>
      <trkpt lat="41.063667" lon="-3.727267">
        <ele>1987.0</ele>
        <time>2013-06-04T18:58:58Z</time>
      </trkpt>
      <trkpt lat="41.063633" lon="-3.727333">
        <ele>1987.0</ele>
        <time>2013-06-04T18:58:59Z</time>
      </trkpt>
      <trkpt lat="41.063600" lon="-3.727400">
        <ele>1987.0</ele>
        <time>2013-06-04T18:59:00Z</time>
      </trkpt>
      <trkpt lat="41.063567" lon="-3.727467">
        <ele>1988.0</ele>
        <time>2013-06-04T18:59:01Z</time>
      </trkpt>
      <trkpt lat="41.063533" lon="-3.727517">
        <ele>1988.0</ele>
        <time>2013-06-04T18:59:02Z</time>
      </trkpt>
      <trkpt lat="41.063500" lon="-3.727583">
        <ele>1988.0</ele>
        <time>2013-06-04T18:59:03Z</time>
      </trkpt>
      <trkpt lat="41.063467" lon="-3.727650">
        <ele>1988.0</ele>
        <time>2013-06-04T18:59:04Z</time>
      </trkpt>
      <trkpt lat="41.063433" lon="-3.727717">
        <ele>1987.0</ele>
        <time>2013-06-04T18:59:05Z</time>
      </trkpt>
      <trkpt lat="41.063417" lon="-3.727767">
        <ele>1987.0</ele>
        <time>2013-06-04T18:59:06Z</time>
      </trkpt>
      <trkpt lat="41.063383" lon="-3.727833">
        <ele>1988.0</ele>
        <time>2013-06-04T18:59:07Z</time>
      </trkpt>
      <trkpt lat="41.063350" lon="-3.727883">
        <ele>1988.0</ele>
        <time>2013-06-04T18:59:08Z</time>
      </trkpt>
      <trkpt lat="41.063333" lon="-3.727933">
        <ele>1989.0</ele>
        <time>2013-06-04T18:59:09Z</time>
      </trkpt>
      <trkpt lat="41.063317" lon="-3.728000">
        <ele>1988.0</ele>
        <time>2013-06-04T18:59:10Z</time>
      </trkpt>
      <trkpt lat="41.063283" lon="-3.728050">
        <ele>1988.0</ele>
        <time>2013-06-04T18:59:11Z</time>
      </trkpt>
      <trkpt lat="41.063267" lon="-3.728117">
        <ele>1988.0</ele>
        <time>2013-06-04T18:59:12Z</time>
      </trkpt>
      <trkpt lat="41.063250" lon="-3.728167">
        <ele>1988.0</ele>
        <time>2013-06-04T18:59:13Z</time>
      </trkpt>
      <trkpt lat="41.063217" lon="-3.728233">
        <ele>1988.0</ele>
        <time>2013-06-04T18:59:14Z</time>
      </trkpt>
      <trkpt lat="41.063200" lon="-3.728283">
        <ele>1988.0</ele>
        <time>2013-06-04T18:59:15Z</time>
      </trkpt>
      <trkpt lat="41.063183" lon="-3.728350">
        <ele>1988.0</ele>
        <time>2013-06-04T18:59:16Z</time>
      </trkpt>
      <trkpt lat="41.063167" lon="-3.728400">
        <ele>1987.0</ele>
        <time>2013-06-04T18:59:17Z</time>
      </trkpt>
      <trkpt lat="41.063150" lon="-3.728467">
        <ele>1986.0</ele>
        <time>2013-06-04T18:59:18Z</time>
      </trkpt>
      <trkpt lat="41.063150" lon="-3.728533">
        <ele>1986.0</ele>
        <time>2013-06-04T18:59:19Z</time>
      </trkpt>
      <trkpt lat="41.063133" lon="-3.728600">
        <ele>1986.0</ele>
        <time>2013-06-04T18:59:20Z</time>
      </trkpt>
      <trkpt lat="41.063100" lon="-3.728667">
        <ele>1986.0</ele>
        <time>2013-06-04T18:59:21Z</time>
      </trkpt>
      <trkpt lat="41.063083" lon="-3.728717">
        <ele>1987.0</ele>
        <time>2013-06-04T18:59:22Z</time>
      </trkpt>
      <trkpt lat="41.063067" lon="-3.728783">
        <ele>1986.0</ele>
        <time>2013-06-04T18:59:23Z</time>
      </trkpt>
      <trkpt lat="41.063033" lon="-3.728833">
        <ele>1986.0</ele>
        <time>2013-06-04T18:59:24Z</time>
      </trkpt>
      <trkpt lat="41.063000" lon="-3.728900">
        <ele>1986.0</ele>
        <time>2013-06-04T18:59:25Z</time>
      </trkpt>
      <trkpt lat="41.062967" lon="-3.728967">
        <ele>1985.0</ele>
        <time>2013-06-04T18:59:26Z</time>
      </trkpt>
      <trkpt lat="41.062950" lon="-3.729033">
        <ele>1985.0</ele>
        <time>2013-06-04T18:59:27Z</time>
      </trkpt>
      <trkpt lat="41.062917" lon="-3.729100">
        <ele>1985.0</ele>
        <time>2013-06-04T18:59:28Z</time>
      </trkpt>
      <trkpt lat="41.062883" lon="-3.729167">
        <ele>1985.0</ele>
        <time>2013-06-04T18:59:29Z</time>
      </trkpt>
      <trkpt lat="41.062850" lon="-3.729217">
        <ele>1985.0</ele>
        <time>2013-06-04T18:59:30Z</time>
      </trkpt>
      <trkpt lat="41.062817" lon="-3.729283">
        <ele>1984.0</ele>
        <time>2013-06-04T18:59:31Z</time>
      </trkpt>
      <trkpt lat="41.062783" lon="-3.729350">
        <ele>1984.0</ele>
        <time>2013-06-04T18:59:32Z</time>
      </trkpt>
      <trkpt lat="41.062767" lon="-3.729417">
        <ele>1984.0</ele>
        <time>2013-06-04T18:59:33Z</time>
      </trkpt>
      <trkpt lat="41.062733" lon="-3.729483">
        <ele>1984.0</ele>
        <time>2013-06-04T18:59:34Z</time>
      </trkpt>
      <trkpt lat="41.062717" lon="-3.729533">
        <ele>1984.0</ele>
        <time>2013-06-04T18:59:35Z</time>
      </trkpt>
      <trkpt lat="41.062683" lon="-3.729600">
        <ele>1984.0</ele>
        <time>2013-06-04T18:59:36Z</time>
      </trkpt>
      <trkpt lat="41.062650" lon="-3.729650">
        <ele>1984.0</ele>
        <time>2013-06-04T18:59:37Z</time>
      </trkpt>
      <trkpt lat="41.062617" lon="-3.729717">
        <ele>1984.0</ele>
        <time>2013-06-04T18:59:38Z</time>
      </trkpt>
      <trkpt lat="41.062583" lon="-3.729767">
        <ele>1983.0</ele>
        <time>2013-06-04T18:59:39Z</time>
      </trkpt>
      <trkpt lat="41.062550" lon="-3.729833">
        <ele>1983.0</ele>
        <time>2013-06-04T18:59:40Z</time>
      </trkpt>
      <trkpt lat="41.062517" lon="-3.729900">
        <ele>1983.0</ele>
        <time>2013-06-04T18:59:41Z</time>
      </trkpt>
      <trkpt lat="41.062483" lon="-3.729950">
        <ele>1982.0</ele>
        <time>2013-06-04T18:59:42Z</time>
      </trkpt>
      <trkpt lat="41.062450" lon="-3.730017">
        <ele>1982.0</ele>
        <time>2013-06-04T18:59:43Z</time>
      </trkpt>
      <trkpt lat="41.062417" lon="-3.730083">
        <ele>1982.0</ele>
        <time>2013-06-04T18:59:44Z</time>
      </trkpt>
      <trkpt lat="41.062417" lon="-3.730150">
        <ele>1982.0</ele>
        <time>2013-06-04T18:59:45Z</time>
      </trkpt>
      <trkpt lat="41.062417" lon="-3.730200">
        <ele>1981.0</ele>
        <time>2013-06-04T18:59:46Z</time>
      </trkpt>
      <trkpt lat="41.062450" lon="-3.730250">
        <ele>1981.0</ele>
        <time>2013-06-04T18:59:47Z</time>
      </trkpt>
      <trkpt lat="41.062467" lon="-3.730283">
        <ele>1980.0</ele>
        <time>2013-06-04T18:59:48Z</time>
      </trkpt>
      <trkpt lat="41.062500" lon="-3.730317">
        <ele>1979.0</ele>
        <time>2013-06-04T18:59:49Z</time>
      </trkpt>
      <trkpt lat="41.062550" lon="-3.730350">
        <ele>1978.0</ele>
        <time>2013-06-04T18:59:50Z</time>
      </trkpt>
      <trkpt lat="41.062600" lon="-3.730350">
        <ele>1978.0</ele>
        <time>2013-06-04T18:59:51Z</time>
      </trkpt>
      <trkpt lat="41.062650" lon="-3.730350">
        <ele>1977.0</ele>
        <time>2013-06-04T18:59:52Z</time>
      </trkpt>
      <trkpt lat="41.062717" lon="-3.730350">
        <ele>1977.0</ele>
        <time>2013-06-04T18:59:53Z</time>
      </trkpt>
      <trkpt lat="41.062783" lon="-3.730333">
        <ele>1976.0</ele>
        <time>2013-06-04T18:59:54Z</time>
      </trkpt>
      <trkpt lat="41.062833" lon="-3.730300">
        <ele>1976.0</ele>
        <time>2013-06-04T18:59:55Z</time>
      </trkpt>
      <trkpt lat="41.062900" lon="-3.730267">
        <ele>1976.0</ele>
        <time>2013-06-04T18:59:56Z</time>
      </trkpt>
      <trkpt lat="41.062967" lon="-3.730217">
        <ele>1976.0</ele>
        <time>2013-06-04T18:59:57Z</time>
      </trkpt>
      <trkpt lat="41.063033" lon="-3.730150">
        <ele>1975.0</ele>
        <time>2013-06-04T18:59:58Z</time>
      </trkpt>
      <trkpt lat="41.063100" lon="-3.730083">
        <ele>1974.0</ele>
        <time>2013-06-04T18:59:59Z</time>
      </trkpt>
      <trkpt lat="41.063167" lon="-3.730000">
        <ele>1974.0</ele>
        <time>2013-06-04T19:00:00Z</time>
      </trkpt>
      <trkpt lat="41.063233" lon="-3.729933">
        <ele>1974.0</ele>
        <time>2013-06-04T19:00:01Z</time>
      </trkpt>
      <trkpt lat="41.063300" lon="-3.729850">
        <ele>1974.0</ele>
        <time>2013-06-04T19:00:02Z</time>
      </trkpt>
      <trkpt lat="41.063367" lon="-3.729767">
        <ele>1974.0</ele>
        <time>2013-06-04T19:00:03Z</time>
      </trkpt>
      <trkpt lat="41.063433" lon="-3.729683">
        <ele>1974.0</ele>
        <time>2013-06-04T19:00:04Z</time>
      </trkpt>
      <trkpt lat="41.063500" lon="-3.729600">
        <ele>1974.0</ele>
        <time>2013-06-04T19:00:05Z</time>
      </trkpt>
      <trkpt lat="41.063567" lon="-3.729517">
        <ele>1974.0</ele>
        <time>2013-06-04T19:00:06Z</time>
      </trkpt>
      <trkpt lat="41.063633" lon="-3.729433">
        <ele>1973.0</ele>
        <time>2013-06-04T19:00:07Z</time>
      </trkpt>
      <trkpt lat="41.063700" lon="-3.729333">
        <ele>1973.0</ele>
        <time>2013-06-04T19:00:08Z</time>
      </trkpt>
      <trkpt lat="41.063767" lon="-3.729250">
        <ele>1973.0</ele>
        <time>2013-06-04T19:00:09Z</time>
      </trkpt>
      <trkpt lat="41.063833" lon="-3.729150">
        <ele>1973.0</ele>
        <time>2013-06-04T19:00:10Z</time>
      </trkpt>
      <trkpt lat="41.063900" lon="-3.729067">
        <ele>1973.0</ele>
        <time>2013-06-04T19:00:11Z</time>
      </trkpt>
      <trkpt lat="41.063967" lon="-3.728967">
        <ele>1973.0</ele>
        <time>2013-06-04T19:00:12Z</time>
      </trkpt>
      <trkpt lat="41.064033" lon="-3.728867">
        <ele>1973.0</ele>
        <time>2013-06-04T19:00:13Z</time>
      </trkpt>
      <trkpt lat="41.064117" lon="-3.728750">
        <ele>1973.0</ele>
        <time>2013-06-04T19:00:14Z</time>
      </trkpt>
      <trkpt lat="41.064183" lon="-3.728650">
        <ele>1973.0</ele>
        <time>2013-06-04T19:00:15Z</time>
      </trkpt>
      <trkpt lat="41.064250" lon="-3.728533">
        <ele>1973.0</ele>
        <time>2013-06-04T19:00:16Z</time>
      </trkpt>
      <trkpt lat="41.064300" lon="-3.728433">
        <ele>1973.0</ele>
        <time>2013-06-04T19:00:17Z</time>
      </trkpt>
      <trkpt lat="41.064367" lon="-3.728317">
        <ele>1973.0</ele>
        <time>2013-06-04T19:00:18Z</time>
      </trkpt>
      <trkpt lat="41.064433" lon="-3.728200">
        <ele>1973.0</ele>
        <time>2013-06-04T19:00:19Z</time>
      </trkpt>
      <trkpt lat="41.064483" lon="-3.728067">
        <ele>1972.0</ele>
        <time>2013-06-04T19:00:20Z</time>
      </trkpt>
      <trkpt lat="41.064550" lon="-3.727950">
        <ele>1972.0</ele>
        <time>2013-06-04T19:00:21Z</time>
      </trkpt>
      <trkpt lat="41.064600" lon="-3.727833">
        <ele>1972.0</ele>
        <time>2013-06-04T19:00:22Z</time>
      </trkpt>
      <trkpt lat="41.064667" lon="-3.727717">
        <ele>1972.0</ele>
        <time>2013-06-04T19:00:23Z</time>
      </trkpt>
      <trkpt lat="41.064717" lon="-3.727600">
        <ele>1972.0</ele>
        <time>2013-06-04T19:00:24Z</time>
      </trkpt>
      <trkpt lat="41.064783" lon="-3.727483">
        <ele>1972.0</ele>
        <time>2013-06-04T19:00:25Z</time>
      </trkpt>
      <trkpt lat="41.064833" lon="-3.727383">
        <ele>1971.0</ele>
        <time>2013-06-04T19:00:26Z</time>
      </trkpt>
      <trkpt lat="41.064883" lon="-3.727267">
        <ele>1971.0</ele>
        <time>2013-06-04T19:00:27Z</time>
      </trkpt>
      <trkpt lat="41.064950" lon="-3.727150">
        <ele>1970.0</ele>
        <time>2013-06-04T19:00:28Z</time>
      </trkpt>
      <trkpt lat="41.065017" lon="-3.727033">
        <ele>1970.0</ele>
        <time>2013-06-04T19:00:29Z</time>
      </trkpt>
      <trkpt lat="41.065067" lon="-3.726917">
        <ele>1970.0</ele>
        <time>2013-06-04T19:00:30Z</time>
      </trkpt>
      <trkpt lat="41.065117" lon="-3.726783">
        <ele>1970.0</ele>
        <time>2013-06-04T19:00:31Z</time>
      </trkpt>
      <trkpt lat="41.065150" lon="-3.726650">
        <ele>1970.0</ele>
        <time>2013-06-04T19:00:32Z</time>
      </trkpt>
      <trkpt lat="41.065200" lon="-3.726517">
        <ele>1970.0</ele>
        <time>2013-06-04T19:00:33Z</time>
      </trkpt>
      <trkpt lat="41.065233" lon="-3.726367">
        <ele>1970.0</ele>
        <time>2013-06-04T19:00:34Z</time>
      </trkpt>
      <trkpt lat="41.065267" lon="-3.726217">
        <ele>1970.0</ele>
        <time>2013-06-04T19:00:35Z</time>
      </trkpt>
      <trkpt lat="41.065300" lon="-3.726067">
        <ele>1970.0</ele>
        <time>2013-06-04T19:00:36Z</time>
      </trkpt>
      <trkpt lat="41.065333" lon="-3.725917">
        <ele>1970.0</ele>
        <time>2013-06-04T19:00:37Z</time>
      </trkpt>
      <trkpt lat="41.065383" lon="-3.725767">
        <ele>1970.0</ele>
        <time>2013-06-04T19:00:38Z</time>
      </trkpt>
      <trkpt lat="41.065433" lon="-3.725633">
        <ele>1970.0</ele>
        <time>2013-06-04T19:00:39Z</time>
      </trkpt>
      <trkpt lat="41.065467" lon="-3.725483">
        <ele>1971.0</ele>
        <time>2013-06-04T19:00:40Z</time>
      </trkpt>
      <trkpt lat="41.065517" lon="-3.725350">
        <ele>1971.0</ele>
        <time>2013-06-04T19:00:41Z</time>
      </trkpt>
      <trkpt lat="41.065550" lon="-3.725217">
        <ele>1971.0</ele>
        <time>2013-06-04T19:00:42Z</time>
      </trkpt>
      <trkpt lat="41.065600" lon="-3.725083">
        <ele>1971.0</ele>
        <time>2013-06-04T19:00:43Z</time>
      </trkpt>
      <trkpt lat="41.065650" lon="-3.724950">
        <ele>1972.0</ele>
        <time>2013-06-04T19:00:44Z</time>
      </trkpt>
      <trkpt lat="41.065700" lon="-3.724833">
        <ele>1972.0</ele>
        <time>2013-06-04T19:00:45Z</time>
      </trkpt>
      <trkpt lat="41.065733" lon="-3.724700">
        <ele>1973.0</ele>
        <time>2013-06-04T19:00:46Z</time>
      </trkpt>
      <trkpt lat="41.065783" lon="-3.724583">
        <ele>1973.0</ele>
        <time>2013-06-04T19:00:47Z</time>
      </trkpt>
      <trkpt lat="41.065833" lon="-3.724467">
        <ele>1973.0</ele>
        <time>2013-06-04T19:00:48Z</time>
      </trkpt>
      <trkpt lat="41.065883" lon="-3.724333">
        <ele>1973.0</ele>
        <time>2013-06-04T19:00:49Z</time>
      </trkpt>
      <trkpt lat="41.065950" lon="-3.724233">
        <ele>1973.0</ele>
        <time>2013-06-04T19:00:50Z</time>
      </trkpt>
      <trkpt lat="41.066000" lon="-3.724117">
        <ele>1974.0</ele>
        <time>2013-06-04T19:00:51Z</time>
      </trkpt>
      <trkpt lat="41.066067" lon="-3.724017">
        <ele>1974.0</ele>
        <time>2013-06-04T19:00:52Z</time>
      </trkpt>
      <trkpt lat="41.066133" lon="-3.723900">
        <ele>1975.0</ele>
        <time>2013-06-04T19:00:53Z</time>
      </trkpt>
      <trkpt lat="41.066183" lon="-3.723800">
        <ele>1975.0</ele>
        <time>2013-06-04T19:00:54Z</time>
      </trkpt>
      <trkpt lat="41.066233" lon="-3.723700">
        <ele>1976.0</ele>
        <time>2013-06-04T19:00:55Z</time>
      </trkpt>
      <trkpt lat="41.066300" lon="-3.723617">
        <ele>1976.0</ele>
        <time>2013-06-04T19:00:56Z</time>
      </trkpt>
      <trkpt lat="41.066367" lon="-3.723533">
        <ele>1976.0</ele>
        <time>2013-06-04T19:00:57Z</time>
      </trkpt>
      <trkpt lat="41.066433" lon="-3.723450">
        <ele>1976.0</ele>
        <time>2013-06-04T19:00:58Z</time>
      </trkpt>
      <trkpt lat="41.066500" lon="-3.723367">
        <ele>1977.0</ele>
        <time>2013-06-04T19:00:59Z</time>
      </trkpt>
      <trkpt lat="41.066567" lon="-3.723300">
        <ele>1977.0</ele>
        <time>2013-06-04T19:01:00Z</time>
      </trkpt>
      <trkpt lat="41.066617" lon="-3.723217">
        <ele>1978.0</ele>
        <time>2013-06-04T19:01:01Z</time>
      </trkpt>
      <trkpt lat="41.066683" lon="-3.723150">
        <ele>1978.0</ele>
        <time>2013-06-04T19:01:02Z</time>
      </trkpt>
      <trkpt lat="41.066750" lon="-3.723083">
        <ele>1978.0</ele>
        <time>2013-06-04T19:01:03Z</time>
      </trkpt>
      <trkpt lat="41.066800" lon="-3.723017">
        <ele>1979.0</ele>
        <time>2013-06-04T19:01:04Z</time>
      </trkpt>
      <trkpt lat="41.066867" lon="-3.722950">
        <ele>1979.0</ele>
        <time>2013-06-04T19:01:05Z</time>
      </trkpt>
      <trkpt lat="41.066933" lon="-3.722883">
        <ele>1979.0</ele>
        <time>2013-06-04T19:01:06Z</time>
      </trkpt>
      <trkpt lat="41.066983" lon="-3.722817">
        <ele>1979.0</ele>
        <time>2013-06-04T19:01:07Z</time>
      </trkpt>
      <trkpt lat="41.067050" lon="-3.722750">
        <ele>1979.0</ele>
        <time>2013-06-04T19:01:08Z</time>
      </trkpt>
      <trkpt lat="41.067117" lon="-3.722683">
        <ele>1979.0</ele>
        <time>2013-06-04T19:01:09Z</time>
      </trkpt>
      <trkpt lat="41.067183" lon="-3.722600">
        <ele>1979.0</ele>
        <time>2013-06-04T19:01:10Z</time>
      </trkpt>
      <trkpt lat="41.067233" lon="-3.722533">
        <ele>1980.0</ele>
        <time>2013-06-04T19:01:11Z</time>
      </trkpt>
      <trkpt lat="41.067300" lon="-3.722467">
        <ele>1980.0</ele>
        <time>2013-06-04T19:01:12Z</time>
      </trkpt>
      <trkpt lat="41.067367" lon="-3.722400">
        <ele>1980.0</ele>
        <time>2013-06-04T19:01:13Z</time>
      </trkpt>
      <trkpt lat="41.067417" lon="-3.722333">
        <ele>1980.0</ele>
        <time>2013-06-04T19:01:14Z</time>
      </trkpt>
      <trkpt lat="41.067483" lon="-3.722267">
        <ele>1979.0</ele>
        <time>2013-06-04T19:01:15Z</time>
      </trkpt>
      <trkpt lat="41.067550" lon="-3.722200">
        <ele>1978.0</ele>
        <time>2013-06-04T19:01:16Z</time>
      </trkpt>
      <trkpt lat="41.067617" lon="-3.722133">
        <ele>1978.0</ele>
        <time>2013-06-04T19:01:17Z</time>
      </trkpt>
      <trkpt lat="41.067683" lon="-3.722083">
        <ele>1979.0</ele>
        <time>2013-06-04T19:01:18Z</time>
      </trkpt>
      <trkpt lat="41.067750" lon="-3.722017">
        <ele>1979.0</ele>
        <time>2013-06-04T19:01:19Z</time>
      </trkpt>
      <trkpt lat="41.067800" lon="-3.721967">
        <ele>1980.0</ele>
        <time>2013-06-04T19:01:20Z</time>
      </trkpt>
      <trkpt lat="41.067867" lon="-3.721900">
        <ele>1980.0</ele>
        <time>2013-06-04T19:01:21Z</time>
      </trkpt>
      <trkpt lat="41.067933" lon="-3.721833">
        <ele>1980.0</ele>
        <time>2013-06-04T19:01:22Z</time>
      </trkpt>
      <trkpt lat="41.067983" lon="-3.721767">
        <ele>1980.0</ele>
        <time>2013-06-04T19:01:23Z</time>
      </trkpt>
      <trkpt lat="41.068050" lon="-3.721717">
        <ele>1980.0</ele>
        <time>2013-06-04T19:01:24Z</time>
      </trkpt>
      <trkpt lat="41.068117" lon="-3.721650">
        <ele>1980.0</ele>
        <time>2013-06-04T19:01:25Z</time>
      </trkpt>
      <trkpt lat="41.068183" lon="-3.721600">
        <ele>1980.0</ele>
        <time>2013-06-04T19:01:26Z</time>
      </trkpt>
      <trkpt lat="41.068250" lon="-3.721550">
        <ele>1980.0</ele>
        <time>2013-06-04T19:01:27Z</time>
      </trkpt>
      <trkpt lat="41.068317" lon="-3.721483">
        <ele>1980.0</ele>
        <time>2013-06-04T19:01:28Z</time>
      </trkpt>
      <trkpt lat="41.068367" lon="-3.721433">
        <ele>1980.0</ele>
        <time>2013-06-04T19:01:29Z</time>
      </trkpt>
      <trkpt lat="41.068433" lon="-3.721367">
        <ele>1980.0</ele>
        <time>2013-06-04T19:01:30Z</time>
      </trkpt>
      <trkpt lat="41.068500" lon="-3.721317">
        <ele>1980.0</ele>
        <time>2013-06-04T19:01:31Z</time>
      </trkpt>
      <trkpt lat="41.068567" lon="-3.721267">
        <ele>1980.0</ele>
        <time>2013-06-04T19:01:32Z</time>
      </trkpt>
      <trkpt lat="41.068633" lon="-3.721200">
        <ele>1980.0</ele>
        <time>2013-06-04T19:01:33Z</time>
      </trkpt>
      <trkpt lat="41.068700" lon="-3.721150">
        <ele>1980.0</ele>
        <time>2013-06-04T19:01:34Z</time>
      </trkpt>
      <trkpt lat="41.068767" lon="-3.721083">
        <ele>1980.0</ele>
        <time>2013-06-04T19:01:35Z</time>
      </trkpt>
      <trkpt lat="41.068833" lon="-3.721033">
        <ele>1980.0</ele>
        <time>2013-06-04T19:01:36Z</time>
      </trkpt>
      <trkpt lat="41.068883" lon="-3.720967">
        <ele>1980.0</ele>
        <time>2013-06-04T19:01:37Z</time>
      </trkpt>
      <trkpt lat="41.068950" lon="-3.720917">
        <ele>1980.0</ele>
        <time>2013-06-04T19:01:38Z</time>
      </trkpt>
      <trkpt lat="41.069017" lon="-3.720850">
        <ele>1980.0</ele>
        <time>2013-06-04T19:01:39Z</time>
      </trkpt>
      <trkpt lat="41.069083" lon="-3.720783">
        <ele>1979.0</ele>
        <time>2013-06-04T19:01:40Z</time>
      </trkpt>
      <trkpt lat="41.069150" lon="-3.720717">
        <ele>1979.0</ele>
        <time>2013-06-04T19:01:41Z</time>
      </trkpt>
      <trkpt lat="41.069233" lon="-3.720633">
        <ele>1979.0</ele>
        <time>2013-06-04T19:01:42Z</time>
      </trkpt>
      <trkpt lat="41.069283" lon="-3.720550">
        <ele>1979.0</ele>
        <time>2013-06-04T19:01:43Z</time>
      </trkpt>
      <trkpt lat="41.069350" lon="-3.720433">
        <ele>1979.0</ele>
        <time>2013-06-04T19:01:44Z</time>
      </trkpt>
      <trkpt lat="41.069400" lon="-3.720333">
        <ele>1979.0</ele>
        <time>2013-06-04T19:01:45Z</time>
      </trkpt>
      <trkpt lat="41.069467" lon="-3.720233">
        <ele>1979.0</ele>
        <time>2013-06-04T19:01:46Z</time>
      </trkpt>
      <trkpt lat="41.069517" lon="-3.720150">
        <ele>1979.0</ele>
        <time>2013-06-04T19:01:47Z</time>
      </trkpt>
      <trkpt lat="41.069583" lon="-3.720050">
        <ele>1978.0</ele>
        <time>2013-06-04T19:01:48Z</time>
      </trkpt>
      <trkpt lat="41.069650" lon="-3.719950">
        <ele>1978.0</ele>
        <time>2013-06-04T19:01:49Z</time>
      </trkpt>
      <trkpt lat="41.069717" lon="-3.719867">
        <ele>1977.0</ele>
        <time>2013-06-04T19:01:50Z</time>
      </trkpt>
      <trkpt lat="41.069783" lon="-3.719783">
        <ele>1977.0</ele>
        <time>2013-06-04T19:01:51Z</time>
      </trkpt>
      <trkpt lat="41.069850" lon="-3.719700">
        <ele>1977.0</ele>
        <time>2013-06-04T19:01:52Z</time>
      </trkpt>
      <trkpt lat="41.069917" lon="-3.719633">
        <ele>1977.0</ele>
        <time>2013-06-04T19:01:53Z</time>
      </trkpt>
      <trkpt lat="41.069983" lon="-3.719567">
        <ele>1977.0</ele>
        <time>2013-06-04T19:01:54Z</time>
      </trkpt>
      <trkpt lat="41.070050" lon="-3.719500">
        <ele>1976.0</ele>
        <time>2013-06-04T19:01:55Z</time>
      </trkpt>
      <trkpt lat="41.070117" lon="-3.719433">
        <ele>1976.0</ele>
        <time>2013-06-04T19:01:56Z</time>
      </trkpt>
      <trkpt lat="41.070183" lon="-3.719367">
        <ele>1976.0</ele>
        <time>2013-06-04T19:01:57Z</time>
      </trkpt>
      <trkpt lat="41.070250" lon="-3.719300">
        <ele>1976.0</ele>
        <time>2013-06-04T19:01:58Z</time>
      </trkpt>
      <trkpt lat="41.070317" lon="-3.719250">
        <ele>1975.0</ele>
        <time>2013-06-04T19:01:59Z</time>
      </trkpt>
      <trkpt lat="41.070383" lon="-3.719183">
        <ele>1975.0</ele>
        <time>2013-06-04T19:02:00Z</time>
      </trkpt>
      <trkpt lat="41.070433" lon="-3.719117">
        <ele>1975.0</ele>
        <time>2013-06-04T19:02:01Z</time>
      </trkpt>
      <trkpt lat="41.070500" lon="-3.719050">
        <ele>1974.0</ele>
        <time>2013-06-04T19:02:02Z</time>
      </trkpt>
      <trkpt lat="41.070567" lon="-3.718983">
        <ele>1974.0</ele>
        <time>2013-06-04T19:02:03Z</time>
      </trkpt>
      <trkpt lat="41.070633" lon="-3.718917">
        <ele>1974.0</ele>
        <time>2013-06-04T19:02:04Z</time>
      </trkpt>
      <trkpt lat="41.070700" lon="-3.718850">
        <ele>1974.0</ele>
        <time>2013-06-04T19:02:05Z</time>
      </trkpt>
      <trkpt lat="41.070767" lon="-3.718783">
        <ele>1974.0</ele>
        <time>2013-06-04T19:02:06Z</time>
      </trkpt>
      <trkpt lat="41.070833" lon="-3.718700">
        <ele>1973.0</ele>
        <time>2013-06-04T19:02:07Z</time>
      </trkpt>
      <trkpt lat="41.070900" lon="-3.718633">
        <ele>1973.0</ele>
        <time>2013-06-04T19:02:08Z</time>
      </trkpt>
      <trkpt lat="41.070950" lon="-3.718567">
        <ele>1973.0</ele>
        <time>2013-06-04T19:02:09Z</time>
      </trkpt>
      <trkpt lat="41.071017" lon="-3.718483">
        <ele>1973.0</ele>
        <time>2013-06-04T19:02:10Z</time>
      </trkpt>
      <trkpt lat="41.071083" lon="-3.718400">
        <ele>1972.0</ele>
        <time>2013-06-04T19:02:11Z</time>
      </trkpt>
      <trkpt lat="41.071150" lon="-3.718333">
        <ele>1972.0</ele>
        <time>2013-06-04T19:02:12Z</time>
      </trkpt>
      <trkpt lat="41.071200" lon="-3.718250">
        <ele>1972.0</ele>
        <time>2013-06-04T19:02:13Z</time>
      </trkpt>
      <trkpt lat="41.071267" lon="-3.718183">
        <ele>1972.0</ele>
        <time>2013-06-04T19:02:14Z</time>
      </trkpt>
      <trkpt lat="41.071333" lon="-3.718100">
        <ele>1971.0</ele>
        <time>2013-06-04T19:02:15Z</time>
      </trkpt>
      <trkpt lat="41.071400" lon="-3.718017">
        <ele>1971.0</ele>
        <time>2013-06-04T19:02:16Z</time>
      </trkpt>
      <trkpt lat="41.071450" lon="-3.717933">
        <ele>1971.0</ele>
        <time>2013-06-04T19:02:17Z</time>
      </trkpt>
      <trkpt lat="41.071517" lon="-3.717850">
        <ele>1970.0</ele>
        <time>2013-06-04T19:02:18Z</time>
      </trkpt>
      <trkpt lat="41.071583" lon="-3.717767">
        <ele>1970.0</ele>
        <time>2013-06-04T19:02:19Z</time>
      </trkpt>
      <trkpt lat="41.071650" lon="-3.717700">
        <ele>1970.0</ele>
        <time>2013-06-04T19:02:20Z</time>
      </trkpt>
      <trkpt lat="41.071717" lon="-3.717617">
        <ele>1969.0</ele>
        <time>2013-06-04T19:02:21Z</time>
      </trkpt>
      <trkpt lat="41.071783" lon="-3.717533">
        <ele>1969.0</ele>
        <time>2013-06-04T19:02:22Z</time>
      </trkpt>
      <trkpt lat="41.071833" lon="-3.717467">
        <ele>1969.0</ele>
        <time>2013-06-04T19:02:23Z</time>
      </trkpt>
      <trkpt lat="41.071900" lon="-3.717383">
        <ele>1968.0</ele>
        <time>2013-06-04T19:02:24Z</time>
      </trkpt>
      <trkpt lat="41.071967" lon="-3.717300">
        <ele>1968.0</ele>
        <time>2013-06-04T19:02:25Z</time>
      </trkpt>
      <trkpt lat="41.072033" lon="-3.717217">
        <ele>1967.0</ele>
        <time>2013-06-04T19:02:26Z</time>
      </trkpt>
      <trkpt lat="41.072083" lon="-3.717150">
        <ele>1967.0</ele>
        <time>2013-06-04T19:02:27Z</time>
      </trkpt>
      <trkpt lat="41.072150" lon="-3.717067">
        <ele>1966.0</ele>
        <time>2013-06-04T19:02:28Z</time>
      </trkpt>
      <trkpt lat="41.072217" lon="-3.716983">
        <ele>1966.0</ele>
        <time>2013-06-04T19:02:29Z</time>
      </trkpt>
      <trkpt lat="41.072267" lon="-3.716917">
        <ele>1966.0</ele>
        <time>2013-06-04T19:02:30Z</time>
      </trkpt>
      <trkpt lat="41.072333" lon="-3.716833">
        <ele>1965.0</ele>
        <time>2013-06-04T19:02:31Z</time>
      </trkpt>
      <trkpt lat="41.072400" lon="-3.716767">
        <ele>1965.0</ele>
        <time>2013-06-04T19:02:32Z</time>
      </trkpt>
      <trkpt lat="41.072467" lon="-3.716683">
        <ele>1965.0</ele>
        <time>2013-06-04T19:02:33Z</time>
      </trkpt>
      <trkpt lat="41.072517" lon="-3.716617">
        <ele>1965.0</ele>
        <time>2013-06-04T19:02:34Z</time>
      </trkpt>
      <trkpt lat="41.072583" lon="-3.716533">
        <ele>1964.0</ele>
        <time>2013-06-04T19:02:35Z</time>
      </trkpt>
      <trkpt lat="41.072650" lon="-3.716467">
        <ele>1964.0</ele>
        <time>2013-06-04T19:02:36Z</time>
      </trkpt>
      <trkpt lat="41.072717" lon="-3.716383">
        <ele>1964.0</ele>
        <time>2013-06-04T19:02:37Z</time>
      </trkpt>
      <trkpt lat="41.072767" lon="-3.716300">
        <ele>1964.0</ele>
        <time>2013-06-04T19:02:38Z</time>
      </trkpt>
      <trkpt lat="41.072833" lon="-3.716233">
        <ele>1963.0</ele>
        <time>2013-06-04T19:02:39Z</time>
      </trkpt>
      <trkpt lat="41.072900" lon="-3.716150">
        <ele>1963.0</ele>
        <time>2013-06-04T19:02:40Z</time>
      </trkpt>
      <trkpt lat="41.072950" lon="-3.716083">
        <ele>1962.0</ele>
        <time>2013-06-04T19:02:41Z</time>
      </trkpt>
      <trkpt lat="41.073017" lon="-3.716000">
        <ele>1962.0</ele>
        <time>2013-06-04T19:02:42Z</time>
      </trkpt>
      <trkpt lat="41.073083" lon="-3.715917">
        <ele>1961.0</ele>
        <time>2013-06-04T19:02:43Z</time>
      </trkpt>
      <trkpt lat="41.073150" lon="-3.715850">
        <ele>1961.0</ele>
        <time>2013-06-04T19:02:44Z</time>
      </trkpt>
      <trkpt lat="41.073200" lon="-3.715767">
        <ele>1961.0</ele>
        <time>2013-06-04T19:02:45Z</time>
      </trkpt>
      <trkpt lat="41.073267" lon="-3.715700">
        <ele>1960.0</ele>
        <time>2013-06-04T19:02:46Z</time>
      </trkpt>
      <trkpt lat="41.073333" lon="-3.715617">
        <ele>1959.0</ele>
        <time>2013-06-04T19:02:47Z</time>
      </trkpt>
      <trkpt lat="41.073400" lon="-3.715550">
        <ele>1958.0</ele>
        <time>2013-06-04T19:02:48Z</time>
      </trkpt>
      <trkpt lat="41.073450" lon="-3.715467">
        <ele>1958.0</ele>
        <time>2013-06-04T19:02:49Z</time>
      </trkpt>
      <trkpt lat="41.073517" lon="-3.715400">
        <ele>1958.0</ele>
        <time>2013-06-04T19:02:50Z</time>
      </trkpt>
      <trkpt lat="41.073583" lon="-3.715333">
        <ele>1958.0</ele>
        <time>2013-06-04T19:02:51Z</time>
      </trkpt>
      <trkpt lat="41.073633" lon="-3.715267">
        <ele>1957.0</ele>
        <time>2013-06-04T19:02:52Z</time>
      </trkpt>
      <trkpt lat="41.073700" lon="-3.715183">
        <ele>1956.0</ele>
        <time>2013-06-04T19:02:53Z</time>
      </trkpt>
      <trkpt lat="41.073767" lon="-3.715117">
        <ele>1956.0</ele>
        <time>2013-06-04T19:02:54Z</time>
      </trkpt>
      <trkpt lat="41.073833" lon="-3.715050">
        <ele>1955.0</ele>
        <time>2013-06-04T19:02:55Z</time>
      </trkpt>
      <trkpt lat="41.073883" lon="-3.714967">
        <ele>1955.0</ele>
        <time>2013-06-04T19:02:56Z</time>
      </trkpt>
      <trkpt lat="41.073950" lon="-3.714900">
        <ele>1955.0</ele>
        <time>2013-06-04T19:02:57Z</time>
      </trkpt>
      <trkpt lat="41.074017" lon="-3.714833">
        <ele>1955.0</ele>
        <time>2013-06-04T19:02:58Z</time>
      </trkpt>
      <trkpt lat="41.074067" lon="-3.714767">
        <ele>1954.0</ele>
        <time>2013-06-04T19:02:59Z</time>
      </trkpt>
      <trkpt lat="41.074133" lon="-3.714700">
        <ele>1954.0</ele>
        <time>2013-06-04T19:03:00Z</time>
      </trkpt>
      <trkpt lat="41.074200" lon="-3.714633">
        <ele>1953.0</ele>
        <time>2013-06-04T19:03:01Z</time>
      </trkpt>
      <trkpt lat="41.074267" lon="-3.714567">
        <ele>1953.0</ele>
        <time>2013-06-04T19:03:02Z</time>
      </trkpt>
      <trkpt lat="41.074317" lon="-3.714500">
        <ele>1953.0</ele>
        <time>2013-06-04T19:03:03Z</time>
      </trkpt>
      <trkpt lat="41.074383" lon="-3.714433">
        <ele>1952.0</ele>
        <time>2013-06-04T19:03:04Z</time>
      </trkpt>
      <trkpt lat="41.074450" lon="-3.714367">
        <ele>1952.0</ele>
        <time>2013-06-04T19:03:05Z</time>
      </trkpt>
      <trkpt lat="41.074500" lon="-3.714300">
        <ele>1952.0</ele>
        <time>2013-06-04T19:03:06Z</time>
      </trkpt>
      <trkpt lat="41.074567" lon="-3.714217">
        <ele>1951.0</ele>
        <time>2013-06-04T19:03:07Z</time>
      </trkpt>
      <trkpt lat="41.074633" lon="-3.714150">
        <ele>1951.0</ele>
        <time>2013-06-04T19:03:08Z</time>
      </trkpt>
      <trkpt lat="41.074700" lon="-3.714083">
        <ele>1951.0</ele>
        <time>2013-06-04T19:03:09Z</time>
      </trkpt>
      <trkpt lat="41.074750" lon="-3.714017">
        <ele>1951.0</ele>
        <time>2013-06-04T19:03:10Z</time>
      </trkpt>
      <trkpt lat="41.074817" lon="-3.713950">
        <ele>1950.0</ele>
        <time>2013-06-04T19:03:11Z</time>
      </trkpt>
      <trkpt lat="41.074883" lon="-3.713883">
        <ele>1950.0</ele>
        <time>2013-06-04T19:03:12Z</time>
      </trkpt>
      <trkpt lat="41.074950" lon="-3.713817">
        <ele>1950.0</ele>
        <time>2013-06-04T19:03:13Z</time>
      </trkpt>
      <trkpt lat="41.075000" lon="-3.713750">
        <ele>1949.0</ele>
        <time>2013-06-04T19:03:14Z</time>
      </trkpt>
      <trkpt lat="41.075067" lon="-3.713683">
        <ele>1949.0</ele>
        <time>2013-06-04T19:03:15Z</time>
      </trkpt>
      <trkpt lat="41.075133" lon="-3.713600">
        <ele>1949.0</ele>
        <time>2013-06-04T19:03:16Z</time>
      </trkpt>
      <trkpt lat="41.075200" lon="-3.713533">
        <ele>1949.0</ele>
        <time>2013-06-04T19:03:17Z</time>
      </trkpt>
      <trkpt lat="41.075267" lon="-3.713467">
        <ele>1948.0</ele>
        <time>2013-06-04T19:03:18Z</time>
      </trkpt>
      <trkpt lat="41.075333" lon="-3.713383">
        <ele>1948.0</ele>
        <time>2013-06-04T19:03:19Z</time>
      </trkpt>
      <trkpt lat="41.075383" lon="-3.713317">
        <ele>1948.0</ele>
        <time>2013-06-04T19:03:20Z</time>
      </trkpt>
      <trkpt lat="41.075450" lon="-3.713233">
        <ele>1948.0</ele>
        <time>2013-06-04T19:03:21Z</time>
      </trkpt>
      <trkpt lat="41.075517" lon="-3.713167">
        <ele>1948.0</ele>
        <time>2013-06-04T19:03:22Z</time>
      </trkpt>
      <trkpt lat="41.075583" lon="-3.713083">
        <ele>1947.0</ele>
        <time>2013-06-04T19:03:23Z</time>
      </trkpt>
      <trkpt lat="41.075650" lon="-3.713017">
        <ele>1948.0</ele>
        <time>2013-06-04T19:03:24Z</time>
      </trkpt>
      <trkpt lat="41.075700" lon="-3.712933">
        <ele>1948.0</ele>
        <time>2013-06-04T19:03:25Z</time>
      </trkpt>
      <trkpt lat="41.075767" lon="-3.712850">
        <ele>1948.0</ele>
        <time>2013-06-04T19:03:26Z</time>
      </trkpt>
      <trkpt lat="41.075817" lon="-3.712750">
        <ele>1948.0</ele>
        <time>2013-06-04T19:03:27Z</time>
      </trkpt>
      <trkpt lat="41.075883" lon="-3.712667">
        <ele>1947.0</ele>
        <time>2013-06-04T19:03:28Z</time>
      </trkpt>
      <trkpt lat="41.075950" lon="-3.712583">
        <ele>1948.0</ele>
        <time>2013-06-04T19:03:29Z</time>
      </trkpt>
      <trkpt lat="41.076017" lon="-3.712517">
        <ele>1948.0</ele>
        <time>2013-06-04T19:03:30Z</time>
      </trkpt>
      <trkpt lat="41.076083" lon="-3.712433">
        <ele>1947.0</ele>
        <time>2013-06-04T19:03:31Z</time>
      </trkpt>
      <trkpt lat="41.076150" lon="-3.712350">
        <ele>1947.0</ele>
        <time>2013-06-04T19:03:32Z</time>
      </trkpt>
      <trkpt lat="41.076217" lon="-3.712267">
        <ele>1947.0</ele>
        <time>2013-06-04T19:03:33Z</time>
      </trkpt>
      <trkpt lat="41.076283" lon="-3.712183">
        <ele>1948.0</ele>
        <time>2013-06-04T19:03:34Z</time>
      </trkpt>
      <trkpt lat="41.076350" lon="-3.712117">
        <ele>1948.0</ele>
        <time>2013-06-04T19:03:35Z</time>
      </trkpt>
      <trkpt lat="41.076417" lon="-3.712033">
        <ele>1948.0</ele>
        <time>2013-06-04T19:03:36Z</time>
      </trkpt>
      <trkpt lat="41.076483" lon="-3.711967">
        <ele>1947.0</ele>
        <time>2013-06-04T19:03:37Z</time>
      </trkpt>
      <trkpt lat="41.076550" lon="-3.711883">
        <ele>1947.0</ele>
        <time>2013-06-04T19:03:38Z</time>
      </trkpt>
      <trkpt lat="41.076617" lon="-3.711817">
        <ele>1947.0</ele>
        <time>2013-06-04T19:03:39Z</time>
      </trkpt>
      <trkpt lat="41.076683" lon="-3.711750">
        <ele>1947.0</ele>
        <time>2013-06-04T19:03:40Z</time>
      </trkpt>
      <trkpt lat="41.076750" lon="-3.711683">
        <ele>1948.0</ele>
        <time>2013-06-04T19:03:41Z</time>
      </trkpt>
      <trkpt lat="41.076817" lon="-3.711617">
        <ele>1948.0</ele>
        <time>2013-06-04T19:03:42Z</time>
      </trkpt>
      <trkpt lat="41.076900" lon="-3.711550">
        <ele>1948.0</ele>
        <time>2013-06-04T19:03:43Z</time>
      </trkpt>
      <trkpt lat="41.076967" lon="-3.711483">
        <ele>1947.0</ele>
        <time>2013-06-04T19:03:44Z</time>
      </trkpt>
      <trkpt lat="41.077033" lon="-3.711417">
        <ele>1947.0</ele>
        <time>2013-06-04T19:03:45Z</time>
      </trkpt>
      <trkpt lat="41.077100" lon="-3.711333">
        <ele>1947.0</ele>
        <time>2013-06-04T19:03:46Z</time>
      </trkpt>
      <trkpt lat="41.077167" lon="-3.711267">
        <ele>1947.0</ele>
        <time>2013-06-04T19:03:47Z</time>
      </trkpt>
      <trkpt lat="41.077250" lon="-3.711200">
        <ele>1947.0</ele>
        <time>2013-06-04T19:03:48Z</time>
      </trkpt>
      <trkpt lat="41.077317" lon="-3.711133">
        <ele>1947.0</ele>
        <time>2013-06-04T19:03:49Z</time>
      </trkpt>
      <trkpt lat="41.077383" lon="-3.711067">
        <ele>1947.0</ele>
        <time>2013-06-04T19:03:50Z</time>
      </trkpt>
      <trkpt lat="41.077450" lon="-3.711017">
        <ele>1947.0</ele>
        <time>2013-06-04T19:03:51Z</time>
      </trkpt>
      <trkpt lat="41.077517" lon="-3.710950">
        <ele>1947.0</ele>
        <time>2013-06-04T19:03:52Z</time>
      </trkpt>
      <trkpt lat="41.077600" lon="-3.710883">
        <ele>1946.0</ele>
        <time>2013-06-04T19:03:53Z</time>
      </trkpt>
      <trkpt lat="41.077667" lon="-3.710833">
        <ele>1945.0</ele>
        <time>2013-06-04T19:03:54Z</time>
      </trkpt>
      <trkpt lat="41.077733" lon="-3.710800">
        <ele>1945.0</ele>
        <time>2013-06-04T19:03:55Z</time>
      </trkpt>
      <trkpt lat="41.077800" lon="-3.710767">
        <ele>1945.0</ele>
        <time>2013-06-04T19:03:56Z</time>
      </trkpt>
      <trkpt lat="41.077867" lon="-3.710767">
        <ele>1945.0</ele>
        <time>2013-06-04T19:03:57Z</time>
      </trkpt>
      <trkpt lat="41.077917" lon="-3.710783">
        <ele>1944.0</ele>
        <time>2013-06-04T19:03:58Z</time>
      </trkpt>
      <trkpt lat="41.077950" lon="-3.710833">
        <ele>1943.0</ele>
        <time>2013-06-04T19:03:59Z</time>
      </trkpt>
      <trkpt lat="41.077967" lon="-3.710883">
        <ele>1943.0</ele>
        <time>2013-06-04T19:04:00Z</time>
      </trkpt>
      <trkpt lat="41.077967" lon="-3.710950">
        <ele>1943.0</ele>
        <time>2013-06-04T19:04:01Z</time>
      </trkpt>
      <trkpt lat="41.077967" lon="-3.711000">
        <ele>1943.0</ele>
        <time>2013-06-04T19:04:02Z</time>
      </trkpt>
      <trkpt lat="41.077950" lon="-3.711067">
        <ele>1943.0</ele>
        <time>2013-06-04T19:04:03Z</time>
      </trkpt>
      <trkpt lat="41.077933" lon="-3.711133">
        <ele>1943.0</ele>
        <time>2013-06-04T19:04:04Z</time>
      </trkpt>
      <trkpt lat="41.077917" lon="-3.711200">
        <ele>1943.0</ele>
        <time>2013-06-04T19:04:05Z</time>
      </trkpt>
      <trkpt lat="41.077900" lon="-3.711267">
        <ele>1943.0</ele>
        <time>2013-06-04T19:04:06Z</time>
      </trkpt>
      <trkpt lat="41.077867" lon="-3.711333">
        <ele>1943.0</ele>
        <time>2013-06-04T19:04:07Z</time>
      </trkpt>
      <trkpt lat="41.077833" lon="-3.711400">
        <ele>1943.0</ele>
        <time>2013-06-04T19:04:08Z</time>
      </trkpt>
      <trkpt lat="41.077800" lon="-3.711467">
        <ele>1943.0</ele>
        <time>2013-06-04T19:04:09Z</time>
      </trkpt>
      <trkpt lat="41.077767" lon="-3.711533">
        <ele>1943.0</ele>
        <time>2013-06-04T19:04:10Z</time>
      </trkpt>
      <trkpt lat="41.077733" lon="-3.711600">
        <ele>1943.0</ele>
        <time>2013-06-04T19:04:11Z</time>
      </trkpt>
      <trkpt lat="41.077683" lon="-3.711667">
        <ele>1943.0</ele>
        <time>2013-06-04T19:04:12Z</time>
      </trkpt>
      <trkpt lat="41.077633" lon="-3.711717">
        <ele>1942.0</ele>
        <time>2013-06-04T19:04:13Z</time>
      </trkpt>
      <trkpt lat="41.077583" lon="-3.711783">
        <ele>1942.0</ele>
        <time>2013-06-04T19:04:14Z</time>
      </trkpt>
      <trkpt lat="41.077533" lon="-3.711833">
        <ele>1942.0</ele>
        <time>2013-06-04T19:04:15Z</time>
      </trkpt>
      <trkpt lat="41.077467" lon="-3.711883">
        <ele>1942.0</ele>
        <time>2013-06-04T19:04:16Z</time>
      </trkpt>
      <trkpt lat="41.077417" lon="-3.711950">
        <ele>1941.0</ele>
        <time>2013-06-04T19:04:17Z</time>
      </trkpt>
      <trkpt lat="41.077367" lon="-3.712017">
        <ele>1940.0</ele>
        <time>2013-06-04T19:04:18Z</time>
      </trkpt>
      <trkpt lat="41.077317" lon="-3.712083">
        <ele>1940.0</ele>
        <time>2013-06-04T19:04:19Z</time>
      </trkpt>
      <trkpt lat="41.077267" lon="-3.712133">
        <ele>1940.0</ele>
        <time>2013-06-04T19:04:20Z</time>
      </trkpt>
      <trkpt lat="41.077217" lon="-3.712183">
        <ele>1941.0</ele>
        <time>2013-06-04T19:04:21Z</time>
      </trkpt>
      <trkpt lat="41.077167" lon="-3.712233">
        <ele>1941.0</ele>
        <time>2013-06-04T19:04:22Z</time>
      </trkpt>
      <trkpt lat="41.077117" lon="-3.712283">
        <ele>1941.0</ele>
        <time>2013-06-04T19:04:23Z</time>
      </trkpt>
      <trkpt lat="41.077067" lon="-3.712350">
        <ele>1940.0</ele>
        <time>2013-06-04T19:04:24Z</time>
      </trkpt>
      <trkpt lat="41.077017" lon="-3.712417">
        <ele>1940.0</ele>
        <time>2013-06-04T19:04:25Z</time>
      </trkpt>
      <trkpt lat="41.076967" lon="-3.712467">
        <ele>1939.0</ele>
        <time>2013-06-04T19:04:26Z</time>
      </trkpt>
      <trkpt lat="41.076917" lon="-3.712533">
        <ele>1940.0</ele>
        <time>2013-06-04T19:04:27Z</time>
      </trkpt>
      <trkpt lat="41.076867" lon="-3.712583">
        <ele>1940.0</ele>
        <time>2013-06-04T19:04:28Z</time>
      </trkpt>
      <trkpt lat="41.076817" lon="-3.712633">
        <ele>1941.0</ele>
        <time>2013-06-04T19:04:29Z</time>
      </trkpt>
      <trkpt lat="41.076767" lon="-3.712683">
        <ele>1940.0</ele>
        <time>2013-06-04T19:04:30Z</time>
      </trkpt>
      <trkpt lat="41.076717" lon="-3.712750">
        <ele>1940.0</ele>
        <time>2013-06-04T19:04:31Z</time>
      </trkpt>
      <trkpt lat="41.076667" lon="-3.712800">
        <ele>1940.0</ele>
        <time>2013-06-04T19:04:32Z</time>
      </trkpt>
      <trkpt lat="41.076600" lon="-3.712850">
        <ele>1940.0</ele>
        <time>2013-06-04T19:04:33Z</time>
      </trkpt>
      <trkpt lat="41.076550" lon="-3.712917">
        <ele>1939.0</ele>
        <time>2013-06-04T19:04:34Z</time>
      </trkpt>
      <trkpt lat="41.076500" lon="-3.712967">
        <ele>1939.0</ele>
        <time>2013-06-04T19:04:35Z</time>
      </trkpt>
      <trkpt lat="41.076450" lon="-3.713017">
        <ele>1939.0</ele>
        <time>2013-06-04T19:04:36Z</time>
      </trkpt>
      <trkpt lat="41.076400" lon="-3.713067">
        <ele>1939.0</ele>
        <time>2013-06-04T19:04:37Z</time>
      </trkpt>
      <trkpt lat="41.076350" lon="-3.713117">
        <ele>1939.0</ele>
        <time>2013-06-04T19:04:38Z</time>
      </trkpt>
      <trkpt lat="41.076300" lon="-3.713167">
        <ele>1938.0</ele>
        <time>2013-06-04T19:04:39Z</time>
      </trkpt>
      <trkpt lat="41.076233" lon="-3.713233">
        <ele>1938.0</ele>
        <time>2013-06-04T19:04:40Z</time>
      </trkpt>
      <trkpt lat="41.076183" lon="-3.713283">
        <ele>1937.0</ele>
        <time>2013-06-04T19:04:41Z</time>
      </trkpt>
      <trkpt lat="41.076133" lon="-3.713350">
        <ele>1937.0</ele>
        <time>2013-06-04T19:04:42Z</time>
      </trkpt>
      <trkpt lat="41.076083" lon="-3.713400">
        <ele>1937.0</ele>
        <time>2013-06-04T19:04:43Z</time>
      </trkpt>
      <trkpt lat="41.076033" lon="-3.713450">
        <ele>1938.0</ele>
        <time>2013-06-04T19:04:44Z</time>
      </trkpt>
      <trkpt lat="41.075983" lon="-3.713500">
        <ele>1938.0</ele>
        <time>2013-06-04T19:04:45Z</time>
      </trkpt>
      <trkpt lat="41.075933" lon="-3.713550">
        <ele>1937.0</ele>
        <time>2013-06-04T19:04:46Z</time>
      </trkpt>
      <trkpt lat="41.075883" lon="-3.713617">
        <ele>1937.0</ele>
        <time>2013-06-04T19:04:47Z</time>
      </trkpt>
      <trkpt lat="41.075833" lon="-3.713667">
        <ele>1937.0</ele>
        <time>2013-06-04T19:04:48Z</time>
      </trkpt>
      <trkpt lat="41.075783" lon="-3.713717">
        <ele>1937.0</ele>
        <time>2013-06-04T19:04:49Z</time>
      </trkpt>
      <trkpt lat="41.075733" lon="-3.713767">
        <ele>1937.0</ele>
        <time>2013-06-04T19:04:50Z</time>
      </trkpt>
      <trkpt lat="41.075683" lon="-3.713817">
        <ele>1936.0</ele>
        <time>2013-06-04T19:04:51Z</time>
      </trkpt>
      <trkpt lat="41.075633" lon="-3.713883">
        <ele>1936.0</ele>
        <time>2013-06-04T19:04:52Z</time>
      </trkpt>
      <trkpt lat="41.075583" lon="-3.713933">
        <ele>1936.0</ele>
        <time>2013-06-04T19:04:53Z</time>
      </trkpt>
      <trkpt lat="41.075533" lon="-3.714000">
        <ele>1935.0</ele>
        <time>2013-06-04T19:04:54Z</time>
      </trkpt>
      <trkpt lat="41.075483" lon="-3.714050">
        <ele>1935.0</ele>
        <time>2013-06-04T19:04:55Z</time>
      </trkpt>
      <trkpt lat="41.075450" lon="-3.714100">
        <ele>1935.0</ele>
        <time>2013-06-04T19:04:56Z</time>
      </trkpt>
      <trkpt lat="41.075400" lon="-3.714150">
        <ele>1935.0</ele>
        <time>2013-06-04T19:04:57Z</time>
      </trkpt>
      <trkpt lat="41.075350" lon="-3.714217">
        <ele>1934.0</ele>
        <time>2013-06-04T19:04:58Z</time>
      </trkpt>
      <trkpt lat="41.075300" lon="-3.714267">
        <ele>1934.0</ele>
        <time>2013-06-04T19:04:59Z</time>
      </trkpt>
      <trkpt lat="41.075250" lon="-3.714333">
        <ele>1934.0</ele>
        <time>2013-06-04T19:05:00Z</time>
      </trkpt>
      <trkpt lat="41.075200" lon="-3.714383">
        <ele>1934.0</ele>
        <time>2013-06-04T19:05:01Z</time>
      </trkpt>
      <trkpt lat="41.075133" lon="-3.714433">
        <ele>1934.0</ele>
        <time>2013-06-04T19:05:02Z</time>
      </trkpt>
      <trkpt lat="41.075083" lon="-3.714500">
        <ele>1934.0</ele>
        <time>2013-06-04T19:05:03Z</time>
      </trkpt>
      <trkpt lat="41.075033" lon="-3.714550">
        <ele>1934.0</ele>
        <time>2013-06-04T19:05:04Z</time>
      </trkpt>
      <trkpt lat="41.074983" lon="-3.714600">
        <ele>1933.0</ele>
        <time>2013-06-04T19:05:05Z</time>
      </trkpt>
      <trkpt lat="41.074933" lon="-3.714667">
        <ele>1933.0</ele>
        <time>2013-06-04T19:05:06Z</time>
      </trkpt>
      <trkpt lat="41.074867" lon="-3.714717">
        <ele>1933.0</ele>
        <time>2013-06-04T19:05:07Z</time>
      </trkpt>
      <trkpt lat="41.074817" lon="-3.714767">
        <ele>1934.0</ele>
        <time>2013-06-04T19:05:08Z</time>
      </trkpt>
      <trkpt lat="41.074767" lon="-3.714817">
        <ele>1934.0</ele>
        <time>2013-06-04T19:05:09Z</time>
      </trkpt>
      <trkpt lat="41.074717" lon="-3.714883">
        <ele>1934.0</ele>
        <time>2013-06-04T19:05:10Z</time>
      </trkpt>
      <trkpt lat="41.074650" lon="-3.714933">
        <ele>1933.0</ele>
        <time>2013-06-04T19:05:11Z</time>
      </trkpt>
      <trkpt lat="41.074600" lon="-3.714983">
        <ele>1933.0</ele>
        <time>2013-06-04T19:05:12Z</time>
      </trkpt>
      <trkpt lat="41.074550" lon="-3.715050">
        <ele>1933.0</ele>
        <time>2013-06-04T19:05:13Z</time>
      </trkpt>
      <trkpt lat="41.074517" lon="-3.715117">
        <ele>1932.0</ele>
        <time>2013-06-04T19:05:14Z</time>
      </trkpt>
      <trkpt lat="41.074483" lon="-3.715183">
        <ele>1932.0</ele>
        <time>2013-06-04T19:05:15Z</time>
      </trkpt>
      <trkpt lat="41.074450" lon="-3.715250">
        <ele>1933.0</ele>
        <time>2013-06-04T19:05:16Z</time>
      </trkpt>
      <trkpt lat="41.074417" lon="-3.715300">
        <ele>1933.0</ele>
        <time>2013-06-04T19:05:17Z</time>
      </trkpt>
      <trkpt lat="41.074383" lon="-3.715367">
        <ele>1933.0</ele>
        <time>2013-06-04T19:05:18Z</time>
      </trkpt>
      <trkpt lat="41.074350" lon="-3.715433">
        <ele>1933.0</ele>
        <time>2013-06-04T19:05:19Z</time>
      </trkpt>
      <trkpt lat="41.074317" lon="-3.715483">
        <ele>1933.0</ele>
        <time>2013-06-04T19:05:20Z</time>
      </trkpt>
      <trkpt lat="41.074283" lon="-3.715550">
        <ele>1934.0</ele>
        <time>2013-06-04T19:05:21Z</time>
      </trkpt>
      <trkpt lat="41.074250" lon="-3.715617">
        <ele>1934.0</ele>
        <time>2013-06-04T19:05:22Z</time>
      </trkpt>
      <trkpt lat="41.074217" lon="-3.715667">
        <ele>1933.0</ele>
        <time>2013-06-04T19:05:23Z</time>
      </trkpt>
      <trkpt lat="41.074183" lon="-3.715733">
        <ele>1933.0</ele>
        <time>2013-06-04T19:05:24Z</time>
      </trkpt>
      <trkpt lat="41.074133" lon="-3.715800">
        <ele>1933.0</ele>
        <time>2013-06-04T19:05:25Z</time>
      </trkpt>
      <trkpt lat="41.074100" lon="-3.715850">
        <ele>1933.0</ele>
        <time>2013-06-04T19:05:26Z</time>
      </trkpt>
      <trkpt lat="41.074050" lon="-3.715917">
        <ele>1932.0</ele>
        <time>2013-06-04T19:05:27Z</time>
      </trkpt>
      <trkpt lat="41.074000" lon="-3.715967">
        <ele>1932.0</ele>
        <time>2013-06-04T19:05:28Z</time>
      </trkpt>
      <trkpt lat="41.073950" lon="-3.716033">
        <ele>1932.0</ele>
        <time>2013-06-04T19:05:29Z</time>
      </trkpt>
      <trkpt lat="41.073900" lon="-3.716083">
        <ele>1931.0</ele>
        <time>2013-06-04T19:05:30Z</time>
      </trkpt>
      <trkpt lat="41.073833" lon="-3.716133">
        <ele>1931.0</ele>
        <time>2013-06-04T19:05:31Z</time>
      </trkpt>
      <trkpt lat="41.073783" lon="-3.716183">
        <ele>1931.0</ele>
        <time>2013-06-04T19:05:32Z</time>
      </trkpt>
      <trkpt lat="41.073717" lon="-3.716233">
        <ele>1931.0</ele>
        <time>2013-06-04T19:05:33Z</time>
      </trkpt>
      <trkpt lat="41.073667" lon="-3.716283">
        <ele>1931.0</ele>
        <time>2013-06-04T19:05:34Z</time>
      </trkpt>
      <trkpt lat="41.073600" lon="-3.716333">
        <ele>1930.0</ele>
        <time>2013-06-04T19:05:35Z</time>
      </trkpt>
      <trkpt lat="41.073550" lon="-3.716383">
        <ele>1930.0</ele>
        <time>2013-06-04T19:05:36Z</time>
      </trkpt>
      <trkpt lat="41.073483" lon="-3.716433">
        <ele>1930.0</ele>
        <time>2013-06-04T19:05:37Z</time>
      </trkpt>
      <trkpt lat="41.073417" lon="-3.716483">
        <ele>1930.0</ele>
        <time>2013-06-04T19:05:38Z</time>
      </trkpt>
      <trkpt lat="41.073350" lon="-3.716533">
        <ele>1930.0</ele>
        <time>2013-06-04T19:05:39Z</time>
      </trkpt>
      <trkpt lat="41.073283" lon="-3.716583">
        <ele>1930.0</ele>
        <time>2013-06-04T19:05:40Z</time>
      </trkpt>
      <trkpt lat="41.073217" lon="-3.716617">
        <ele>1930.0</ele>
        <time>2013-06-04T19:05:41Z</time>
      </trkpt>
      <trkpt lat="41.073167" lon="-3.716667">
        <ele>1929.0</ele>
        <time>2013-06-04T19:05:42Z</time>
      </trkpt>
      <trkpt lat="41.073100" lon="-3.716717">
        <ele>1929.0</ele>
        <time>2013-06-04T19:05:43Z</time>
      </trkpt>
      <trkpt lat="41.073033" lon="-3.716767">
        <ele>1928.0</ele>
        <time>2013-06-04T19:05:44Z</time>
      </trkpt>
      <trkpt lat="41.072983" lon="-3.716833">
        <ele>1928.0</ele>
        <time>2013-06-04T19:05:45Z</time>
      </trkpt>
      <trkpt lat="41.072917" lon="-3.716900">
        <ele>1928.0</ele>
        <time>2013-06-04T19:05:46Z</time>
      </trkpt>
      <trkpt lat="41.072867" lon="-3.716950">
        <ele>1928.0</ele>
        <time>2013-06-04T19:05:47Z</time>
      </trkpt>
      <trkpt lat="41.072800" lon="-3.717000">
        <ele>1928.0</ele>
        <time>2013-06-04T19:05:48Z</time>
      </trkpt>
      <trkpt lat="41.072750" lon="-3.717067">
        <ele>1928.0</ele>
        <time>2013-06-04T19:05:49Z</time>
      </trkpt>
      <trkpt lat="41.072700" lon="-3.717117">
        <ele>1928.0</ele>
        <time>2013-06-04T19:05:50Z</time>
      </trkpt>
      <trkpt lat="41.072633" lon="-3.717183">
        <ele>1927.0</ele>
        <time>2013-06-04T19:05:51Z</time>
      </trkpt>
      <trkpt lat="41.072583" lon="-3.717250">
        <ele>1928.0</ele>
        <time>2013-06-04T19:05:52Z</time>
      </trkpt>
      <trkpt lat="41.072517" lon="-3.717300">
        <ele>1928.0</ele>
        <time>2013-06-04T19:05:53Z</time>
      </trkpt>
      <trkpt lat="41.072467" lon="-3.717350">
        <ele>1928.0</ele>
        <time>2013-06-04T19:05:54Z</time>
      </trkpt>
      <trkpt lat="41.072417" lon="-3.717400">
        <ele>1928.0</ele>
        <time>2013-06-04T19:05:55Z</time>
      </trkpt>
      <trkpt lat="41.072350" lon="-3.717450">
        <ele>1928.0</ele>
        <time>2013-06-04T19:05:56Z</time>
      </trkpt>
      <trkpt lat="41.072300" lon="-3.717500">
        <ele>1928.0</ele>
        <time>2013-06-04T19:05:57Z</time>
      </trkpt>
      <trkpt lat="41.072233" lon="-3.717567">
        <ele>1927.0</ele>
        <time>2013-06-04T19:05:58Z</time>
      </trkpt>
      <trkpt lat="41.072183" lon="-3.717617">
        <ele>1927.0</ele>
        <time>2013-06-04T19:05:59Z</time>
      </trkpt>
      <trkpt lat="41.072133" lon="-3.717667">
        <ele>1927.0</ele>
        <time>2013-06-04T19:06:00Z</time>
      </trkpt>
      <trkpt lat="41.072067" lon="-3.717733">
        <ele>1927.0</ele>
        <time>2013-06-04T19:06:01Z</time>
      </trkpt>
      <trkpt lat="41.072017" lon="-3.717783">
        <ele>1927.0</ele>
        <time>2013-06-04T19:06:02Z</time>
      </trkpt>
      <trkpt lat="41.071967" lon="-3.717833">
        <ele>1927.0</ele>
        <time>2013-06-04T19:06:03Z</time>
      </trkpt>
      <trkpt lat="41.071917" lon="-3.717900">
        <ele>1927.0</ele>
        <time>2013-06-04T19:06:04Z</time>
      </trkpt>
      <trkpt lat="41.071850" lon="-3.717950">
        <ele>1927.0</ele>
        <time>2013-06-04T19:06:05Z</time>
      </trkpt>
      <trkpt lat="41.071800" lon="-3.718000">
        <ele>1927.0</ele>
        <time>2013-06-04T19:06:06Z</time>
      </trkpt>
      <trkpt lat="41.071733" lon="-3.718033">
        <ele>1926.0</ele>
        <time>2013-06-04T19:06:07Z</time>
      </trkpt>
      <trkpt lat="41.071683" lon="-3.718083">
        <ele>1926.0</ele>
        <time>2013-06-04T19:06:08Z</time>
      </trkpt>
      <trkpt lat="41.071617" lon="-3.718133">
        <ele>1925.0</ele>
        <time>2013-06-04T19:06:09Z</time>
      </trkpt>
      <trkpt lat="41.071567" lon="-3.718183">
        <ele>1925.0</ele>
        <time>2013-06-04T19:06:10Z</time>
      </trkpt>
      <trkpt lat="41.071500" lon="-3.718250">
        <ele>1925.0</ele>
        <time>2013-06-04T19:06:11Z</time>
      </trkpt>
      <trkpt lat="41.071450" lon="-3.718300">
        <ele>1925.0</ele>
        <time>2013-06-04T19:06:12Z</time>
      </trkpt>
      <trkpt lat="41.071383" lon="-3.718350">
        <ele>1925.0</ele>
        <time>2013-06-04T19:06:13Z</time>
      </trkpt>
      <trkpt lat="41.071333" lon="-3.718383">
        <ele>1925.0</ele>
        <time>2013-06-04T19:06:14Z</time>
      </trkpt>
      <trkpt lat="41.071267" lon="-3.718433">
        <ele>1925.0</ele>
        <time>2013-06-04T19:06:15Z</time>
      </trkpt>
      <trkpt lat="41.071200" lon="-3.718483">
        <ele>1925.0</ele>
        <time>2013-06-04T19:06:16Z</time>
      </trkpt>
      <trkpt lat="41.071150" lon="-3.718533">
        <ele>1925.0</ele>
        <time>2013-06-04T19:06:17Z</time>
      </trkpt>
      <trkpt lat="41.071083" lon="-3.718583">
        <ele>1925.0</ele>
        <time>2013-06-04T19:06:18Z</time>
      </trkpt>
      <trkpt lat="41.071017" lon="-3.718617">
        <ele>1925.0</ele>
        <time>2013-06-04T19:06:19Z</time>
      </trkpt>
      <trkpt lat="41.070950" lon="-3.718667">
        <ele>1925.0</ele>
        <time>2013-06-04T19:06:20Z</time>
      </trkpt>
      <trkpt lat="41.070900" lon="-3.718717">
        <ele>1925.0</ele>
        <time>2013-06-04T19:06:21Z</time>
      </trkpt>
      <trkpt lat="41.070833" lon="-3.718767">
        <ele>1925.0</ele>
        <time>2013-06-04T19:06:22Z</time>
      </trkpt>
      <trkpt lat="41.070783" lon="-3.718817">
        <ele>1925.0</ele>
        <time>2013-06-04T19:06:23Z</time>
      </trkpt>
      <trkpt lat="41.070750" lon="-3.718883">
        <ele>1925.0</ele>
        <time>2013-06-04T19:06:24Z</time>
      </trkpt>
      <trkpt lat="41.070717" lon="-3.718933">
        <ele>1925.0</ele>
        <time>2013-06-04T19:06:25Z</time>
      </trkpt>
      <trkpt lat="41.070683" lon="-3.719000">
        <ele>1925.0</ele>
        <time>2013-06-04T19:06:26Z</time>
      </trkpt>
      <trkpt lat="41.070650" lon="-3.719067">
        <ele>1925.0</ele>
        <time>2013-06-04T19:06:27Z</time>
      </trkpt>
      <trkpt lat="41.070600" lon="-3.719133">
        <ele>1925.0</ele>
        <time>2013-06-04T19:06:28Z</time>
      </trkpt>
      <trkpt lat="41.070550" lon="-3.719183">
        <ele>1925.0</ele>
        <time>2013-06-04T19:06:29Z</time>
      </trkpt>
      <trkpt lat="41.070500" lon="-3.719233">
        <ele>1926.0</ele>
        <time>2013-06-04T19:06:30Z</time>
      </trkpt>
      <trkpt lat="41.070467" lon="-3.719300">
        <ele>1926.0</ele>
        <time>2013-06-04T19:06:31Z</time>
      </trkpt>
      <trkpt lat="41.070417" lon="-3.719350">
        <ele>1926.0</ele>
        <time>2013-06-04T19:06:32Z</time>
      </trkpt>
      <trkpt lat="41.070367" lon="-3.719400">
        <ele>1926.0</ele>
        <time>2013-06-04T19:06:33Z</time>
      </trkpt>
      <trkpt lat="41.070317" lon="-3.719450">
        <ele>1926.0</ele>
        <time>2013-06-04T19:06:34Z</time>
      </trkpt>
      <trkpt lat="41.070267" lon="-3.719500">
        <ele>1926.0</ele>
        <time>2013-06-04T19:06:35Z</time>
      </trkpt>
      <trkpt lat="41.070217" lon="-3.719550">
        <ele>1925.0</ele>
        <time>2013-06-04T19:06:36Z</time>
      </trkpt>
      <trkpt lat="41.070167" lon="-3.719600">
        <ele>1925.0</ele>
        <time>2013-06-04T19:06:37Z</time>
      </trkpt>
      <trkpt lat="41.070117" lon="-3.719650">
        <ele>1924.0</ele>
        <time>2013-06-04T19:06:38Z</time>
      </trkpt>
      <trkpt lat="41.070067" lon="-3.719717">
        <ele>1924.0</ele>
        <time>2013-06-04T19:06:39Z</time>
      </trkpt>
      <trkpt lat="41.070000" lon="-3.719767">
        <ele>1925.0</ele>
        <time>2013-06-04T19:06:40Z</time>
      </trkpt>
      <trkpt lat="41.069950" lon="-3.719817">
        <ele>1926.0</ele>
        <time>2013-06-04T19:06:41Z</time>
      </trkpt>
      <trkpt lat="41.069883" lon="-3.719850">
        <ele>1926.0</ele>
        <time>2013-06-04T19:06:42Z</time>
      </trkpt>
      <trkpt lat="41.069817" lon="-3.719883">
        <ele>1927.0</ele>
        <time>2013-06-04T19:06:43Z</time>
      </trkpt>
      <trkpt lat="41.069750" lon="-3.719933">
        <ele>1927.0</ele>
        <time>2013-06-04T19:06:44Z</time>
      </trkpt>
      <trkpt lat="41.069683" lon="-3.719967">
        <ele>1927.0</ele>
        <time>2013-06-04T19:06:45Z</time>
      </trkpt>
      <trkpt lat="41.069617" lon="-3.720017">
        <ele>1927.0</ele>
        <time>2013-06-04T19:06:46Z</time>
      </trkpt>
      <trkpt lat="41.069550" lon="-3.720067">
        <ele>1928.0</ele>
        <time>2013-06-04T19:06:47Z</time>
      </trkpt>
      <trkpt lat="41.069483" lon="-3.720100">
        <ele>1928.0</ele>
        <time>2013-06-04T19:06:48Z</time>
      </trkpt>
      <trkpt lat="41.069433" lon="-3.720150">
        <ele>1929.0</ele>
        <time>2013-06-04T19:06:49Z</time>
      </trkpt>
      <trkpt lat="41.069367" lon="-3.720200">
        <ele>1929.0</ele>
        <time>2013-06-04T19:06:50Z</time>
      </trkpt>
      <trkpt lat="41.069317" lon="-3.720250">
        <ele>1929.0</ele>
        <time>2013-06-04T19:06:51Z</time>
      </trkpt>
      <trkpt lat="41.069267" lon="-3.720300">
        <ele>1929.0</ele>
        <time>2013-06-04T19:06:52Z</time>
      </trkpt>
      <trkpt lat="41.069200" lon="-3.720350">
        <ele>1929.0</ele>
        <time>2013-06-04T19:06:53Z</time>
      </trkpt>
      <trkpt lat="41.069150" lon="-3.720400">
        <ele>1929.0</ele>
        <time>2013-06-04T19:06:54Z</time>
      </trkpt>
      <trkpt lat="41.069100" lon="-3.720450">
        <ele>1929.0</ele>
        <time>2013-06-04T19:06:55Z</time>
      </trkpt>
      <trkpt lat="41.069067" lon="-3.720500">
        <ele>1929.0</ele>
        <time>2013-06-04T19:06:56Z</time>
      </trkpt>
      <trkpt lat="41.069017" lon="-3.720550">
        <ele>1929.0</ele>
        <time>2013-06-04T19:06:57Z</time>
      </trkpt>
      <trkpt lat="41.068983" lon="-3.720600">
        <ele>1929.0</ele>
        <time>2013-06-04T19:06:58Z</time>
      </trkpt>
      <trkpt lat="41.068933" lon="-3.720667">
        <ele>1929.0</ele>
        <time>2013-06-04T19:06:59Z</time>
      </trkpt>
      <trkpt lat="41.068900" lon="-3.720717">
        <ele>1929.0</ele>
        <time>2013-06-04T19:07:00Z</time>
      </trkpt>
      <trkpt lat="41.068850" lon="-3.720767">
        <ele>1929.0</ele>
        <time>2013-06-04T19:07:01Z</time>
      </trkpt>
      <trkpt lat="41.068800" lon="-3.720817">
        <ele>1929.0</ele>
        <time>2013-06-04T19:07:02Z</time>
      </trkpt>
      <trkpt lat="41.068750" lon="-3.720867">
        <ele>1929.0</ele>
        <time>2013-06-04T19:07:03Z</time>
      </trkpt>
      <trkpt lat="41.068700" lon="-3.720900">
        <ele>1929.0</ele>
        <time>2013-06-04T19:07:04Z</time>
      </trkpt>
      <trkpt lat="41.068650" lon="-3.720967">
        <ele>1929.0</ele>
        <time>2013-06-04T19:07:05Z</time>
      </trkpt>
      <trkpt lat="41.068600" lon="-3.721017">
        <ele>1929.0</ele>
        <time>2013-06-04T19:07:06Z</time>
      </trkpt>
      <trkpt lat="41.068567" lon="-3.721067">
        <ele>1929.0</ele>
        <time>2013-06-04T19:07:07Z</time>
      </trkpt>
      <trkpt lat="41.068533" lon="-3.721117">
        <ele>1929.0</ele>
        <time>2013-06-04T19:07:08Z</time>
      </trkpt>
      <trkpt lat="41.068483" lon="-3.721167">
        <ele>1929.0</ele>
        <time>2013-06-04T19:07:09Z</time>
      </trkpt>
      <trkpt lat="41.068433" lon="-3.721217">
        <ele>1929.0</ele>
        <time>2013-06-04T19:07:10Z</time>
      </trkpt>
      <trkpt lat="41.068400" lon="-3.721250">
        <ele>1929.0</ele>
        <time>2013-06-04T19:07:11Z</time>
      </trkpt>
      <trkpt lat="41.068350" lon="-3.721317">
        <ele>1929.0</ele>
        <time>2013-06-04T19:07:12Z</time>
      </trkpt>
      <trkpt lat="41.068317" lon="-3.721367">
        <ele>1928.0</ele>
        <time>2013-06-04T19:07:13Z</time>
      </trkpt>
      <trkpt lat="41.068283" lon="-3.721433">
        <ele>1929.0</ele>
        <time>2013-06-04T19:07:14Z</time>
      </trkpt>
      <trkpt lat="41.068250" lon="-3.721500">
        <ele>1929.0</ele>
        <time>2013-06-04T19:07:15Z</time>
      </trkpt>
      <trkpt lat="41.068200" lon="-3.721550">
        <ele>1930.0</ele>
        <time>2013-06-04T19:07:16Z</time>
      </trkpt>
      <trkpt lat="41.068150" lon="-3.721583">
        <ele>1931.0</ele>
        <time>2013-06-04T19:07:17Z</time>
      </trkpt>
      <trkpt lat="41.068100" lon="-3.721633">
        <ele>1931.0</ele>
        <time>2013-06-04T19:07:18Z</time>
      </trkpt>
      <trkpt lat="41.068050" lon="-3.721683">
        <ele>1930.0</ele>
        <time>2013-06-04T19:07:19Z</time>
      </trkpt>
      <trkpt lat="41.068000" lon="-3.721733">
        <ele>1931.0</ele>
        <time>2013-06-04T19:07:20Z</time>
      </trkpt>
      <trkpt lat="41.067933" lon="-3.721783">
        <ele>1931.0</ele>
        <time>2013-06-04T19:07:21Z</time>
      </trkpt>
      <trkpt lat="41.067883" lon="-3.721817">
        <ele>1932.0</ele>
        <time>2013-06-04T19:07:22Z</time>
      </trkpt>
      <trkpt lat="41.067833" lon="-3.721867">
        <ele>1933.0</ele>
        <time>2013-06-04T19:07:23Z</time>
      </trkpt>
      <trkpt lat="41.067783" lon="-3.721900">
        <ele>1933.0</ele>
        <time>2013-06-04T19:07:24Z</time>
      </trkpt>
      <trkpt lat="41.067717" lon="-3.721950">
        <ele>1933.0</ele>
        <time>2013-06-04T19:07:25Z</time>
      </trkpt>
      <trkpt lat="41.067650" lon="-3.722000">
        <ele>1934.0</ele>
        <time>2013-06-04T19:07:26Z</time>
      </trkpt>
      <trkpt lat="41.067600" lon="-3.722050">
        <ele>1934.0</ele>
        <time>2013-06-04T19:07:27Z</time>
      </trkpt>
      <trkpt lat="41.067567" lon="-3.722100">
        <ele>1934.0</ele>
        <time>2013-06-04T19:07:28Z</time>
      </trkpt>
      <trkpt lat="41.067517" lon="-3.722167">
        <ele>1935.0</ele>
        <time>2013-06-04T19:07:29Z</time>
      </trkpt>
      <trkpt lat="41.067483" lon="-3.722217">
        <ele>1935.0</ele>
        <time>2013-06-04T19:07:30Z</time>
      </trkpt>
      <trkpt lat="41.067433" lon="-3.722267">
        <ele>1936.0</ele>
        <time>2013-06-04T19:07:31Z</time>
      </trkpt>
      <trkpt lat="41.067400" lon="-3.722333">
        <ele>1936.0</ele>
        <time>2013-06-04T19:07:32Z</time>
      </trkpt>
      <trkpt lat="41.067383" lon="-3.722400">
        <ele>1936.0</ele>
        <time>2013-06-04T19:07:33Z</time>
      </trkpt>
      <trkpt lat="41.067367" lon="-3.722467">
        <ele>1937.0</ele>
        <time>2013-06-04T19:07:34Z</time>
      </trkpt>
      <trkpt lat="41.067350" lon="-3.722517">
        <ele>1937.0</ele>
        <time>2013-06-04T19:07:35Z</time>
      </trkpt>
      <trkpt lat="41.067317" lon="-3.722583">
        <ele>1938.0</ele>
        <time>2013-06-04T19:07:36Z</time>
      </trkpt>
      <trkpt lat="41.067283" lon="-3.722633">
        <ele>1938.0</ele>
        <time>2013-06-04T19:07:37Z</time>
      </trkpt>
      <trkpt lat="41.067250" lon="-3.722700">
        <ele>1938.0</ele>
        <time>2013-06-04T19:07:38Z</time>
      </trkpt>
      <trkpt lat="41.067200" lon="-3.722750">
        <ele>1939.0</ele>
        <time>2013-06-04T19:07:39Z</time>
      </trkpt>
      <trkpt lat="41.067167" lon="-3.722800">
        <ele>1939.0</ele>
        <time>2013-06-04T19:07:40Z</time>
      </trkpt>
      <trkpt lat="41.067117" lon="-3.722850">
        <ele>1939.0</ele>
        <time>2013-06-04T19:07:41Z</time>
      </trkpt>
      <trkpt lat="41.067050" lon="-3.722900">
        <ele>1939.0</ele>
        <time>2013-06-04T19:07:42Z</time>
      </trkpt>
      <trkpt lat="41.066983" lon="-3.722950">
        <ele>1940.0</ele>
        <time>2013-06-04T19:07:43Z</time>
      </trkpt>
      <trkpt lat="41.066917" lon="-3.722983">
        <ele>1940.0</ele>
        <time>2013-06-04T19:07:44Z</time>
      </trkpt>
      <trkpt lat="41.066850" lon="-3.723033">
        <ele>1940.0</ele>
        <time>2013-06-04T19:07:45Z</time>
      </trkpt>
      <trkpt lat="41.066783" lon="-3.723083">
        <ele>1940.0</ele>
        <time>2013-06-04T19:07:46Z</time>
      </trkpt>
      <trkpt lat="41.066733" lon="-3.723133">
        <ele>1941.0</ele>
        <time>2013-06-04T19:07:47Z</time>
      </trkpt>
      <trkpt lat="41.066717" lon="-3.723200">
        <ele>1942.0</ele>
        <time>2013-06-04T19:07:48Z</time>
      </trkpt>
      <trkpt lat="41.066700" lon="-3.723233">
        <ele>1943.0</ele>
        <time>2013-06-04T19:07:49Z</time>
      </trkpt>
      <trkpt lat="41.066700" lon="-3.723283">
        <ele>1943.0</ele>
        <time>2013-06-04T19:07:50Z</time>
      </trkpt>
      <trkpt lat="41.066733" lon="-3.723317">
        <ele>1943.0</ele>
        <time>2013-06-04T19:07:51Z</time>
      </trkpt>
      <trkpt lat="41.066783" lon="-3.723317">
        <ele>1942.0</ele>
        <time>2013-06-04T19:07:52Z</time>
      </trkpt>
      <trkpt lat="41.066850" lon="-3.723317">
        <ele>1942.0</ele>
        <time>2013-06-04T19:07:53Z</time>
      </trkpt>
      <trkpt lat="41.066933" lon="-3.723250">
        <ele>1942.0</ele>
        <time>2013-06-04T19:07:54Z</time>
      </trkpt>
      <trkpt lat="41.067000" lon="-3.723167">
        <ele>1942.0</ele>
        <time>2013-06-04T19:07:55Z</time>
      </trkpt>
      <trkpt lat="41.067067" lon="-3.723067">
        <ele>1943.0</ele>
        <time>2013-06-04T19:07:56Z</time>
      </trkpt>
      <trkpt lat="41.067133" lon="-3.722967">
        <ele>1944.0</ele>
        <time>2013-06-04T19:07:57Z</time>
      </trkpt>
      <trkpt lat="41.067200" lon="-3.722867">
        <ele>1945.0</ele>
        <time>2013-06-04T19:07:58Z</time>
      </trkpt>
      <trkpt lat="41.067267" lon="-3.722783">
        <ele>1945.0</ele>
        <time>2013-06-04T19:07:59Z</time>
      </trkpt>
      <trkpt lat="41.067333" lon="-3.722700">
        <ele>1945.0</ele>
        <time>2013-06-04T19:08:00Z</time>
      </trkpt>
      <trkpt lat="41.067400" lon="-3.722617">
        <ele>1945.0</ele>
        <time>2013-06-04T19:08:01Z</time>
      </trkpt>
      <trkpt lat="41.067467" lon="-3.722550">
        <ele>1945.0</ele>
        <time>2013-06-04T19:08:02Z</time>
      </trkpt>
      <trkpt lat="41.067533" lon="-3.722483">
        <ele>1945.0</ele>
        <time>2013-06-04T19:08:03Z</time>
      </trkpt>
      <trkpt lat="41.067600" lon="-3.722450">
        <ele>1945.0</ele>
        <time>2013-06-04T19:08:04Z</time>
      </trkpt>
      <trkpt lat="41.067650" lon="-3.722450">
        <ele>1944.0</ele>
        <time>2013-06-04T19:08:05Z</time>
      </trkpt>
      <trkpt lat="41.067700" lon="-3.722467">
        <ele>1944.0</ele>
        <time>2013-06-04T19:08:06Z</time>
      </trkpt>
      <trkpt lat="41.067717" lon="-3.722517">
        <ele>1944.0</ele>
        <time>2013-06-04T19:08:07Z</time>
      </trkpt>
      <trkpt lat="41.067733" lon="-3.722583">
        <ele>1945.0</ele>
        <time>2013-06-04T19:08:08Z</time>
      </trkpt>
      <trkpt lat="41.067700" lon="-3.722633">
        <ele>1945.0</ele>
        <time>2013-06-04T19:08:09Z</time>
      </trkpt>
      <trkpt lat="41.067683" lon="-3.722683">
        <ele>1946.0</ele>
        <time>2013-06-04T19:08:10Z</time>
      </trkpt>
      <trkpt lat="41.067633" lon="-3.722733">
        <ele>1946.0</ele>
        <time>2013-06-04T19:08:11Z</time>
      </trkpt>
      <trkpt lat="41.067600" lon="-3.722783">
        <ele>1947.0</ele>
        <time>2013-06-04T19:08:12Z</time>
      </trkpt>
      <trkpt lat="41.067550" lon="-3.722833">
        <ele>1947.0</ele>
        <time>2013-06-04T19:08:13Z</time>
      </trkpt>
      <trkpt lat="41.067483" lon="-3.722883">
        <ele>1947.0</ele>
        <time>2013-06-04T19:08:14Z</time>
      </trkpt>
      <trkpt lat="41.067433" lon="-3.722933">
        <ele>1947.0</ele>
        <time>2013-06-04T19:08:15Z</time>
      </trkpt>
      <trkpt lat="41.067367" lon="-3.722967">
        <ele>1948.0</ele>
        <time>2013-06-04T19:08:16Z</time>
      </trkpt>
      <trkpt lat="41.067300" lon="-3.723017">
        <ele>1949.0</ele>
        <time>2013-06-04T19:08:17Z</time>
      </trkpt>
      <trkpt lat="41.067233" lon="-3.723050">
        <ele>1949.0</ele>
        <time>2013-06-04T19:08:18Z</time>
      </trkpt>
      <trkpt lat="41.067167" lon="-3.723083">
        <ele>1950.0</ele>
        <time>2013-06-04T19:08:19Z</time>
      </trkpt>
      <trkpt lat="41.067083" lon="-3.723117">
        <ele>1950.0</ele>
        <time>2013-06-04T19:08:20Z</time>
      </trkpt>
      <trkpt lat="41.067017" lon="-3.723133">
        <ele>1950.0</ele>
        <time>2013-06-04T19:08:21Z</time>
      </trkpt>
      <trkpt lat="41.066933" lon="-3.723167">
        <ele>1951.0</ele>
        <time>2013-06-04T19:08:22Z</time>
      </trkpt>
      <trkpt lat="41.066850" lon="-3.723200">
        <ele>1952.0</ele>
        <time>2013-06-04T19:08:23Z</time>
      </trkpt>
      <trkpt lat="41.066767" lon="-3.723217">
        <ele>1953.0</ele>
        <time>2013-06-04T19:08:24Z</time>
      </trkpt>
      <trkpt lat="41.066700" lon="-3.723250">
        <ele>1954.0</ele>
        <time>2013-06-04T19:08:25Z</time>
      </trkpt>
      <trkpt lat="41.066617" lon="-3.723267">
        <ele>1954.0</ele>
        <time>2013-06-04T19:08:26Z</time>
      </trkpt>
      <trkpt lat="41.066533" lon="-3.723283">
        <ele>1954.0</ele>
        <time>2013-06-04T19:08:27Z</time>
      </trkpt>
      <trkpt lat="41.066450" lon="-3.723300">
        <ele>1955.0</ele>
        <time>2013-06-04T19:08:28Z</time>
      </trkpt>
      <trkpt lat="41.066350" lon="-3.723317">
        <ele>1955.0</ele>
        <time>2013-06-04T19:08:29Z</time>
      </trkpt>
      <trkpt lat="41.066267" lon="-3.723333">
        <ele>1956.0</ele>
        <time>2013-06-04T19:08:30Z</time>
      </trkpt>
      <trkpt lat="41.066183" lon="-3.723367">
        <ele>1957.0</ele>
        <time>2013-06-04T19:08:31Z</time>
      </trkpt>
      <trkpt lat="41.066117" lon="-3.723383">
        <ele>1957.0</ele>
        <time>2013-06-04T19:08:32Z</time>
      </trkpt>
      <trkpt lat="41.066033" lon="-3.723400">
        <ele>1957.0</ele>
        <time>2013-06-04T19:08:33Z</time>
      </trkpt>
      <trkpt lat="41.065950" lon="-3.723417">
        <ele>1958.0</ele>
        <time>2013-06-04T19:08:34Z</time>
      </trkpt>
      <trkpt lat="41.065883" lon="-3.723450">
        <ele>1958.0</ele>
        <time>2013-06-04T19:08:35Z</time>
      </trkpt>
      <trkpt lat="41.065817" lon="-3.723483">
        <ele>1959.0</ele>
        <time>2013-06-04T19:08:36Z</time>
      </trkpt>
      <trkpt lat="41.065750" lon="-3.723517">
        <ele>1959.0</ele>
        <time>2013-06-04T19:08:37Z</time>
      </trkpt>
      <trkpt lat="41.065683" lon="-3.723550">
        <ele>1960.0</ele>
        <time>2013-06-04T19:08:38Z</time>
      </trkpt>
      <trkpt lat="41.065617" lon="-3.723583">
        <ele>1960.0</ele>
        <time>2013-06-04T19:08:39Z</time>
      </trkpt>
      <trkpt lat="41.065567" lon="-3.723617">
        <ele>1960.0</ele>
        <time>2013-06-04T19:08:40Z</time>
      </trkpt>
      <trkpt lat="41.065517" lon="-3.723667">
        <ele>1960.0</ele>
        <time>2013-06-04T19:08:41Z</time>
      </trkpt>
      <trkpt lat="41.065467" lon="-3.723717">
        <ele>1960.0</ele>
        <time>2013-06-04T19:08:42Z</time>
      </trkpt>
      <trkpt lat="41.065417" lon="-3.723750">
        <ele>1961.0</ele>
        <time>2013-06-04T19:08:43Z</time>
      </trkpt>
      <trkpt lat="41.065383" lon="-3.723800">
        <ele>1961.0</ele>
        <time>2013-06-04T19:08:44Z</time>
      </trkpt>
      <trkpt lat="41.065333" lon="-3.723833">
        <ele>1961.0</ele>
        <time>2013-06-04T19:08:45Z</time>
      </trkpt>
      <trkpt lat="41.065300" lon="-3.723883">
        <ele>1962.0</ele>
        <time>2013-06-04T19:08:46Z</time>
      </trkpt>
      <trkpt lat="41.065267" lon="-3.723933">
        <ele>1962.0</ele>
        <time>2013-06-04T19:08:47Z</time>
      </trkpt>
      <trkpt lat="41.065250" lon="-3.723983">
        <ele>1962.0</ele>
        <time>2013-06-04T19:08:48Z</time>
      </trkpt>
      <trkpt lat="41.065233" lon="-3.724033">
        <ele>1962.0</ele>
        <time>2013-06-04T19:08:49Z</time>
      </trkpt>
      <trkpt lat="41.065217" lon="-3.724083">
        <ele>1963.0</ele>
        <time>2013-06-04T19:08:50Z</time>
      </trkpt>
      <trkpt lat="41.065200" lon="-3.724133">
        <ele>1963.0</ele>
        <time>2013-06-04T19:08:51Z</time>
      </trkpt>
      <trkpt lat="41.065200" lon="-3.724183">
        <ele>1963.0</ele>
        <time>2013-06-04T19:08:52Z</time>
      </trkpt>
      <trkpt lat="41.065200" lon="-3.724233">
        <ele>1964.0</ele>
        <time>2013-06-04T19:08:53Z</time>
      </trkpt>
      <trkpt lat="41.065200" lon="-3.724267">
        <ele>1964.0</ele>
        <time>2013-06-04T19:08:54Z</time>
      </trkpt>
      <trkpt lat="41.065200" lon="-3.724300">
        <ele>1965.0</ele>
        <time>2013-06-04T19:08:55Z</time>
      </trkpt>
      <trkpt lat="41.065200" lon="-3.724333">
        <ele>1965.0</ele>
        <time>2013-06-04T19:08:56Z</time>
      </trkpt>
      <trkpt lat="41.065233" lon="-3.724367">
        <ele>1965.0</ele>
        <time>2013-06-04T19:08:57Z</time>
      </trkpt>
      <trkpt lat="41.065250" lon="-3.724383">
        <ele>1965.0</ele>
        <time>2013-06-04T19:08:58Z</time>
      </trkpt>
      <trkpt lat="41.065300" lon="-3.724400">
        <ele>1966.0</ele>
        <time>2013-06-04T19:08:59Z</time>
      </trkpt>
      <trkpt lat="41.065333" lon="-3.724400">
        <ele>1966.0</ele>
        <time>2013-06-04T19:09:00Z</time>
      </trkpt>
      <trkpt lat="41.065383" lon="-3.724400">
        <ele>1966.0</ele>
        <time>2013-06-04T19:09:01Z</time>
      </trkpt>
      <trkpt lat="41.065433" lon="-3.724383">
        <ele>1966.0</ele>
        <time>2013-06-04T19:09:02Z</time>
      </trkpt>
      <trkpt lat="41.065483" lon="-3.724367">
        <ele>1967.0</ele>
        <time>2013-06-04T19:09:03Z</time>
      </trkpt>
      <trkpt lat="41.065533" lon="-3.724333">
        <ele>1967.0</ele>
        <time>2013-06-04T19:09:04Z</time>
      </trkpt>
      <trkpt lat="41.065600" lon="-3.724300">
        <ele>1967.0</ele>
        <time>2013-06-04T19:09:05Z</time>
      </trkpt>
      <trkpt lat="41.065650" lon="-3.724250">
        <ele>1967.0</ele>
        <time>2013-06-04T19:09:06Z</time>
      </trkpt>
      <trkpt lat="41.065717" lon="-3.724200">
        <ele>1968.0</ele>
        <time>2013-06-04T19:09:07Z</time>
      </trkpt>
      <trkpt lat="41.065767" lon="-3.724167">
        <ele>1968.0</ele>
        <time>2013-06-04T19:09:08Z</time>
      </trkpt>
      <trkpt lat="41.065833" lon="-3.724117">
        <ele>1968.0</ele>
        <time>2013-06-04T19:09:09Z</time>
      </trkpt>
      <trkpt lat="41.065883" lon="-3.724067">
        <ele>1969.0</ele>
        <time>2013-06-04T19:09:10Z</time>
      </trkpt>
      <trkpt lat="41.065950" lon="-3.724017">
        <ele>1969.0</ele>
        <time>2013-06-04T19:09:11Z</time>
      </trkpt>
      <trkpt lat="41.066000" lon="-3.723983">
        <ele>1969.0</ele>
        <time>2013-06-04T19:09:12Z</time>
      </trkpt>
      <trkpt lat="41.066067" lon="-3.723933">
        <ele>1969.0</ele>
        <time>2013-06-04T19:09:13Z</time>
      </trkpt>
      <trkpt lat="41.066117" lon="-3.723883">
        <ele>1970.0</ele>
        <time>2013-06-04T19:09:14Z</time>
      </trkpt>
      <trkpt lat="41.066183" lon="-3.723850">
        <ele>1970.0</ele>
        <time>2013-06-04T19:09:15Z</time>
      </trkpt>
      <trkpt lat="41.066233" lon="-3.723817">
        <ele>1970.0</ele>
        <time>2013-06-04T19:09:16Z</time>
      </trkpt>
      <trkpt lat="41.066300" lon="-3.723800">
        <ele>1970.0</ele>
        <time>2013-06-04T19:09:17Z</time>
      </trkpt>
      <trkpt lat="41.066333" lon="-3.723800">
        <ele>1971.0</ele>
        <time>2013-06-04T19:09:18Z</time>
      </trkpt>
      <trkpt lat="41.066367" lon="-3.723817">
        <ele>1971.0</ele>
        <time>2013-06-04T19:09:19Z</time>
      </trkpt>
      <trkpt lat="41.066400" lon="-3.723850">
        <ele>1971.0</ele>
        <time>2013-06-04T19:09:20Z</time>
      </trkpt>
      <trkpt lat="41.066400" lon="-3.723883">
        <ele>1971.0</ele>
        <time>2013-06-04T19:09:21Z</time>
      </trkpt>
      <trkpt lat="41.066400" lon="-3.723933">
        <ele>1971.0</ele>
        <time>2013-06-04T19:09:22Z</time>
      </trkpt>
      <trkpt lat="41.066367" lon="-3.723983">
        <ele>1972.0</ele>
        <time>2013-06-04T19:09:23Z</time>
      </trkpt>
      <trkpt lat="41.066333" lon="-3.724033">
        <ele>1972.0</ele>
        <time>2013-06-04T19:09:24Z</time>
      </trkpt>
      <trkpt lat="41.066283" lon="-3.724083">
        <ele>1973.0</ele>
        <time>2013-06-04T19:09:25Z</time>
      </trkpt>
      <trkpt lat="41.066217" lon="-3.724117">
        <ele>1973.0</ele>
        <time>2013-06-04T19:09:26Z</time>
      </trkpt>
      <trkpt lat="41.066133" lon="-3.724150">
        <ele>1973.0</ele>
        <time>2013-06-04T19:09:27Z</time>
      </trkpt>
      <trkpt lat="41.066050" lon="-3.724150">
        <ele>1974.0</ele>
        <time>2013-06-04T19:09:28Z</time>
      </trkpt>
      <trkpt lat="41.065950" lon="-3.724150">
        <ele>1974.0</ele>
        <time>2013-06-04T19:09:29Z</time>
      </trkpt>
      <trkpt lat="41.065850" lon="-3.724150">
        <ele>1974.0</ele>
        <time>2013-06-04T19:09:30Z</time>
      </trkpt>
      <trkpt lat="41.065750" lon="-3.724133">
        <ele>1975.0</ele>
        <time>2013-06-04T19:09:31Z</time>
      </trkpt>
      <trkpt lat="41.065650" lon="-3.724133">
        <ele>1975.0</ele>
        <time>2013-06-04T19:09:32Z</time>
      </trkpt>
      <trkpt lat="41.065550" lon="-3.724133">
        <ele>1976.0</ele>
        <time>2013-06-04T19:09:33Z</time>
      </trkpt>
      <trkpt lat="41.065467" lon="-3.724150">
        <ele>1976.0</ele>
        <time>2013-06-04T19:09:34Z</time>
      </trkpt>
      <trkpt lat="41.065367" lon="-3.724167">
        <ele>1976.0</ele>
        <time>2013-06-04T19:09:35Z</time>
      </trkpt>
      <trkpt lat="41.065283" lon="-3.724183">
        <ele>1976.0</ele>
        <time>2013-06-04T19:09:36Z</time>
      </trkpt>
      <trkpt lat="41.065217" lon="-3.724217">
        <ele>1977.0</ele>
        <time>2013-06-04T19:09:37Z</time>
      </trkpt>
      <trkpt lat="41.065150" lon="-3.724267">
        <ele>1977.0</ele>
        <time>2013-06-04T19:09:38Z</time>
      </trkpt>
      <trkpt lat="41.065100" lon="-3.724317">
        <ele>1977.0</ele>
        <time>2013-06-04T19:09:39Z</time>
      </trkpt>
      <trkpt lat="41.065050" lon="-3.724350">
        <ele>1977.0</ele>
        <time>2013-06-04T19:09:40Z</time>
      </trkpt>
      <trkpt lat="41.065000" lon="-3.724400">
        <ele>1977.0</ele>
        <time>2013-06-04T19:09:41Z</time>
      </trkpt>
      <trkpt lat="41.064967" lon="-3.724450">
        <ele>1977.0</ele>
        <time>2013-06-04T19:09:42Z</time>
      </trkpt>
      <trkpt lat="41.064917" lon="-3.724483">
        <ele>1978.0</ele>
        <time>2013-06-04T19:09:43Z</time>
      </trkpt>
      <trkpt lat="41.064883" lon="-3.724533">
        <ele>1978.0</ele>
        <time>2013-06-04T19:09:44Z</time>
      </trkpt>
      <trkpt lat="41.064850" lon="-3.724583">
        <ele>1978.0</ele>
        <time>2013-06-04T19:09:45Z</time>
      </trkpt>
      <trkpt lat="41.064833" lon="-3.724633">
        <ele>1978.0</ele>
        <time>2013-06-04T19:09:46Z</time>
      </trkpt>
      <trkpt lat="41.064817" lon="-3.724683">
        <ele>1978.0</ele>
        <time>2013-06-04T19:09:47Z</time>
      </trkpt>
      <trkpt lat="41.064800" lon="-3.724733">
        <ele>1979.0</ele>
        <time>2013-06-04T19:09:48Z</time>
      </trkpt>
      <trkpt lat="41.064783" lon="-3.724783">
        <ele>1979.0</ele>
        <time>2013-06-04T19:09:49Z</time>
      </trkpt>
      <trkpt lat="41.064767" lon="-3.724817">
        <ele>1980.0</ele>
        <time>2013-06-04T19:09:50Z</time>
      </trkpt>
      <trkpt lat="41.064750" lon="-3.724867">
        <ele>1980.0</ele>
        <time>2013-06-04T19:09:51Z</time>
      </trkpt>
      <trkpt lat="41.064717" lon="-3.724900">
        <ele>1981.0</ele>
        <time>2013-06-04T19:09:52Z</time>
      </trkpt>
      <trkpt lat="41.064683" lon="-3.724950">
        <ele>1980.0</ele>
        <time>2013-06-04T19:09:53Z</time>
      </trkpt>
      <trkpt lat="41.064667" lon="-3.725000">
        <ele>1980.0</ele>
        <time>2013-06-04T19:09:54Z</time>
      </trkpt>
      <trkpt lat="41.064617" lon="-3.725050">
        <ele>1980.0</ele>
        <time>2013-06-04T19:09:55Z</time>
      </trkpt>
      <trkpt lat="41.064583" lon="-3.725117">
        <ele>1981.0</ele>
        <time>2013-06-04T19:09:56Z</time>
      </trkpt>
      <trkpt lat="41.064517" lon="-3.725150">
        <ele>1981.0</ele>
        <time>2013-06-04T19:09:57Z</time>
      </trkpt>
      <trkpt lat="41.064483" lon="-3.725200">
        <ele>1982.0</ele>
        <time>2013-06-04T19:09:58Z</time>
      </trkpt>
      <trkpt lat="41.064433" lon="-3.725250">
        <ele>1982.0</ele>
        <time>2013-06-04T19:09:59Z</time>
      </trkpt>
      <trkpt lat="41.064383" lon="-3.725283">
        <ele>1982.0</ele>
        <time>2013-06-04T19:10:00Z</time>
      </trkpt>
      <trkpt lat="41.064333" lon="-3.725333">
        <ele>1982.0</ele>
        <time>2013-06-04T19:10:01Z</time>
      </trkpt>
      <trkpt lat="41.064283" lon="-3.725383">
        <ele>1982.0</ele>
        <time>2013-06-04T19:10:02Z</time>
      </trkpt>
      <trkpt lat="41.064233" lon="-3.725433">
        <ele>1982.0</ele>
        <time>2013-06-04T19:10:03Z</time>
      </trkpt>
      <trkpt lat="41.064183" lon="-3.725483">
        <ele>1982.0</ele>
        <time>2013-06-04T19:10:04Z</time>
      </trkpt>
      <trkpt lat="41.064133" lon="-3.725517">
        <ele>1982.0</ele>
        <time>2013-06-04T19:10:05Z</time>
      </trkpt>
      <trkpt lat="41.064100" lon="-3.725567">
        <ele>1983.0</ele>
        <time>2013-06-04T19:10:06Z</time>
      </trkpt>
      <trkpt lat="41.064050" lon="-3.725600">
        <ele>1983.0</ele>
        <time>2013-06-04T19:10:07Z</time>
      </trkpt>
      <trkpt lat="41.064000" lon="-3.725650">
        <ele>1982.0</ele>
        <time>2013-06-04T19:10:08Z</time>
      </trkpt>
      <trkpt lat="41.063950" lon="-3.725700">
        <ele>1982.0</ele>
        <time>2013-06-04T19:10:09Z</time>
      </trkpt>
      <trkpt lat="41.063900" lon="-3.725750">
        <ele>1983.0</ele>
        <time>2013-06-04T19:10:10Z</time>
      </trkpt>
      <trkpt lat="41.063867" lon="-3.725783">
        <ele>1983.0</ele>
        <time>2013-06-04T19:10:11Z</time>
      </trkpt>
      <trkpt lat="41.063817" lon="-3.725833">
        <ele>1984.0</ele>
        <time>2013-06-04T19:10:12Z</time>
      </trkpt>
      <trkpt lat="41.063783" lon="-3.725883">
        <ele>1984.0</ele>
        <time>2013-06-04T19:10:13Z</time>
      </trkpt>
      <trkpt lat="41.063733" lon="-3.725933">
        <ele>1984.0</ele>
        <time>2013-06-04T19:10:14Z</time>
      </trkpt>
      <trkpt lat="41.063683" lon="-3.725967">
        <ele>1985.0</ele>
        <time>2013-06-04T19:10:15Z</time>
      </trkpt>
      <trkpt lat="41.063650" lon="-3.726017">
        <ele>1985.0</ele>
        <time>2013-06-04T19:10:16Z</time>
      </trkpt>
      <trkpt lat="41.063617" lon="-3.726067">
        <ele>1985.0</ele>
        <time>2013-06-04T19:10:17Z</time>
      </trkpt>
      <trkpt lat="41.063600" lon="-3.726117">
        <ele>1986.0</ele>
        <time>2013-06-04T19:10:18Z</time>
      </trkpt>
      <trkpt lat="41.063567" lon="-3.726167">
        <ele>1986.0</ele>
        <time>2013-06-04T19:10:19Z</time>
      </trkpt>
      <trkpt lat="41.063550" lon="-3.726217">
        <ele>1986.0</ele>
        <time>2013-06-04T19:10:20Z</time>
      </trkpt>
      <trkpt lat="41.063533" lon="-3.726267">
        <ele>1986.0</ele>
        <time>2013-06-04T19:10:21Z</time>
      </trkpt>
      <trkpt lat="41.063517" lon="-3.726317">
        <ele>1986.0</ele>
        <time>2013-06-04T19:10:22Z</time>
      </trkpt>
      <trkpt lat="41.063517" lon="-3.726367">
        <ele>1985.0</ele>
        <time>2013-06-04T19:10:23Z</time>
      </trkpt>
      <trkpt lat="41.063517" lon="-3.726417">
        <ele>1985.0</ele>
        <time>2013-06-04T19:10:24Z</time>
      </trkpt>
      <trkpt lat="41.063517" lon="-3.726467">
        <ele>1985.0</ele>
        <time>2013-06-04T19:10:25Z</time>
      </trkpt>
      <trkpt lat="41.063517" lon="-3.726517">
        <ele>1985.0</ele>
        <time>2013-06-04T19:10:26Z</time>
      </trkpt>
      <trkpt lat="41.063517" lon="-3.726567">
        <ele>1986.0</ele>
        <time>2013-06-04T19:10:27Z</time>
      </trkpt>
      <trkpt lat="41.063517" lon="-3.726617">
        <ele>1986.0</ele>
        <time>2013-06-04T19:10:28Z</time>
      </trkpt>
      <trkpt lat="41.063517" lon="-3.726650">
        <ele>1986.0</ele>
        <time>2013-06-04T19:10:29Z</time>
      </trkpt>
      <trkpt lat="41.063517" lon="-3.726700">
        <ele>1985.0</ele>
        <time>2013-06-04T19:10:30Z</time>
      </trkpt>
      <trkpt lat="41.063517" lon="-3.726767">
        <ele>1985.0</ele>
        <time>2013-06-04T19:10:31Z</time>
      </trkpt>
      <trkpt lat="41.063517" lon="-3.726817">
        <ele>1986.0</ele>
        <time>2013-06-04T19:10:32Z</time>
      </trkpt>
      <trkpt lat="41.063533" lon="-3.726867">
        <ele>1986.0</ele>
        <time>2013-06-04T19:10:33Z</time>
      </trkpt>
      <trkpt lat="41.063533" lon="-3.726917">
        <ele>1986.0</ele>
        <time>2013-06-04T19:10:34Z</time>
      </trkpt>
      <trkpt lat="41.063533" lon="-3.726950">
        <ele>1986.0</ele>
        <time>2013-06-04T19:10:35Z</time>
      </trkpt>
      <trkpt lat="41.063533" lon="-3.727017">
        <ele>1986.0</ele>
        <time>2013-06-04T19:10:36Z</time>
      </trkpt>
      <trkpt lat="41.063517" lon="-3.727067">
        <ele>1986.0</ele>
        <time>2013-06-04T19:10:37Z</time>
      </trkpt>
      <trkpt lat="41.063500" lon="-3.727133">
        <ele>1986.0</ele>
        <time>2013-06-04T19:10:38Z</time>
      </trkpt>
      <trkpt lat="41.063500" lon="-3.727183">
        <ele>1986.0</ele>
        <time>2013-06-04T19:10:39Z</time>
      </trkpt>
      <trkpt lat="41.063467" lon="-3.727233">
        <ele>1986.0</ele>
        <time>2013-06-04T19:10:40Z</time>
      </trkpt>
      <trkpt lat="41.063450" lon="-3.727300">
        <ele>1987.0</ele>
        <time>2013-06-04T19:10:41Z</time>
      </trkpt>
      <trkpt lat="41.063433" lon="-3.727350">
        <ele>1986.0</ele>
        <time>2013-06-04T19:10:42Z</time>
      </trkpt>
      <trkpt lat="41.063400" lon="-3.727417">
        <ele>1986.0</ele>
        <time>2013-06-04T19:10:43Z</time>
      </trkpt>
      <trkpt lat="41.063383" lon="-3.727483">
        <ele>1986.0</ele>
        <time>2013-06-04T19:10:44Z</time>
      </trkpt>
      <trkpt lat="41.063367" lon="-3.727550">
        <ele>1985.0</ele>
        <time>2013-06-04T19:10:45Z</time>
      </trkpt>
      <trkpt lat="41.063350" lon="-3.727617">
        <ele>1986.0</ele>
        <time>2013-06-04T19:10:46Z</time>
      </trkpt>
      <trkpt lat="41.063333" lon="-3.727683">
        <ele>1986.0</ele>
        <time>2013-06-04T19:10:47Z</time>
      </trkpt>
      <trkpt lat="41.063317" lon="-3.727733">
        <ele>1987.0</ele>
        <time>2013-06-04T19:10:48Z</time>
      </trkpt>
      <trkpt lat="41.063300" lon="-3.727783">
        <ele>1987.0</ele>
        <time>2013-06-04T19:10:49Z</time>
      </trkpt>
      <trkpt lat="41.063283" lon="-3.727850">
        <ele>1986.0</ele>
        <time>2013-06-04T19:10:50Z</time>
      </trkpt>
      <trkpt lat="41.063267" lon="-3.727900">
        <ele>1986.0</ele>
        <time>2013-06-04T19:10:51Z</time>
      </trkpt>
      <trkpt lat="41.063250" lon="-3.727967">
        <ele>1986.0</ele>
        <time>2013-06-04T19:10:52Z</time>
      </trkpt>
      <trkpt lat="41.063233" lon="-3.728033">
        <ele>1986.0</ele>
        <time>2013-06-04T19:10:53Z</time>
      </trkpt>
      <trkpt lat="41.063217" lon="-3.728100">
        <ele>1987.0</ele>
        <time>2013-06-04T19:10:54Z</time>
      </trkpt>
      <trkpt lat="41.063200" lon="-3.728150">
        <ele>1987.0</ele>
        <time>2013-06-04T19:10:55Z</time>
      </trkpt>
      <trkpt lat="41.063200" lon="-3.728217">
        <ele>1987.0</ele>
        <time>2013-06-04T19:10:56Z</time>
      </trkpt>
      <trkpt lat="41.063200" lon="-3.728267">
        <ele>1986.0</ele>
        <time>2013-06-04T19:10:57Z</time>
      </trkpt>
      <trkpt lat="41.063200" lon="-3.728333">
        <ele>1986.0</ele>
        <time>2013-06-04T19:10:58Z</time>
      </trkpt>
      <trkpt lat="41.063217" lon="-3.728383">
        <ele>1986.0</ele>
        <time>2013-06-04T19:10:59Z</time>
      </trkpt>
      <trkpt lat="41.063250" lon="-3.728417">
        <ele>1986.0</ele>
        <time>2013-06-04T19:11:00Z</time>
      </trkpt>
      <trkpt lat="41.063317" lon="-3.728400">
        <ele>1986.0</ele>
        <time>2013-06-04T19:11:01Z</time>
      </trkpt>
      <trkpt lat="41.063367" lon="-3.728367">
        <ele>1985.0</ele>
        <time>2013-06-04T19:11:02Z</time>
      </trkpt>
      <trkpt lat="41.063433" lon="-3.728317">
        <ele>1986.0</ele>
        <time>2013-06-04T19:11:03Z</time>
      </trkpt>
      <trkpt lat="41.063500" lon="-3.728250">
        <ele>1986.0</ele>
        <time>2013-06-04T19:11:04Z</time>
      </trkpt>
      <trkpt lat="41.063550" lon="-3.728167">
        <ele>1986.0</ele>
        <time>2013-06-04T19:11:05Z</time>
      </trkpt>
      <trkpt lat="41.063600" lon="-3.728083">
        <ele>1986.0</ele>
        <time>2013-06-04T19:11:06Z</time>
      </trkpt>
      <trkpt lat="41.063650" lon="-3.727983">
        <ele>1986.0</ele>
        <time>2013-06-04T19:11:07Z</time>
      </trkpt>
      <trkpt lat="41.063700" lon="-3.727867">
        <ele>1985.0</ele>
        <time>2013-06-04T19:11:08Z</time>
      </trkpt>
      <trkpt lat="41.063750" lon="-3.727750">
        <ele>1985.0</ele>
        <time>2013-06-04T19:11:09Z</time>
      </trkpt>
      <trkpt lat="41.063800" lon="-3.727617">
        <ele>1986.0</ele>
        <time>2013-06-04T19:11:10Z</time>
      </trkpt>
      <trkpt lat="41.063833" lon="-3.727483">
        <ele>1986.0</ele>
        <time>2013-06-04T19:11:11Z</time>
      </trkpt>
      <trkpt lat="41.063867" lon="-3.727350">
        <ele>1986.0</ele>
        <time>2013-06-04T19:11:12Z</time>
      </trkpt>
      <trkpt lat="41.063883" lon="-3.727217">
        <ele>1986.0</ele>
        <time>2013-06-04T19:11:13Z</time>
      </trkpt>
      <trkpt lat="41.063917" lon="-3.727067">
        <ele>1986.0</ele>
        <time>2013-06-04T19:11:14Z</time>
      </trkpt>
      <trkpt lat="41.063950" lon="-3.726933">
        <ele>1986.0</ele>
        <time>2013-06-04T19:11:15Z</time>
      </trkpt>
      <trkpt lat="41.063983" lon="-3.726783">
        <ele>1986.0</ele>
        <time>2013-06-04T19:11:16Z</time>
      </trkpt>
      <trkpt lat="41.064033" lon="-3.726650">
        <ele>1987.0</ele>
        <time>2013-06-04T19:11:17Z</time>
      </trkpt>
      <trkpt lat="41.064067" lon="-3.726517">
        <ele>1987.0</ele>
        <time>2013-06-04T19:11:18Z</time>
      </trkpt>
      <trkpt lat="41.064100" lon="-3.726383">
        <ele>1987.0</ele>
        <time>2013-06-04T19:11:19Z</time>
      </trkpt>
      <trkpt lat="41.064150" lon="-3.726267">
        <ele>1987.0</ele>
        <time>2013-06-04T19:11:20Z</time>
      </trkpt>
      <trkpt lat="41.064200" lon="-3.726133">
        <ele>1987.0</ele>
        <time>2013-06-04T19:11:21Z</time>
      </trkpt>
      <trkpt lat="41.064250" lon="-3.726017">
        <ele>1987.0</ele>
        <time>2013-06-04T19:11:22Z</time>
      </trkpt>
      <trkpt lat="41.064317" lon="-3.725917">
        <ele>1988.0</ele>
        <time>2013-06-04T19:11:23Z</time>
      </trkpt>
      <trkpt lat="41.064367" lon="-3.725817">
        <ele>1988.0</ele>
        <time>2013-06-04T19:11:24Z</time>
      </trkpt>
      <trkpt lat="41.064433" lon="-3.725750">
        <ele>1989.0</ele>
        <time>2013-06-04T19:11:25Z</time>
      </trkpt>
      <trkpt lat="41.064483" lon="-3.725683">
        <ele>1989.0</ele>
        <time>2013-06-04T19:11:26Z</time>
      </trkpt>
      <trkpt lat="41.064550" lon="-3.725650">
        <ele>1989.0</ele>
        <time>2013-06-04T19:11:27Z</time>
      </trkpt>
      <trkpt lat="41.064600" lon="-3.725633">
        <ele>1989.0</ele>
        <time>2013-06-04T19:11:28Z</time>
      </trkpt>
      <trkpt lat="41.064650" lon="-3.725633">
        <ele>1988.0</ele>
        <time>2013-06-04T19:11:29Z</time>
      </trkpt>
      <trkpt lat="41.064700" lon="-3.725650">
        <ele>1989.0</ele>
        <time>2013-06-04T19:11:30Z</time>
      </trkpt>
      <trkpt lat="41.064717" lon="-3.725683">
        <ele>1989.0</ele>
        <time>2013-06-04T19:11:31Z</time>
      </trkpt>
      <trkpt lat="41.064733" lon="-3.725733">
        <ele>1989.0</ele>
        <time>2013-06-04T19:11:32Z</time>
      </trkpt>
      <trkpt lat="41.064717" lon="-3.725783">
        <ele>1989.0</ele>
        <time>2013-06-04T19:11:33Z</time>
      </trkpt>
      <trkpt lat="41.064700" lon="-3.725833">
        <ele>1989.0</ele>
        <time>2013-06-04T19:11:34Z</time>
      </trkpt>
      <trkpt lat="41.064667" lon="-3.725883">
        <ele>1988.0</ele>
        <time>2013-06-04T19:11:35Z</time>
      </trkpt>
      <trkpt lat="41.064617" lon="-3.725950">
        <ele>1988.0</ele>
        <time>2013-06-04T19:11:36Z</time>
      </trkpt>
      <trkpt lat="41.064550" lon="-3.725983">
        <ele>1988.0</ele>
        <time>2013-06-04T19:11:37Z</time>
      </trkpt>
      <trkpt lat="41.064483" lon="-3.726033">
        <ele>1989.0</ele>
        <time>2013-06-04T19:11:38Z</time>
      </trkpt>
      <trkpt lat="41.064400" lon="-3.726067">
        <ele>1989.0</ele>
        <time>2013-06-04T19:11:39Z</time>
      </trkpt>
      <trkpt lat="41.064317" lon="-3.726100">
        <ele>1990.0</ele>
        <time>2013-06-04T19:11:40Z</time>
      </trkpt>
      <trkpt lat="41.064233" lon="-3.726133">
        <ele>1990.0</ele>
        <time>2013-06-04T19:11:41Z</time>
      </trkpt>
      <trkpt lat="41.064167" lon="-3.726167">
        <ele>1990.0</ele>
        <time>2013-06-04T19:11:42Z</time>
      </trkpt>
      <trkpt lat="41.064083" lon="-3.726200">
        <ele>1991.0</ele>
        <time>2013-06-04T19:11:43Z</time>
      </trkpt>
      <trkpt lat="41.064017" lon="-3.726250">
        <ele>1992.0</ele>
        <time>2013-06-04T19:11:44Z</time>
      </trkpt>
      <trkpt lat="41.063967" lon="-3.726283">
        <ele>1992.0</ele>
        <time>2013-06-04T19:11:45Z</time>
      </trkpt>
      <trkpt lat="41.063900" lon="-3.726317">
        <ele>1992.0</ele>
        <time>2013-06-04T19:11:46Z</time>
      </trkpt>
      <trkpt lat="41.063850" lon="-3.726367">
        <ele>1992.0</ele>
        <time>2013-06-04T19:11:47Z</time>
      </trkpt>
      <trkpt lat="41.063817" lon="-3.726400">
        <ele>1992.0</ele>
        <time>2013-06-04T19:11:48Z</time>
      </trkpt>
      <trkpt lat="41.063783" lon="-3.726467">
        <ele>1991.0</ele>
        <time>2013-06-04T19:11:49Z</time>
      </trkpt>
      <trkpt lat="41.063750" lon="-3.726517">
        <ele>1992.0</ele>
        <time>2013-06-04T19:11:50Z</time>
      </trkpt>
      <trkpt lat="41.063733" lon="-3.726550">
        <ele>1992.0</ele>
        <time>2013-06-04T19:11:51Z</time>
      </trkpt>
      <trkpt lat="41.063717" lon="-3.726600">
        <ele>1992.0</ele>
        <time>2013-06-04T19:11:52Z</time>
      </trkpt>
      <trkpt lat="41.063717" lon="-3.726650">
        <ele>1992.0</ele>
        <time>2013-06-04T19:11:53Z</time>
      </trkpt>
      <trkpt lat="41.063717" lon="-3.726683">
        <ele>1992.0</ele>
        <time>2013-06-04T19:11:54Z</time>
      </trkpt>
      <trkpt lat="41.063717" lon="-3.726733">
        <ele>1992.0</ele>
        <time>2013-06-04T19:11:55Z</time>
      </trkpt>
      <trkpt lat="41.063717" lon="-3.726783">
        <ele>1992.0</ele>
        <time>2013-06-04T19:11:56Z</time>
      </trkpt>
      <trkpt lat="41.063733" lon="-3.726817">
        <ele>1992.0</ele>
        <time>2013-06-04T19:11:57Z</time>
      </trkpt>
      <trkpt lat="41.063750" lon="-3.726850">
        <ele>1992.0</ele>
        <time>2013-06-04T19:11:58Z</time>
      </trkpt>
      <trkpt lat="41.063767" lon="-3.726867">
        <ele>1993.0</ele>
        <time>2013-06-04T19:11:59Z</time>
      </trkpt>
      <trkpt lat="41.063783" lon="-3.726900">
        <ele>1993.0</ele>
        <time>2013-06-04T19:12:00Z</time>
      </trkpt>
      <trkpt lat="41.063800" lon="-3.726933">
        <ele>1993.0</ele>
        <time>2013-06-04T19:12:01Z</time>
      </trkpt>
      <trkpt lat="41.063833" lon="-3.726967">
        <ele>1993.0</ele>
        <time>2013-06-04T19:12:02Z</time>
      </trkpt>
      <trkpt lat="41.063867" lon="-3.726983">
        <ele>1993.0</ele>
        <time>2013-06-04T19:12:03Z</time>
      </trkpt>
      <trkpt lat="41.063900" lon="-3.727000">
        <ele>1993.0</ele>
        <time>2013-06-04T19:12:04Z</time>
      </trkpt>
      <trkpt lat="41.063950" lon="-3.727000">
        <ele>1993.0</ele>
        <time>2013-06-04T19:12:05Z</time>
      </trkpt>
      <trkpt lat="41.063983" lon="-3.727000">
        <ele>1993.0</ele>
        <time>2013-06-04T19:12:06Z</time>
      </trkpt>
      <trkpt lat="41.064033" lon="-3.727000">
        <ele>1993.0</ele>
        <time>2013-06-04T19:12:07Z</time>
      </trkpt>
      <trkpt lat="41.064083" lon="-3.726983">
        <ele>1993.0</ele>
        <time>2013-06-04T19:12:08Z</time>
      </trkpt>
      <trkpt lat="41.064133" lon="-3.726967">
        <ele>1993.0</ele>
        <time>2013-06-04T19:12:09Z</time>
      </trkpt>
      <trkpt lat="41.064183" lon="-3.726950">
        <ele>1993.0</ele>
        <time>2013-06-04T19:12:10Z</time>
      </trkpt>
      <trkpt lat="41.064233" lon="-3.726933">
        <ele>1994.0</ele>
        <time>2013-06-04T19:12:11Z</time>
      </trkpt>
      <trkpt lat="41.064300" lon="-3.726900">
        <ele>1994.0</ele>
        <time>2013-06-04T19:12:12Z</time>
      </trkpt>
      <trkpt lat="41.064350" lon="-3.726867">
        <ele>1994.0</ele>
        <time>2013-06-04T19:12:13Z</time>
      </trkpt>
      <trkpt lat="41.064400" lon="-3.726833">
        <ele>1994.0</ele>
        <time>2013-06-04T19:12:14Z</time>
      </trkpt>
      <trkpt lat="41.064467" lon="-3.726800">
        <ele>1994.0</ele>
        <time>2013-06-04T19:12:15Z</time>
      </trkpt>
      <trkpt lat="41.064517" lon="-3.726750">
        <ele>1994.0</ele>
        <time>2013-06-04T19:12:16Z</time>
      </trkpt>
      <trkpt lat="41.064567" lon="-3.726700">
        <ele>1995.0</ele>
        <time>2013-06-04T19:12:17Z</time>
      </trkpt>
      <trkpt lat="41.064617" lon="-3.726617">
        <ele>1995.0</ele>
        <time>2013-06-04T19:12:18Z</time>
      </trkpt>
      <trkpt lat="41.064667" lon="-3.726500">
        <ele>1995.0</ele>
        <time>2013-06-04T19:12:19Z</time>
      </trkpt>
      <trkpt lat="41.064700" lon="-3.726367">
        <ele>1994.0</ele>
        <time>2013-06-04T19:12:20Z</time>
      </trkpt>
      <trkpt lat="41.064733" lon="-3.726217">
        <ele>1994.0</ele>
        <time>2013-06-04T19:12:21Z</time>
      </trkpt>
      <trkpt lat="41.064750" lon="-3.726067">
        <ele>1994.0</ele>
        <time>2013-06-04T19:12:22Z</time>
      </trkpt>
      <trkpt lat="41.064767" lon="-3.725917">
        <ele>1994.0</ele>
        <time>2013-06-04T19:12:23Z</time>
      </trkpt>
      <trkpt lat="41.064783" lon="-3.725767">
        <ele>1994.0</ele>
        <time>2013-06-04T19:12:24Z</time>
      </trkpt>
      <trkpt lat="41.064817" lon="-3.725617">
        <ele>1994.0</ele>
        <time>2013-06-04T19:12:25Z</time>
      </trkpt>
      <trkpt lat="41.064850" lon="-3.725483">
        <ele>1994.0</ele>
        <time>2013-06-04T19:12:26Z</time>
      </trkpt>
      <trkpt lat="41.064883" lon="-3.725333">
        <ele>1994.0</ele>
        <time>2013-06-04T19:12:27Z</time>
      </trkpt>
      <trkpt lat="41.064917" lon="-3.725200">
        <ele>1995.0</ele>
        <time>2013-06-04T19:12:28Z</time>
      </trkpt>
      <trkpt lat="41.064950" lon="-3.725050">
        <ele>1995.0</ele>
        <time>2013-06-04T19:12:29Z</time>
      </trkpt>
      <trkpt lat="41.064983" lon="-3.724933">
        <ele>1995.0</ele>
        <time>2013-06-04T19:12:30Z</time>
      </trkpt>
      <trkpt lat="41.065033" lon="-3.724817">
        <ele>1995.0</ele>
        <time>2013-06-04T19:12:31Z</time>
      </trkpt>
      <trkpt lat="41.065100" lon="-3.724700">
        <ele>1995.0</ele>
        <time>2013-06-04T19:12:32Z</time>
      </trkpt>
      <trkpt lat="41.065150" lon="-3.724600">
        <ele>1995.0</ele>
        <time>2013-06-04T19:12:33Z</time>
      </trkpt>
      <trkpt lat="41.065200" lon="-3.724500">
        <ele>1995.0</ele>
        <time>2013-06-04T19:12:34Z</time>
      </trkpt>
      <trkpt lat="41.065250" lon="-3.724417">
        <ele>1995.0</ele>
        <time>2013-06-04T19:12:35Z</time>
      </trkpt>
      <trkpt lat="41.065300" lon="-3.724333">
        <ele>1995.0</ele>
        <time>2013-06-04T19:12:36Z</time>
      </trkpt>
      <trkpt lat="41.065367" lon="-3.724250">
        <ele>1995.0</ele>
        <time>2013-06-04T19:12:37Z</time>
      </trkpt>
      <trkpt lat="41.065417" lon="-3.724200">
        <ele>1995.0</ele>
        <time>2013-06-04T19:12:38Z</time>
      </trkpt>
      <trkpt lat="41.065483" lon="-3.724133">
        <ele>1995.0</ele>
        <time>2013-06-04T19:12:39Z</time>
      </trkpt>
      <trkpt lat="41.065550" lon="-3.724083">
        <ele>1995.0</ele>
        <time>2013-06-04T19:12:40Z</time>
      </trkpt>
      <trkpt lat="41.065600" lon="-3.724017">
        <ele>1995.0</ele>
        <time>2013-06-04T19:12:41Z</time>
      </trkpt>
      <trkpt lat="41.065667" lon="-3.723967">
        <ele>1995.0</ele>
        <time>2013-06-04T19:12:42Z</time>
      </trkpt>
      <trkpt lat="41.065717" lon="-3.723917">
        <ele>1995.0</ele>
        <time>2013-06-04T19:12:43Z</time>
      </trkpt>
      <trkpt lat="41.065767" lon="-3.723867">
        <ele>1995.0</ele>
        <time>2013-06-04T19:12:44Z</time>
      </trkpt>
      <trkpt lat="41.065833" lon="-3.723817">
        <ele>1995.0</ele>
        <time>2013-06-04T19:12:45Z</time>
      </trkpt>
      <trkpt lat="41.065883" lon="-3.723750">
        <ele>1995.0</ele>
        <time>2013-06-04T19:12:46Z</time>
      </trkpt>
      <trkpt lat="41.065933" lon="-3.723700">
        <ele>1995.0</ele>
        <time>2013-06-04T19:12:47Z</time>
      </trkpt>
      <trkpt lat="41.066000" lon="-3.723633">
        <ele>1995.0</ele>
        <time>2013-06-04T19:12:48Z</time>
      </trkpt>
      <trkpt lat="41.066050" lon="-3.723550">
        <ele>1996.0</ele>
        <time>2013-06-04T19:12:49Z</time>
      </trkpt>
      <trkpt lat="41.066117" lon="-3.723483">
        <ele>1996.0</ele>
        <time>2013-06-04T19:12:50Z</time>
      </trkpt>
      <trkpt lat="41.066167" lon="-3.723417">
        <ele>1996.0</ele>
        <time>2013-06-04T19:12:51Z</time>
      </trkpt>
      <trkpt lat="41.066217" lon="-3.723333">
        <ele>1995.0</ele>
        <time>2013-06-04T19:12:52Z</time>
      </trkpt>
      <trkpt lat="41.066283" lon="-3.723267">
        <ele>1995.0</ele>
        <time>2013-06-04T19:12:53Z</time>
      </trkpt>
      <trkpt lat="41.066350" lon="-3.723183">
        <ele>1995.0</ele>
        <time>2013-06-04T19:12:54Z</time>
      </trkpt>
      <trkpt lat="41.066400" lon="-3.723100">
        <ele>1995.0</ele>
        <time>2013-06-04T19:12:55Z</time>
      </trkpt>
      <trkpt lat="41.066467" lon="-3.723033">
        <ele>1995.0</ele>
        <time>2013-06-04T19:12:56Z</time>
      </trkpt>
      <trkpt lat="41.066517" lon="-3.722950">
        <ele>1995.0</ele>
        <time>2013-06-04T19:12:57Z</time>
      </trkpt>
      <trkpt lat="41.066583" lon="-3.722883">
        <ele>1995.0</ele>
        <time>2013-06-04T19:12:58Z</time>
      </trkpt>
      <trkpt lat="41.066633" lon="-3.722817">
        <ele>1995.0</ele>
        <time>2013-06-04T19:12:59Z</time>
      </trkpt>
      <trkpt lat="41.066700" lon="-3.722750">
        <ele>1995.0</ele>
        <time>2013-06-04T19:13:00Z</time>
      </trkpt>
      <trkpt lat="41.066750" lon="-3.722683">
        <ele>1995.0</ele>
        <time>2013-06-04T19:13:01Z</time>
      </trkpt>
      <trkpt lat="41.066817" lon="-3.722617">
        <ele>1994.0</ele>
        <time>2013-06-04T19:13:02Z</time>
      </trkpt>
      <trkpt lat="41.066883" lon="-3.722567">
        <ele>1994.0</ele>
        <time>2013-06-04T19:13:03Z</time>
      </trkpt>
      <trkpt lat="41.066950" lon="-3.722500">
        <ele>1994.0</ele>
        <time>2013-06-04T19:13:04Z</time>
      </trkpt>
      <trkpt lat="41.067017" lon="-3.722450">
        <ele>1994.0</ele>
        <time>2013-06-04T19:13:05Z</time>
      </trkpt>
      <trkpt lat="41.067083" lon="-3.722400">
        <ele>1994.0</ele>
        <time>2013-06-04T19:13:06Z</time>
      </trkpt>
      <trkpt lat="41.067150" lon="-3.722350">
        <ele>1995.0</ele>
        <time>2013-06-04T19:13:07Z</time>
      </trkpt>
      <trkpt lat="41.067200" lon="-3.722333">
        <ele>1994.0</ele>
        <time>2013-06-04T19:13:08Z</time>
      </trkpt>
      <trkpt lat="41.067267" lon="-3.722300">
        <ele>1995.0</ele>
        <time>2013-06-04T19:13:09Z</time>
      </trkpt>
      <trkpt lat="41.067317" lon="-3.722267">
        <ele>1995.0</ele>
        <time>2013-06-04T19:13:10Z</time>
      </trkpt>
      <trkpt lat="41.067367" lon="-3.722233">
        <ele>1995.0</ele>
        <time>2013-06-04T19:13:11Z</time>
      </trkpt>
      <trkpt lat="41.067433" lon="-3.722183">
        <ele>1995.0</ele>
        <time>2013-06-04T19:13:12Z</time>
      </trkpt>
      <trkpt lat="41.067483" lon="-3.722150">
        <ele>1994.0</ele>
        <time>2013-06-04T19:13:13Z</time>
      </trkpt>
      <trkpt lat="41.067550" lon="-3.722117">
        <ele>1994.0</ele>
        <time>2013-06-04T19:13:14Z</time>
      </trkpt>
      <trkpt lat="41.067600" lon="-3.722083">
        <ele>1994.0</ele>
        <time>2013-06-04T19:13:15Z</time>
      </trkpt>
      <trkpt lat="41.067650" lon="-3.722067">
        <ele>1994.0</ele>
        <time>2013-06-04T19:13:16Z</time>
      </trkpt>
      <trkpt lat="41.067717" lon="-3.722033">
        <ele>1994.0</ele>
        <time>2013-06-04T19:13:17Z</time>
      </trkpt>
      <trkpt lat="41.067767" lon="-3.722000">
        <ele>1994.0</ele>
        <time>2013-06-04T19:13:18Z</time>
      </trkpt>
      <trkpt lat="41.067817" lon="-3.721967">
        <ele>1994.0</ele>
        <time>2013-06-04T19:13:19Z</time>
      </trkpt>
      <trkpt lat="41.067867" lon="-3.721933">
        <ele>1994.0</ele>
        <time>2013-06-04T19:13:20Z</time>
      </trkpt>
      <trkpt lat="41.067933" lon="-3.721900">
        <ele>1994.0</ele>
        <time>2013-06-04T19:13:21Z</time>
      </trkpt>
      <trkpt lat="41.067983" lon="-3.721867">
        <ele>1994.0</ele>
        <time>2013-06-04T19:13:22Z</time>
      </trkpt>
      <trkpt lat="41.068033" lon="-3.721833">
        <ele>1994.0</ele>
        <time>2013-06-04T19:13:23Z</time>
      </trkpt>
      <trkpt lat="41.068100" lon="-3.721783">
        <ele>1994.0</ele>
        <time>2013-06-04T19:13:24Z</time>
      </trkpt>
      <trkpt lat="41.068150" lon="-3.721750">
        <ele>1994.0</ele>
        <time>2013-06-04T19:13:25Z</time>
      </trkpt>
      <trkpt lat="41.068217" lon="-3.721700">
        <ele>1994.0</ele>
        <time>2013-06-04T19:13:26Z</time>
      </trkpt>
      <trkpt lat="41.068283" lon="-3.721650">
        <ele>1994.0</ele>
        <time>2013-06-04T19:13:27Z</time>
      </trkpt>
      <trkpt lat="41.068333" lon="-3.721600">
        <ele>1993.0</ele>
        <time>2013-06-04T19:13:28Z</time>
      </trkpt>
      <trkpt lat="41.068400" lon="-3.721550">
        <ele>1994.0</ele>
        <time>2013-06-04T19:13:29Z</time>
      </trkpt>
      <trkpt lat="41.068450" lon="-3.721483">
        <ele>1993.0</ele>
        <time>2013-06-04T19:13:30Z</time>
      </trkpt>
      <trkpt lat="41.068517" lon="-3.721417">
        <ele>1993.0</ele>
        <time>2013-06-04T19:13:31Z</time>
      </trkpt>
      <trkpt lat="41.068583" lon="-3.721367">
        <ele>1993.0</ele>
        <time>2013-06-04T19:13:32Z</time>
      </trkpt>
      <trkpt lat="41.068633" lon="-3.721300">
        <ele>1993.0</ele>
        <time>2013-06-04T19:13:33Z</time>
      </trkpt>
      <trkpt lat="41.068700" lon="-3.721250">
        <ele>1993.0</ele>
        <time>2013-06-04T19:13:34Z</time>
      </trkpt>
      <trkpt lat="41.068750" lon="-3.721183">
        <ele>1992.0</ele>
        <time>2013-06-04T19:13:35Z</time>
      </trkpt>
      <trkpt lat="41.068817" lon="-3.721133">
        <ele>1992.0</ele>
        <time>2013-06-04T19:13:36Z</time>
      </trkpt>
      <trkpt lat="41.068883" lon="-3.721067">
        <ele>1992.0</ele>
        <time>2013-06-04T19:13:37Z</time>
      </trkpt>
      <trkpt lat="41.068933" lon="-3.721017">
        <ele>1991.0</ele>
        <time>2013-06-04T19:13:38Z</time>
      </trkpt>
      <trkpt lat="41.069000" lon="-3.720950">
        <ele>1991.0</ele>
        <time>2013-06-04T19:13:39Z</time>
      </trkpt>
      <trkpt lat="41.069067" lon="-3.720900">
        <ele>1991.0</ele>
        <time>2013-06-04T19:13:40Z</time>
      </trkpt>
      <trkpt lat="41.069117" lon="-3.720850">
        <ele>1991.0</ele>
        <time>2013-06-04T19:13:41Z</time>
      </trkpt>
      <trkpt lat="41.069183" lon="-3.720783">
        <ele>1991.0</ele>
        <time>2013-06-04T19:13:42Z</time>
      </trkpt>
      <trkpt lat="41.069233" lon="-3.720733">
        <ele>1990.0</ele>
        <time>2013-06-04T19:13:43Z</time>
      </trkpt>
      <trkpt lat="41.069300" lon="-3.720667">
        <ele>1990.0</ele>
        <time>2013-06-04T19:13:44Z</time>
      </trkpt>
      <trkpt lat="41.069367" lon="-3.720600">
        <ele>1990.0</ele>
        <time>2013-06-04T19:13:45Z</time>
      </trkpt>
      <trkpt lat="41.069417" lon="-3.720550">
        <ele>1989.0</ele>
        <time>2013-06-04T19:13:46Z</time>
      </trkpt>
      <trkpt lat="41.069483" lon="-3.720483">
        <ele>1989.0</ele>
        <time>2013-06-04T19:13:47Z</time>
      </trkpt>
      <trkpt lat="41.069550" lon="-3.720433">
        <ele>1989.0</ele>
        <time>2013-06-04T19:13:48Z</time>
      </trkpt>
      <trkpt lat="41.069600" lon="-3.720383">
        <ele>1988.0</ele>
        <time>2013-06-04T19:13:49Z</time>
      </trkpt>
      <trkpt lat="41.069667" lon="-3.720317">
        <ele>1988.0</ele>
        <time>2013-06-04T19:13:50Z</time>
      </trkpt>
      <trkpt lat="41.069733" lon="-3.720267">
        <ele>1988.0</ele>
        <time>2013-06-04T19:13:51Z</time>
      </trkpt>
      <trkpt lat="41.069783" lon="-3.720217">
        <ele>1988.0</ele>
        <time>2013-06-04T19:13:52Z</time>
      </trkpt>
      <trkpt lat="41.069850" lon="-3.720167">
        <ele>1988.0</ele>
        <time>2013-06-04T19:13:53Z</time>
      </trkpt>
      <trkpt lat="41.069917" lon="-3.720117">
        <ele>1988.0</ele>
        <time>2013-06-04T19:13:54Z</time>
      </trkpt>
      <trkpt lat="41.069967" lon="-3.720083">
        <ele>1987.0</ele>
        <time>2013-06-04T19:13:55Z</time>
      </trkpt>
      <trkpt lat="41.070033" lon="-3.720033">
        <ele>1987.0</ele>
        <time>2013-06-04T19:13:56Z</time>
      </trkpt>
      <trkpt lat="41.070100" lon="-3.719983">
        <ele>1987.0</ele>
        <time>2013-06-04T19:13:57Z</time>
      </trkpt>
      <trkpt lat="41.070150" lon="-3.719933">
        <ele>1987.0</ele>
        <time>2013-06-04T19:13:58Z</time>
      </trkpt>
      <trkpt lat="41.070217" lon="-3.719900">
        <ele>1987.0</ele>
        <time>2013-06-04T19:13:59Z</time>
      </trkpt>
      <trkpt lat="41.070267" lon="-3.719850">
        <ele>1986.0</ele>
        <time>2013-06-04T19:14:00Z</time>
      </trkpt>
      <trkpt lat="41.070333" lon="-3.719817">
        <ele>1986.0</ele>
        <time>2013-06-04T19:14:01Z</time>
      </trkpt>
      <trkpt lat="41.070383" lon="-3.719767">
        <ele>1986.0</ele>
        <time>2013-06-04T19:14:02Z</time>
      </trkpt>
      <trkpt lat="41.070450" lon="-3.719717">
        <ele>1986.0</ele>
        <time>2013-06-04T19:14:03Z</time>
      </trkpt>
      <trkpt lat="41.070500" lon="-3.719683">
        <ele>1986.0</ele>
        <time>2013-06-04T19:14:04Z</time>
      </trkpt>
      <trkpt lat="41.070567" lon="-3.719633">
        <ele>1985.0</ele>
        <time>2013-06-04T19:14:05Z</time>
      </trkpt>
      <trkpt lat="41.070617" lon="-3.719583">
        <ele>1985.0</ele>
        <time>2013-06-04T19:14:06Z</time>
      </trkpt>
      <trkpt lat="41.070683" lon="-3.719533">
        <ele>1985.0</ele>
        <time>2013-06-04T19:14:07Z</time>
      </trkpt>
      <trkpt lat="41.070733" lon="-3.719483">
        <ele>1985.0</ele>
        <time>2013-06-04T19:14:08Z</time>
      </trkpt>
      <trkpt lat="41.070800" lon="-3.719450">
        <ele>1984.0</ele>
        <time>2013-06-04T19:14:09Z</time>
      </trkpt>
      <trkpt lat="41.070850" lon="-3.719400">
        <ele>1984.0</ele>
        <time>2013-06-04T19:14:10Z</time>
      </trkpt>
      <trkpt lat="41.070917" lon="-3.719350">
        <ele>1983.0</ele>
        <time>2013-06-04T19:14:11Z</time>
      </trkpt>
      <trkpt lat="41.070967" lon="-3.719300">
        <ele>1983.0</ele>
        <time>2013-06-04T19:14:12Z</time>
      </trkpt>
      <trkpt lat="41.071033" lon="-3.719250">
        <ele>1983.0</ele>
        <time>2013-06-04T19:14:13Z</time>
      </trkpt>
      <trkpt lat="41.071083" lon="-3.719200">
        <ele>1982.0</ele>
        <time>2013-06-04T19:14:14Z</time>
      </trkpt>
      <trkpt lat="41.071150" lon="-3.719150">
        <ele>1982.0</ele>
        <time>2013-06-04T19:14:15Z</time>
      </trkpt>
      <trkpt lat="41.071200" lon="-3.719083">
        <ele>1981.0</ele>
        <time>2013-06-04T19:14:16Z</time>
      </trkpt>
      <trkpt lat="41.071267" lon="-3.719033">
        <ele>1981.0</ele>
        <time>2013-06-04T19:14:17Z</time>
      </trkpt>
      <trkpt lat="41.071317" lon="-3.718983">
        <ele>1981.0</ele>
        <time>2013-06-04T19:14:18Z</time>
      </trkpt>
      <trkpt lat="41.071383" lon="-3.718917">
        <ele>1980.0</ele>
        <time>2013-06-04T19:14:19Z</time>
      </trkpt>
      <trkpt lat="41.071433" lon="-3.718850">
        <ele>1980.0</ele>
        <time>2013-06-04T19:14:20Z</time>
      </trkpt>
      <trkpt lat="41.071483" lon="-3.718783">
        <ele>1979.0</ele>
        <time>2013-06-04T19:14:21Z</time>
      </trkpt>
      <trkpt lat="41.071550" lon="-3.718700">
        <ele>1979.0</ele>
        <time>2013-06-04T19:14:22Z</time>
      </trkpt>
      <trkpt lat="41.071600" lon="-3.718617">
        <ele>1978.0</ele>
        <time>2013-06-04T19:14:23Z</time>
      </trkpt>
      <trkpt lat="41.071667" lon="-3.718550">
        <ele>1978.0</ele>
        <time>2013-06-04T19:14:24Z</time>
      </trkpt>
      <trkpt lat="41.071717" lon="-3.718467">
        <ele>1978.0</ele>
        <time>2013-06-04T19:14:25Z</time>
      </trkpt>
      <trkpt lat="41.071783" lon="-3.718400">
        <ele>1977.0</ele>
        <time>2013-06-04T19:14:26Z</time>
      </trkpt>
      <trkpt lat="41.071833" lon="-3.718317">
        <ele>1977.0</ele>
        <time>2013-06-04T19:14:27Z</time>
      </trkpt>
      <trkpt lat="41.071900" lon="-3.718250">
        <ele>1977.0</ele>
        <time>2013-06-04T19:14:28Z</time>
      </trkpt>
      <trkpt lat="41.071967" lon="-3.718167">
        <ele>1976.0</ele>
        <time>2013-06-04T19:14:29Z</time>
      </trkpt>
      <trkpt lat="41.072017" lon="-3.718100">
        <ele>1976.0</ele>
        <time>2013-06-04T19:14:30Z</time>
      </trkpt>
      <trkpt lat="41.072067" lon="-3.718033">
        <ele>1976.0</ele>
        <time>2013-06-04T19:14:31Z</time>
      </trkpt>
      <trkpt lat="41.072133" lon="-3.717967">
        <ele>1975.0</ele>
        <time>2013-06-04T19:14:32Z</time>
      </trkpt>
      <trkpt lat="41.072183" lon="-3.717883">
        <ele>1975.0</ele>
        <time>2013-06-04T19:14:33Z</time>
      </trkpt>
      <trkpt lat="41.072250" lon="-3.717817">
        <ele>1975.0</ele>
        <time>2013-06-04T19:14:34Z</time>
      </trkpt>
      <trkpt lat="41.072300" lon="-3.717750">
        <ele>1975.0</ele>
        <time>2013-06-04T19:14:35Z</time>
      </trkpt>
      <trkpt lat="41.072367" lon="-3.717683">
        <ele>1974.0</ele>
        <time>2013-06-04T19:14:36Z</time>
      </trkpt>
      <trkpt lat="41.072417" lon="-3.717617">
        <ele>1974.0</ele>
        <time>2013-06-04T19:14:37Z</time>
      </trkpt>
      <trkpt lat="41.072483" lon="-3.717550">
        <ele>1973.0</ele>
        <time>2013-06-04T19:14:38Z</time>
      </trkpt>
      <trkpt lat="41.072533" lon="-3.717483">
        <ele>1973.0</ele>
        <time>2013-06-04T19:14:39Z</time>
      </trkpt>
      <trkpt lat="41.072600" lon="-3.717417">
        <ele>1973.0</ele>
        <time>2013-06-04T19:14:40Z</time>
      </trkpt>
      <trkpt lat="41.072650" lon="-3.717350">
        <ele>1972.0</ele>
        <time>2013-06-04T19:14:41Z</time>
      </trkpt>
      <trkpt lat="41.072717" lon="-3.717283">
        <ele>1972.0</ele>
        <time>2013-06-04T19:14:42Z</time>
      </trkpt>
      <trkpt lat="41.072767" lon="-3.717217">
        <ele>1971.0</ele>
        <time>2013-06-04T19:14:43Z</time>
      </trkpt>
      <trkpt lat="41.072833" lon="-3.717133">
        <ele>1971.0</ele>
        <time>2013-06-04T19:14:44Z</time>
      </trkpt>
      <trkpt lat="41.072883" lon="-3.717067">
        <ele>1971.0</ele>
        <time>2013-06-04T19:14:45Z</time>
      </trkpt>
      <trkpt lat="41.072950" lon="-3.717000">
        <ele>1971.0</ele>
        <time>2013-06-04T19:14:46Z</time>
      </trkpt>
      <trkpt lat="41.073000" lon="-3.716917">
        <ele>1970.0</ele>
        <time>2013-06-04T19:14:47Z</time>
      </trkpt>
      <trkpt lat="41.073050" lon="-3.716833">
        <ele>1970.0</ele>
        <time>2013-06-04T19:14:48Z</time>
      </trkpt>
      <trkpt lat="41.073117" lon="-3.716767">
        <ele>1970.0</ele>
        <time>2013-06-04T19:14:49Z</time>
      </trkpt>
      <trkpt lat="41.073167" lon="-3.716683">
        <ele>1969.0</ele>
        <time>2013-06-04T19:14:50Z</time>
      </trkpt>
      <trkpt lat="41.073233" lon="-3.716600">
        <ele>1969.0</ele>
        <time>2013-06-04T19:14:51Z</time>
      </trkpt>
      <trkpt lat="41.073283" lon="-3.716517">
        <ele>1969.0</ele>
        <time>2013-06-04T19:14:52Z</time>
      </trkpt>
      <trkpt lat="41.073333" lon="-3.716433">
        <ele>1968.0</ele>
        <time>2013-06-04T19:14:53Z</time>
      </trkpt>
      <trkpt lat="41.073400" lon="-3.716350">
        <ele>1968.0</ele>
        <time>2013-06-04T19:14:54Z</time>
      </trkpt>
      <trkpt lat="41.073450" lon="-3.716267">
        <ele>1967.0</ele>
        <time>2013-06-04T19:14:55Z</time>
      </trkpt>
      <trkpt lat="41.073500" lon="-3.716167">
        <ele>1967.0</ele>
        <time>2013-06-04T19:14:56Z</time>
      </trkpt>
      <trkpt lat="41.073550" lon="-3.716083">
        <ele>1967.0</ele>
        <time>2013-06-04T19:14:57Z</time>
      </trkpt>
      <trkpt lat="41.073617" lon="-3.715983">
        <ele>1966.0</ele>
        <time>2013-06-04T19:14:58Z</time>
      </trkpt>
      <trkpt lat="41.073667" lon="-3.715900">
        <ele>1965.0</ele>
        <time>2013-06-04T19:14:59Z</time>
      </trkpt>
      <trkpt lat="41.073733" lon="-3.715817">
        <ele>1964.0</ele>
        <time>2013-06-04T19:15:00Z</time>
      </trkpt>
      <trkpt lat="41.073800" lon="-3.715750">
        <ele>1964.0</ele>
        <time>2013-06-04T19:15:01Z</time>
      </trkpt>
      <trkpt lat="41.073867" lon="-3.715700">
        <ele>1964.0</ele>
        <time>2013-06-04T19:15:02Z</time>
      </trkpt>
      <trkpt lat="41.073933" lon="-3.715667">
        <ele>1964.0</ele>
        <time>2013-06-04T19:15:03Z</time>
      </trkpt>
      <trkpt lat="41.073983" lon="-3.715633">
        <ele>1963.0</ele>
        <time>2013-06-04T19:15:04Z</time>
      </trkpt>
      <trkpt lat="41.074050" lon="-3.715600">
        <ele>1963.0</ele>
        <time>2013-06-04T19:15:05Z</time>
      </trkpt>
      <trkpt lat="41.074117" lon="-3.715567">
        <ele>1963.0</ele>
        <time>2013-06-04T19:15:06Z</time>
      </trkpt>
      <trkpt lat="41.074183" lon="-3.715533">
        <ele>1963.0</ele>
        <time>2013-06-04T19:15:07Z</time>
      </trkpt>
      <trkpt lat="41.074233" lon="-3.715500">
        <ele>1963.0</ele>
        <time>2013-06-04T19:15:08Z</time>
      </trkpt>
      <trkpt lat="41.074300" lon="-3.715467">
        <ele>1963.0</ele>
        <time>2013-06-04T19:15:09Z</time>
      </trkpt>
      <trkpt lat="41.074350" lon="-3.715417">
        <ele>1963.0</ele>
        <time>2013-06-04T19:15:10Z</time>
      </trkpt>
      <trkpt lat="41.074417" lon="-3.715367">
        <ele>1963.0</ele>
        <time>2013-06-04T19:15:11Z</time>
      </trkpt>
      <trkpt lat="41.074467" lon="-3.715317">
        <ele>1963.0</ele>
        <time>2013-06-04T19:15:12Z</time>
      </trkpt>
      <trkpt lat="41.074533" lon="-3.715267">
        <ele>1963.0</ele>
        <time>2013-06-04T19:15:13Z</time>
      </trkpt>
      <trkpt lat="41.074583" lon="-3.715200">
        <ele>1963.0</ele>
        <time>2013-06-04T19:15:14Z</time>
      </trkpt>
      <trkpt lat="41.074650" lon="-3.715117">
        <ele>1963.0</ele>
        <time>2013-06-04T19:15:15Z</time>
      </trkpt>
      <trkpt lat="41.074700" lon="-3.715050">
        <ele>1962.0</ele>
        <time>2013-06-04T19:15:16Z</time>
      </trkpt>
      <trkpt lat="41.074767" lon="-3.714983">
        <ele>1962.0</ele>
        <time>2013-06-04T19:15:17Z</time>
      </trkpt>
      <trkpt lat="41.074817" lon="-3.714900">
        <ele>1962.0</ele>
        <time>2013-06-04T19:15:18Z</time>
      </trkpt>
      <trkpt lat="41.074883" lon="-3.714833">
        <ele>1961.0</ele>
        <time>2013-06-04T19:15:19Z</time>
      </trkpt>
      <trkpt lat="41.074933" lon="-3.714767">
        <ele>1961.0</ele>
        <time>2013-06-04T19:15:20Z</time>
      </trkpt>
      <trkpt lat="41.075000" lon="-3.714683">
        <ele>1961.0</ele>
        <time>2013-06-04T19:15:21Z</time>
      </trkpt>
      <trkpt lat="41.075050" lon="-3.714600">
        <ele>1961.0</ele>
        <time>2013-06-04T19:15:22Z</time>
      </trkpt>
      <trkpt lat="41.075100" lon="-3.714517">
        <ele>1961.0</ele>
        <time>2013-06-04T19:15:23Z</time>
      </trkpt>
      <trkpt lat="41.075167" lon="-3.714433">
        <ele>1961.0</ele>
        <time>2013-06-04T19:15:24Z</time>
      </trkpt>
      <trkpt lat="41.075217" lon="-3.714350">
        <ele>1961.0</ele>
        <time>2013-06-04T19:15:25Z</time>
      </trkpt>
      <trkpt lat="41.075283" lon="-3.714267">
        <ele>1961.0</ele>
        <time>2013-06-04T19:15:26Z</time>
      </trkpt>
      <trkpt lat="41.075333" lon="-3.714183">
        <ele>1961.0</ele>
        <time>2013-06-04T19:15:27Z</time>
      </trkpt>
      <trkpt lat="41.075400" lon="-3.714100">
        <ele>1961.0</ele>
        <time>2013-06-04T19:15:28Z</time>
      </trkpt>
      <trkpt lat="41.075450" lon="-3.714017">
        <ele>1961.0</ele>
        <time>2013-06-04T19:15:29Z</time>
      </trkpt>
      <trkpt lat="41.075500" lon="-3.713950">
        <ele>1961.0</ele>
        <time>2013-06-04T19:15:30Z</time>
      </trkpt>
      <trkpt lat="41.075567" lon="-3.713883">
        <ele>1960.0</ele>
        <time>2013-06-04T19:15:31Z</time>
      </trkpt>
      <trkpt lat="41.075633" lon="-3.713817">
        <ele>1960.0</ele>
        <time>2013-06-04T19:15:32Z</time>
      </trkpt>
      <trkpt lat="41.075683" lon="-3.713750">
        <ele>1960.0</ele>
        <time>2013-06-04T19:15:33Z</time>
      </trkpt>
      <trkpt lat="41.075750" lon="-3.713700">
        <ele>1960.0</ele>
        <time>2013-06-04T19:15:34Z</time>
      </trkpt>
      <trkpt lat="41.075817" lon="-3.713633">
        <ele>1960.0</ele>
        <time>2013-06-04T19:15:35Z</time>
      </trkpt>
      <trkpt lat="41.075867" lon="-3.713583">
        <ele>1959.0</ele>
        <time>2013-06-04T19:15:36Z</time>
      </trkpt>
      <trkpt lat="41.075933" lon="-3.713517">
        <ele>1959.0</ele>
        <time>2013-06-04T19:15:37Z</time>
      </trkpt>
      <trkpt lat="41.076000" lon="-3.713450">
        <ele>1959.0</ele>
        <time>2013-06-04T19:15:38Z</time>
      </trkpt>
      <trkpt lat="41.076050" lon="-3.713400">
        <ele>1959.0</ele>
        <time>2013-06-04T19:15:39Z</time>
      </trkpt>
      <trkpt lat="41.076117" lon="-3.713333">
        <ele>1959.0</ele>
        <time>2013-06-04T19:15:40Z</time>
      </trkpt>
      <trkpt lat="41.076167" lon="-3.713267">
        <ele>1959.0</ele>
        <time>2013-06-04T19:15:41Z</time>
      </trkpt>
      <trkpt lat="41.076233" lon="-3.713200">
        <ele>1958.0</ele>
        <time>2013-06-04T19:15:42Z</time>
      </trkpt>
      <trkpt lat="41.076283" lon="-3.713117">
        <ele>1958.0</ele>
        <time>2013-06-04T19:15:43Z</time>
      </trkpt>
      <trkpt lat="41.076350" lon="-3.713050">
        <ele>1958.0</ele>
        <time>2013-06-04T19:15:44Z</time>
      </trkpt>
      <trkpt lat="41.076400" lon="-3.712967">
        <ele>1958.0</ele>
        <time>2013-06-04T19:15:45Z</time>
      </trkpt>
      <trkpt lat="41.076467" lon="-3.712867">
        <ele>1958.0</ele>
        <time>2013-06-04T19:15:46Z</time>
      </trkpt>
      <trkpt lat="41.076517" lon="-3.712783">
        <ele>1958.0</ele>
        <time>2013-06-04T19:15:47Z</time>
      </trkpt>
      <trkpt lat="41.076583" lon="-3.712683">
        <ele>1958.0</ele>
        <time>2013-06-04T19:15:48Z</time>
      </trkpt>
      <trkpt lat="41.076633" lon="-3.712600">
        <ele>1957.0</ele>
        <time>2013-06-04T19:15:49Z</time>
      </trkpt>
      <trkpt lat="41.076683" lon="-3.712500">
        <ele>1957.0</ele>
        <time>2013-06-04T19:15:50Z</time>
      </trkpt>
      <trkpt lat="41.076733" lon="-3.712400">
        <ele>1957.0</ele>
        <time>2013-06-04T19:15:51Z</time>
      </trkpt>
      <trkpt lat="41.076800" lon="-3.712300">
        <ele>1957.0</ele>
        <time>2013-06-04T19:15:52Z</time>
      </trkpt>
      <trkpt lat="41.076850" lon="-3.712183">
        <ele>1957.0</ele>
        <time>2013-06-04T19:15:53Z</time>
      </trkpt>
      <trkpt lat="41.076900" lon="-3.712083">
        <ele>1957.0</ele>
        <time>2013-06-04T19:15:54Z</time>
      </trkpt>
      <trkpt lat="41.076950" lon="-3.711967">
        <ele>1957.0</ele>
        <time>2013-06-04T19:15:55Z</time>
      </trkpt>
      <trkpt lat="41.076983" lon="-3.711850">
        <ele>1957.0</ele>
        <time>2013-06-04T19:15:56Z</time>
      </trkpt>
      <trkpt lat="41.077033" lon="-3.711717">
        <ele>1956.0</ele>
        <time>2013-06-04T19:15:57Z</time>
      </trkpt>
      <trkpt lat="41.077083" lon="-3.711600">
        <ele>1956.0</ele>
        <time>2013-06-04T19:15:58Z</time>
      </trkpt>
      <trkpt lat="41.077117" lon="-3.711467">
        <ele>1956.0</ele>
        <time>2013-06-04T19:15:59Z</time>
      </trkpt>
      <trkpt lat="41.077167" lon="-3.711350">
        <ele>1956.0</ele>
        <time>2013-06-04T19:16:00Z</time>
      </trkpt>
      <trkpt lat="41.077233" lon="-3.711233">
        <ele>1956.0</ele>
        <time>2013-06-04T19:16:01Z</time>
      </trkpt>
      <trkpt lat="41.077283" lon="-3.711133">
        <ele>1956.0</ele>
        <time>2013-06-04T19:16:02Z</time>
      </trkpt>
      <trkpt lat="41.077350" lon="-3.711033">
        <ele>1956.0</ele>
        <time>2013-06-04T19:16:03Z</time>
      </trkpt>
      <trkpt lat="41.077400" lon="-3.710950">
        <ele>1956.0</ele>
        <time>2013-06-04T19:16:04Z</time>
      </trkpt>
      <trkpt lat="41.077467" lon="-3.710867">
        <ele>1956.0</ele>
        <time>2013-06-04T19:16:05Z</time>
      </trkpt>
      <trkpt lat="41.077533" lon="-3.710783">
        <ele>1956.0</ele>
        <time>2013-06-04T19:16:06Z</time>
      </trkpt>
      <trkpt lat="41.077583" lon="-3.710717">
        <ele>1956.0</ele>
        <time>2013-06-04T19:16:07Z</time>
      </trkpt>
      <trkpt lat="41.077650" lon="-3.710650">
        <ele>1956.0</ele>
        <time>2013-06-04T19:16:08Z</time>
      </trkpt>
      <trkpt lat="41.077717" lon="-3.710617">
        <ele>1955.0</ele>
        <time>2013-06-04T19:16:09Z</time>
      </trkpt>
      <trkpt lat="41.077783" lon="-3.710600">
        <ele>1955.0</ele>
        <time>2013-06-04T19:16:10Z</time>
      </trkpt>
      <trkpt lat="41.077833" lon="-3.710617">
        <ele>1954.0</ele>
        <time>2013-06-04T19:16:11Z</time>
      </trkpt>
      <trkpt lat="41.077850" lon="-3.710650">
        <ele>1954.0</ele>
        <time>2013-06-04T19:16:12Z</time>
      </trkpt>
      <trkpt lat="41.077867" lon="-3.710717">
        <ele>1954.0</ele>
        <time>2013-06-04T19:16:13Z</time>
      </trkpt>
      <trkpt lat="41.077867" lon="-3.710767">
        <ele>1954.0</ele>
        <time>2013-06-04T19:16:14Z</time>
      </trkpt>
      <trkpt lat="41.077850" lon="-3.710833">
        <ele>1954.0</ele>
        <time>2013-06-04T19:16:15Z</time>
      </trkpt>
      <trkpt lat="41.077817" lon="-3.710883">
        <ele>1954.0</ele>
        <time>2013-06-04T19:16:16Z</time>
      </trkpt>
      <trkpt lat="41.077783" lon="-3.710933">
        <ele>1954.0</ele>
        <time>2013-06-04T19:16:17Z</time>
      </trkpt>
      <trkpt lat="41.077767" lon="-3.711000">
        <ele>1953.0</ele>
        <time>2013-06-04T19:16:18Z</time>
      </trkpt>
      <trkpt lat="41.077750" lon="-3.711067">
        <ele>1953.0</ele>
        <time>2013-06-04T19:16:19Z</time>
      </trkpt>
      <trkpt lat="41.077750" lon="-3.711133">
        <ele>1952.0</ele>
        <time>2013-06-04T19:16:20Z</time>
      </trkpt>
      <trkpt lat="41.077750" lon="-3.711183">
        <ele>1952.0</ele>
        <time>2013-06-04T19:16:21Z</time>
      </trkpt>
      <trkpt lat="41.077750" lon="-3.711250">
        <ele>1953.0</ele>
        <time>2013-06-04T19:16:22Z</time>
      </trkpt>
      <trkpt lat="41.077767" lon="-3.711283">
        <ele>1953.0</ele>
        <time>2013-06-04T19:16:23Z</time>
      </trkpt>
      <trkpt lat="41.077767" lon="-3.711333">
        <ele>1954.0</ele>
        <time>2013-06-04T19:16:24Z</time>
      </trkpt>
      <trkpt lat="41.077783" lon="-3.711383">
        <ele>1953.0</ele>
        <time>2013-06-04T19:16:25Z</time>
      </trkpt>
      <trkpt lat="41.077783" lon="-3.711433">
        <ele>1953.0</ele>
        <time>2013-06-04T19:16:26Z</time>
      </trkpt>
      <trkpt lat="41.077800" lon="-3.711483">
        <ele>1952.0</ele>
        <time>2013-06-04T19:16:27Z</time>
      </trkpt>
      <trkpt lat="41.077800" lon="-3.711550">
        <ele>1952.0</ele>
        <time>2013-06-04T19:16:28Z</time>
      </trkpt>
      <trkpt lat="41.077783" lon="-3.711600">
        <ele>1952.0</ele>
        <time>2013-06-04T19:16:29Z</time>
      </trkpt>
      <trkpt lat="41.077750" lon="-3.711667">
        <ele>1951.0</ele>
        <time>2013-06-04T19:16:30Z</time>
      </trkpt>
      <trkpt lat="41.077717" lon="-3.711717">
        <ele>1951.0</ele>
        <time>2013-06-04T19:16:31Z</time>
      </trkpt>
      <trkpt lat="41.077667" lon="-3.711783">
        <ele>1951.0</ele>
        <time>2013-06-04T19:16:32Z</time>
      </trkpt>
      <trkpt lat="41.077617" lon="-3.711833">
        <ele>1951.0</ele>
        <time>2013-06-04T19:16:33Z</time>
      </trkpt>
      <trkpt lat="41.077567" lon="-3.711883">
        <ele>1951.0</ele>
        <time>2013-06-04T19:16:34Z</time>
      </trkpt>
      <trkpt lat="41.077500" lon="-3.711933">
        <ele>1951.0</ele>
        <time>2013-06-04T19:16:35Z</time>
      </trkpt>
      <trkpt lat="41.077450" lon="-3.711983">
        <ele>1951.0</ele>
        <time>2013-06-04T19:16:36Z</time>
      </trkpt>
      <trkpt lat="41.077383" lon="-3.712033">
        <ele>1950.0</ele>
        <time>2013-06-04T19:16:37Z</time>
      </trkpt>
      <trkpt lat="41.077333" lon="-3.712083">
        <ele>1950.0</ele>
        <time>2013-06-04T19:16:38Z</time>
      </trkpt>
      <trkpt lat="41.077267" lon="-3.712117">
        <ele>1950.0</ele>
        <time>2013-06-04T19:16:39Z</time>
      </trkpt>
      <trkpt lat="41.077200" lon="-3.712167">
        <ele>1950.0</ele>
        <time>2013-06-04T19:16:40Z</time>
      </trkpt>
      <trkpt lat="41.077133" lon="-3.712200">
        <ele>1950.0</ele>
        <time>2013-06-04T19:16:41Z</time>
      </trkpt>
      <trkpt lat="41.077067" lon="-3.712250">
        <ele>1950.0</ele>
        <time>2013-06-04T19:16:42Z</time>
      </trkpt>
      <trkpt lat="41.077000" lon="-3.712300">
        <ele>1949.0</ele>
        <time>2013-06-04T19:16:43Z</time>
      </trkpt>
      <trkpt lat="41.076933" lon="-3.712333">
        <ele>1949.0</ele>
        <time>2013-06-04T19:16:44Z</time>
      </trkpt>
      <trkpt lat="41.076867" lon="-3.712383">
        <ele>1949.0</ele>
        <time>2013-06-04T19:16:45Z</time>
      </trkpt>
      <trkpt lat="41.076800" lon="-3.712417">
        <ele>1949.0</ele>
        <time>2013-06-04T19:16:46Z</time>
      </trkpt>
      <trkpt lat="41.076733" lon="-3.712467">
        <ele>1949.0</ele>
        <time>2013-06-04T19:16:47Z</time>
      </trkpt>
      <trkpt lat="41.076683" lon="-3.712517">
        <ele>1949.0</ele>
        <time>2013-06-04T19:16:48Z</time>
      </trkpt>
      <trkpt lat="41.076617" lon="-3.712567">
        <ele>1949.0</ele>
        <time>2013-06-04T19:16:49Z</time>
      </trkpt>
      <trkpt lat="41.076583" lon="-3.712633">
        <ele>1948.0</ele>
        <time>2013-06-04T19:16:50Z</time>
      </trkpt>
      <trkpt lat="41.076533" lon="-3.712683">
        <ele>1948.0</ele>
        <time>2013-06-04T19:16:51Z</time>
      </trkpt>
      <trkpt lat="41.076483" lon="-3.712750">
        <ele>1948.0</ele>
        <time>2013-06-04T19:16:52Z</time>
      </trkpt>
      <trkpt lat="41.076450" lon="-3.712800">
        <ele>1948.0</ele>
        <time>2013-06-04T19:16:53Z</time>
      </trkpt>
      <trkpt lat="41.076400" lon="-3.712850">
        <ele>1948.0</ele>
        <time>2013-06-04T19:16:54Z</time>
      </trkpt>
      <trkpt lat="41.076350" lon="-3.712900">
        <ele>1947.0</ele>
        <time>2013-06-04T19:16:55Z</time>
      </trkpt>
      <trkpt lat="41.076300" lon="-3.712950">
        <ele>1947.0</ele>
        <time>2013-06-04T19:16:56Z</time>
      </trkpt>
      <trkpt lat="41.076267" lon="-3.713017">
        <ele>1947.0</ele>
        <time>2013-06-04T19:16:57Z</time>
      </trkpt>
      <trkpt lat="41.076217" lon="-3.713067">
        <ele>1947.0</ele>
        <time>2013-06-04T19:16:58Z</time>
      </trkpt>
      <trkpt lat="41.076183" lon="-3.713133">
        <ele>1947.0</ele>
        <time>2013-06-04T19:16:59Z</time>
      </trkpt>
      <trkpt lat="41.076133" lon="-3.713183">
        <ele>1947.0</ele>
        <time>2013-06-04T19:17:00Z</time>
      </trkpt>
      <trkpt lat="41.076083" lon="-3.713233">
        <ele>1947.0</ele>
        <time>2013-06-04T19:17:01Z</time>
      </trkpt>
      <trkpt lat="41.076050" lon="-3.713300">
        <ele>1946.0</ele>
        <time>2013-06-04T19:17:02Z</time>
      </trkpt>
      <trkpt lat="41.076017" lon="-3.713367">
        <ele>1947.0</ele>
        <time>2013-06-04T19:17:03Z</time>
      </trkpt>
      <trkpt lat="41.075983" lon="-3.713417">
        <ele>1947.0</ele>
        <time>2013-06-04T19:17:04Z</time>
      </trkpt>
      <trkpt lat="41.075933" lon="-3.713483">
        <ele>1947.0</ele>
        <time>2013-06-04T19:17:05Z</time>
      </trkpt>
      <trkpt lat="41.075900" lon="-3.713533">
        <ele>1947.0</ele>
        <time>2013-06-04T19:17:06Z</time>
      </trkpt>
      <trkpt lat="41.075850" lon="-3.713583">
        <ele>1947.0</ele>
        <time>2013-06-04T19:17:07Z</time>
      </trkpt>
      <trkpt lat="41.075817" lon="-3.713650">
        <ele>1947.0</ele>
        <time>2013-06-04T19:17:08Z</time>
      </trkpt>
      <trkpt lat="41.075767" lon="-3.713700">
        <ele>1947.0</ele>
        <time>2013-06-04T19:17:09Z</time>
      </trkpt>
      <trkpt lat="41.075733" lon="-3.713767">
        <ele>1947.0</ele>
        <time>2013-06-04T19:17:10Z</time>
      </trkpt>
      <trkpt lat="41.075683" lon="-3.713817">
        <ele>1947.0</ele>
        <time>2013-06-04T19:17:11Z</time>
      </trkpt>
      <trkpt lat="41.075633" lon="-3.713867">
        <ele>1948.0</ele>
        <time>2013-06-04T19:17:12Z</time>
      </trkpt>
      <trkpt lat="41.075583" lon="-3.713933">
        <ele>1948.0</ele>
        <time>2013-06-04T19:17:13Z</time>
      </trkpt>
      <trkpt lat="41.075550" lon="-3.713983">
        <ele>1948.0</ele>
        <time>2013-06-04T19:17:14Z</time>
      </trkpt>
      <trkpt lat="41.075500" lon="-3.714033">
        <ele>1948.0</ele>
        <time>2013-06-04T19:17:15Z</time>
      </trkpt>
      <trkpt lat="41.075450" lon="-3.714100">
        <ele>1948.0</ele>
        <time>2013-06-04T19:17:16Z</time>
      </trkpt>
      <trkpt lat="41.075400" lon="-3.714150">
        <ele>1948.0</ele>
        <time>2013-06-04T19:17:17Z</time>
      </trkpt>
      <trkpt lat="41.075350" lon="-3.714200">
        <ele>1948.0</ele>
        <time>2013-06-04T19:17:18Z</time>
      </trkpt>
      <trkpt lat="41.075317" lon="-3.714250">
        <ele>1948.0</ele>
        <time>2013-06-04T19:17:19Z</time>
      </trkpt>
      <trkpt lat="41.075267" lon="-3.714317">
        <ele>1948.0</ele>
        <time>2013-06-04T19:17:20Z</time>
      </trkpt>
      <trkpt lat="41.075217" lon="-3.714367">
        <ele>1948.0</ele>
        <time>2013-06-04T19:17:21Z</time>
      </trkpt>
      <trkpt lat="41.075167" lon="-3.714417">
        <ele>1948.0</ele>
        <time>2013-06-04T19:17:22Z</time>
      </trkpt>
      <trkpt lat="41.075117" lon="-3.714467">
        <ele>1948.0</ele>
        <time>2013-06-04T19:17:23Z</time>
      </trkpt>
      <trkpt lat="41.075067" lon="-3.714517">
        <ele>1948.0</ele>
        <time>2013-06-04T19:17:24Z</time>
      </trkpt>
      <trkpt lat="41.075017" lon="-3.714567">
        <ele>1947.0</ele>
        <time>2013-06-04T19:17:25Z</time>
      </trkpt>
      <trkpt lat="41.074950" lon="-3.714633">
        <ele>1947.0</ele>
        <time>2013-06-04T19:17:26Z</time>
      </trkpt>
      <trkpt lat="41.074900" lon="-3.714683">
        <ele>1947.0</ele>
        <time>2013-06-04T19:17:27Z</time>
      </trkpt>
      <trkpt lat="41.074850" lon="-3.714733">
        <ele>1947.0</ele>
        <time>2013-06-04T19:17:28Z</time>
      </trkpt>
      <trkpt lat="41.074800" lon="-3.714783">
        <ele>1947.0</ele>
        <time>2013-06-04T19:17:29Z</time>
      </trkpt>
      <trkpt lat="41.074733" lon="-3.714833">
        <ele>1947.0</ele>
        <time>2013-06-04T19:17:30Z</time>
      </trkpt>
      <trkpt lat="41.074683" lon="-3.714883">
        <ele>1947.0</ele>
        <time>2013-06-04T19:17:31Z</time>
      </trkpt>
      <trkpt lat="41.074633" lon="-3.714933">
        <ele>1947.0</ele>
        <time>2013-06-04T19:17:32Z</time>
      </trkpt>
      <trkpt lat="41.074583" lon="-3.714983">
        <ele>1947.0</ele>
        <time>2013-06-04T19:17:33Z</time>
      </trkpt>
      <trkpt lat="41.074533" lon="-3.715050">
        <ele>1947.0</ele>
        <time>2013-06-04T19:17:34Z</time>
      </trkpt>
      <trkpt lat="41.074483" lon="-3.715100">
        <ele>1947.0</ele>
        <time>2013-06-04T19:17:35Z</time>
      </trkpt>
      <trkpt lat="41.074433" lon="-3.715150">
        <ele>1947.0</ele>
        <time>2013-06-04T19:17:36Z</time>
      </trkpt>
      <trkpt lat="41.074383" lon="-3.715200">
        <ele>1947.0</ele>
        <time>2013-06-04T19:17:37Z</time>
      </trkpt>
      <trkpt lat="41.074333" lon="-3.715250">
        <ele>1946.0</ele>
        <time>2013-06-04T19:17:38Z</time>
      </trkpt>
      <trkpt lat="41.074283" lon="-3.715317">
        <ele>1946.0</ele>
        <time>2013-06-04T19:17:39Z</time>
      </trkpt>
      <trkpt lat="41.074250" lon="-3.715367">
        <ele>1946.0</ele>
        <time>2013-06-04T19:17:40Z</time>
      </trkpt>
      <trkpt lat="41.074200" lon="-3.715417">
        <ele>1946.0</ele>
        <time>2013-06-04T19:17:41Z</time>
      </trkpt>
      <trkpt lat="41.074150" lon="-3.715467">
        <ele>1946.0</ele>
        <time>2013-06-04T19:17:42Z</time>
      </trkpt>
      <trkpt lat="41.074100" lon="-3.715533">
        <ele>1946.0</ele>
        <time>2013-06-04T19:17:43Z</time>
      </trkpt>
      <trkpt lat="41.074067" lon="-3.715583">
        <ele>1946.0</ele>
        <time>2013-06-04T19:17:44Z</time>
      </trkpt>
      <trkpt lat="41.074017" lon="-3.715633">
        <ele>1946.0</ele>
        <time>2013-06-04T19:17:45Z</time>
      </trkpt>
      <trkpt lat="41.073967" lon="-3.715700">
        <ele>1945.0</ele>
        <time>2013-06-04T19:17:46Z</time>
      </trkpt>
      <trkpt lat="41.073917" lon="-3.715750">
        <ele>1945.0</ele>
        <time>2013-06-04T19:17:47Z</time>
      </trkpt>
      <trkpt lat="41.073883" lon="-3.715817">
        <ele>1946.0</ele>
        <time>2013-06-04T19:17:48Z</time>
      </trkpt>
      <trkpt lat="41.073833" lon="-3.715867">
        <ele>1946.0</ele>
        <time>2013-06-04T19:17:49Z</time>
      </trkpt>
      <trkpt lat="41.073783" lon="-3.715917">
        <ele>1946.0</ele>
        <time>2013-06-04T19:17:50Z</time>
      </trkpt>
      <trkpt lat="41.073750" lon="-3.715967">
        <ele>1946.0</ele>
        <time>2013-06-04T19:17:51Z</time>
      </trkpt>
      <trkpt lat="41.073700" lon="-3.716033">
        <ele>1945.0</ele>
        <time>2013-06-04T19:17:52Z</time>
      </trkpt>
      <trkpt lat="41.073650" lon="-3.716083">
        <ele>1945.0</ele>
        <time>2013-06-04T19:17:53Z</time>
      </trkpt>
      <trkpt lat="41.073600" lon="-3.716133">
        <ele>1945.0</ele>
        <time>2013-06-04T19:17:54Z</time>
      </trkpt>
      <trkpt lat="41.073550" lon="-3.716183">
        <ele>1945.0</ele>
        <time>2013-06-04T19:17:55Z</time>
      </trkpt>
      <trkpt lat="41.073517" lon="-3.716250">
        <ele>1945.0</ele>
        <time>2013-06-04T19:17:56Z</time>
      </trkpt>
      <trkpt lat="41.073483" lon="-3.716300">
        <ele>1945.0</ele>
        <time>2013-06-04T19:17:57Z</time>
      </trkpt>
      <trkpt lat="41.073450" lon="-3.716367">
        <ele>1945.0</ele>
        <time>2013-06-04T19:17:58Z</time>
      </trkpt>
      <trkpt lat="41.073417" lon="-3.716417">
        <ele>1945.0</ele>
        <time>2013-06-04T19:17:59Z</time>
      </trkpt>
      <trkpt lat="41.073383" lon="-3.716483">
        <ele>1945.0</ele>
        <time>2013-06-04T19:18:00Z</time>
      </trkpt>
      <trkpt lat="41.073350" lon="-3.716533">
        <ele>1945.0</ele>
        <time>2013-06-04T19:18:01Z</time>
      </trkpt>
      <trkpt lat="41.073300" lon="-3.716583">
        <ele>1945.0</ele>
        <time>2013-06-04T19:18:02Z</time>
      </trkpt>
      <trkpt lat="41.073267" lon="-3.716650">
        <ele>1944.0</ele>
        <time>2013-06-04T19:18:03Z</time>
      </trkpt>
      <trkpt lat="41.073233" lon="-3.716700">
        <ele>1944.0</ele>
        <time>2013-06-04T19:18:04Z</time>
      </trkpt>
      <trkpt lat="41.073200" lon="-3.716767">
        <ele>1944.0</ele>
        <time>2013-06-04T19:18:05Z</time>
      </trkpt>
      <trkpt lat="41.073150" lon="-3.716817">
        <ele>1944.0</ele>
        <time>2013-06-04T19:18:06Z</time>
      </trkpt>
      <trkpt lat="41.073117" lon="-3.716867">
        <ele>1943.0</ele>
        <time>2013-06-04T19:18:07Z</time>
      </trkpt>
      <trkpt lat="41.073067" lon="-3.716917">
        <ele>1943.0</ele>
        <time>2013-06-04T19:18:08Z</time>
      </trkpt>
      <trkpt lat="41.073017" lon="-3.716983">
        <ele>1943.0</ele>
        <time>2013-06-04T19:18:09Z</time>
      </trkpt>
      <trkpt lat="41.072967" lon="-3.717033">
        <ele>1942.0</ele>
        <time>2013-06-04T19:18:10Z</time>
      </trkpt>
      <trkpt lat="41.072917" lon="-3.717083">
        <ele>1942.0</ele>
        <time>2013-06-04T19:18:11Z</time>
      </trkpt>
      <trkpt lat="41.072867" lon="-3.717133">
        <ele>1942.0</ele>
        <time>2013-06-04T19:18:12Z</time>
      </trkpt>
      <trkpt lat="41.072817" lon="-3.717183">
        <ele>1942.0</ele>
        <time>2013-06-04T19:18:13Z</time>
      </trkpt>
      <trkpt lat="41.072767" lon="-3.717233">
        <ele>1942.0</ele>
        <time>2013-06-04T19:18:14Z</time>
      </trkpt>
      <trkpt lat="41.072700" lon="-3.717267">
        <ele>1942.0</ele>
        <time>2013-06-04T19:18:15Z</time>
      </trkpt>
      <trkpt lat="41.072633" lon="-3.717317">
        <ele>1942.0</ele>
        <time>2013-06-04T19:18:16Z</time>
      </trkpt>
      <trkpt lat="41.072583" lon="-3.717367">
        <ele>1941.0</ele>
        <time>2013-06-04T19:18:17Z</time>
      </trkpt>
      <trkpt lat="41.072517" lon="-3.717417">
        <ele>1941.0</ele>
        <time>2013-06-04T19:18:18Z</time>
      </trkpt>
      <trkpt lat="41.072467" lon="-3.717467">
        <ele>1941.0</ele>
        <time>2013-06-04T19:18:19Z</time>
      </trkpt>
      <trkpt lat="41.072400" lon="-3.717500">
        <ele>1941.0</ele>
        <time>2013-06-04T19:18:20Z</time>
      </trkpt>
      <trkpt lat="41.072333" lon="-3.717550">
        <ele>1941.0</ele>
        <time>2013-06-04T19:18:21Z</time>
      </trkpt>
      <trkpt lat="41.072267" lon="-3.717583">
        <ele>1940.0</ele>
        <time>2013-06-04T19:18:22Z</time>
      </trkpt>
      <trkpt lat="41.072200" lon="-3.717633">
        <ele>1940.0</ele>
        <time>2013-06-04T19:18:23Z</time>
      </trkpt>
      <trkpt lat="41.072133" lon="-3.717667">
        <ele>1940.0</ele>
        <time>2013-06-04T19:18:24Z</time>
      </trkpt>
      <trkpt lat="41.072067" lon="-3.717717">
        <ele>1940.0</ele>
        <time>2013-06-04T19:18:25Z</time>
      </trkpt>
      <trkpt lat="41.072000" lon="-3.717750">
        <ele>1940.0</ele>
        <time>2013-06-04T19:18:26Z</time>
      </trkpt>
      <trkpt lat="41.071933" lon="-3.717783">
        <ele>1939.0</ele>
        <time>2013-06-04T19:18:27Z</time>
      </trkpt>
      <trkpt lat="41.071850" lon="-3.717833">
        <ele>1939.0</ele>
        <time>2013-06-04T19:18:28Z</time>
      </trkpt>
      <trkpt lat="41.071783" lon="-3.717867">
        <ele>1939.0</ele>
        <time>2013-06-04T19:18:29Z</time>
      </trkpt>
      <trkpt lat="41.071700" lon="-3.717917">
        <ele>1939.0</ele>
        <time>2013-06-04T19:18:30Z</time>
      </trkpt>
      <trkpt lat="41.071633" lon="-3.717950">
        <ele>1939.0</ele>
        <time>2013-06-04T19:18:31Z</time>
      </trkpt>
      <trkpt lat="41.071567" lon="-3.718000">
        <ele>1939.0</ele>
        <time>2013-06-04T19:18:32Z</time>
      </trkpt>
      <trkpt lat="41.071500" lon="-3.718033">
        <ele>1939.0</ele>
        <time>2013-06-04T19:18:33Z</time>
      </trkpt>
      <trkpt lat="41.071433" lon="-3.718067">
        <ele>1939.0</ele>
        <time>2013-06-04T19:18:34Z</time>
      </trkpt>
      <trkpt lat="41.071367" lon="-3.718100">
        <ele>1939.0</ele>
        <time>2013-06-04T19:18:35Z</time>
      </trkpt>
      <trkpt lat="41.071300" lon="-3.718150">
        <ele>1939.0</ele>
        <time>2013-06-04T19:18:36Z</time>
      </trkpt>
      <trkpt lat="41.071233" lon="-3.718183">
        <ele>1938.0</ele>
        <time>2013-06-04T19:18:37Z</time>
      </trkpt>
      <trkpt lat="41.071167" lon="-3.718233">
        <ele>1938.0</ele>
        <time>2013-06-04T19:18:38Z</time>
      </trkpt>
      <trkpt lat="41.071100" lon="-3.718283">
        <ele>1938.0</ele>
        <time>2013-06-04T19:18:39Z</time>
      </trkpt>
      <trkpt lat="41.071033" lon="-3.718317">
        <ele>1938.0</ele>
        <time>2013-06-04T19:18:40Z</time>
      </trkpt>
      <trkpt lat="41.070967" lon="-3.718367">
        <ele>1938.0</ele>
        <time>2013-06-04T19:18:41Z</time>
      </trkpt>
      <trkpt lat="41.070917" lon="-3.718400">
        <ele>1938.0</ele>
        <time>2013-06-04T19:18:42Z</time>
      </trkpt>
      <trkpt lat="41.070867" lon="-3.718450">
        <ele>1938.0</ele>
        <time>2013-06-04T19:18:43Z</time>
      </trkpt>
      <trkpt lat="41.070800" lon="-3.718500">
        <ele>1938.0</ele>
        <time>2013-06-04T19:18:44Z</time>
      </trkpt>
      <trkpt lat="41.070750" lon="-3.718550">
        <ele>1939.0</ele>
        <time>2013-06-04T19:18:45Z</time>
      </trkpt>
      <trkpt lat="41.070683" lon="-3.718600">
        <ele>1939.0</ele>
        <time>2013-06-04T19:18:46Z</time>
      </trkpt>
      <trkpt lat="41.070633" lon="-3.718633">
        <ele>1939.0</ele>
        <time>2013-06-04T19:18:47Z</time>
      </trkpt>
      <trkpt lat="41.070567" lon="-3.718683">
        <ele>1939.0</ele>
        <time>2013-06-04T19:18:48Z</time>
      </trkpt>
      <trkpt lat="41.070517" lon="-3.718717">
        <ele>1939.0</ele>
        <time>2013-06-04T19:18:49Z</time>
      </trkpt>
      <trkpt lat="41.070450" lon="-3.718767">
        <ele>1939.0</ele>
        <time>2013-06-04T19:18:50Z</time>
      </trkpt>
      <trkpt lat="41.070383" lon="-3.718800">
        <ele>1938.0</ele>
        <time>2013-06-04T19:18:51Z</time>
      </trkpt>
      <trkpt lat="41.070333" lon="-3.718850">
        <ele>1938.0</ele>
        <time>2013-06-04T19:18:52Z</time>
      </trkpt>
      <trkpt lat="41.070267" lon="-3.718900">
        <ele>1939.0</ele>
        <time>2013-06-04T19:18:53Z</time>
      </trkpt>
      <trkpt lat="41.070217" lon="-3.718950">
        <ele>1939.0</ele>
        <time>2013-06-04T19:18:54Z</time>
      </trkpt>
      <trkpt lat="41.070150" lon="-3.718983">
        <ele>1939.0</ele>
        <time>2013-06-04T19:18:55Z</time>
      </trkpt>
      <trkpt lat="41.070100" lon="-3.719033">
        <ele>1939.0</ele>
        <time>2013-06-04T19:18:56Z</time>
      </trkpt>
      <trkpt lat="41.070050" lon="-3.719083">
        <ele>1940.0</ele>
        <time>2013-06-04T19:18:57Z</time>
      </trkpt>
      <trkpt lat="41.069983" lon="-3.719117">
        <ele>1940.0</ele>
        <time>2013-06-04T19:18:58Z</time>
      </trkpt>
      <trkpt lat="41.069933" lon="-3.719167">
        <ele>1940.0</ele>
        <time>2013-06-04T19:18:59Z</time>
      </trkpt>
      <trkpt lat="41.069883" lon="-3.719217">
        <ele>1940.0</ele>
        <time>2013-06-04T19:19:00Z</time>
      </trkpt>
      <trkpt lat="41.069833" lon="-3.719267">
        <ele>1940.0</ele>
        <time>2013-06-04T19:19:01Z</time>
      </trkpt>
      <trkpt lat="41.069783" lon="-3.719300">
        <ele>1941.0</ele>
        <time>2013-06-04T19:19:02Z</time>
      </trkpt>
      <trkpt lat="41.069733" lon="-3.719350">
        <ele>1941.0</ele>
        <time>2013-06-04T19:19:03Z</time>
      </trkpt>
      <trkpt lat="41.069700" lon="-3.719400">
        <ele>1941.0</ele>
        <time>2013-06-04T19:19:04Z</time>
      </trkpt>
      <trkpt lat="41.069650" lon="-3.719433">
        <ele>1941.0</ele>
        <time>2013-06-04T19:19:05Z</time>
      </trkpt>
      <trkpt lat="41.069600" lon="-3.719483">
        <ele>1941.0</ele>
        <time>2013-06-04T19:19:06Z</time>
      </trkpt>
      <trkpt lat="41.069567" lon="-3.719533">
        <ele>1941.0</ele>
        <time>2013-06-04T19:19:07Z</time>
      </trkpt>
      <trkpt lat="41.069517" lon="-3.719583">
        <ele>1942.0</ele>
        <time>2013-06-04T19:19:08Z</time>
      </trkpt>
      <trkpt lat="41.069483" lon="-3.719633">
        <ele>1942.0</ele>
        <time>2013-06-04T19:19:09Z</time>
      </trkpt>
      <trkpt lat="41.069433" lon="-3.719683">
        <ele>1942.0</ele>
        <time>2013-06-04T19:19:10Z</time>
      </trkpt>
      <trkpt lat="41.069400" lon="-3.719717">
        <ele>1943.0</ele>
        <time>2013-06-04T19:19:11Z</time>
      </trkpt>
      <trkpt lat="41.069367" lon="-3.719767">
        <ele>1943.0</ele>
        <time>2013-06-04T19:19:12Z</time>
      </trkpt>
      <trkpt lat="41.069317" lon="-3.719817">
        <ele>1943.0</ele>
        <time>2013-06-04T19:19:13Z</time>
      </trkpt>
      <trkpt lat="41.069283" lon="-3.719867">
        <ele>1944.0</ele>
        <time>2013-06-04T19:19:14Z</time>
      </trkpt>
      <trkpt lat="41.069233" lon="-3.719917">
        <ele>1944.0</ele>
        <time>2013-06-04T19:19:15Z</time>
      </trkpt>
      <trkpt lat="41.069200" lon="-3.719967">
        <ele>1945.0</ele>
        <time>2013-06-04T19:19:16Z</time>
      </trkpt>
      <trkpt lat="41.069167" lon="-3.720017">
        <ele>1945.0</ele>
        <time>2013-06-04T19:19:17Z</time>
      </trkpt>
      <trkpt lat="41.069133" lon="-3.720067">
        <ele>1945.0</ele>
        <time>2013-06-04T19:19:18Z</time>
      </trkpt>
      <trkpt lat="41.069083" lon="-3.720100">
        <ele>1945.0</ele>
        <time>2013-06-04T19:19:19Z</time>
      </trkpt>
      <trkpt lat="41.069067" lon="-3.720150">
        <ele>1946.0</ele>
        <time>2013-06-04T19:19:20Z</time>
      </trkpt>
      <trkpt lat="41.069033" lon="-3.720200">
        <ele>1946.0</ele>
        <time>2013-06-04T19:19:21Z</time>
      </trkpt>
      <trkpt lat="41.068983" lon="-3.720250">
        <ele>1946.0</ele>
        <time>2013-06-04T19:19:22Z</time>
      </trkpt>
      <trkpt lat="41.068967" lon="-3.720300">
        <ele>1946.0</ele>
        <time>2013-06-04T19:19:23Z</time>
      </trkpt>
      <trkpt lat="41.068917" lon="-3.720333">
        <ele>1946.0</ele>
        <time>2013-06-04T19:19:24Z</time>
      </trkpt>
      <trkpt lat="41.068883" lon="-3.720383">
        <ele>1946.0</ele>
        <time>2013-06-04T19:19:25Z</time>
      </trkpt>
      <trkpt lat="41.068850" lon="-3.720433">
        <ele>1946.0</ele>
        <time>2013-06-04T19:19:26Z</time>
      </trkpt>
      <trkpt lat="41.068817" lon="-3.720500">
        <ele>1946.0</ele>
        <time>2013-06-04T19:19:27Z</time>
      </trkpt>
      <trkpt lat="41.068767" lon="-3.720533">
        <ele>1946.0</ele>
        <time>2013-06-04T19:19:28Z</time>
      </trkpt>
      <trkpt lat="41.068733" lon="-3.720583">
        <ele>1946.0</ele>
        <time>2013-06-04T19:19:29Z</time>
      </trkpt>
      <trkpt lat="41.068700" lon="-3.720633">
        <ele>1946.0</ele>
        <time>2013-06-04T19:19:30Z</time>
      </trkpt>
      <trkpt lat="41.068650" lon="-3.720683">
        <ele>1946.0</ele>
        <time>2013-06-04T19:19:31Z</time>
      </trkpt>
      <trkpt lat="41.068617" lon="-3.720733">
        <ele>1946.0</ele>
        <time>2013-06-04T19:19:32Z</time>
      </trkpt>
      <trkpt lat="41.068583" lon="-3.720783">
        <ele>1946.0</ele>
        <time>2013-06-04T19:19:33Z</time>
      </trkpt>
      <trkpt lat="41.068533" lon="-3.720833">
        <ele>1946.0</ele>
        <time>2013-06-04T19:19:34Z</time>
      </trkpt>
      <trkpt lat="41.068500" lon="-3.720883">
        <ele>1947.0</ele>
        <time>2013-06-04T19:19:35Z</time>
      </trkpt>
      <trkpt lat="41.068467" lon="-3.720933">
        <ele>1947.0</ele>
        <time>2013-06-04T19:19:36Z</time>
      </trkpt>
      <trkpt lat="41.068417" lon="-3.720967">
        <ele>1948.0</ele>
        <time>2013-06-04T19:19:37Z</time>
      </trkpt>
      <trkpt lat="41.068383" lon="-3.721017">
        <ele>1948.0</ele>
        <time>2013-06-04T19:19:38Z</time>
      </trkpt>
      <trkpt lat="41.068333" lon="-3.721067">
        <ele>1948.0</ele>
        <time>2013-06-04T19:19:39Z</time>
      </trkpt>
      <trkpt lat="41.068300" lon="-3.721117">
        <ele>1948.0</ele>
        <time>2013-06-04T19:19:40Z</time>
      </trkpt>
      <trkpt lat="41.068250" lon="-3.721167">
        <ele>1949.0</ele>
        <time>2013-06-04T19:19:41Z</time>
      </trkpt>
      <trkpt lat="41.068217" lon="-3.721200">
        <ele>1949.0</ele>
        <time>2013-06-04T19:19:42Z</time>
      </trkpt>
      <trkpt lat="41.068167" lon="-3.721250">
        <ele>1949.0</ele>
        <time>2013-06-04T19:19:43Z</time>
      </trkpt>
      <trkpt lat="41.068117" lon="-3.721300">
        <ele>1950.0</ele>
        <time>2013-06-04T19:19:44Z</time>
      </trkpt>
      <trkpt lat="41.068083" lon="-3.721350">
        <ele>1950.0</ele>
        <time>2013-06-04T19:19:45Z</time>
      </trkpt>
      <trkpt lat="41.068033" lon="-3.721400">
        <ele>1950.0</ele>
        <time>2013-06-04T19:19:46Z</time>
      </trkpt>
      <trkpt lat="41.067983" lon="-3.721450">
        <ele>1951.0</ele>
        <time>2013-06-04T19:19:47Z</time>
      </trkpt>
      <trkpt lat="41.067933" lon="-3.721483">
        <ele>1951.0</ele>
        <time>2013-06-04T19:19:48Z</time>
      </trkpt>
      <trkpt lat="41.067883" lon="-3.721533">
        <ele>1952.0</ele>
        <time>2013-06-04T19:19:49Z</time>
      </trkpt>
      <trkpt lat="41.067833" lon="-3.721583">
        <ele>1952.0</ele>
        <time>2013-06-04T19:19:50Z</time>
      </trkpt>
      <trkpt lat="41.067783" lon="-3.721633">
        <ele>1953.0</ele>
        <time>2013-06-04T19:19:51Z</time>
      </trkpt>
      <trkpt lat="41.067733" lon="-3.721683">
        <ele>1953.0</ele>
        <time>2013-06-04T19:19:52Z</time>
      </trkpt>
      <trkpt lat="41.067683" lon="-3.721717">
        <ele>1953.0</ele>
        <time>2013-06-04T19:19:53Z</time>
      </trkpt>
      <trkpt lat="41.067650" lon="-3.721767">
        <ele>1954.0</ele>
        <time>2013-06-04T19:19:54Z</time>
      </trkpt>
      <trkpt lat="41.067600" lon="-3.721817">
        <ele>1954.0</ele>
        <time>2013-06-04T19:19:55Z</time>
      </trkpt>
      <trkpt lat="41.067550" lon="-3.721867">
        <ele>1955.0</ele>
        <time>2013-06-04T19:19:56Z</time>
      </trkpt>
      <trkpt lat="41.067500" lon="-3.721900">
        <ele>1955.0</ele>
        <time>2013-06-04T19:19:57Z</time>
      </trkpt>
      <trkpt lat="41.067467" lon="-3.721950">
        <ele>1955.0</ele>
        <time>2013-06-04T19:19:58Z</time>
      </trkpt>
      <trkpt lat="41.067417" lon="-3.722000">
        <ele>1955.0</ele>
        <time>2013-06-04T19:19:59Z</time>
      </trkpt>
      <trkpt lat="41.067367" lon="-3.722050">
        <ele>1956.0</ele>
        <time>2013-06-04T19:20:00Z</time>
      </trkpt>
      <trkpt lat="41.067317" lon="-3.722100">
        <ele>1956.0</ele>
        <time>2013-06-04T19:20:01Z</time>
      </trkpt>
      <trkpt lat="41.067267" lon="-3.722150">
        <ele>1956.0</ele>
        <time>2013-06-04T19:20:02Z</time>
      </trkpt>
      <trkpt lat="41.067233" lon="-3.722200">
        <ele>1956.0</ele>
        <time>2013-06-04T19:20:03Z</time>
      </trkpt>
      <trkpt lat="41.067183" lon="-3.722233">
        <ele>1957.0</ele>
        <time>2013-06-04T19:20:04Z</time>
      </trkpt>
      <trkpt lat="41.067133" lon="-3.722283">
        <ele>1957.0</ele>
        <time>2013-06-04T19:20:05Z</time>
      </trkpt>
      <trkpt lat="41.067083" lon="-3.722333">
        <ele>1957.0</ele>
        <time>2013-06-04T19:20:06Z</time>
      </trkpt>
      <trkpt lat="41.067033" lon="-3.722383">
        <ele>1957.0</ele>
        <time>2013-06-04T19:20:07Z</time>
      </trkpt>
      <trkpt lat="41.066983" lon="-3.722433">
        <ele>1957.0</ele>
        <time>2013-06-04T19:20:08Z</time>
      </trkpt>
      <trkpt lat="41.066933" lon="-3.722467">
        <ele>1957.0</ele>
        <time>2013-06-04T19:20:09Z</time>
      </trkpt>
      <trkpt lat="41.066883" lon="-3.722517">
        <ele>1957.0</ele>
        <time>2013-06-04T19:20:10Z</time>
      </trkpt>
      <trkpt lat="41.066833" lon="-3.722567">
        <ele>1957.0</ele>
        <time>2013-06-04T19:20:11Z</time>
      </trkpt>
      <trkpt lat="41.066783" lon="-3.722617">
        <ele>1958.0</ele>
        <time>2013-06-04T19:20:12Z</time>
      </trkpt>
      <trkpt lat="41.066733" lon="-3.722650">
        <ele>1958.0</ele>
        <time>2013-06-04T19:20:13Z</time>
      </trkpt>
      <trkpt lat="41.066683" lon="-3.722700">
        <ele>1958.0</ele>
        <time>2013-06-04T19:20:14Z</time>
      </trkpt>
      <trkpt lat="41.066633" lon="-3.722750">
        <ele>1958.0</ele>
        <time>2013-06-04T19:20:15Z</time>
      </trkpt>
      <trkpt lat="41.066583" lon="-3.722800">
        <ele>1958.0</ele>
        <time>2013-06-04T19:20:16Z</time>
      </trkpt>
      <trkpt lat="41.066533" lon="-3.722850">
        <ele>1958.0</ele>
        <time>2013-06-04T19:20:17Z</time>
      </trkpt>
      <trkpt lat="41.066483" lon="-3.722883">
        <ele>1959.0</ele>
        <time>2013-06-04T19:20:18Z</time>
      </trkpt>
      <trkpt lat="41.066433" lon="-3.722933">
        <ele>1959.0</ele>
        <time>2013-06-04T19:20:19Z</time>
      </trkpt>
      <trkpt lat="41.066383" lon="-3.722983">
        <ele>1960.0</ele>
        <time>2013-06-04T19:20:20Z</time>
      </trkpt>
      <trkpt lat="41.066333" lon="-3.723017">
        <ele>1960.0</ele>
        <time>2013-06-04T19:20:21Z</time>
      </trkpt>
      <trkpt lat="41.066283" lon="-3.723067">
        <ele>1960.0</ele>
        <time>2013-06-04T19:20:22Z</time>
      </trkpt>
      <trkpt lat="41.066233" lon="-3.723117">
        <ele>1961.0</ele>
        <time>2013-06-04T19:20:23Z</time>
      </trkpt>
      <trkpt lat="41.066183" lon="-3.723167">
        <ele>1961.0</ele>
        <time>2013-06-04T19:20:24Z</time>
      </trkpt>
      <trkpt lat="41.066133" lon="-3.723200">
        <ele>1962.0</ele>
        <time>2013-06-04T19:20:25Z</time>
      </trkpt>
      <trkpt lat="41.066083" lon="-3.723250">
        <ele>1962.0</ele>
        <time>2013-06-04T19:20:26Z</time>
      </trkpt>
      <trkpt lat="41.066017" lon="-3.723300">
        <ele>1962.0</ele>
        <time>2013-06-04T19:20:27Z</time>
      </trkpt>
      <trkpt lat="41.065967" lon="-3.723333">
        <ele>1963.0</ele>
        <time>2013-06-04T19:20:28Z</time>
      </trkpt>
      <trkpt lat="41.065917" lon="-3.723383">
        <ele>1963.0</ele>
        <time>2013-06-04T19:20:29Z</time>
      </trkpt>
      <trkpt lat="41.065850" lon="-3.723433">
        <ele>1964.0</ele>
        <time>2013-06-04T19:20:30Z</time>
      </trkpt>
      <trkpt lat="41.065800" lon="-3.723467">
        <ele>1964.0</ele>
        <time>2013-06-04T19:20:31Z</time>
      </trkpt>
      <trkpt lat="41.065733" lon="-3.723500">
        <ele>1964.0</ele>
        <time>2013-06-04T19:20:32Z</time>
      </trkpt>
      <trkpt lat="41.065683" lon="-3.723550">
        <ele>1965.0</ele>
        <time>2013-06-04T19:20:33Z</time>
      </trkpt>
      <trkpt lat="41.065617" lon="-3.723583">
        <ele>1965.0</ele>
        <time>2013-06-04T19:20:34Z</time>
      </trkpt>
      <trkpt lat="41.065550" lon="-3.723617">
        <ele>1966.0</ele>
        <time>2013-06-04T19:20:35Z</time>
      </trkpt>
      <trkpt lat="41.065500" lon="-3.723650">
        <ele>1966.0</ele>
        <time>2013-06-04T19:20:36Z</time>
      </trkpt>
      <trkpt lat="41.065433" lon="-3.723700">
        <ele>1966.0</ele>
        <time>2013-06-04T19:20:37Z</time>
      </trkpt>
      <trkpt lat="41.065367" lon="-3.723733">
        <ele>1967.0</ele>
        <time>2013-06-04T19:20:38Z</time>
      </trkpt>
      <trkpt lat="41.065317" lon="-3.723783">
        <ele>1967.0</ele>
        <time>2013-06-04T19:20:39Z</time>
      </trkpt>
      <trkpt lat="41.065250" lon="-3.723817">
        <ele>1967.0</ele>
        <time>2013-06-04T19:20:40Z</time>
      </trkpt>
      <trkpt lat="41.065200" lon="-3.723867">
        <ele>1967.0</ele>
        <time>2013-06-04T19:20:41Z</time>
      </trkpt>
      <trkpt lat="41.065150" lon="-3.723917">
        <ele>1968.0</ele>
        <time>2013-06-04T19:20:42Z</time>
      </trkpt>
      <trkpt lat="41.065100" lon="-3.723950">
        <ele>1967.0</ele>
        <time>2013-06-04T19:20:43Z</time>
      </trkpt>
      <trkpt lat="41.065050" lon="-3.724000">
        <ele>1967.0</ele>
        <time>2013-06-04T19:20:44Z</time>
      </trkpt>
      <trkpt lat="41.065017" lon="-3.724050">
        <ele>1967.0</ele>
        <time>2013-06-04T19:20:45Z</time>
      </trkpt>
      <trkpt lat="41.064983" lon="-3.724100">
        <ele>1968.0</ele>
        <time>2013-06-04T19:20:46Z</time>
      </trkpt>
      <trkpt lat="41.064950" lon="-3.724150">
        <ele>1968.0</ele>
        <time>2013-06-04T19:20:47Z</time>
      </trkpt>
      <trkpt lat="41.064917" lon="-3.724200">
        <ele>1969.0</ele>
        <time>2013-06-04T19:20:48Z</time>
      </trkpt>
      <trkpt lat="41.064883" lon="-3.724233">
        <ele>1968.0</ele>
        <time>2013-06-04T19:20:49Z</time>
      </trkpt>
      <trkpt lat="41.064850" lon="-3.724283">
        <ele>1968.0</ele>
        <time>2013-06-04T19:20:50Z</time>
      </trkpt>
      <trkpt lat="41.064833" lon="-3.724333">
        <ele>1968.0</ele>
        <time>2013-06-04T19:20:51Z</time>
      </trkpt>
      <trkpt lat="41.064800" lon="-3.724383">
        <ele>1969.0</ele>
        <time>2013-06-04T19:20:52Z</time>
      </trkpt>
      <trkpt lat="41.064783" lon="-3.724417">
        <ele>1969.0</ele>
        <time>2013-06-04T19:20:53Z</time>
      </trkpt>
      <trkpt lat="41.064767" lon="-3.724467">
        <ele>1968.0</ele>
        <time>2013-06-04T19:20:54Z</time>
      </trkpt>
      <trkpt lat="41.064750" lon="-3.724517">
        <ele>1967.0</ele>
        <time>2013-06-04T19:20:55Z</time>
      </trkpt>
      <trkpt lat="41.064733" lon="-3.724567">
        <ele>1967.0</ele>
        <time>2013-06-04T19:20:56Z</time>
      </trkpt>
      <trkpt lat="41.064717" lon="-3.724633">
        <ele>1968.0</ele>
        <time>2013-06-04T19:20:57Z</time>
      </trkpt>
      <trkpt lat="41.064683" lon="-3.724683">
        <ele>1969.0</ele>
        <time>2013-06-04T19:20:58Z</time>
      </trkpt>
      <trkpt lat="41.064667" lon="-3.724717">
        <ele>1969.0</ele>
        <time>2013-06-04T19:20:59Z</time>
      </trkpt>
      <trkpt lat="41.064633" lon="-3.724767">
        <ele>1969.0</ele>
        <time>2013-06-04T19:21:00Z</time>
      </trkpt>
      <trkpt lat="41.064600" lon="-3.724817">
        <ele>1969.0</ele>
        <time>2013-06-04T19:21:01Z</time>
      </trkpt>
      <trkpt lat="41.064583" lon="-3.724867">
        <ele>1969.0</ele>
        <time>2013-06-04T19:21:02Z</time>
      </trkpt>
      <trkpt lat="41.064550" lon="-3.724917">
        <ele>1969.0</ele>
        <time>2013-06-04T19:21:03Z</time>
      </trkpt>
      <trkpt lat="41.064517" lon="-3.724967">
        <ele>1969.0</ele>
        <time>2013-06-04T19:21:04Z</time>
      </trkpt>
      <trkpt lat="41.064483" lon="-3.725017">
        <ele>1970.0</ele>
        <time>2013-06-04T19:21:05Z</time>
      </trkpt>
      <trkpt lat="41.064450" lon="-3.725050">
        <ele>1970.0</ele>
        <time>2013-06-04T19:21:06Z</time>
      </trkpt>
      <trkpt lat="41.064417" lon="-3.725100">
        <ele>1969.0</ele>
        <time>2013-06-04T19:21:07Z</time>
      </trkpt>
      <trkpt lat="41.064383" lon="-3.725150">
        <ele>1969.0</ele>
        <time>2013-06-04T19:21:08Z</time>
      </trkpt>
      <trkpt lat="41.064350" lon="-3.725200">
        <ele>1969.0</ele>
        <time>2013-06-04T19:21:09Z</time>
      </trkpt>
      <trkpt lat="41.064333" lon="-3.725250">
        <ele>1969.0</ele>
        <time>2013-06-04T19:21:10Z</time>
      </trkpt>
      <trkpt lat="41.064317" lon="-3.725300">
        <ele>1969.0</ele>
        <time>2013-06-04T19:21:11Z</time>
      </trkpt>
      <trkpt lat="41.064300" lon="-3.725333">
        <ele>1969.0</ele>
        <time>2013-06-04T19:21:12Z</time>
      </trkpt>
      <trkpt lat="41.064300" lon="-3.725383">
        <ele>1969.0</ele>
        <time>2013-06-04T19:21:13Z</time>
      </trkpt>
      <trkpt lat="41.064300" lon="-3.725417">
        <ele>1969.0</ele>
        <time>2013-06-04T19:21:14Z</time>
      </trkpt>
      <trkpt lat="41.064300" lon="-3.725467">
        <ele>1969.0</ele>
        <time>2013-06-04T19:21:15Z</time>
      </trkpt>
      <trkpt lat="41.064300" lon="-3.725500">
        <ele>1970.0</ele>
        <time>2013-06-04T19:21:16Z</time>
      </trkpt>
      <trkpt lat="41.064300" lon="-3.725550">
        <ele>1970.0</ele>
        <time>2013-06-04T19:21:17Z</time>
      </trkpt>
      <trkpt lat="41.064300" lon="-3.725583">
        <ele>1970.0</ele>
        <time>2013-06-04T19:21:18Z</time>
      </trkpt>
      <trkpt lat="41.064317" lon="-3.725633">
        <ele>1971.0</ele>
        <time>2013-06-04T19:21:19Z</time>
      </trkpt>
      <trkpt lat="41.064317" lon="-3.725667">
        <ele>1971.0</ele>
        <time>2013-06-04T19:21:20Z</time>
      </trkpt>
      <trkpt lat="41.064333" lon="-3.725700">
        <ele>1972.0</ele>
        <time>2013-06-04T19:21:21Z</time>
      </trkpt>
      <trkpt lat="41.064350" lon="-3.725733">
        <ele>1972.0</ele>
        <time>2013-06-04T19:21:22Z</time>
      </trkpt>
      <trkpt lat="41.064367" lon="-3.725767">
        <ele>1972.0</ele>
        <time>2013-06-04T19:21:23Z</time>
      </trkpt>
      <trkpt lat="41.064383" lon="-3.725800">
        <ele>1973.0</ele>
        <time>2013-06-04T19:21:24Z</time>
      </trkpt>
      <trkpt lat="41.064400" lon="-3.725833">
        <ele>1973.0</ele>
        <time>2013-06-04T19:21:25Z</time>
      </trkpt>
      <trkpt lat="41.064417" lon="-3.725883">
        <ele>1973.0</ele>
        <time>2013-06-04T19:21:26Z</time>
      </trkpt>
      <trkpt lat="41.064417" lon="-3.725917">
        <ele>1973.0</ele>
        <time>2013-06-04T19:21:27Z</time>
      </trkpt>
      <trkpt lat="41.064417" lon="-3.725967">
        <ele>1973.0</ele>
        <time>2013-06-04T19:21:28Z</time>
      </trkpt>
      <trkpt lat="41.064417" lon="-3.726017">
        <ele>1973.0</ele>
        <time>2013-06-04T19:21:29Z</time>
      </trkpt>
      <trkpt lat="41.064400" lon="-3.726067">
        <ele>1973.0</ele>
        <time>2013-06-04T19:21:30Z</time>
      </trkpt>
      <trkpt lat="41.064367" lon="-3.726133">
        <ele>1973.0</ele>
        <time>2013-06-04T19:21:31Z</time>
      </trkpt>
      <trkpt lat="41.064350" lon="-3.726183">
        <ele>1973.0</ele>
        <time>2013-06-04T19:21:32Z</time>
      </trkpt>
      <trkpt lat="41.064333" lon="-3.726233">
        <ele>1974.0</ele>
        <time>2013-06-04T19:21:33Z</time>
      </trkpt>
      <trkpt lat="41.064300" lon="-3.726283">
        <ele>1974.0</ele>
        <time>2013-06-04T19:21:34Z</time>
      </trkpt>
      <trkpt lat="41.064283" lon="-3.726350">
        <ele>1974.0</ele>
        <time>2013-06-04T19:21:35Z</time>
      </trkpt>
      <trkpt lat="41.064250" lon="-3.726400">
        <ele>1974.0</ele>
        <time>2013-06-04T19:21:36Z</time>
      </trkpt>
      <trkpt lat="41.064217" lon="-3.726450">
        <ele>1974.0</ele>
        <time>2013-06-04T19:21:37Z</time>
      </trkpt>
      <trkpt lat="41.064200" lon="-3.726517">
        <ele>1974.0</ele>
        <time>2013-06-04T19:21:38Z</time>
      </trkpt>
      <trkpt lat="41.064167" lon="-3.726567">
        <ele>1974.0</ele>
        <time>2013-06-04T19:21:39Z</time>
      </trkpt>
      <trkpt lat="41.064133" lon="-3.726633">
        <ele>1974.0</ele>
        <time>2013-06-04T19:21:40Z</time>
      </trkpt>
      <trkpt lat="41.064100" lon="-3.726683">
        <ele>1974.0</ele>
        <time>2013-06-04T19:21:41Z</time>
      </trkpt>
      <trkpt lat="41.064067" lon="-3.726733">
        <ele>1974.0</ele>
        <time>2013-06-04T19:21:42Z</time>
      </trkpt>
      <trkpt lat="41.064050" lon="-3.726800">
        <ele>1974.0</ele>
        <time>2013-06-04T19:21:43Z</time>
      </trkpt>
      <trkpt lat="41.064017" lon="-3.726850">
        <ele>1974.0</ele>
        <time>2013-06-04T19:21:44Z</time>
      </trkpt>
      <trkpt lat="41.063983" lon="-3.726917">
        <ele>1974.0</ele>
        <time>2013-06-04T19:21:45Z</time>
      </trkpt>
      <trkpt lat="41.063950" lon="-3.726967">
        <ele>1975.0</ele>
        <time>2013-06-04T19:21:46Z</time>
      </trkpt>
      <trkpt lat="41.063917" lon="-3.727033">
        <ele>1975.0</ele>
        <time>2013-06-04T19:21:47Z</time>
      </trkpt>
      <trkpt lat="41.063883" lon="-3.727083">
        <ele>1975.0</ele>
        <time>2013-06-04T19:21:48Z</time>
      </trkpt>
      <trkpt lat="41.063867" lon="-3.727150">
        <ele>1975.0</ele>
        <time>2013-06-04T19:21:49Z</time>
      </trkpt>
      <trkpt lat="41.063850" lon="-3.727200">
        <ele>1975.0</ele>
        <time>2013-06-04T19:21:50Z</time>
      </trkpt>
      <trkpt lat="41.063850" lon="-3.727250">
        <ele>1975.0</ele>
        <time>2013-06-04T19:21:51Z</time>
      </trkpt>
      <trkpt lat="41.063883" lon="-3.727283">
        <ele>1974.0</ele>
        <time>2013-06-04T19:21:52Z</time>
      </trkpt>
      <trkpt lat="41.063950" lon="-3.727283">
        <ele>1974.0</ele>
        <time>2013-06-04T19:21:53Z</time>
      </trkpt>
      <trkpt lat="41.064017" lon="-3.727233">
        <ele>1973.0</ele>
        <time>2013-06-04T19:21:54Z</time>
      </trkpt>
      <trkpt lat="41.064100" lon="-3.727167">
        <ele>1974.0</ele>
        <time>2013-06-04T19:21:55Z</time>
      </trkpt>
      <trkpt lat="41.064150" lon="-3.727083">
        <ele>1975.0</ele>
        <time>2013-06-04T19:21:56Z</time>
      </trkpt>
      <trkpt lat="41.064200" lon="-3.726983">
        <ele>1976.0</ele>
        <time>2013-06-04T19:21:57Z</time>
      </trkpt>
      <trkpt lat="41.064233" lon="-3.726883">
        <ele>1976.0</ele>
        <time>2013-06-04T19:21:58Z</time>
      </trkpt>
      <trkpt lat="41.064283" lon="-3.726767">
        <ele>1975.0</ele>
        <time>2013-06-04T19:21:59Z</time>
      </trkpt>
      <trkpt lat="41.064333" lon="-3.726650">
        <ele>1974.0</ele>
        <time>2013-06-04T19:22:00Z</time>
      </trkpt>
      <trkpt lat="41.064367" lon="-3.726500">
        <ele>1974.0</ele>
        <time>2013-06-04T19:22:01Z</time>
      </trkpt>
      <trkpt lat="41.064400" lon="-3.726367">
        <ele>1975.0</ele>
        <time>2013-06-04T19:22:02Z</time>
      </trkpt>
      <trkpt lat="41.064433" lon="-3.726250">
        <ele>1975.0</ele>
        <time>2013-06-04T19:22:03Z</time>
      </trkpt>
      <trkpt lat="41.064483" lon="-3.726133">
        <ele>1976.0</ele>
        <time>2013-06-04T19:22:04Z</time>
      </trkpt>
      <trkpt lat="41.064517" lon="-3.726017">
        <ele>1976.0</ele>
        <time>2013-06-04T19:22:05Z</time>
      </trkpt>
      <trkpt lat="41.064567" lon="-3.725917">
        <ele>1976.0</ele>
        <time>2013-06-04T19:22:06Z</time>
      </trkpt>
      <trkpt lat="41.064617" lon="-3.725800">
        <ele>1976.0</ele>
        <time>2013-06-04T19:22:07Z</time>
      </trkpt>
      <trkpt lat="41.064650" lon="-3.725683">
        <ele>1977.0</ele>
        <time>2013-06-04T19:22:08Z</time>
      </trkpt>
      <trkpt lat="41.064700" lon="-3.725567">
        <ele>1977.0</ele>
        <time>2013-06-04T19:22:09Z</time>
      </trkpt>
      <trkpt lat="41.064750" lon="-3.725467">
        <ele>1977.0</ele>
        <time>2013-06-04T19:22:10Z</time>
      </trkpt>
      <trkpt lat="41.064783" lon="-3.725367">
        <ele>1978.0</ele>
        <time>2013-06-04T19:22:11Z</time>
      </trkpt>
      <trkpt lat="41.064833" lon="-3.725267">
        <ele>1978.0</ele>
        <time>2013-06-04T19:22:12Z</time>
      </trkpt>
      <trkpt lat="41.064883" lon="-3.725183">
        <ele>1978.0</ele>
        <time>2013-06-04T19:22:13Z</time>
      </trkpt>
      <trkpt lat="41.064933" lon="-3.725083">
        <ele>1978.0</ele>
        <time>2013-06-04T19:22:14Z</time>
      </trkpt>
      <trkpt lat="41.065000" lon="-3.725000">
        <ele>1979.0</ele>
        <time>2013-06-04T19:22:15Z</time>
      </trkpt>
      <trkpt lat="41.065050" lon="-3.724917">
        <ele>1979.0</ele>
        <time>2013-06-04T19:22:16Z</time>
      </trkpt>
      <trkpt lat="41.065100" lon="-3.724850">
        <ele>1979.0</ele>
        <time>2013-06-04T19:22:17Z</time>
      </trkpt>
      <trkpt lat="41.065150" lon="-3.724783">
        <ele>1979.0</ele>
        <time>2013-06-04T19:22:18Z</time>
      </trkpt>
      <trkpt lat="41.065200" lon="-3.724733">
        <ele>1979.0</ele>
        <time>2013-06-04T19:22:19Z</time>
      </trkpt>
      <trkpt lat="41.065267" lon="-3.724683">
        <ele>1979.0</ele>
        <time>2013-06-04T19:22:20Z</time>
      </trkpt>
      <trkpt lat="41.065317" lon="-3.724633">
        <ele>1980.0</ele>
        <time>2013-06-04T19:22:21Z</time>
      </trkpt>
      <trkpt lat="41.065367" lon="-3.724600">
        <ele>1980.0</ele>
        <time>2013-06-04T19:22:22Z</time>
      </trkpt>
      <trkpt lat="41.065417" lon="-3.724567">
        <ele>1981.0</ele>
        <time>2013-06-04T19:22:23Z</time>
      </trkpt>
      <trkpt lat="41.065467" lon="-3.724550">
        <ele>1981.0</ele>
        <time>2013-06-04T19:22:24Z</time>
      </trkpt>
      <trkpt lat="41.065517" lon="-3.724517">
        <ele>1981.0</ele>
        <time>2013-06-04T19:22:25Z</time>
      </trkpt>
      <trkpt lat="41.065550" lon="-3.724517">
        <ele>1981.0</ele>
        <time>2013-06-04T19:22:26Z</time>
      </trkpt>
      <trkpt lat="41.065600" lon="-3.724500">
        <ele>1981.0</ele>
        <time>2013-06-04T19:22:27Z</time>
      </trkpt>
      <trkpt lat="41.065650" lon="-3.724500">
        <ele>1981.0</ele>
        <time>2013-06-04T19:22:28Z</time>
      </trkpt>
      <trkpt lat="41.065683" lon="-3.724500">
        <ele>1982.0</ele>
        <time>2013-06-04T19:22:29Z</time>
      </trkpt>
      <trkpt lat="41.065733" lon="-3.724500">
        <ele>1982.0</ele>
        <time>2013-06-04T19:22:30Z</time>
      </trkpt>
      <trkpt lat="41.065767" lon="-3.724500">
        <ele>1983.0</ele>
        <time>2013-06-04T19:22:31Z</time>
      </trkpt>
      <trkpt lat="41.065817" lon="-3.724500">
        <ele>1983.0</ele>
        <time>2013-06-04T19:22:32Z</time>
      </trkpt>
      <trkpt lat="41.065850" lon="-3.724483">
        <ele>1984.0</ele>
        <time>2013-06-04T19:22:33Z</time>
      </trkpt>
      <trkpt lat="41.065900" lon="-3.724467">
        <ele>1984.0</ele>
        <time>2013-06-04T19:22:34Z</time>
      </trkpt>
      <trkpt lat="41.065950" lon="-3.724433">
        <ele>1984.0</ele>
        <time>2013-06-04T19:22:35Z</time>
      </trkpt>
      <trkpt lat="41.066000" lon="-3.724400">
        <ele>1984.0</ele>
        <time>2013-06-04T19:22:36Z</time>
      </trkpt>
      <trkpt lat="41.066067" lon="-3.724333">
        <ele>1985.0</ele>
        <time>2013-06-04T19:22:37Z</time>
      </trkpt>
      <trkpt lat="41.066117" lon="-3.724250">
        <ele>1985.0</ele>
        <time>2013-06-04T19:22:38Z</time>
      </trkpt>
      <trkpt lat="41.066167" lon="-3.724183">
        <ele>1985.0</ele>
        <time>2013-06-04T19:22:39Z</time>
      </trkpt>
      <trkpt lat="41.066217" lon="-3.724100">
        <ele>1986.0</ele>
        <time>2013-06-04T19:22:40Z</time>
      </trkpt>
      <trkpt lat="41.066283" lon="-3.724017">
        <ele>1986.0</ele>
        <time>2013-06-04T19:22:41Z</time>
      </trkpt>
      <trkpt lat="41.066333" lon="-3.723933">
        <ele>1986.0</ele>
        <time>2013-06-04T19:22:42Z</time>
      </trkpt>
      <trkpt lat="41.066383" lon="-3.723833">
        <ele>1986.0</ele>
        <time>2013-06-04T19:22:43Z</time>
      </trkpt>
      <trkpt lat="41.066433" lon="-3.723750">
        <ele>1986.0</ele>
        <time>2013-06-04T19:22:44Z</time>
      </trkpt>
      <trkpt lat="41.066483" lon="-3.723667">
        <ele>1987.0</ele>
        <time>2013-06-04T19:22:45Z</time>
      </trkpt>
      <trkpt lat="41.066550" lon="-3.723583">
        <ele>1987.0</ele>
        <time>2013-06-04T19:22:46Z</time>
      </trkpt>
      <trkpt lat="41.066600" lon="-3.723500">
        <ele>1987.0</ele>
        <time>2013-06-04T19:22:47Z</time>
      </trkpt>
      <trkpt lat="41.066650" lon="-3.723417">
        <ele>1987.0</ele>
        <time>2013-06-04T19:22:48Z</time>
      </trkpt>
      <trkpt lat="41.066700" lon="-3.723350">
        <ele>1988.0</ele>
        <time>2013-06-04T19:22:49Z</time>
      </trkpt>
      <trkpt lat="41.066767" lon="-3.723267">
        <ele>1988.0</ele>
        <time>2013-06-04T19:22:50Z</time>
      </trkpt>
      <trkpt lat="41.066817" lon="-3.723200">
        <ele>1988.0</ele>
        <time>2013-06-04T19:22:51Z</time>
      </trkpt>
      <trkpt lat="41.066883" lon="-3.723133">
        <ele>1988.0</ele>
        <time>2013-06-04T19:22:52Z</time>
      </trkpt>
      <trkpt lat="41.066933" lon="-3.723067">
        <ele>1988.0</ele>
        <time>2013-06-04T19:22:53Z</time>
      </trkpt>
      <trkpt lat="41.066983" lon="-3.723017">
        <ele>1988.0</ele>
        <time>2013-06-04T19:22:54Z</time>
      </trkpt>
      <trkpt lat="41.067050" lon="-3.722950">
        <ele>1988.0</ele>
        <time>2013-06-04T19:22:55Z</time>
      </trkpt>
      <trkpt lat="41.067100" lon="-3.722900">
        <ele>1988.0</ele>
        <time>2013-06-04T19:22:56Z</time>
      </trkpt>
      <trkpt lat="41.067150" lon="-3.722833">
        <ele>1989.0</ele>
        <time>2013-06-04T19:22:57Z</time>
      </trkpt>
      <trkpt lat="41.067217" lon="-3.722783">
        <ele>1989.0</ele>
        <time>2013-06-04T19:22:58Z</time>
      </trkpt>
      <trkpt lat="41.067267" lon="-3.722733">
        <ele>1989.0</ele>
        <time>2013-06-04T19:22:59Z</time>
      </trkpt>
      <trkpt lat="41.067317" lon="-3.722700">
        <ele>1989.0</ele>
        <time>2013-06-04T19:23:00Z</time>
      </trkpt>
      <trkpt lat="41.067383" lon="-3.722650">
        <ele>1989.0</ele>
        <time>2013-06-04T19:23:01Z</time>
      </trkpt>
      <trkpt lat="41.067433" lon="-3.722617">
        <ele>1989.0</ele>
        <time>2013-06-04T19:23:02Z</time>
      </trkpt>
      <trkpt lat="41.067483" lon="-3.722567">
        <ele>1990.0</ele>
        <time>2013-06-04T19:23:03Z</time>
      </trkpt>
      <trkpt lat="41.067533" lon="-3.722533">
        <ele>1990.0</ele>
        <time>2013-06-04T19:23:04Z</time>
      </trkpt>
      <trkpt lat="41.067583" lon="-3.722500">
        <ele>1990.0</ele>
        <time>2013-06-04T19:23:05Z</time>
      </trkpt>
      <trkpt lat="41.067633" lon="-3.722467">
        <ele>1990.0</ele>
        <time>2013-06-04T19:23:06Z</time>
      </trkpt>
      <trkpt lat="41.067700" lon="-3.722433">
        <ele>1990.0</ele>
        <time>2013-06-04T19:23:07Z</time>
      </trkpt>
      <trkpt lat="41.067750" lon="-3.722417">
        <ele>1990.0</ele>
        <time>2013-06-04T19:23:08Z</time>
      </trkpt>
      <trkpt lat="41.067800" lon="-3.722383">
        <ele>1990.0</ele>
        <time>2013-06-04T19:23:09Z</time>
      </trkpt>
      <trkpt lat="41.067867" lon="-3.722350">
        <ele>1990.0</ele>
        <time>2013-06-04T19:23:10Z</time>
      </trkpt>
      <trkpt lat="41.067917" lon="-3.722317">
        <ele>1990.0</ele>
        <time>2013-06-04T19:23:11Z</time>
      </trkpt>
      <trkpt lat="41.067967" lon="-3.722283">
        <ele>1990.0</ele>
        <time>2013-06-04T19:23:12Z</time>
      </trkpt>
      <trkpt lat="41.068033" lon="-3.722250">
        <ele>1990.0</ele>
        <time>2013-06-04T19:23:13Z</time>
      </trkpt>
      <trkpt lat="41.068083" lon="-3.722200">
        <ele>1990.0</ele>
        <time>2013-06-04T19:23:14Z</time>
      </trkpt>
      <trkpt lat="41.068133" lon="-3.722167">
        <ele>1990.0</ele>
        <time>2013-06-04T19:23:15Z</time>
      </trkpt>
      <trkpt lat="41.068183" lon="-3.722117">
        <ele>1989.0</ele>
        <time>2013-06-04T19:23:16Z</time>
      </trkpt>
      <trkpt lat="41.068250" lon="-3.722083">
        <ele>1989.0</ele>
        <time>2013-06-04T19:23:17Z</time>
      </trkpt>
      <trkpt lat="41.068300" lon="-3.722050">
        <ele>1989.0</ele>
        <time>2013-06-04T19:23:18Z</time>
      </trkpt>
      <trkpt lat="41.068350" lon="-3.722000">
        <ele>1988.0</ele>
        <time>2013-06-04T19:23:19Z</time>
      </trkpt>
      <trkpt lat="41.068417" lon="-3.721967">
        <ele>1988.0</ele>
        <time>2013-06-04T19:23:20Z</time>
      </trkpt>
      <trkpt lat="41.068467" lon="-3.721917">
        <ele>1988.0</ele>
        <time>2013-06-04T19:23:21Z</time>
      </trkpt>
      <trkpt lat="41.068533" lon="-3.721867">
        <ele>1988.0</ele>
        <time>2013-06-04T19:23:22Z</time>
      </trkpt>
      <trkpt lat="41.068583" lon="-3.721833">
        <ele>1987.0</ele>
        <time>2013-06-04T19:23:23Z</time>
      </trkpt>
      <trkpt lat="41.068650" lon="-3.721783">
        <ele>1986.0</ele>
        <time>2013-06-04T19:23:24Z</time>
      </trkpt>
      <trkpt lat="41.068717" lon="-3.721750">
        <ele>1985.0</ele>
        <time>2013-06-04T19:23:25Z</time>
      </trkpt>
      <trkpt lat="41.068800" lon="-3.721700">
        <ele>1984.0</ele>
        <time>2013-06-04T19:23:26Z</time>
      </trkpt>
      <trkpt lat="41.068883" lon="-3.721650">
        <ele>1984.0</ele>
        <time>2013-06-04T19:23:27Z</time>
      </trkpt>
      <trkpt lat="41.068950" lon="-3.721583">
        <ele>1985.0</ele>
        <time>2013-06-04T19:23:28Z</time>
      </trkpt>
      <trkpt lat="41.069017" lon="-3.721533">
        <ele>1985.0</ele>
        <time>2013-06-04T19:23:29Z</time>
      </trkpt>
      <trkpt lat="41.069083" lon="-3.721483">
        <ele>1985.0</ele>
        <time>2013-06-04T19:23:30Z</time>
      </trkpt>
      <trkpt lat="41.069150" lon="-3.721433">
        <ele>1984.0</ele>
        <time>2013-06-04T19:23:31Z</time>
      </trkpt>
      <trkpt lat="41.069233" lon="-3.721383">
        <ele>1983.0</ele>
        <time>2013-06-04T19:23:32Z</time>
      </trkpt>
      <trkpt lat="41.069300" lon="-3.721317">
        <ele>1983.0</ele>
        <time>2013-06-04T19:23:33Z</time>
      </trkpt>
      <trkpt lat="41.069383" lon="-3.721267">
        <ele>1983.0</ele>
        <time>2013-06-04T19:23:34Z</time>
      </trkpt>
      <trkpt lat="41.069433" lon="-3.721233">
        <ele>1984.0</ele>
        <time>2013-06-04T19:23:35Z</time>
      </trkpt>
      <trkpt lat="41.069500" lon="-3.721183">
        <ele>1984.0</ele>
        <time>2013-06-04T19:23:36Z</time>
      </trkpt>
      <trkpt lat="41.069567" lon="-3.721150">
        <ele>1983.0</ele>
        <time>2013-06-04T19:23:37Z</time>
      </trkpt>
      <trkpt lat="41.069633" lon="-3.721117">
        <ele>1982.0</ele>
        <time>2013-06-04T19:23:38Z</time>
      </trkpt>
      <trkpt lat="41.069700" lon="-3.721083">
        <ele>1982.0</ele>
        <time>2013-06-04T19:23:39Z</time>
      </trkpt>
      <trkpt lat="41.069767" lon="-3.721050">
        <ele>1982.0</ele>
        <time>2013-06-04T19:23:40Z</time>
      </trkpt>
      <trkpt lat="41.069817" lon="-3.721033">
        <ele>1982.0</ele>
        <time>2013-06-04T19:23:41Z</time>
      </trkpt>
      <trkpt lat="41.069867" lon="-3.721017">
        <ele>1982.0</ele>
        <time>2013-06-04T19:23:42Z</time>
      </trkpt>
      <trkpt lat="41.069933" lon="-3.721000">
        <ele>1981.0</ele>
        <time>2013-06-04T19:23:43Z</time>
      </trkpt>
      <trkpt lat="41.069983" lon="-3.720983">
        <ele>1980.0</ele>
        <time>2013-06-04T19:23:44Z</time>
      </trkpt>
      <trkpt lat="41.070050" lon="-3.720967">
        <ele>1980.0</ele>
        <time>2013-06-04T19:23:45Z</time>
      </trkpt>
      <trkpt lat="41.070117" lon="-3.720933">
        <ele>1979.0</ele>
        <time>2013-06-04T19:23:46Z</time>
      </trkpt>
      <trkpt lat="41.070183" lon="-3.720917">
        <ele>1979.0</ele>
        <time>2013-06-04T19:23:47Z</time>
      </trkpt>
      <trkpt lat="41.070250" lon="-3.720900">
        <ele>1979.0</ele>
        <time>2013-06-04T19:23:48Z</time>
      </trkpt>
      <trkpt lat="41.070317" lon="-3.720900">
        <ele>1979.0</ele>
        <time>2013-06-04T19:23:49Z</time>
      </trkpt>
      <trkpt lat="41.070383" lon="-3.720883">
        <ele>1979.0</ele>
        <time>2013-06-04T19:23:50Z</time>
      </trkpt>
      <trkpt lat="41.070450" lon="-3.720883">
        <ele>1979.0</ele>
        <time>2013-06-04T19:23:51Z</time>
      </trkpt>
      <trkpt lat="41.070517" lon="-3.720867">
        <ele>1978.0</ele>
        <time>2013-06-04T19:23:52Z</time>
      </trkpt>
      <trkpt lat="41.070583" lon="-3.720850">
        <ele>1978.0</ele>
        <time>2013-06-04T19:23:53Z</time>
      </trkpt>
      <trkpt lat="41.070650" lon="-3.720833">
        <ele>1977.0</ele>
        <time>2013-06-04T19:23:54Z</time>
      </trkpt>
      <trkpt lat="41.070717" lon="-3.720817">
        <ele>1977.0</ele>
        <time>2013-06-04T19:23:55Z</time>
      </trkpt>
      <trkpt lat="41.070783" lon="-3.720800">
        <ele>1976.0</ele>
        <time>2013-06-04T19:23:56Z</time>
      </trkpt>
      <trkpt lat="41.070850" lon="-3.720800">
        <ele>1976.0</ele>
        <time>2013-06-04T19:23:57Z</time>
      </trkpt>
      <trkpt lat="41.070917" lon="-3.720783">
        <ele>1976.0</ele>
        <time>2013-06-04T19:23:58Z</time>
      </trkpt>
      <trkpt lat="41.070983" lon="-3.720750">
        <ele>1976.0</ele>
        <time>2013-06-04T19:23:59Z</time>
      </trkpt>
      <trkpt lat="41.071050" lon="-3.720733">
        <ele>1975.0</ele>
        <time>2013-06-04T19:24:00Z</time>
      </trkpt>
      <trkpt lat="41.071117" lon="-3.720717">
        <ele>1975.0</ele>
        <time>2013-06-04T19:24:01Z</time>
      </trkpt>
      <trkpt lat="41.071183" lon="-3.720683">
        <ele>1974.0</ele>
        <time>2013-06-04T19:24:02Z</time>
      </trkpt>
      <trkpt lat="41.071267" lon="-3.720667">
        <ele>1974.0</ele>
        <time>2013-06-04T19:24:03Z</time>
      </trkpt>
      <trkpt lat="41.071333" lon="-3.720633">
        <ele>1974.0</ele>
        <time>2013-06-04T19:24:04Z</time>
      </trkpt>
      <trkpt lat="41.071400" lon="-3.720600">
        <ele>1973.0</ele>
        <time>2013-06-04T19:24:05Z</time>
      </trkpt>
      <trkpt lat="41.071483" lon="-3.720567">
        <ele>1973.0</ele>
        <time>2013-06-04T19:24:06Z</time>
      </trkpt>
      <trkpt lat="41.071550" lon="-3.720550">
        <ele>1973.0</ele>
        <time>2013-06-04T19:24:07Z</time>
      </trkpt>
      <trkpt lat="41.071617" lon="-3.720517">
        <ele>1973.0</ele>
        <time>2013-06-04T19:24:08Z</time>
      </trkpt>
      <trkpt lat="41.071700" lon="-3.720483">
        <ele>1972.0</ele>
        <time>2013-06-04T19:24:09Z</time>
      </trkpt>
      <trkpt lat="41.071767" lon="-3.720467">
        <ele>1972.0</ele>
        <time>2013-06-04T19:24:10Z</time>
      </trkpt>
      <trkpt lat="41.071833" lon="-3.720433">
        <ele>1972.0</ele>
        <time>2013-06-04T19:24:11Z</time>
      </trkpt>
      <trkpt lat="41.071900" lon="-3.720400">
        <ele>1971.0</ele>
        <time>2013-06-04T19:24:12Z</time>
      </trkpt>
      <trkpt lat="41.071983" lon="-3.720367">
        <ele>1971.0</ele>
        <time>2013-06-04T19:24:13Z</time>
      </trkpt>
      <trkpt lat="41.072050" lon="-3.720333">
        <ele>1970.0</ele>
        <time>2013-06-04T19:24:14Z</time>
      </trkpt>
      <trkpt lat="41.072133" lon="-3.720283">
        <ele>1970.0</ele>
        <time>2013-06-04T19:24:15Z</time>
      </trkpt>
      <trkpt lat="41.072200" lon="-3.720250">
        <ele>1969.0</ele>
        <time>2013-06-04T19:24:16Z</time>
      </trkpt>
      <trkpt lat="41.072267" lon="-3.720200">
        <ele>1969.0</ele>
        <time>2013-06-04T19:24:17Z</time>
      </trkpt>
      <trkpt lat="41.072350" lon="-3.720167">
        <ele>1968.0</ele>
        <time>2013-06-04T19:24:18Z</time>
      </trkpt>
      <trkpt lat="41.072417" lon="-3.720133">
        <ele>1968.0</ele>
        <time>2013-06-04T19:24:19Z</time>
      </trkpt>
      <trkpt lat="41.072483" lon="-3.720100">
        <ele>1968.0</ele>
        <time>2013-06-04T19:24:20Z</time>
      </trkpt>
      <trkpt lat="41.072567" lon="-3.720067">
        <ele>1967.0</ele>
        <time>2013-06-04T19:24:21Z</time>
      </trkpt>
      <trkpt lat="41.072633" lon="-3.720033">
        <ele>1967.0</ele>
        <time>2013-06-04T19:24:22Z</time>
      </trkpt>
      <trkpt lat="41.072700" lon="-3.719983">
        <ele>1966.0</ele>
        <time>2013-06-04T19:24:23Z</time>
      </trkpt>
      <trkpt lat="41.072783" lon="-3.719933">
        <ele>1966.0</ele>
        <time>2013-06-04T19:24:24Z</time>
      </trkpt>
      <trkpt lat="41.072850" lon="-3.719900">
        <ele>1965.0</ele>
        <time>2013-06-04T19:24:25Z</time>
      </trkpt>
      <trkpt lat="41.072917" lon="-3.719867">
        <ele>1965.0</ele>
        <time>2013-06-04T19:24:26Z</time>
      </trkpt>
      <trkpt lat="41.072983" lon="-3.719833">
        <ele>1965.0</ele>
        <time>2013-06-04T19:24:27Z</time>
      </trkpt>
      <trkpt lat="41.073067" lon="-3.719800">
        <ele>1964.0</ele>
        <time>2013-06-04T19:24:28Z</time>
      </trkpt>
      <trkpt lat="41.073133" lon="-3.719767">
        <ele>1964.0</ele>
        <time>2013-06-04T19:24:29Z</time>
      </trkpt>
      <trkpt lat="41.073200" lon="-3.719733">
        <ele>1963.0</ele>
        <time>2013-06-04T19:24:30Z</time>
      </trkpt>
      <trkpt lat="41.073283" lon="-3.719700">
        <ele>1963.0</ele>
        <time>2013-06-04T19:24:31Z</time>
      </trkpt>
      <trkpt lat="41.073350" lon="-3.719667">
        <ele>1962.0</ele>
        <time>2013-06-04T19:24:32Z</time>
      </trkpt>
      <trkpt lat="41.073417" lon="-3.719617">
        <ele>1961.0</ele>
        <time>2013-06-04T19:24:33Z</time>
      </trkpt>
      <trkpt lat="41.073500" lon="-3.719550">
        <ele>1961.0</ele>
        <time>2013-06-04T19:24:34Z</time>
      </trkpt>
      <trkpt lat="41.073567" lon="-3.719467">
        <ele>1960.0</ele>
        <time>2013-06-04T19:24:35Z</time>
      </trkpt>
      <trkpt lat="41.073633" lon="-3.719383">
        <ele>1960.0</ele>
        <time>2013-06-04T19:24:36Z</time>
      </trkpt>
      <trkpt lat="41.073700" lon="-3.719300">
        <ele>1959.0</ele>
        <time>2013-06-04T19:24:37Z</time>
      </trkpt>
      <trkpt lat="41.073767" lon="-3.719217">
        <ele>1959.0</ele>
        <time>2013-06-04T19:24:38Z</time>
      </trkpt>
      <trkpt lat="41.073833" lon="-3.719117">
        <ele>1958.0</ele>
        <time>2013-06-04T19:24:39Z</time>
      </trkpt>
      <trkpt lat="41.073900" lon="-3.719000">
        <ele>1957.0</ele>
        <time>2013-06-04T19:24:40Z</time>
      </trkpt>
      <trkpt lat="41.073950" lon="-3.718867">
        <ele>1957.0</ele>
        <time>2013-06-04T19:24:41Z</time>
      </trkpt>
      <trkpt lat="41.074000" lon="-3.718733">
        <ele>1956.0</ele>
        <time>2013-06-04T19:24:42Z</time>
      </trkpt>
      <trkpt lat="41.074050" lon="-3.718600">
        <ele>1956.0</ele>
        <time>2013-06-04T19:24:43Z</time>
      </trkpt>
      <trkpt lat="41.074100" lon="-3.718467">
        <ele>1955.0</ele>
        <time>2013-06-04T19:24:44Z</time>
      </trkpt>
      <trkpt lat="41.074150" lon="-3.718350">
        <ele>1955.0</ele>
        <time>2013-06-04T19:24:45Z</time>
      </trkpt>
      <trkpt lat="41.074217" lon="-3.718217">
        <ele>1955.0</ele>
        <time>2013-06-04T19:24:46Z</time>
      </trkpt>
      <trkpt lat="41.074267" lon="-3.718100">
        <ele>1954.0</ele>
        <time>2013-06-04T19:24:47Z</time>
      </trkpt>
      <trkpt lat="41.074317" lon="-3.717967">
        <ele>1954.0</ele>
        <time>2013-06-04T19:24:48Z</time>
      </trkpt>
      <trkpt lat="41.074367" lon="-3.717850">
        <ele>1953.0</ele>
        <time>2013-06-04T19:24:49Z</time>
      </trkpt>
      <trkpt lat="41.074433" lon="-3.717733">
        <ele>1953.0</ele>
        <time>2013-06-04T19:24:50Z</time>
      </trkpt>
      <trkpt lat="41.074483" lon="-3.717617">
        <ele>1952.0</ele>
        <time>2013-06-04T19:24:51Z</time>
      </trkpt>
      <trkpt lat="41.074550" lon="-3.717517">
        <ele>1952.0</ele>
        <time>2013-06-04T19:24:52Z</time>
      </trkpt>
      <trkpt lat="41.074600" lon="-3.717400">
        <ele>1952.0</ele>
        <time>2013-06-04T19:24:53Z</time>
      </trkpt>
      <trkpt lat="41.074667" lon="-3.717300">
        <ele>1952.0</ele>
        <time>2013-06-04T19:24:54Z</time>
      </trkpt>
      <trkpt lat="41.074717" lon="-3.717200">
        <ele>1951.0</ele>
        <time>2013-06-04T19:24:55Z</time>
      </trkpt>
      <trkpt lat="41.074783" lon="-3.717100">
        <ele>1951.0</ele>
        <time>2013-06-04T19:24:56Z</time>
      </trkpt>
      <trkpt lat="41.074850" lon="-3.717000">
        <ele>1951.0</ele>
        <time>2013-06-04T19:24:57Z</time>
      </trkpt>
      <trkpt lat="41.074917" lon="-3.716917">
        <ele>1951.0</ele>
        <time>2013-06-04T19:24:58Z</time>
      </trkpt>
      <trkpt lat="41.074983" lon="-3.716817">
        <ele>1951.0</ele>
        <time>2013-06-04T19:24:59Z</time>
      </trkpt>
      <trkpt lat="41.075050" lon="-3.716717">
        <ele>1950.0</ele>
        <time>2013-06-04T19:25:00Z</time>
      </trkpt>
      <trkpt lat="41.075117" lon="-3.716633">
        <ele>1950.0</ele>
        <time>2013-06-04T19:25:01Z</time>
      </trkpt>
      <trkpt lat="41.075183" lon="-3.716533">
        <ele>1951.0</ele>
        <time>2013-06-04T19:25:02Z</time>
      </trkpt>
      <trkpt lat="41.075233" lon="-3.716433">
        <ele>1951.0</ele>
        <time>2013-06-04T19:25:03Z</time>
      </trkpt>
      <trkpt lat="41.075283" lon="-3.716333">
        <ele>1951.0</ele>
        <time>2013-06-04T19:25:04Z</time>
      </trkpt>
      <trkpt lat="41.075333" lon="-3.716233">
        <ele>1951.0</ele>
        <time>2013-06-04T19:25:05Z</time>
      </trkpt>
      <trkpt lat="41.075383" lon="-3.716117">
        <ele>1951.0</ele>
        <time>2013-06-04T19:25:06Z</time>
      </trkpt>
      <trkpt lat="41.075433" lon="-3.716017">
        <ele>1951.0</ele>
        <time>2013-06-04T19:25:07Z</time>
      </trkpt>
      <trkpt lat="41.075483" lon="-3.715900">
        <ele>1951.0</ele>
        <time>2013-06-04T19:25:08Z</time>
      </trkpt>
      <trkpt lat="41.075533" lon="-3.715783">
        <ele>1952.0</ele>
        <time>2013-06-04T19:25:09Z</time>
      </trkpt>
      <trkpt lat="41.075583" lon="-3.715667">
        <ele>1952.0</ele>
        <time>2013-06-04T19:25:10Z</time>
      </trkpt>
      <trkpt lat="41.075633" lon="-3.715550">
        <ele>1951.0</ele>
        <time>2013-06-04T19:25:11Z</time>
      </trkpt>
      <trkpt lat="41.075683" lon="-3.715433">
        <ele>1951.0</ele>
        <time>2013-06-04T19:25:12Z</time>
      </trkpt>
      <trkpt lat="41.075733" lon="-3.715317">
        <ele>1951.0</ele>
        <time>2013-06-04T19:25:13Z</time>
      </trkpt>
      <trkpt lat="41.075767" lon="-3.715183">
        <ele>1951.0</ele>
        <time>2013-06-04T19:25:14Z</time>
      </trkpt>
      <trkpt lat="41.075817" lon="-3.715067">
        <ele>1951.0</ele>
        <time>2013-06-04T19:25:15Z</time>
      </trkpt>
      <trkpt lat="41.075867" lon="-3.714950">
        <ele>1950.0</ele>
        <time>2013-06-04T19:25:16Z</time>
      </trkpt>
      <trkpt lat="41.075917" lon="-3.714833">
        <ele>1950.0</ele>
        <time>2013-06-04T19:25:17Z</time>
      </trkpt>
      <trkpt lat="41.075950" lon="-3.714700">
        <ele>1950.0</ele>
        <time>2013-06-04T19:25:18Z</time>
      </trkpt>
      <trkpt lat="41.076000" lon="-3.714583">
        <ele>1950.0</ele>
        <time>2013-06-04T19:25:19Z</time>
      </trkpt>
      <trkpt lat="41.076033" lon="-3.714450">
        <ele>1949.0</ele>
        <time>2013-06-04T19:25:20Z</time>
      </trkpt>
      <trkpt lat="41.076083" lon="-3.714317">
        <ele>1949.0</ele>
        <time>2013-06-04T19:25:21Z</time>
      </trkpt>
      <trkpt lat="41.076117" lon="-3.714200">
        <ele>1949.0</ele>
        <time>2013-06-04T19:25:22Z</time>
      </trkpt>
      <trkpt lat="41.076167" lon="-3.714067">
        <ele>1949.0</ele>
        <time>2013-06-04T19:25:23Z</time>
      </trkpt>
      <trkpt lat="41.076200" lon="-3.713933">
        <ele>1949.0</ele>
        <time>2013-06-04T19:25:24Z</time>
      </trkpt>
      <trkpt lat="41.076250" lon="-3.713817">
        <ele>1949.0</ele>
        <time>2013-06-04T19:25:25Z</time>
      </trkpt>
      <trkpt lat="41.076283" lon="-3.713683">
        <ele>1948.0</ele>
        <time>2013-06-04T19:25:26Z</time>
      </trkpt>
      <trkpt lat="41.076333" lon="-3.713567">
        <ele>1948.0</ele>
        <time>2013-06-04T19:25:27Z</time>
      </trkpt>
      <trkpt lat="41.076367" lon="-3.713433">
        <ele>1948.0</ele>
        <time>2013-06-04T19:25:28Z</time>
      </trkpt>
      <trkpt lat="41.076417" lon="-3.713317">
        <ele>1948.0</ele>
        <time>2013-06-04T19:25:29Z</time>
      </trkpt>
      <trkpt lat="41.076450" lon="-3.713183">
        <ele>1948.0</ele>
        <time>2013-06-04T19:25:30Z</time>
      </trkpt>
      <trkpt lat="41.076500" lon="-3.713067">
        <ele>1948.0</ele>
        <time>2013-06-04T19:25:31Z</time>
      </trkpt>
      <trkpt lat="41.076533" lon="-3.712933">
        <ele>1947.0</ele>
        <time>2013-06-04T19:25:32Z</time>
      </trkpt>
      <trkpt lat="41.076583" lon="-3.712817">
        <ele>1947.0</ele>
        <time>2013-06-04T19:25:33Z</time>
      </trkpt>
      <trkpt lat="41.076633" lon="-3.712683">
        <ele>1946.0</ele>
        <time>2013-06-04T19:25:34Z</time>
      </trkpt>
      <trkpt lat="41.076683" lon="-3.712567">
        <ele>1946.0</ele>
        <time>2013-06-04T19:25:35Z</time>
      </trkpt>
      <trkpt lat="41.076750" lon="-3.712450">
        <ele>1947.0</ele>
        <time>2013-06-04T19:25:36Z</time>
      </trkpt>
      <trkpt lat="41.076800" lon="-3.712367">
        <ele>1947.0</ele>
        <time>2013-06-04T19:25:37Z</time>
      </trkpt>
      <trkpt lat="41.076867" lon="-3.712283">
        <ele>1948.0</ele>
        <time>2013-06-04T19:25:38Z</time>
      </trkpt>
      <trkpt lat="41.076917" lon="-3.712233">
        <ele>1947.0</ele>
        <time>2013-06-04T19:25:39Z</time>
      </trkpt>
      <trkpt lat="41.076983" lon="-3.712200">
        <ele>1947.0</ele>
        <time>2013-06-04T19:25:40Z</time>
      </trkpt>
      <trkpt lat="41.077050" lon="-3.712200">
        <ele>1947.0</ele>
        <time>2013-06-04T19:25:41Z</time>
      </trkpt>
      <trkpt lat="41.077100" lon="-3.712217">
        <ele>1947.0</ele>
        <time>2013-06-04T19:25:42Z</time>
      </trkpt>
      <trkpt lat="41.077133" lon="-3.712250">
        <ele>1947.0</ele>
        <time>2013-06-04T19:25:43Z</time>
      </trkpt>
      <trkpt lat="41.077133" lon="-3.712317">
        <ele>1947.0</ele>
        <time>2013-06-04T19:25:44Z</time>
      </trkpt>
      <trkpt lat="41.077133" lon="-3.712367">
        <ele>1947.0</ele>
        <time>2013-06-04T19:25:45Z</time>
      </trkpt>
      <trkpt lat="41.077117" lon="-3.712433">
        <ele>1947.0</ele>
        <time>2013-06-04T19:25:46Z</time>
      </trkpt>
      <trkpt lat="41.077117" lon="-3.712500">
        <ele>1947.0</ele>
        <time>2013-06-04T19:25:47Z</time>
      </trkpt>
      <trkpt lat="41.077083" lon="-3.712550">
        <ele>1947.0</ele>
        <time>2013-06-04T19:25:48Z</time>
      </trkpt>
      <trkpt lat="41.077050" lon="-3.712617">
        <ele>1947.0</ele>
        <time>2013-06-04T19:25:49Z</time>
      </trkpt>
      <trkpt lat="41.077017" lon="-3.712667">
        <ele>1946.0</ele>
        <time>2013-06-04T19:25:50Z</time>
      </trkpt>
      <trkpt lat="41.076983" lon="-3.712733">
        <ele>1946.0</ele>
        <time>2013-06-04T19:25:51Z</time>
      </trkpt>
      <trkpt lat="41.076933" lon="-3.712783">
        <ele>1946.0</ele>
        <time>2013-06-04T19:25:52Z</time>
      </trkpt>
      <trkpt lat="41.076883" lon="-3.712850">
        <ele>1946.0</ele>
        <time>2013-06-04T19:25:53Z</time>
      </trkpt>
      <trkpt lat="41.076817" lon="-3.712900">
        <ele>1946.0</ele>
        <time>2013-06-04T19:25:54Z</time>
      </trkpt>
      <trkpt lat="41.076767" lon="-3.712950">
        <ele>1946.0</ele>
        <time>2013-06-04T19:25:55Z</time>
      </trkpt>
      <trkpt lat="41.076717" lon="-3.713017">
        <ele>1946.0</ele>
        <time>2013-06-04T19:25:56Z</time>
      </trkpt>
      <trkpt lat="41.076650" lon="-3.713067">
        <ele>1946.0</ele>
        <time>2013-06-04T19:25:57Z</time>
      </trkpt>
      <trkpt lat="41.076600" lon="-3.713133">
        <ele>1946.0</ele>
        <time>2013-06-04T19:25:58Z</time>
      </trkpt>
      <trkpt lat="41.076550" lon="-3.713183">
        <ele>1946.0</ele>
        <time>2013-06-04T19:25:59Z</time>
      </trkpt>
      <trkpt lat="41.076483" lon="-3.713233">
        <ele>1946.0</ele>
        <time>2013-06-04T19:26:00Z</time>
      </trkpt>
      <trkpt lat="41.076433" lon="-3.713283">
        <ele>1946.0</ele>
        <time>2013-06-04T19:26:01Z</time>
      </trkpt>
      <trkpt lat="41.076383" lon="-3.713333">
        <ele>1945.0</ele>
        <time>2013-06-04T19:26:02Z</time>
      </trkpt>
      <trkpt lat="41.076317" lon="-3.713383">
        <ele>1945.0</ele>
        <time>2013-06-04T19:26:03Z</time>
      </trkpt>
      <trkpt lat="41.076267" lon="-3.713450">
        <ele>1945.0</ele>
        <time>2013-06-04T19:26:04Z</time>
      </trkpt>
      <trkpt lat="41.076217" lon="-3.713500">
        <ele>1945.0</ele>
        <time>2013-06-04T19:26:05Z</time>
      </trkpt>
      <trkpt lat="41.076167" lon="-3.713567">
        <ele>1945.0</ele>
        <time>2013-06-04T19:26:06Z</time>
      </trkpt>
      <trkpt lat="41.076117" lon="-3.713617">
        <ele>1945.0</ele>
        <time>2013-06-04T19:26:07Z</time>
      </trkpt>
      <trkpt lat="41.076067" lon="-3.713683">
        <ele>1946.0</ele>
        <time>2013-06-04T19:26:08Z</time>
      </trkpt>
      <trkpt lat="41.076017" lon="-3.713733">
        <ele>1946.0</ele>
        <time>2013-06-04T19:26:09Z</time>
      </trkpt>
      <trkpt lat="41.075967" lon="-3.713783">
        <ele>1946.0</ele>
        <time>2013-06-04T19:26:10Z</time>
      </trkpt>
      <trkpt lat="41.075900" lon="-3.713833">
        <ele>1945.0</ele>
        <time>2013-06-04T19:26:11Z</time>
      </trkpt>
      <trkpt lat="41.075850" lon="-3.713883">
        <ele>1945.0</ele>
        <time>2013-06-04T19:26:12Z</time>
      </trkpt>
      <trkpt lat="41.075800" lon="-3.713933">
        <ele>1945.0</ele>
        <time>2013-06-04T19:26:13Z</time>
      </trkpt>
      <trkpt lat="41.075750" lon="-3.713983">
        <ele>1946.0</ele>
        <time>2013-06-04T19:26:14Z</time>
      </trkpt>
      <trkpt lat="41.075683" lon="-3.714033">
        <ele>1946.0</ele>
        <time>2013-06-04T19:26:15Z</time>
      </trkpt>
      <trkpt lat="41.075633" lon="-3.714083">
        <ele>1946.0</ele>
        <time>2013-06-04T19:26:16Z</time>
      </trkpt>
      <trkpt lat="41.075567" lon="-3.714133">
        <ele>1946.0</ele>
        <time>2013-06-04T19:26:17Z</time>
      </trkpt>
      <trkpt lat="41.075517" lon="-3.714183">
        <ele>1946.0</ele>
        <time>2013-06-04T19:26:18Z</time>
      </trkpt>
      <trkpt lat="41.075450" lon="-3.714217">
        <ele>1946.0</ele>
        <time>2013-06-04T19:26:19Z</time>
      </trkpt>
      <trkpt lat="41.075400" lon="-3.714267">
        <ele>1946.0</ele>
        <time>2013-06-04T19:26:20Z</time>
      </trkpt>
      <trkpt lat="41.075333" lon="-3.714317">
        <ele>1946.0</ele>
        <time>2013-06-04T19:26:21Z</time>
      </trkpt>
      <trkpt lat="41.075283" lon="-3.714367">
        <ele>1946.0</ele>
        <time>2013-06-04T19:26:22Z</time>
      </trkpt>
      <trkpt lat="41.075217" lon="-3.714417">
        <ele>1946.0</ele>
        <time>2013-06-04T19:26:23Z</time>
      </trkpt>
      <trkpt lat="41.075167" lon="-3.714483">
        <ele>1946.0</ele>
        <time>2013-06-04T19:26:24Z</time>
      </trkpt>
      <trkpt lat="41.075117" lon="-3.714533">
        <ele>1946.0</ele>
        <time>2013-06-04T19:26:25Z</time>
      </trkpt>
      <trkpt lat="41.075067" lon="-3.714583">
        <ele>1947.0</ele>
        <time>2013-06-04T19:26:26Z</time>
      </trkpt>
      <trkpt lat="41.075033" lon="-3.714633">
        <ele>1947.0</ele>
        <time>2013-06-04T19:26:27Z</time>
      </trkpt>
      <trkpt lat="41.075000" lon="-3.714683">
        <ele>1947.0</ele>
        <time>2013-06-04T19:26:28Z</time>
      </trkpt>
      <trkpt lat="41.074967" lon="-3.714750">
        <ele>1947.0</ele>
        <time>2013-06-04T19:26:29Z</time>
      </trkpt>
      <trkpt lat="41.074950" lon="-3.714817">
        <ele>1947.0</ele>
        <time>2013-06-04T19:26:30Z</time>
      </trkpt>
      <trkpt lat="41.074917" lon="-3.714867">
        <ele>1947.0</ele>
        <time>2013-06-04T19:26:31Z</time>
      </trkpt>
      <trkpt lat="41.074900" lon="-3.714933">
        <ele>1947.0</ele>
        <time>2013-06-04T19:26:32Z</time>
      </trkpt>
      <trkpt lat="41.074867" lon="-3.714983">
        <ele>1947.0</ele>
        <time>2013-06-04T19:26:33Z</time>
      </trkpt>
      <trkpt lat="41.074833" lon="-3.715050">
        <ele>1947.0</ele>
        <time>2013-06-04T19:26:34Z</time>
      </trkpt>
      <trkpt lat="41.074800" lon="-3.715100">
        <ele>1946.0</ele>
        <time>2013-06-04T19:26:35Z</time>
      </trkpt>
      <trkpt lat="41.074783" lon="-3.715167">
        <ele>1946.0</ele>
        <time>2013-06-04T19:26:36Z</time>
      </trkpt>
      <trkpt lat="41.074733" lon="-3.715217">
        <ele>1946.0</ele>
        <time>2013-06-04T19:26:37Z</time>
      </trkpt>
      <trkpt lat="41.074683" lon="-3.715267">
        <ele>1946.0</ele>
        <time>2013-06-04T19:26:38Z</time>
      </trkpt>
      <trkpt lat="41.074617" lon="-3.715300">
        <ele>1946.0</ele>
        <time>2013-06-04T19:26:39Z</time>
      </trkpt>
      <trkpt lat="41.074550" lon="-3.715350">
        <ele>1946.0</ele>
        <time>2013-06-04T19:26:40Z</time>
      </trkpt>
      <trkpt lat="41.074483" lon="-3.715383">
        <ele>1946.0</ele>
        <time>2013-06-04T19:26:41Z</time>
      </trkpt>
      <trkpt lat="41.074417" lon="-3.715417">
        <ele>1945.0</ele>
        <time>2013-06-04T19:26:42Z</time>
      </trkpt>
      <trkpt lat="41.074350" lon="-3.715467">
        <ele>1945.0</ele>
        <time>2013-06-04T19:26:43Z</time>
      </trkpt>
      <trkpt lat="41.074283" lon="-3.715500">
        <ele>1944.0</ele>
        <time>2013-06-04T19:26:44Z</time>
      </trkpt>
      <trkpt lat="41.074217" lon="-3.715533">
        <ele>1944.0</ele>
        <time>2013-06-04T19:26:45Z</time>
      </trkpt>
      <trkpt lat="41.074150" lon="-3.715583">
        <ele>1944.0</ele>
        <time>2013-06-04T19:26:46Z</time>
      </trkpt>
      <trkpt lat="41.074100" lon="-3.715617">
        <ele>1944.0</ele>
        <time>2013-06-04T19:26:47Z</time>
      </trkpt>
      <trkpt lat="41.074033" lon="-3.715667">
        <ele>1943.0</ele>
        <time>2013-06-04T19:26:48Z</time>
      </trkpt>
      <trkpt lat="41.073983" lon="-3.715700">
        <ele>1943.0</ele>
        <time>2013-06-04T19:26:49Z</time>
      </trkpt>
      <trkpt lat="41.073917" lon="-3.715750">
        <ele>1942.0</ele>
        <time>2013-06-04T19:26:50Z</time>
      </trkpt>
      <trkpt lat="41.073867" lon="-3.715800">
        <ele>1942.0</ele>
        <time>2013-06-04T19:26:51Z</time>
      </trkpt>
      <trkpt lat="41.073817" lon="-3.715850">
        <ele>1942.0</ele>
        <time>2013-06-04T19:26:52Z</time>
      </trkpt>
      <trkpt lat="41.073783" lon="-3.715900">
        <ele>1942.0</ele>
        <time>2013-06-04T19:26:53Z</time>
      </trkpt>
      <trkpt lat="41.073733" lon="-3.715950">
        <ele>1942.0</ele>
        <time>2013-06-04T19:26:54Z</time>
      </trkpt>
      <trkpt lat="41.073683" lon="-3.715983">
        <ele>1941.0</ele>
        <time>2013-06-04T19:26:55Z</time>
      </trkpt>
      <trkpt lat="41.073633" lon="-3.716033">
        <ele>1941.0</ele>
        <time>2013-06-04T19:26:56Z</time>
      </trkpt>
      <trkpt lat="41.073567" lon="-3.716083">
        <ele>1940.0</ele>
        <time>2013-06-04T19:26:57Z</time>
      </trkpt>
      <trkpt lat="41.073517" lon="-3.716133">
        <ele>1940.0</ele>
        <time>2013-06-04T19:26:58Z</time>
      </trkpt>
      <trkpt lat="41.073467" lon="-3.716200">
        <ele>1940.0</ele>
        <time>2013-06-04T19:26:59Z</time>
      </trkpt>
      <trkpt lat="41.073417" lon="-3.716250">
        <ele>1940.0</ele>
        <time>2013-06-04T19:27:00Z</time>
      </trkpt>
      <trkpt lat="41.073367" lon="-3.716283">
        <ele>1941.0</ele>
        <time>2013-06-04T19:27:01Z</time>
      </trkpt>
      <trkpt lat="41.073317" lon="-3.716333">
        <ele>1941.0</ele>
        <time>2013-06-04T19:27:02Z</time>
      </trkpt>
      <trkpt lat="41.073250" lon="-3.716367">
        <ele>1941.0</ele>
        <time>2013-06-04T19:27:03Z</time>
      </trkpt>
      <trkpt lat="41.073200" lon="-3.716417">
        <ele>1941.0</ele>
        <time>2013-06-04T19:27:04Z</time>
      </trkpt>
      <trkpt lat="41.073150" lon="-3.716450">
        <ele>1940.0</ele>
        <time>2013-06-04T19:27:05Z</time>
      </trkpt>
      <trkpt lat="41.073083" lon="-3.716500">
        <ele>1940.0</ele>
        <time>2013-06-04T19:27:06Z</time>
      </trkpt>
      <trkpt lat="41.073033" lon="-3.716550">
        <ele>1940.0</ele>
        <time>2013-06-04T19:27:07Z</time>
      </trkpt>
      <trkpt lat="41.072967" lon="-3.716583">
        <ele>1940.0</ele>
        <time>2013-06-04T19:27:08Z</time>
      </trkpt>
      <trkpt lat="41.072917" lon="-3.716633">
        <ele>1940.0</ele>
        <time>2013-06-04T19:27:09Z</time>
      </trkpt>
      <trkpt lat="41.072850" lon="-3.716667">
        <ele>1940.0</ele>
        <time>2013-06-04T19:27:10Z</time>
      </trkpt>
      <trkpt lat="41.072800" lon="-3.716717">
        <ele>1939.0</ele>
        <time>2013-06-04T19:27:11Z</time>
      </trkpt>
      <trkpt lat="41.072733" lon="-3.716750">
        <ele>1939.0</ele>
        <time>2013-06-04T19:27:12Z</time>
      </trkpt>
      <trkpt lat="41.072667" lon="-3.716800">
        <ele>1938.0</ele>
        <time>2013-06-04T19:27:13Z</time>
      </trkpt>
      <trkpt lat="41.072617" lon="-3.716833">
        <ele>1938.0</ele>
        <time>2013-06-04T19:27:14Z</time>
      </trkpt>
      <trkpt lat="41.072550" lon="-3.716883">
        <ele>1938.0</ele>
        <time>2013-06-04T19:27:15Z</time>
      </trkpt>
      <trkpt lat="41.072500" lon="-3.716917">
        <ele>1938.0</ele>
        <time>2013-06-04T19:27:16Z</time>
      </trkpt>
      <trkpt lat="41.072433" lon="-3.716967">
        <ele>1938.0</ele>
        <time>2013-06-04T19:27:17Z</time>
      </trkpt>
      <trkpt lat="41.072383" lon="-3.717000">
        <ele>1937.0</ele>
        <time>2013-06-04T19:27:18Z</time>
      </trkpt>
      <trkpt lat="41.072317" lon="-3.717050">
        <ele>1936.0</ele>
        <time>2013-06-04T19:27:19Z</time>
      </trkpt>
      <trkpt lat="41.072267" lon="-3.717100">
        <ele>1935.0</ele>
        <time>2013-06-04T19:27:20Z</time>
      </trkpt>
      <trkpt lat="41.072200" lon="-3.717167">
        <ele>1935.0</ele>
        <time>2013-06-04T19:27:21Z</time>
      </trkpt>
      <trkpt lat="41.072150" lon="-3.717200">
        <ele>1936.0</ele>
        <time>2013-06-04T19:27:22Z</time>
      </trkpt>
      <trkpt lat="41.072100" lon="-3.717233">
        <ele>1936.0</ele>
        <time>2013-06-04T19:27:23Z</time>
      </trkpt>
      <trkpt lat="41.072033" lon="-3.717267">
        <ele>1936.0</ele>
        <time>2013-06-04T19:27:24Z</time>
      </trkpt>
      <trkpt lat="41.071983" lon="-3.717317">
        <ele>1935.0</ele>
        <time>2013-06-04T19:27:25Z</time>
      </trkpt>
      <trkpt lat="41.071917" lon="-3.717367">
        <ele>1935.0</ele>
        <time>2013-06-04T19:27:26Z</time>
      </trkpt>
      <trkpt lat="41.071867" lon="-3.717417">
        <ele>1934.0</ele>
        <time>2013-06-04T19:27:27Z</time>
      </trkpt>
      <trkpt lat="41.071817" lon="-3.717467">
        <ele>1934.0</ele>
        <time>2013-06-04T19:27:28Z</time>
      </trkpt>
      <trkpt lat="41.071750" lon="-3.717517">
        <ele>1935.0</ele>
        <time>2013-06-04T19:27:29Z</time>
      </trkpt>
      <trkpt lat="41.071700" lon="-3.717550">
        <ele>1935.0</ele>
        <time>2013-06-04T19:27:30Z</time>
      </trkpt>
      <trkpt lat="41.071650" lon="-3.717600">
        <ele>1935.0</ele>
        <time>2013-06-04T19:27:31Z</time>
      </trkpt>
      <trkpt lat="41.071600" lon="-3.717650">
        <ele>1935.0</ele>
        <time>2013-06-04T19:27:32Z</time>
      </trkpt>
      <trkpt lat="41.071550" lon="-3.717683">
        <ele>1935.0</ele>
        <time>2013-06-04T19:27:33Z</time>
      </trkpt>
      <trkpt lat="41.071517" lon="-3.717733">
        <ele>1934.0</ele>
        <time>2013-06-04T19:27:34Z</time>
      </trkpt>
      <trkpt lat="41.071467" lon="-3.717783">
        <ele>1934.0</ele>
        <time>2013-06-04T19:27:35Z</time>
      </trkpt>
      <trkpt lat="41.071417" lon="-3.717817">
        <ele>1934.0</ele>
        <time>2013-06-04T19:27:36Z</time>
      </trkpt>
      <trkpt lat="41.071367" lon="-3.717867">
        <ele>1934.0</ele>
        <time>2013-06-04T19:27:37Z</time>
      </trkpt>
      <trkpt lat="41.071333" lon="-3.717917">
        <ele>1934.0</ele>
        <time>2013-06-04T19:27:38Z</time>
      </trkpt>
      <trkpt lat="41.071283" lon="-3.717967">
        <ele>1934.0</ele>
        <time>2013-06-04T19:27:39Z</time>
      </trkpt>
      <trkpt lat="41.071250" lon="-3.718017">
        <ele>1934.0</ele>
        <time>2013-06-04T19:27:40Z</time>
      </trkpt>
      <trkpt lat="41.071200" lon="-3.718050">
        <ele>1934.0</ele>
        <time>2013-06-04T19:27:41Z</time>
      </trkpt>
      <trkpt lat="41.071167" lon="-3.718100">
        <ele>1934.0</ele>
        <time>2013-06-04T19:27:42Z</time>
      </trkpt>
      <trkpt lat="41.071133" lon="-3.718150">
        <ele>1934.0</ele>
        <time>2013-06-04T19:27:43Z</time>
      </trkpt>
      <trkpt lat="41.071083" lon="-3.718183">
        <ele>1933.0</ele>
        <time>2013-06-04T19:27:44Z</time>
      </trkpt>
      <trkpt lat="41.071050" lon="-3.718233">
        <ele>1933.0</ele>
        <time>2013-06-04T19:27:45Z</time>
      </trkpt>
      <trkpt lat="41.071017" lon="-3.718283">
        <ele>1933.0</ele>
        <time>2013-06-04T19:27:46Z</time>
      </trkpt>
      <trkpt lat="41.070983" lon="-3.718333">
        <ele>1932.0</ele>
        <time>2013-06-04T19:27:47Z</time>
      </trkpt>
      <trkpt lat="41.070933" lon="-3.718383">
        <ele>1932.0</ele>
        <time>2013-06-04T19:27:48Z</time>
      </trkpt>
      <trkpt lat="41.070883" lon="-3.718433">
        <ele>1932.0</ele>
        <time>2013-06-04T19:27:49Z</time>
      </trkpt>
      <trkpt lat="41.070850" lon="-3.718483">
        <ele>1932.0</ele>
        <time>2013-06-04T19:27:50Z</time>
      </trkpt>
      <trkpt lat="41.070800" lon="-3.718517">
        <ele>1932.0</ele>
        <time>2013-06-04T19:27:51Z</time>
      </trkpt>
      <trkpt lat="41.070750" lon="-3.718567">
        <ele>1932.0</ele>
        <time>2013-06-04T19:27:52Z</time>
      </trkpt>
      <trkpt lat="41.070700" lon="-3.718600">
        <ele>1931.0</ele>
        <time>2013-06-04T19:27:53Z</time>
      </trkpt>
      <trkpt lat="41.070650" lon="-3.718650">
        <ele>1931.0</ele>
        <time>2013-06-04T19:27:54Z</time>
      </trkpt>
      <trkpt lat="41.070617" lon="-3.718700">
        <ele>1931.0</ele>
        <time>2013-06-04T19:27:55Z</time>
      </trkpt>
      <trkpt lat="41.070567" lon="-3.718750">
        <ele>1931.0</ele>
        <time>2013-06-04T19:27:56Z</time>
      </trkpt>
      <trkpt lat="41.070517" lon="-3.718783">
        <ele>1931.0</ele>
        <time>2013-06-04T19:27:57Z</time>
      </trkpt>
      <trkpt lat="41.070467" lon="-3.718833">
        <ele>1931.0</ele>
        <time>2013-06-04T19:27:58Z</time>
      </trkpt>
      <trkpt lat="41.070417" lon="-3.718883">
        <ele>1931.0</ele>
        <time>2013-06-04T19:27:59Z</time>
      </trkpt>
      <trkpt lat="41.070367" lon="-3.718933">
        <ele>1931.0</ele>
        <time>2013-06-04T19:28:00Z</time>
      </trkpt>
      <trkpt lat="41.070333" lon="-3.718967">
        <ele>1931.0</ele>
        <time>2013-06-04T19:28:01Z</time>
      </trkpt>
      <trkpt lat="41.070283" lon="-3.719017">
        <ele>1932.0</ele>
        <time>2013-06-04T19:28:02Z</time>
      </trkpt>
      <trkpt lat="41.070233" lon="-3.719050">
        <ele>1932.0</ele>
        <time>2013-06-04T19:28:03Z</time>
      </trkpt>
      <trkpt lat="41.070200" lon="-3.719100">
        <ele>1932.0</ele>
        <time>2013-06-04T19:28:04Z</time>
      </trkpt>
      <trkpt lat="41.070150" lon="-3.719150">
        <ele>1931.0</ele>
        <time>2013-06-04T19:28:05Z</time>
      </trkpt>
      <trkpt lat="41.070100" lon="-3.719200">
        <ele>1931.0</ele>
        <time>2013-06-04T19:28:06Z</time>
      </trkpt>
      <trkpt lat="41.070067" lon="-3.719250">
        <ele>1932.0</ele>
        <time>2013-06-04T19:28:07Z</time>
      </trkpt>
      <trkpt lat="41.070017" lon="-3.719300">
        <ele>1932.0</ele>
        <time>2013-06-04T19:28:08Z</time>
      </trkpt>
      <trkpt lat="41.069983" lon="-3.719333">
        <ele>1932.0</ele>
        <time>2013-06-04T19:28:09Z</time>
      </trkpt>
      <trkpt lat="41.069933" lon="-3.719383">
        <ele>1932.0</ele>
        <time>2013-06-04T19:28:10Z</time>
      </trkpt>
      <trkpt lat="41.069900" lon="-3.719433">
        <ele>1932.0</ele>
        <time>2013-06-04T19:28:11Z</time>
      </trkpt>
      <trkpt lat="41.069850" lon="-3.719467">
        <ele>1932.0</ele>
        <time>2013-06-04T19:28:12Z</time>
      </trkpt>
      <trkpt lat="41.069817" lon="-3.719517">
        <ele>1933.0</ele>
        <time>2013-06-04T19:28:13Z</time>
      </trkpt>
      <trkpt lat="41.069767" lon="-3.719567">
        <ele>1933.0</ele>
        <time>2013-06-04T19:28:14Z</time>
      </trkpt>
      <trkpt lat="41.069733" lon="-3.719617">
        <ele>1933.0</ele>
        <time>2013-06-04T19:28:15Z</time>
      </trkpt>
      <trkpt lat="41.069683" lon="-3.719650">
        <ele>1933.0</ele>
        <time>2013-06-04T19:28:16Z</time>
      </trkpt>
      <trkpt lat="41.069650" lon="-3.719700">
        <ele>1933.0</ele>
        <time>2013-06-04T19:28:17Z</time>
      </trkpt>
      <trkpt lat="41.069617" lon="-3.719750">
        <ele>1933.0</ele>
        <time>2013-06-04T19:28:18Z</time>
      </trkpt>
      <trkpt lat="41.069567" lon="-3.719783">
        <ele>1933.0</ele>
        <time>2013-06-04T19:28:19Z</time>
      </trkpt>
      <trkpt lat="41.069533" lon="-3.719833">
        <ele>1934.0</ele>
        <time>2013-06-04T19:28:20Z</time>
      </trkpt>
      <trkpt lat="41.069483" lon="-3.719883">
        <ele>1935.0</ele>
        <time>2013-06-04T19:28:21Z</time>
      </trkpt>
      <trkpt lat="41.069433" lon="-3.719917">
        <ele>1935.0</ele>
        <time>2013-06-04T19:28:22Z</time>
      </trkpt>
      <trkpt lat="41.069400" lon="-3.719950">
        <ele>1935.0</ele>
        <time>2013-06-04T19:28:23Z</time>
      </trkpt>
      <trkpt lat="41.069350" lon="-3.720000">
        <ele>1936.0</ele>
        <time>2013-06-04T19:28:24Z</time>
      </trkpt>
      <trkpt lat="41.069317" lon="-3.720050">
        <ele>1936.0</ele>
        <time>2013-06-04T19:28:25Z</time>
      </trkpt>
      <trkpt lat="41.069267" lon="-3.720083">
        <ele>1936.0</ele>
        <time>2013-06-04T19:28:26Z</time>
      </trkpt>
      <trkpt lat="41.069233" lon="-3.720133">
        <ele>1936.0</ele>
        <time>2013-06-04T19:28:27Z</time>
      </trkpt>
      <trkpt lat="41.069183" lon="-3.720183">
        <ele>1936.0</ele>
        <time>2013-06-04T19:28:28Z</time>
      </trkpt>
      <trkpt lat="41.069150" lon="-3.720233">
        <ele>1936.0</ele>
        <time>2013-06-04T19:28:29Z</time>
      </trkpt>
      <trkpt lat="41.069100" lon="-3.720283">
        <ele>1936.0</ele>
        <time>2013-06-04T19:28:30Z</time>
      </trkpt>
      <trkpt lat="41.069050" lon="-3.720317">
        <ele>1936.0</ele>
        <time>2013-06-04T19:28:31Z</time>
      </trkpt>
      <trkpt lat="41.069000" lon="-3.720367">
        <ele>1936.0</ele>
        <time>2013-06-04T19:28:32Z</time>
      </trkpt>
      <trkpt lat="41.068967" lon="-3.720417">
        <ele>1937.0</ele>
        <time>2013-06-04T19:28:33Z</time>
      </trkpt>
      <trkpt lat="41.068917" lon="-3.720450">
        <ele>1938.0</ele>
        <time>2013-06-04T19:28:34Z</time>
      </trkpt>
      <trkpt lat="41.068883" lon="-3.720500">
        <ele>1938.0</ele>
        <time>2013-06-04T19:28:35Z</time>
      </trkpt>
      <trkpt lat="41.068833" lon="-3.720550">
        <ele>1938.0</ele>
        <time>2013-06-04T19:28:36Z</time>
      </trkpt>
      <trkpt lat="41.068800" lon="-3.720583">
        <ele>1938.0</ele>
        <time>2013-06-04T19:28:37Z</time>
      </trkpt>
      <trkpt lat="41.068750" lon="-3.720633">
        <ele>1938.0</ele>
        <time>2013-06-04T19:28:38Z</time>
      </trkpt>
      <trkpt lat="41.068717" lon="-3.720700">
        <ele>1938.0</ele>
        <time>2013-06-04T19:28:39Z</time>
      </trkpt>
      <trkpt lat="41.068667" lon="-3.720733">
        <ele>1939.0</ele>
        <time>2013-06-04T19:28:40Z</time>
      </trkpt>
      <trkpt lat="41.068633" lon="-3.720783">
        <ele>1940.0</ele>
        <time>2013-06-04T19:28:41Z</time>
      </trkpt>
      <trkpt lat="41.068600" lon="-3.720833">
        <ele>1940.0</ele>
        <time>2013-06-04T19:28:42Z</time>
      </trkpt>
      <trkpt lat="41.068550" lon="-3.720867">
        <ele>1940.0</ele>
        <time>2013-06-04T19:28:43Z</time>
      </trkpt>
      <trkpt lat="41.068517" lon="-3.720917">
        <ele>1940.0</ele>
        <time>2013-06-04T19:28:44Z</time>
      </trkpt>
      <trkpt lat="41.068467" lon="-3.720967">
        <ele>1940.0</ele>
        <time>2013-06-04T19:28:45Z</time>
      </trkpt>
      <trkpt lat="41.068417" lon="-3.721017">
        <ele>1941.0</ele>
        <time>2013-06-04T19:28:46Z</time>
      </trkpt>
      <trkpt lat="41.068367" lon="-3.721067">
        <ele>1942.0</ele>
        <time>2013-06-04T19:28:47Z</time>
      </trkpt>
      <trkpt lat="41.068333" lon="-3.721100">
        <ele>1942.0</ele>
        <time>2013-06-04T19:28:48Z</time>
      </trkpt>
      <trkpt lat="41.068267" lon="-3.721150">
        <ele>1943.0</ele>
        <time>2013-06-04T19:28:49Z</time>
      </trkpt>
      <trkpt lat="41.068217" lon="-3.721183">
        <ele>1943.0</ele>
        <time>2013-06-04T19:28:50Z</time>
      </trkpt>
      <trkpt lat="41.068167" lon="-3.721233">
        <ele>1943.0</ele>
        <time>2013-06-04T19:28:51Z</time>
      </trkpt>
      <trkpt lat="41.068117" lon="-3.721283">
        <ele>1944.0</ele>
        <time>2013-06-04T19:28:52Z</time>
      </trkpt>
      <trkpt lat="41.068050" lon="-3.721317">
        <ele>1944.0</ele>
        <time>2013-06-04T19:28:53Z</time>
      </trkpt>
      <trkpt lat="41.068000" lon="-3.721367">
        <ele>1945.0</ele>
        <time>2013-06-04T19:28:54Z</time>
      </trkpt>
      <trkpt lat="41.067950" lon="-3.721400">
        <ele>1945.0</ele>
        <time>2013-06-04T19:28:55Z</time>
      </trkpt>
      <trkpt lat="41.067900" lon="-3.721450">
        <ele>1945.0</ele>
        <time>2013-06-04T19:28:56Z</time>
      </trkpt>
      <trkpt lat="41.067833" lon="-3.721500">
        <ele>1946.0</ele>
        <time>2013-06-04T19:28:57Z</time>
      </trkpt>
      <trkpt lat="41.067783" lon="-3.721533">
        <ele>1946.0</ele>
        <time>2013-06-04T19:28:58Z</time>
      </trkpt>
      <trkpt lat="41.067733" lon="-3.721583">
        <ele>1947.0</ele>
        <time>2013-06-04T19:28:59Z</time>
      </trkpt>
      <trkpt lat="41.067683" lon="-3.721633">
        <ele>1948.0</ele>
        <time>2013-06-04T19:29:00Z</time>
      </trkpt>
      <trkpt lat="41.067633" lon="-3.721667">
        <ele>1948.0</ele>
        <time>2013-06-04T19:29:01Z</time>
      </trkpt>
      <trkpt lat="41.067583" lon="-3.721717">
        <ele>1948.0</ele>
        <time>2013-06-04T19:29:02Z</time>
      </trkpt>
      <trkpt lat="41.067517" lon="-3.721750">
        <ele>1949.0</ele>
        <time>2013-06-04T19:29:03Z</time>
      </trkpt>
      <trkpt lat="41.067467" lon="-3.721800">
        <ele>1949.0</ele>
        <time>2013-06-04T19:29:04Z</time>
      </trkpt>
      <trkpt lat="41.067417" lon="-3.721850">
        <ele>1950.0</ele>
        <time>2013-06-04T19:29:05Z</time>
      </trkpt>
      <trkpt lat="41.067367" lon="-3.721883">
        <ele>1951.0</ele>
        <time>2013-06-04T19:29:06Z</time>
      </trkpt>
      <trkpt lat="41.067317" lon="-3.721933">
        <ele>1951.0</ele>
        <time>2013-06-04T19:29:07Z</time>
      </trkpt>
      <trkpt lat="41.067267" lon="-3.721967">
        <ele>1951.0</ele>
        <time>2013-06-04T19:29:08Z</time>
      </trkpt>
      <trkpt lat="41.067200" lon="-3.722017">
        <ele>1952.0</ele>
        <time>2013-06-04T19:29:09Z</time>
      </trkpt>
      <trkpt lat="41.067150" lon="-3.722067">
        <ele>1952.0</ele>
        <time>2013-06-04T19:29:10Z</time>
      </trkpt>
      <trkpt lat="41.067100" lon="-3.722117">
        <ele>1953.0</ele>
        <time>2013-06-04T19:29:11Z</time>
      </trkpt>
      <trkpt lat="41.067050" lon="-3.722150">
        <ele>1953.0</ele>
        <time>2013-06-04T19:29:12Z</time>
      </trkpt>
      <trkpt lat="41.067000" lon="-3.722200">
        <ele>1954.0</ele>
        <time>2013-06-04T19:29:13Z</time>
      </trkpt>
      <trkpt lat="41.066950" lon="-3.722250">
        <ele>1954.0</ele>
        <time>2013-06-04T19:29:14Z</time>
      </trkpt>
      <trkpt lat="41.066900" lon="-3.722283">
        <ele>1954.0</ele>
        <time>2013-06-04T19:29:15Z</time>
      </trkpt>
      <trkpt lat="41.066850" lon="-3.722333">
        <ele>1954.0</ele>
        <time>2013-06-04T19:29:16Z</time>
      </trkpt>
      <trkpt lat="41.066800" lon="-3.722383">
        <ele>1955.0</ele>
        <time>2013-06-04T19:29:17Z</time>
      </trkpt>
      <trkpt lat="41.066750" lon="-3.722417">
        <ele>1955.0</ele>
        <time>2013-06-04T19:29:18Z</time>
      </trkpt>
      <trkpt lat="41.066700" lon="-3.722450">
        <ele>1956.0</ele>
        <time>2013-06-04T19:29:19Z</time>
      </trkpt>
      <trkpt lat="41.066650" lon="-3.722500">
        <ele>1956.0</ele>
        <time>2013-06-04T19:29:20Z</time>
      </trkpt>
      <trkpt lat="41.066617" lon="-3.722533">
        <ele>1956.0</ele>
        <time>2013-06-04T19:29:21Z</time>
      </trkpt>
      <trkpt lat="41.066583" lon="-3.722583">
        <ele>1956.0</ele>
        <time>2013-06-04T19:29:22Z</time>
      </trkpt>
      <trkpt lat="41.066533" lon="-3.722617">
        <ele>1956.0</ele>
        <time>2013-06-04T19:29:23Z</time>
      </trkpt>
      <trkpt lat="41.066500" lon="-3.722667">
        <ele>1957.0</ele>
        <time>2013-06-04T19:29:24Z</time>
      </trkpt>
      <trkpt lat="41.066467" lon="-3.722717">
        <ele>1957.0</ele>
        <time>2013-06-04T19:29:25Z</time>
      </trkpt>
      <trkpt lat="41.066433" lon="-3.722750">
        <ele>1957.0</ele>
        <time>2013-06-04T19:29:26Z</time>
      </trkpt>
      <trkpt lat="41.066417" lon="-3.722800">
        <ele>1958.0</ele>
        <time>2013-06-04T19:29:27Z</time>
      </trkpt>
      <trkpt lat="41.066383" lon="-3.722833">
        <ele>1958.0</ele>
        <time>2013-06-04T19:29:28Z</time>
      </trkpt>
      <trkpt lat="41.066367" lon="-3.722883">
        <ele>1958.0</ele>
        <time>2013-06-04T19:29:29Z</time>
      </trkpt>
      <trkpt lat="41.066333" lon="-3.722917">
        <ele>1959.0</ele>
        <time>2013-06-04T19:29:30Z</time>
      </trkpt>
      <trkpt lat="41.066283" lon="-3.722967">
        <ele>1959.0</ele>
        <time>2013-06-04T19:29:31Z</time>
      </trkpt>
      <trkpt lat="41.066233" lon="-3.723017">
        <ele>1959.0</ele>
        <time>2013-06-04T19:29:32Z</time>
      </trkpt>
      <trkpt lat="41.066183" lon="-3.723050">
        <ele>1959.0</ele>
        <time>2013-06-04T19:29:33Z</time>
      </trkpt>
      <trkpt lat="41.066133" lon="-3.723100">
        <ele>1960.0</ele>
        <time>2013-06-04T19:29:34Z</time>
      </trkpt>
      <trkpt lat="41.066067" lon="-3.723133">
        <ele>1960.0</ele>
        <time>2013-06-04T19:29:35Z</time>
      </trkpt>
      <trkpt lat="41.066000" lon="-3.723167">
        <ele>1961.0</ele>
        <time>2013-06-04T19:29:36Z</time>
      </trkpt>
      <trkpt lat="41.065933" lon="-3.723200">
        <ele>1961.0</ele>
        <time>2013-06-04T19:29:37Z</time>
      </trkpt>
      <trkpt lat="41.065867" lon="-3.723250">
        <ele>1961.0</ele>
        <time>2013-06-04T19:29:38Z</time>
      </trkpt>
      <trkpt lat="41.065800" lon="-3.723283">
        <ele>1961.0</ele>
        <time>2013-06-04T19:29:39Z</time>
      </trkpt>
      <trkpt lat="41.065750" lon="-3.723333">
        <ele>1961.0</ele>
        <time>2013-06-04T19:29:40Z</time>
      </trkpt>
      <trkpt lat="41.065683" lon="-3.723383">
        <ele>1962.0</ele>
        <time>2013-06-04T19:29:41Z</time>
      </trkpt>
      <trkpt lat="41.065633" lon="-3.723433">
        <ele>1962.0</ele>
        <time>2013-06-04T19:29:42Z</time>
      </trkpt>
      <trkpt lat="41.065583" lon="-3.723483">
        <ele>1963.0</ele>
        <time>2013-06-04T19:29:43Z</time>
      </trkpt>
      <trkpt lat="41.065533" lon="-3.723533">
        <ele>1963.0</ele>
        <time>2013-06-04T19:29:44Z</time>
      </trkpt>
      <trkpt lat="41.065467" lon="-3.723567">
        <ele>1964.0</ele>
        <time>2013-06-04T19:29:45Z</time>
      </trkpt>
      <trkpt lat="41.065417" lon="-3.723617">
        <ele>1964.0</ele>
        <time>2013-06-04T19:29:46Z</time>
      </trkpt>
      <trkpt lat="41.065367" lon="-3.723667">
        <ele>1964.0</ele>
        <time>2013-06-04T19:29:47Z</time>
      </trkpt>
      <trkpt lat="41.065333" lon="-3.723717">
        <ele>1964.0</ele>
        <time>2013-06-04T19:29:48Z</time>
      </trkpt>
      <trkpt lat="41.065283" lon="-3.723750">
        <ele>1965.0</ele>
        <time>2013-06-04T19:29:49Z</time>
      </trkpt>
      <trkpt lat="41.065233" lon="-3.723800">
        <ele>1965.0</ele>
        <time>2013-06-04T19:29:50Z</time>
      </trkpt>
      <trkpt lat="41.065183" lon="-3.723850">
        <ele>1965.0</ele>
        <time>2013-06-04T19:29:51Z</time>
      </trkpt>
      <trkpt lat="41.065150" lon="-3.723900">
        <ele>1965.0</ele>
        <time>2013-06-04T19:29:52Z</time>
      </trkpt>
      <trkpt lat="41.065100" lon="-3.723950">
        <ele>1965.0</ele>
        <time>2013-06-04T19:29:53Z</time>
      </trkpt>
      <trkpt lat="41.065067" lon="-3.724000">
        <ele>1965.0</ele>
        <time>2013-06-04T19:29:54Z</time>
      </trkpt>
      <trkpt lat="41.065033" lon="-3.724050">
        <ele>1965.0</ele>
        <time>2013-06-04T19:29:55Z</time>
      </trkpt>
      <trkpt lat="41.065000" lon="-3.724100">
        <ele>1965.0</ele>
        <time>2013-06-04T19:29:56Z</time>
      </trkpt>
      <trkpt lat="41.064967" lon="-3.724150">
        <ele>1966.0</ele>
        <time>2013-06-04T19:29:57Z</time>
      </trkpt>
      <trkpt lat="41.064950" lon="-3.724200">
        <ele>1966.0</ele>
        <time>2013-06-04T19:29:58Z</time>
      </trkpt>
      <trkpt lat="41.064933" lon="-3.724250">
        <ele>1967.0</ele>
        <time>2013-06-04T19:29:59Z</time>
      </trkpt>
      <trkpt lat="41.064917" lon="-3.724283">
        <ele>1967.0</ele>
        <time>2013-06-04T19:30:00Z</time>
      </trkpt>
      <trkpt lat="41.064917" lon="-3.724333">
        <ele>1967.0</ele>
        <time>2013-06-04T19:30:01Z</time>
      </trkpt>
      <trkpt lat="41.064900" lon="-3.724367">
        <ele>1967.0</ele>
        <time>2013-06-04T19:30:02Z</time>
      </trkpt>
      <trkpt lat="41.064900" lon="-3.724417">
        <ele>1968.0</ele>
        <time>2013-06-04T19:30:03Z</time>
      </trkpt>
      <trkpt lat="41.064900" lon="-3.724467">
        <ele>1968.0</ele>
        <time>2013-06-04T19:30:04Z</time>
      </trkpt>
      <trkpt lat="41.064900" lon="-3.724500">
        <ele>1968.0</ele>
        <time>2013-06-04T19:30:05Z</time>
      </trkpt>
      <trkpt lat="41.064883" lon="-3.724550">
        <ele>1969.0</ele>
        <time>2013-06-04T19:30:06Z</time>
      </trkpt>
      <trkpt lat="41.064867" lon="-3.724583">
        <ele>1969.0</ele>
        <time>2013-06-04T19:30:07Z</time>
      </trkpt>
      <trkpt lat="41.064850" lon="-3.724633">
        <ele>1969.0</ele>
        <time>2013-06-04T19:30:08Z</time>
      </trkpt>
      <trkpt lat="41.064833" lon="-3.724683">
        <ele>1969.0</ele>
        <time>2013-06-04T19:30:09Z</time>
      </trkpt>
      <trkpt lat="41.064800" lon="-3.724733">
        <ele>1969.0</ele>
        <time>2013-06-04T19:30:10Z</time>
      </trkpt>
      <trkpt lat="41.064783" lon="-3.724783">
        <ele>1969.0</ele>
        <time>2013-06-04T19:30:11Z</time>
      </trkpt>
      <trkpt lat="41.064750" lon="-3.724833">
        <ele>1969.0</ele>
        <time>2013-06-04T19:30:12Z</time>
      </trkpt>
      <trkpt lat="41.064717" lon="-3.724867">
        <ele>1970.0</ele>
        <time>2013-06-04T19:30:13Z</time>
      </trkpt>
      <trkpt lat="41.064683" lon="-3.724917">
        <ele>1970.0</ele>
        <time>2013-06-04T19:30:14Z</time>
      </trkpt>
      <trkpt lat="41.064650" lon="-3.724967">
        <ele>1970.0</ele>
        <time>2013-06-04T19:30:15Z</time>
      </trkpt>
      <trkpt lat="41.064633" lon="-3.725017">
        <ele>1970.0</ele>
        <time>2013-06-04T19:30:16Z</time>
      </trkpt>
      <trkpt lat="41.064600" lon="-3.725067">
        <ele>1970.0</ele>
        <time>2013-06-04T19:30:17Z</time>
      </trkpt>
      <trkpt lat="41.064567" lon="-3.725117">
        <ele>1970.0</ele>
        <time>2013-06-04T19:30:18Z</time>
      </trkpt>
      <trkpt lat="41.064550" lon="-3.725167">
        <ele>1971.0</ele>
        <time>2013-06-04T19:30:19Z</time>
      </trkpt>
      <trkpt lat="41.064517" lon="-3.725217">
        <ele>1971.0</ele>
        <time>2013-06-04T19:30:20Z</time>
      </trkpt>
      <trkpt lat="41.064483" lon="-3.725267">
        <ele>1971.0</ele>
        <time>2013-06-04T19:30:21Z</time>
      </trkpt>
      <trkpt lat="41.064467" lon="-3.725317">
        <ele>1971.0</ele>
        <time>2013-06-04T19:30:22Z</time>
      </trkpt>
      <trkpt lat="41.064433" lon="-3.725367">
        <ele>1971.0</ele>
        <time>2013-06-04T19:30:23Z</time>
      </trkpt>
      <trkpt lat="41.064400" lon="-3.725417">
        <ele>1972.0</ele>
        <time>2013-06-04T19:30:24Z</time>
      </trkpt>
      <trkpt lat="41.064383" lon="-3.725467">
        <ele>1972.0</ele>
        <time>2013-06-04T19:30:25Z</time>
      </trkpt>
      <trkpt lat="41.064350" lon="-3.725517">
        <ele>1972.0</ele>
        <time>2013-06-04T19:30:26Z</time>
      </trkpt>
      <trkpt lat="41.064317" lon="-3.725567">
        <ele>1973.0</ele>
        <time>2013-06-04T19:30:27Z</time>
      </trkpt>
      <trkpt lat="41.064300" lon="-3.725617">
        <ele>1973.0</ele>
        <time>2013-06-04T19:30:28Z</time>
      </trkpt>
      <trkpt lat="41.064267" lon="-3.725667">
        <ele>1973.0</ele>
        <time>2013-06-04T19:30:29Z</time>
      </trkpt>
      <trkpt lat="41.064250" lon="-3.725717">
        <ele>1974.0</ele>
        <time>2013-06-04T19:30:30Z</time>
      </trkpt>
      <trkpt lat="41.064217" lon="-3.725767">
        <ele>1974.0</ele>
        <time>2013-06-04T19:30:31Z</time>
      </trkpt>
      <trkpt lat="41.064200" lon="-3.725817">
        <ele>1974.0</ele>
        <time>2013-06-04T19:30:32Z</time>
      </trkpt>
      <trkpt lat="41.064167" lon="-3.725867">
        <ele>1974.0</ele>
        <time>2013-06-04T19:30:33Z</time>
      </trkpt>
      <trkpt lat="41.064150" lon="-3.725917">
        <ele>1974.0</ele>
        <time>2013-06-04T19:30:34Z</time>
      </trkpt>
      <trkpt lat="41.064133" lon="-3.725967">
        <ele>1974.0</ele>
        <time>2013-06-04T19:30:35Z</time>
      </trkpt>
      <trkpt lat="41.064117" lon="-3.726017">
        <ele>1975.0</ele>
        <time>2013-06-04T19:30:36Z</time>
      </trkpt>
      <trkpt lat="41.064083" lon="-3.726067">
        <ele>1975.0</ele>
        <time>2013-06-04T19:30:37Z</time>
      </trkpt>
      <trkpt lat="41.064067" lon="-3.726117">
        <ele>1975.0</ele>
        <time>2013-06-04T19:30:38Z</time>
      </trkpt>
      <trkpt lat="41.064067" lon="-3.726167">
        <ele>1975.0</ele>
        <time>2013-06-04T19:30:39Z</time>
      </trkpt>
      <trkpt lat="41.064050" lon="-3.726217">
        <ele>1976.0</ele>
        <time>2013-06-04T19:30:40Z</time>
      </trkpt>
      <trkpt lat="41.064050" lon="-3.726250">
        <ele>1976.0</ele>
        <time>2013-06-04T19:30:41Z</time>
      </trkpt>
      <trkpt lat="41.064050" lon="-3.726300">
        <ele>1976.0</ele>
        <time>2013-06-04T19:30:42Z</time>
      </trkpt>
      <trkpt lat="41.064050" lon="-3.726350">
        <ele>1976.0</ele>
        <time>2013-06-04T19:30:43Z</time>
      </trkpt>
      <trkpt lat="41.064050" lon="-3.726383">
        <ele>1977.0</ele>
        <time>2013-06-04T19:30:44Z</time>
      </trkpt>
      <trkpt lat="41.064067" lon="-3.726417">
        <ele>1977.0</ele>
        <time>2013-06-04T19:30:45Z</time>
      </trkpt>
      <trkpt lat="41.064100" lon="-3.726433">
        <ele>1977.0</ele>
        <time>2013-06-04T19:30:46Z</time>
      </trkpt>
      <trkpt lat="41.064117" lon="-3.726467">
        <ele>1977.0</ele>
        <time>2013-06-04T19:30:47Z</time>
      </trkpt>
      <trkpt lat="41.064150" lon="-3.726483">
        <ele>1977.0</ele>
        <time>2013-06-04T19:30:48Z</time>
      </trkpt>
      <trkpt lat="41.064183" lon="-3.726517">
        <ele>1978.0</ele>
        <time>2013-06-04T19:30:49Z</time>
      </trkpt>
      <trkpt lat="41.064217" lon="-3.726533">
        <ele>1978.0</ele>
        <time>2013-06-04T19:30:50Z</time>
      </trkpt>
      <trkpt lat="41.064250" lon="-3.726533">
        <ele>1978.0</ele>
        <time>2013-06-04T19:30:51Z</time>
      </trkpt>
      <trkpt lat="41.064300" lon="-3.726533">
        <ele>1978.0</ele>
        <time>2013-06-04T19:30:52Z</time>
      </trkpt>
      <trkpt lat="41.064350" lon="-3.726517">
        <ele>1979.0</ele>
        <time>2013-06-04T19:30:53Z</time>
      </trkpt>
      <trkpt lat="41.064400" lon="-3.726483">
        <ele>1979.0</ele>
        <time>2013-06-04T19:30:54Z</time>
      </trkpt>
      <trkpt lat="41.064450" lon="-3.726433">
        <ele>1979.0</ele>
        <time>2013-06-04T19:30:55Z</time>
      </trkpt>
      <trkpt lat="41.064500" lon="-3.726383">
        <ele>1979.0</ele>
        <time>2013-06-04T19:30:56Z</time>
      </trkpt>
      <trkpt lat="41.064567" lon="-3.726317">
        <ele>1979.0</ele>
        <time>2013-06-04T19:30:57Z</time>
      </trkpt>
      <trkpt lat="41.064617" lon="-3.726250">
        <ele>1980.0</ele>
        <time>2013-06-04T19:30:58Z</time>
      </trkpt>
      <trkpt lat="41.064667" lon="-3.726167">
        <ele>1980.0</ele>
        <time>2013-06-04T19:30:59Z</time>
      </trkpt>
      <trkpt lat="41.064717" lon="-3.726067">
        <ele>1980.0</ele>
        <time>2013-06-04T19:31:00Z</time>
      </trkpt>
      <trkpt lat="41.064767" lon="-3.725967">
        <ele>1980.0</ele>
        <time>2013-06-04T19:31:01Z</time>
      </trkpt>
      <trkpt lat="41.064817" lon="-3.725850">
        <ele>1980.0</ele>
        <time>2013-06-04T19:31:02Z</time>
      </trkpt>
      <trkpt lat="41.064867" lon="-3.725750">
        <ele>1980.0</ele>
        <time>2013-06-04T19:31:03Z</time>
      </trkpt>
      <trkpt lat="41.064917" lon="-3.725633">
        <ele>1980.0</ele>
        <time>2013-06-04T19:31:04Z</time>
      </trkpt>
      <trkpt lat="41.064967" lon="-3.725533">
        <ele>1980.0</ele>
        <time>2013-06-04T19:31:05Z</time>
      </trkpt>
      <trkpt lat="41.065017" lon="-3.725433">
        <ele>1980.0</ele>
        <time>2013-06-04T19:31:06Z</time>
      </trkpt>
      <trkpt lat="41.065083" lon="-3.725317">
        <ele>1980.0</ele>
        <time>2013-06-04T19:31:07Z</time>
      </trkpt>
      <trkpt lat="41.065133" lon="-3.725217">
        <ele>1981.0</ele>
        <time>2013-06-04T19:31:08Z</time>
      </trkpt>
      <trkpt lat="41.065183" lon="-3.725133">
        <ele>1981.0</ele>
        <time>2013-06-04T19:31:09Z</time>
      </trkpt>
      <trkpt lat="41.065250" lon="-3.725050">
        <ele>1982.0</ele>
        <time>2013-06-04T19:31:10Z</time>
      </trkpt>
      <trkpt lat="41.065317" lon="-3.724967">
        <ele>1982.0</ele>
        <time>2013-06-04T19:31:11Z</time>
      </trkpt>
      <trkpt lat="41.065367" lon="-3.724900">
        <ele>1982.0</ele>
        <time>2013-06-04T19:31:12Z</time>
      </trkpt>
      <trkpt lat="41.065433" lon="-3.724817">
        <ele>1982.0</ele>
        <time>2013-06-04T19:31:13Z</time>
      </trkpt>
      <trkpt lat="41.065500" lon="-3.724767">
        <ele>1982.0</ele>
        <time>2013-06-04T19:31:14Z</time>
      </trkpt>
      <trkpt lat="41.065550" lon="-3.724700">
        <ele>1983.0</ele>
        <time>2013-06-04T19:31:15Z</time>
      </trkpt>
      <trkpt lat="41.065617" lon="-3.724650">
        <ele>1983.0</ele>
        <time>2013-06-04T19:31:16Z</time>
      </trkpt>
      <trkpt lat="41.065683" lon="-3.724617">
        <ele>1983.0</ele>
        <time>2013-06-04T19:31:17Z</time>
      </trkpt>
      <trkpt lat="41.065733" lon="-3.724567">
        <ele>1983.0</ele>
        <time>2013-06-04T19:31:18Z</time>
      </trkpt>
      <trkpt lat="41.065800" lon="-3.724533">
        <ele>1983.0</ele>
        <time>2013-06-04T19:31:19Z</time>
      </trkpt>
      <trkpt lat="41.065850" lon="-3.724517">
        <ele>1983.0</ele>
        <time>2013-06-04T19:31:20Z</time>
      </trkpt>
      <trkpt lat="41.065917" lon="-3.724483">
        <ele>1983.0</ele>
        <time>2013-06-04T19:31:21Z</time>
      </trkpt>
      <trkpt lat="41.065967" lon="-3.724467">
        <ele>1983.0</ele>
        <time>2013-06-04T19:31:22Z</time>
      </trkpt>
      <trkpt lat="41.066017" lon="-3.724467">
        <ele>1983.0</ele>
        <time>2013-06-04T19:31:23Z</time>
      </trkpt>
      <trkpt lat="41.066083" lon="-3.724450">
        <ele>1983.0</ele>
        <time>2013-06-04T19:31:24Z</time>
      </trkpt>
      <trkpt lat="41.066133" lon="-3.724450">
        <ele>1984.0</ele>
        <time>2013-06-04T19:31:25Z</time>
      </trkpt>
      <trkpt lat="41.066183" lon="-3.724450">
        <ele>1984.0</ele>
        <time>2013-06-04T19:31:26Z</time>
      </trkpt>
      <trkpt lat="41.066233" lon="-3.724433">
        <ele>1984.0</ele>
        <time>2013-06-04T19:31:27Z</time>
      </trkpt>
      <trkpt lat="41.066283" lon="-3.724433">
        <ele>1985.0</ele>
        <time>2013-06-04T19:31:28Z</time>
      </trkpt>
      <trkpt lat="41.066333" lon="-3.724400">
        <ele>1985.0</ele>
        <time>2013-06-04T19:31:29Z</time>
      </trkpt>
      <trkpt lat="41.066383" lon="-3.724383">
        <ele>1985.0</ele>
        <time>2013-06-04T19:31:30Z</time>
      </trkpt>
      <trkpt lat="41.066433" lon="-3.724367">
        <ele>1985.0</ele>
        <time>2013-06-04T19:31:31Z</time>
      </trkpt>
      <trkpt lat="41.066483" lon="-3.724350">
        <ele>1985.0</ele>
        <time>2013-06-04T19:31:32Z</time>
      </trkpt>
      <trkpt lat="41.066533" lon="-3.724333">
        <ele>1985.0</ele>
        <time>2013-06-04T19:31:33Z</time>
      </trkpt>
      <trkpt lat="41.066600" lon="-3.724300">
        <ele>1985.0</ele>
        <time>2013-06-04T19:31:34Z</time>
      </trkpt>
      <trkpt lat="41.066650" lon="-3.724283">
        <ele>1985.0</ele>
        <time>2013-06-04T19:31:35Z</time>
      </trkpt>
      <trkpt lat="41.066717" lon="-3.724267">
        <ele>1985.0</ele>
        <time>2013-06-04T19:31:36Z</time>
      </trkpt>
      <trkpt lat="41.066767" lon="-3.724283">
        <ele>1985.0</ele>
        <time>2013-06-04T19:31:37Z</time>
      </trkpt>
      <trkpt lat="41.066783" lon="-3.724300">
        <ele>1986.0</ele>
        <time>2013-06-04T19:31:38Z</time>
      </trkpt>
      <trkpt lat="41.066800" lon="-3.724350">
        <ele>1986.0</ele>
        <time>2013-06-04T19:31:39Z</time>
      </trkpt>
      <trkpt lat="41.066783" lon="-3.724417">
        <ele>1985.0</ele>
        <time>2013-06-04T19:31:40Z</time>
      </trkpt>
      <trkpt lat="41.066767" lon="-3.724483">
        <ele>1986.0</ele>
        <time>2013-06-04T19:31:41Z</time>
      </trkpt>
      <trkpt lat="41.066750" lon="-3.724533">
        <ele>1986.0</ele>
        <time>2013-06-04T19:31:42Z</time>
      </trkpt>
      <trkpt lat="41.066750" lon="-3.724583">
        <ele>1987.0</ele>
        <time>2013-06-04T19:31:43Z</time>
      </trkpt>
      <trkpt lat="41.066767" lon="-3.724600">
        <ele>1987.0</ele>
        <time>2013-06-04T19:31:44Z</time>
      </trkpt>
      <trkpt lat="41.066800" lon="-3.724633">
        <ele>1987.0</ele>
        <time>2013-06-04T19:31:45Z</time>
      </trkpt>
      <trkpt lat="41.066850" lon="-3.724633">
        <ele>1986.0</ele>
        <time>2013-06-04T19:31:46Z</time>
      </trkpt>
      <trkpt lat="41.066900" lon="-3.724650">
        <ele>1986.0</ele>
        <time>2013-06-04T19:31:47Z</time>
      </trkpt>
      <trkpt lat="41.066950" lon="-3.724633">
        <ele>1986.0</ele>
        <time>2013-06-04T19:31:48Z</time>
      </trkpt>
      <trkpt lat="41.067017" lon="-3.724617">
        <ele>1987.0</ele>
        <time>2013-06-04T19:31:49Z</time>
      </trkpt>
      <trkpt lat="41.067067" lon="-3.724583">
        <ele>1987.0</ele>
        <time>2013-06-04T19:31:50Z</time>
      </trkpt>
      <trkpt lat="41.067133" lon="-3.724533">
        <ele>1987.0</ele>
        <time>2013-06-04T19:31:51Z</time>
      </trkpt>
      <trkpt lat="41.067200" lon="-3.724467">
        <ele>1987.0</ele>
        <time>2013-06-04T19:31:52Z</time>
      </trkpt>
      <trkpt lat="41.067267" lon="-3.724400">
        <ele>1986.0</ele>
        <time>2013-06-04T19:31:53Z</time>
      </trkpt>
      <trkpt lat="41.067333" lon="-3.724317">
        <ele>1986.0</ele>
        <time>2013-06-04T19:31:54Z</time>
      </trkpt>
      <trkpt lat="41.067400" lon="-3.724267">
        <ele>1986.0</ele>
        <time>2013-06-04T19:31:55Z</time>
      </trkpt>
      <trkpt lat="41.067450" lon="-3.724267">
        <ele>1986.0</ele>
        <time>2013-06-04T19:31:56Z</time>
      </trkpt>
      <trkpt lat="41.067500" lon="-3.724283">
        <ele>1985.0</ele>
        <time>2013-06-04T19:31:57Z</time>
      </trkpt>
      <trkpt lat="41.067517" lon="-3.724333">
        <ele>1985.0</ele>
        <time>2013-06-04T19:31:58Z</time>
      </trkpt>
      <trkpt lat="41.067517" lon="-3.724383">
        <ele>1985.0</ele>
        <time>2013-06-04T19:31:59Z</time>
      </trkpt>
      <trkpt lat="41.067500" lon="-3.724450">
        <ele>1985.0</ele>
        <time>2013-06-04T19:32:00Z</time>
      </trkpt>
      <trkpt lat="41.067467" lon="-3.724500">
        <ele>1985.0</ele>
        <time>2013-06-04T19:32:01Z</time>
      </trkpt>
      <trkpt lat="41.067417" lon="-3.724533">
        <ele>1985.0</ele>
        <time>2013-06-04T19:32:02Z</time>
      </trkpt>
      <trkpt lat="41.067333" lon="-3.724583">
        <ele>1985.0</ele>
        <time>2013-06-04T19:32:03Z</time>
      </trkpt>
      <trkpt lat="41.067250" lon="-3.724600">
        <ele>1985.0</ele>
        <time>2013-06-04T19:32:04Z</time>
      </trkpt>
      <trkpt lat="41.067167" lon="-3.724633">
        <ele>1985.0</ele>
        <time>2013-06-04T19:32:05Z</time>
      </trkpt>
      <trkpt lat="41.067083" lon="-3.724650">
        <ele>1985.0</ele>
        <time>2013-06-04T19:32:06Z</time>
      </trkpt>
      <trkpt lat="41.066983" lon="-3.724683">
        <ele>1985.0</ele>
        <time>2013-06-04T19:32:07Z</time>
      </trkpt>
      <trkpt lat="41.066900" lon="-3.724700">
        <ele>1985.0</ele>
        <time>2013-06-04T19:32:08Z</time>
      </trkpt>
      <trkpt lat="41.066817" lon="-3.724750">
        <ele>1984.0</ele>
        <time>2013-06-04T19:32:09Z</time>
      </trkpt>
      <trkpt lat="41.066750" lon="-3.724800">
        <ele>1983.0</ele>
        <time>2013-06-04T19:32:10Z</time>
      </trkpt>
      <trkpt lat="41.066683" lon="-3.724867">
        <ele>1983.0</ele>
        <time>2013-06-04T19:32:11Z</time>
      </trkpt>
      <trkpt lat="41.066633" lon="-3.724917">
        <ele>1984.0</ele>
        <time>2013-06-04T19:32:12Z</time>
      </trkpt>
      <trkpt lat="41.066567" lon="-3.724967">
        <ele>1985.0</ele>
        <time>2013-06-04T19:32:13Z</time>
      </trkpt>
      <trkpt lat="41.066500" lon="-3.724983">
        <ele>1985.0</ele>
        <time>2013-06-04T19:32:14Z</time>
      </trkpt>
      <trkpt lat="41.066417" lon="-3.725017">
        <ele>1985.0</ele>
        <time>2013-06-04T19:32:15Z</time>
      </trkpt>
      <trkpt lat="41.066333" lon="-3.725033">
        <ele>1984.0</ele>
        <time>2013-06-04T19:32:16Z</time>
      </trkpt>
      <trkpt lat="41.066250" lon="-3.725067">
        <ele>1984.0</ele>
        <time>2013-06-04T19:32:17Z</time>
      </trkpt>
      <trkpt lat="41.066150" lon="-3.725083">
        <ele>1984.0</ele>
        <time>2013-06-04T19:32:18Z</time>
      </trkpt>
      <trkpt lat="41.066050" lon="-3.725100">
        <ele>1984.0</ele>
        <time>2013-06-04T19:32:19Z</time>
      </trkpt>
      <trkpt lat="41.065950" lon="-3.725117">
        <ele>1984.0</ele>
        <time>2013-06-04T19:32:20Z</time>
      </trkpt>
      <trkpt lat="41.065867" lon="-3.725150">
        <ele>1983.0</ele>
        <time>2013-06-04T19:32:21Z</time>
      </trkpt>
      <trkpt lat="41.065767" lon="-3.725200">
        <ele>1983.0</ele>
        <time>2013-06-04T19:32:22Z</time>
      </trkpt>
      <trkpt lat="41.065683" lon="-3.725233">
        <ele>1984.0</ele>
        <time>2013-06-04T19:32:23Z</time>
      </trkpt>
      <trkpt lat="41.065600" lon="-3.725283">
        <ele>1984.0</ele>
        <time>2013-06-04T19:32:24Z</time>
      </trkpt>
      <trkpt lat="41.065533" lon="-3.725317">
        <ele>1985.0</ele>
        <time>2013-06-04T19:32:25Z</time>
      </trkpt>
      <trkpt lat="41.065467" lon="-3.725367">
        <ele>1985.0</ele>
        <time>2013-06-04T19:32:26Z</time>
      </trkpt>
      <trkpt lat="41.065417" lon="-3.725433">
        <ele>1985.0</ele>
        <time>2013-06-04T19:32:27Z</time>
      </trkpt>
      <trkpt lat="41.065400" lon="-3.725500">
        <ele>1985.0</ele>
        <time>2013-06-04T19:32:28Z</time>
      </trkpt>
      <trkpt lat="41.065383" lon="-3.725567">
        <ele>1985.0</ele>
        <time>2013-06-04T19:32:29Z</time>
      </trkpt>
      <trkpt lat="41.065400" lon="-3.725617">
        <ele>1985.0</ele>
        <time>2013-06-04T19:32:30Z</time>
      </trkpt>
      <trkpt lat="41.065417" lon="-3.725667">
        <ele>1986.0</ele>
        <time>2013-06-04T19:32:31Z</time>
      </trkpt>
      <trkpt lat="41.065450" lon="-3.725700">
        <ele>1986.0</ele>
        <time>2013-06-04T19:32:32Z</time>
      </trkpt>
      <trkpt lat="41.065483" lon="-3.725717">
        <ele>1985.0</ele>
        <time>2013-06-04T19:32:33Z</time>
      </trkpt>
      <trkpt lat="41.065550" lon="-3.725717">
        <ele>1985.0</ele>
        <time>2013-06-04T19:32:34Z</time>
      </trkpt>
      <trkpt lat="41.065600" lon="-3.725717">
        <ele>1986.0</ele>
        <time>2013-06-04T19:32:35Z</time>
      </trkpt>
      <trkpt lat="41.065667" lon="-3.725683">
        <ele>1986.0</ele>
        <time>2013-06-04T19:32:36Z</time>
      </trkpt>
      <trkpt lat="41.065733" lon="-3.725633">
        <ele>1986.0</ele>
        <time>2013-06-04T19:32:37Z</time>
      </trkpt>
      <trkpt lat="41.065783" lon="-3.725583">
        <ele>1986.0</ele>
        <time>2013-06-04T19:32:38Z</time>
      </trkpt>
      <trkpt lat="41.065850" lon="-3.725517">
        <ele>1986.0</ele>
        <time>2013-06-04T19:32:39Z</time>
      </trkpt>
      <trkpt lat="41.065917" lon="-3.725467">
        <ele>1987.0</ele>
        <time>2013-06-04T19:32:40Z</time>
      </trkpt>
      <trkpt lat="41.065967" lon="-3.725417">
        <ele>1987.0</ele>
        <time>2013-06-04T19:32:41Z</time>
      </trkpt>
      <trkpt lat="41.066033" lon="-3.725367">
        <ele>1987.0</ele>
        <time>2013-06-04T19:32:42Z</time>
      </trkpt>
      <trkpt lat="41.066083" lon="-3.725300">
        <ele>1987.0</ele>
        <time>2013-06-04T19:32:43Z</time>
      </trkpt>
      <trkpt lat="41.066150" lon="-3.725250">
        <ele>1986.0</ele>
        <time>2013-06-04T19:32:44Z</time>
      </trkpt>
      <trkpt lat="41.066217" lon="-3.725183">
        <ele>1986.0</ele>
        <time>2013-06-04T19:32:45Z</time>
      </trkpt>
      <trkpt lat="41.066283" lon="-3.725117">
        <ele>1986.0</ele>
        <time>2013-06-04T19:32:46Z</time>
      </trkpt>
      <trkpt lat="41.066333" lon="-3.725067">
        <ele>1986.0</ele>
        <time>2013-06-04T19:32:47Z</time>
      </trkpt>
      <trkpt lat="41.066400" lon="-3.725017">
        <ele>1986.0</ele>
        <time>2013-06-04T19:32:48Z</time>
      </trkpt>
      <trkpt lat="41.066450" lon="-3.724967">
        <ele>1986.0</ele>
        <time>2013-06-04T19:32:49Z</time>
      </trkpt>
      <trkpt lat="41.066517" lon="-3.724917">
        <ele>1986.0</ele>
        <time>2013-06-04T19:32:50Z</time>
      </trkpt>
      <trkpt lat="41.066583" lon="-3.724867">
        <ele>1985.0</ele>
        <time>2013-06-04T19:32:51Z</time>
      </trkpt>
      <trkpt lat="41.066633" lon="-3.724817">
        <ele>1985.0</ele>
        <time>2013-06-04T19:32:52Z</time>
      </trkpt>
      <trkpt lat="41.066700" lon="-3.724783">
        <ele>1985.0</ele>
        <time>2013-06-04T19:32:53Z</time>
      </trkpt>
      <trkpt lat="41.066767" lon="-3.724750">
        <ele>1986.0</ele>
        <time>2013-06-04T19:32:54Z</time>
      </trkpt>
      <trkpt lat="41.066817" lon="-3.724717">
        <ele>1986.0</ele>
        <time>2013-06-04T19:32:55Z</time>
      </trkpt>
      <trkpt lat="41.066883" lon="-3.724683">
        <ele>1985.0</ele>
        <time>2013-06-04T19:32:56Z</time>
      </trkpt>
      <trkpt lat="41.066933" lon="-3.724650">
        <ele>1985.0</ele>
        <time>2013-06-04T19:32:57Z</time>
      </trkpt>
      <trkpt lat="41.067000" lon="-3.724617">
        <ele>1985.0</ele>
        <time>2013-06-04T19:32:58Z</time>
      </trkpt>
      <trkpt lat="41.067050" lon="-3.724600">
        <ele>1985.0</ele>
        <time>2013-06-04T19:32:59Z</time>
      </trkpt>
      <trkpt lat="41.067117" lon="-3.724583">
        <ele>1985.0</ele>
        <time>2013-06-04T19:33:00Z</time>
      </trkpt>
      <trkpt lat="41.067167" lon="-3.724567">
        <ele>1985.0</ele>
        <time>2013-06-04T19:33:01Z</time>
      </trkpt>
      <trkpt lat="41.067217" lon="-3.724550">
        <ele>1985.0</ele>
        <time>2013-06-04T19:33:02Z</time>
      </trkpt>
      <trkpt lat="41.067283" lon="-3.724550">
        <ele>1985.0</ele>
        <time>2013-06-04T19:33:03Z</time>
      </trkpt>
      <trkpt lat="41.067333" lon="-3.724533">
        <ele>1985.0</ele>
        <time>2013-06-04T19:33:04Z</time>
      </trkpt>
      <trkpt lat="41.067400" lon="-3.724517">
        <ele>1985.0</ele>
        <time>2013-06-04T19:33:05Z</time>
      </trkpt>
      <trkpt lat="41.067450" lon="-3.724533">
        <ele>1985.0</ele>
        <time>2013-06-04T19:33:06Z</time>
      </trkpt>
      <trkpt lat="41.067483" lon="-3.724550">
        <ele>1985.0</ele>
        <time>2013-06-04T19:33:07Z</time>
      </trkpt>
      <trkpt lat="41.067517" lon="-3.724583">
        <ele>1985.0</ele>
        <time>2013-06-04T19:33:08Z</time>
      </trkpt>
      <trkpt lat="41.067517" lon="-3.724650">
        <ele>1984.0</ele>
        <time>2013-06-04T19:33:09Z</time>
      </trkpt>
      <trkpt lat="41.067483" lon="-3.724717">
        <ele>1984.0</ele>
        <time>2013-06-04T19:33:10Z</time>
      </trkpt>
      <trkpt lat="41.067433" lon="-3.724767">
        <ele>1984.0</ele>
        <time>2013-06-04T19:33:11Z</time>
      </trkpt>
      <trkpt lat="41.067383" lon="-3.724817">
        <ele>1984.0</ele>
        <time>2013-06-04T19:33:12Z</time>
      </trkpt>
      <trkpt lat="41.067300" lon="-3.724850">
        <ele>1984.0</ele>
        <time>2013-06-04T19:33:13Z</time>
      </trkpt>
      <trkpt lat="41.067233" lon="-3.724883">
        <ele>1984.0</ele>
        <time>2013-06-04T19:33:14Z</time>
      </trkpt>
      <trkpt lat="41.067150" lon="-3.724900">
        <ele>1983.0</ele>
        <time>2013-06-04T19:33:15Z</time>
      </trkpt>
      <trkpt lat="41.067067" lon="-3.724933">
        <ele>1983.0</ele>
        <time>2013-06-04T19:33:16Z</time>
      </trkpt>
      <trkpt lat="41.066983" lon="-3.724967">
        <ele>1983.0</ele>
        <time>2013-06-04T19:33:17Z</time>
      </trkpt>
      <trkpt lat="41.066883" lon="-3.724967">
        <ele>1983.0</ele>
        <time>2013-06-04T19:33:18Z</time>
      </trkpt>
      <trkpt lat="41.066783" lon="-3.724967">
        <ele>1983.0</ele>
        <time>2013-06-04T19:33:19Z</time>
      </trkpt>
      <trkpt lat="41.066683" lon="-3.724950">
        <ele>1983.0</ele>
        <time>2013-06-04T19:33:20Z</time>
      </trkpt>
      <trkpt lat="41.066583" lon="-3.724933">
        <ele>1983.0</ele>
        <time>2013-06-04T19:33:21Z</time>
      </trkpt>
      <trkpt lat="41.066483" lon="-3.724917">
        <ele>1983.0</ele>
        <time>2013-06-04T19:33:22Z</time>
      </trkpt>
      <trkpt lat="41.066383" lon="-3.724917">
        <ele>1983.0</ele>
        <time>2013-06-04T19:33:23Z</time>
      </trkpt>
      <trkpt lat="41.066267" lon="-3.724900">
        <ele>1983.0</ele>
        <time>2013-06-04T19:33:24Z</time>
      </trkpt>
      <trkpt lat="41.066167" lon="-3.724900">
        <ele>1983.0</ele>
        <time>2013-06-04T19:33:25Z</time>
      </trkpt>
      <trkpt lat="41.066067" lon="-3.724900">
        <ele>1982.0</ele>
        <time>2013-06-04T19:33:26Z</time>
      </trkpt>
      <trkpt lat="41.065967" lon="-3.724933">
        <ele>1982.0</ele>
        <time>2013-06-04T19:33:27Z</time>
      </trkpt>
      <trkpt lat="41.065867" lon="-3.724967">
        <ele>1982.0</ele>
        <time>2013-06-04T19:33:28Z</time>
      </trkpt>
      <trkpt lat="41.065783" lon="-3.725017">
        <ele>1983.0</ele>
        <time>2013-06-04T19:33:29Z</time>
      </trkpt>
      <trkpt lat="41.065717" lon="-3.725067">
        <ele>1983.0</ele>
        <time>2013-06-04T19:33:30Z</time>
      </trkpt>
      <trkpt lat="41.065650" lon="-3.725100">
        <ele>1984.0</ele>
        <time>2013-06-04T19:33:31Z</time>
      </trkpt>
      <trkpt lat="41.065583" lon="-3.725150">
        <ele>1984.0</ele>
        <time>2013-06-04T19:33:32Z</time>
      </trkpt>
      <trkpt lat="41.065517" lon="-3.725217">
        <ele>1984.0</ele>
        <time>2013-06-04T19:33:33Z</time>
      </trkpt>
      <trkpt lat="41.065483" lon="-3.725283">
        <ele>1984.0</ele>
        <time>2013-06-04T19:33:34Z</time>
      </trkpt>
      <trkpt lat="41.065467" lon="-3.725350">
        <ele>1983.0</ele>
        <time>2013-06-04T19:33:35Z</time>
      </trkpt>
      <trkpt lat="41.065483" lon="-3.725417">
        <ele>1983.0</ele>
        <time>2013-06-04T19:33:36Z</time>
      </trkpt>
      <trkpt lat="41.065500" lon="-3.725467">
        <ele>1984.0</ele>
        <time>2013-06-04T19:33:37Z</time>
      </trkpt>
      <trkpt lat="41.065533" lon="-3.725500">
        <ele>1985.0</ele>
        <time>2013-06-04T19:33:38Z</time>
      </trkpt>
      <trkpt lat="41.065583" lon="-3.725517">
        <ele>1985.0</ele>
        <time>2013-06-04T19:33:39Z</time>
      </trkpt>
      <trkpt lat="41.065617" lon="-3.725533">
        <ele>1985.0</ele>
        <time>2013-06-04T19:33:40Z</time>
      </trkpt>
      <trkpt lat="41.065667" lon="-3.725550">
        <ele>1985.0</ele>
        <time>2013-06-04T19:33:41Z</time>
      </trkpt>
      <trkpt lat="41.065717" lon="-3.725550">
        <ele>1985.0</ele>
        <time>2013-06-04T19:33:42Z</time>
      </trkpt>
      <trkpt lat="41.065783" lon="-3.725567">
        <ele>1984.0</ele>
        <time>2013-06-04T19:33:43Z</time>
      </trkpt>
      <trkpt lat="41.065850" lon="-3.725567">
        <ele>1985.0</ele>
        <time>2013-06-04T19:33:44Z</time>
      </trkpt>
      <trkpt lat="41.065900" lon="-3.725567">
        <ele>1985.0</ele>
        <time>2013-06-04T19:33:45Z</time>
      </trkpt>
      <trkpt lat="41.065967" lon="-3.725567">
        <ele>1986.0</ele>
        <time>2013-06-04T19:33:46Z</time>
      </trkpt>
      <trkpt lat="41.066017" lon="-3.725567">
        <ele>1987.0</ele>
        <time>2013-06-04T19:33:47Z</time>
      </trkpt>
      <trkpt lat="41.066083" lon="-3.725550">
        <ele>1986.0</ele>
        <time>2013-06-04T19:33:48Z</time>
      </trkpt>
      <trkpt lat="41.066133" lon="-3.725550">
        <ele>1986.0</ele>
        <time>2013-06-04T19:33:49Z</time>
      </trkpt>
      <trkpt lat="41.066200" lon="-3.725533">
        <ele>1986.0</ele>
        <time>2013-06-04T19:33:50Z</time>
      </trkpt>
      <trkpt lat="41.066267" lon="-3.725533">
        <ele>1987.0</ele>
        <time>2013-06-04T19:33:51Z</time>
      </trkpt>
      <trkpt lat="41.066317" lon="-3.725533">
        <ele>1987.0</ele>
        <time>2013-06-04T19:33:52Z</time>
      </trkpt>
      <trkpt lat="41.066383" lon="-3.725517">
        <ele>1987.0</ele>
        <time>2013-06-04T19:33:53Z</time>
      </trkpt>
      <trkpt lat="41.066450" lon="-3.725517">
        <ele>1987.0</ele>
        <time>2013-06-04T19:33:54Z</time>
      </trkpt>
      <trkpt lat="41.066500" lon="-3.725500">
        <ele>1986.0</ele>
        <time>2013-06-04T19:33:55Z</time>
      </trkpt>
      <trkpt lat="41.066567" lon="-3.725500">
        <ele>1986.0</ele>
        <time>2013-06-04T19:33:56Z</time>
      </trkpt>
      <trkpt lat="41.066633" lon="-3.725500">
        <ele>1986.0</ele>
        <time>2013-06-04T19:33:57Z</time>
      </trkpt>
      <trkpt lat="41.066683" lon="-3.725500">
        <ele>1987.0</ele>
        <time>2013-06-04T19:33:58Z</time>
      </trkpt>
      <trkpt lat="41.066750" lon="-3.725500">
        <ele>1987.0</ele>
        <time>2013-06-04T19:33:59Z</time>
      </trkpt>
      <trkpt lat="41.066800" lon="-3.725500">
        <ele>1987.0</ele>
        <time>2013-06-04T19:34:00Z</time>
      </trkpt>
      <trkpt lat="41.066867" lon="-3.725500">
        <ele>1986.0</ele>
        <time>2013-06-04T19:34:01Z</time>
      </trkpt>
      <trkpt lat="41.066917" lon="-3.725500">
        <ele>1986.0</ele>
        <time>2013-06-04T19:34:02Z</time>
      </trkpt>
      <trkpt lat="41.066983" lon="-3.725500">
        <ele>1986.0</ele>
        <time>2013-06-04T19:34:03Z</time>
      </trkpt>
      <trkpt lat="41.067033" lon="-3.725500">
        <ele>1986.0</ele>
        <time>2013-06-04T19:34:04Z</time>
      </trkpt>
      <trkpt lat="41.067100" lon="-3.725500">
        <ele>1986.0</ele>
        <time>2013-06-04T19:34:05Z</time>
      </trkpt>
      <trkpt lat="41.067150" lon="-3.725500">
        <ele>1987.0</ele>
        <time>2013-06-04T19:34:06Z</time>
      </trkpt>
      <trkpt lat="41.067200" lon="-3.725500">
        <ele>1987.0</ele>
        <time>2013-06-04T19:34:07Z</time>
      </trkpt>
      <trkpt lat="41.067267" lon="-3.725500">
        <ele>1986.0</ele>
        <time>2013-06-04T19:34:08Z</time>
      </trkpt>
      <trkpt lat="41.067317" lon="-3.725517">
        <ele>1986.0</ele>
        <time>2013-06-04T19:34:09Z</time>
      </trkpt>
      <trkpt lat="41.067383" lon="-3.725517">
        <ele>1985.0</ele>
        <time>2013-06-04T19:34:10Z</time>
      </trkpt>
      <trkpt lat="41.067433" lon="-3.725517">
        <ele>1985.0</ele>
        <time>2013-06-04T19:34:11Z</time>
      </trkpt>
      <trkpt lat="41.067500" lon="-3.725517">
        <ele>1985.0</ele>
        <time>2013-06-04T19:34:12Z</time>
      </trkpt>
      <trkpt lat="41.067550" lon="-3.725533">
        <ele>1985.0</ele>
        <time>2013-06-04T19:34:13Z</time>
      </trkpt>
      <trkpt lat="41.067617" lon="-3.725533">
        <ele>1985.0</ele>
        <time>2013-06-04T19:34:14Z</time>
      </trkpt>
      <trkpt lat="41.067683" lon="-3.725533">
        <ele>1984.0</ele>
        <time>2013-06-04T19:34:15Z</time>
      </trkpt>
      <trkpt lat="41.067750" lon="-3.725533">
        <ele>1984.0</ele>
        <time>2013-06-04T19:34:16Z</time>
      </trkpt>
      <trkpt lat="41.067817" lon="-3.725517">
        <ele>1984.0</ele>
        <time>2013-06-04T19:34:17Z</time>
      </trkpt>
      <trkpt lat="41.067883" lon="-3.725517">
        <ele>1984.0</ele>
        <time>2013-06-04T19:34:18Z</time>
      </trkpt>
      <trkpt lat="41.067950" lon="-3.725483">
        <ele>1984.0</ele>
        <time>2013-06-04T19:34:19Z</time>
      </trkpt>
      <trkpt lat="41.068000" lon="-3.725467">
        <ele>1984.0</ele>
        <time>2013-06-04T19:34:20Z</time>
      </trkpt>
      <trkpt lat="41.068067" lon="-3.725450">
        <ele>1983.0</ele>
        <time>2013-06-04T19:34:21Z</time>
      </trkpt>
      <trkpt lat="41.068133" lon="-3.725433">
        <ele>1983.0</ele>
        <time>2013-06-04T19:34:22Z</time>
      </trkpt>
      <trkpt lat="41.068200" lon="-3.725400">
        <ele>1983.0</ele>
        <time>2013-06-04T19:34:23Z</time>
      </trkpt>
      <trkpt lat="41.068267" lon="-3.725383">
        <ele>1982.0</ele>
        <time>2013-06-04T19:34:24Z</time>
      </trkpt>
      <trkpt lat="41.068333" lon="-3.725333">
        <ele>1982.0</ele>
        <time>2013-06-04T19:34:25Z</time>
      </trkpt>
      <trkpt lat="41.068400" lon="-3.725300">
        <ele>1982.0</ele>
        <time>2013-06-04T19:34:26Z</time>
      </trkpt>
      <trkpt lat="41.068467" lon="-3.725267">
        <ele>1981.0</ele>
        <time>2013-06-04T19:34:27Z</time>
      </trkpt>
      <trkpt lat="41.068533" lon="-3.725217">
        <ele>1980.0</ele>
        <time>2013-06-04T19:34:28Z</time>
      </trkpt>
      <trkpt lat="41.068617" lon="-3.725183">
        <ele>1979.0</ele>
        <time>2013-06-04T19:34:29Z</time>
      </trkpt>
      <trkpt lat="41.068683" lon="-3.725150">
        <ele>1978.0</ele>
        <time>2013-06-04T19:34:30Z</time>
      </trkpt>
      <trkpt lat="41.068767" lon="-3.725100">
        <ele>1978.0</ele>
        <time>2013-06-04T19:34:31Z</time>
      </trkpt>
      <trkpt lat="41.068850" lon="-3.725067">
        <ele>1978.0</ele>
        <time>2013-06-04T19:34:32Z</time>
      </trkpt>
      <trkpt lat="41.068917" lon="-3.725033">
        <ele>1978.0</ele>
        <time>2013-06-04T19:34:33Z</time>
      </trkpt>
      <trkpt lat="41.068983" lon="-3.725017">
        <ele>1978.0</ele>
        <time>2013-06-04T19:34:34Z</time>
      </trkpt>
      <trkpt lat="41.069050" lon="-3.724983">
        <ele>1977.0</ele>
        <time>2013-06-04T19:34:35Z</time>
      </trkpt>
      <trkpt lat="41.069133" lon="-3.724950">
        <ele>1976.0</ele>
        <time>2013-06-04T19:34:36Z</time>
      </trkpt>
      <trkpt lat="41.069217" lon="-3.724917">
        <ele>1976.0</ele>
        <time>2013-06-04T19:34:37Z</time>
      </trkpt>
      <trkpt lat="41.069283" lon="-3.724883">
        <ele>1976.0</ele>
        <time>2013-06-04T19:34:38Z</time>
      </trkpt>
      <trkpt lat="41.069350" lon="-3.724867">
        <ele>1976.0</ele>
        <time>2013-06-04T19:34:39Z</time>
      </trkpt>
      <trkpt lat="41.069417" lon="-3.724833">
        <ele>1975.0</ele>
        <time>2013-06-04T19:34:40Z</time>
      </trkpt>
      <trkpt lat="41.069500" lon="-3.724800">
        <ele>1975.0</ele>
        <time>2013-06-04T19:34:41Z</time>
      </trkpt>
      <trkpt lat="41.069567" lon="-3.724767">
        <ele>1974.0</ele>
        <time>2013-06-04T19:34:42Z</time>
      </trkpt>
      <trkpt lat="41.069650" lon="-3.724717">
        <ele>1974.0</ele>
        <time>2013-06-04T19:34:43Z</time>
      </trkpt>
      <trkpt lat="41.069717" lon="-3.724667">
        <ele>1973.0</ele>
        <time>2013-06-04T19:34:44Z</time>
      </trkpt>
      <trkpt lat="41.069800" lon="-3.724633">
        <ele>1973.0</ele>
        <time>2013-06-04T19:34:45Z</time>
      </trkpt>
      <trkpt lat="41.069867" lon="-3.724600">
        <ele>1973.0</ele>
        <time>2013-06-04T19:34:46Z</time>
      </trkpt>
      <trkpt lat="41.069933" lon="-3.724567">
        <ele>1972.0</ele>
        <time>2013-06-04T19:34:47Z</time>
      </trkpt>
      <trkpt lat="41.070017" lon="-3.724533">
        <ele>1972.0</ele>
        <time>2013-06-04T19:34:48Z</time>
      </trkpt>
      <trkpt lat="41.070083" lon="-3.724483">
        <ele>1971.0</ele>
        <time>2013-06-04T19:34:49Z</time>
      </trkpt>
      <trkpt lat="41.070167" lon="-3.724450">
        <ele>1971.0</ele>
        <time>2013-06-04T19:34:50Z</time>
      </trkpt>
      <trkpt lat="41.070233" lon="-3.724417">
        <ele>1970.0</ele>
        <time>2013-06-04T19:34:51Z</time>
      </trkpt>
      <trkpt lat="41.070317" lon="-3.724383">
        <ele>1970.0</ele>
        <time>2013-06-04T19:34:52Z</time>
      </trkpt>
      <trkpt lat="41.070383" lon="-3.724350">
        <ele>1970.0</ele>
        <time>2013-06-04T19:34:53Z</time>
      </trkpt>
      <trkpt lat="41.070467" lon="-3.724300">
        <ele>1969.0</ele>
        <time>2013-06-04T19:34:54Z</time>
      </trkpt>
      <trkpt lat="41.070533" lon="-3.724267">
        <ele>1969.0</ele>
        <time>2013-06-04T19:34:55Z</time>
      </trkpt>
      <trkpt lat="41.070617" lon="-3.724217">
        <ele>1968.0</ele>
        <time>2013-06-04T19:34:56Z</time>
      </trkpt>
      <trkpt lat="41.070683" lon="-3.724183">
        <ele>1968.0</ele>
        <time>2013-06-04T19:34:57Z</time>
      </trkpt>
      <trkpt lat="41.070767" lon="-3.724150">
        <ele>1967.0</ele>
        <time>2013-06-04T19:34:58Z</time>
      </trkpt>
      <trkpt lat="41.070833" lon="-3.724117">
        <ele>1967.0</ele>
        <time>2013-06-04T19:34:59Z</time>
      </trkpt>
      <trkpt lat="41.070917" lon="-3.724067">
        <ele>1966.0</ele>
        <time>2013-06-04T19:35:00Z</time>
      </trkpt>
      <trkpt lat="41.070983" lon="-3.724033">
        <ele>1965.0</ele>
        <time>2013-06-04T19:35:01Z</time>
      </trkpt>
      <trkpt lat="41.071067" lon="-3.724000">
        <ele>1965.0</ele>
        <time>2013-06-04T19:35:02Z</time>
      </trkpt>
      <trkpt lat="41.071133" lon="-3.723967">
        <ele>1964.0</ele>
        <time>2013-06-04T19:35:03Z</time>
      </trkpt>
      <trkpt lat="41.071217" lon="-3.723933">
        <ele>1964.0</ele>
        <time>2013-06-04T19:35:04Z</time>
      </trkpt>
      <trkpt lat="41.071283" lon="-3.723900">
        <ele>1963.0</ele>
        <time>2013-06-04T19:35:05Z</time>
      </trkpt>
      <trkpt lat="41.071367" lon="-3.723867">
        <ele>1963.0</ele>
        <time>2013-06-04T19:35:06Z</time>
      </trkpt>
      <trkpt lat="41.071433" lon="-3.723833">
        <ele>1962.0</ele>
        <time>2013-06-04T19:35:07Z</time>
      </trkpt>
      <trkpt lat="41.071517" lon="-3.723800">
        <ele>1961.0</ele>
        <time>2013-06-04T19:35:08Z</time>
      </trkpt>
      <trkpt lat="41.071583" lon="-3.723750">
        <ele>1960.0</ele>
        <time>2013-06-04T19:35:09Z</time>
      </trkpt>
      <trkpt lat="41.071667" lon="-3.723717">
        <ele>1959.0</ele>
        <time>2013-06-04T19:35:10Z</time>
      </trkpt>
      <trkpt lat="41.071733" lon="-3.723683">
        <ele>1959.0</ele>
        <time>2013-06-04T19:35:11Z</time>
      </trkpt>
      <trkpt lat="41.071817" lon="-3.723633">
        <ele>1958.0</ele>
        <time>2013-06-04T19:35:12Z</time>
      </trkpt>
      <trkpt lat="41.071883" lon="-3.723600">
        <ele>1957.0</ele>
        <time>2013-06-04T19:35:13Z</time>
      </trkpt>
      <trkpt lat="41.071967" lon="-3.723550">
        <ele>1957.0</ele>
        <time>2013-06-04T19:35:14Z</time>
      </trkpt>
      <trkpt lat="41.072033" lon="-3.723517">
        <ele>1956.0</ele>
        <time>2013-06-04T19:35:15Z</time>
      </trkpt>
      <trkpt lat="41.072117" lon="-3.723467">
        <ele>1955.0</ele>
        <time>2013-06-04T19:35:16Z</time>
      </trkpt>
      <trkpt lat="41.072183" lon="-3.723417">
        <ele>1954.0</ele>
        <time>2013-06-04T19:35:17Z</time>
      </trkpt>
      <trkpt lat="41.072267" lon="-3.723383">
        <ele>1954.0</ele>
        <time>2013-06-04T19:35:18Z</time>
      </trkpt>
      <trkpt lat="41.072333" lon="-3.723350">
        <ele>1953.0</ele>
        <time>2013-06-04T19:35:19Z</time>
      </trkpt>
      <trkpt lat="41.072417" lon="-3.723317">
        <ele>1952.0</ele>
        <time>2013-06-04T19:35:20Z</time>
      </trkpt>
      <trkpt lat="41.072500" lon="-3.723283">
        <ele>1951.0</ele>
        <time>2013-06-04T19:35:21Z</time>
      </trkpt>
      <trkpt lat="41.072567" lon="-3.723250">
        <ele>1950.0</ele>
        <time>2013-06-04T19:35:22Z</time>
      </trkpt>
      <trkpt lat="41.072650" lon="-3.723217">
        <ele>1950.0</ele>
        <time>2013-06-04T19:35:23Z</time>
      </trkpt>
      <trkpt lat="41.072717" lon="-3.723167">
        <ele>1949.0</ele>
        <time>2013-06-04T19:35:24Z</time>
      </trkpt>
      <trkpt lat="41.072800" lon="-3.723133">
        <ele>1948.0</ele>
        <time>2013-06-04T19:35:25Z</time>
      </trkpt>
      <trkpt lat="41.072867" lon="-3.723083">
        <ele>1947.0</ele>
        <time>2013-06-04T19:35:26Z</time>
      </trkpt>
      <trkpt lat="41.072950" lon="-3.723033">
        <ele>1946.0</ele>
        <time>2013-06-04T19:35:27Z</time>
      </trkpt>
      <trkpt lat="41.073033" lon="-3.722967">
        <ele>1945.0</ele>
        <time>2013-06-04T19:35:28Z</time>
      </trkpt>
      <trkpt lat="41.073100" lon="-3.722900">
        <ele>1943.0</ele>
        <time>2013-06-04T19:35:29Z</time>
      </trkpt>
      <trkpt lat="41.073183" lon="-3.722850">
        <ele>1942.0</ele>
        <time>2013-06-04T19:35:30Z</time>
      </trkpt>
      <trkpt lat="41.073267" lon="-3.722783">
        <ele>1941.0</ele>
        <time>2013-06-04T19:35:31Z</time>
      </trkpt>
      <trkpt lat="41.073350" lon="-3.722733">
        <ele>1940.0</ele>
        <time>2013-06-04T19:35:32Z</time>
      </trkpt>
      <trkpt lat="41.073433" lon="-3.722667">
        <ele>1939.0</ele>
        <time>2013-06-04T19:35:33Z</time>
      </trkpt>
      <trkpt lat="41.073517" lon="-3.722583">
        <ele>1938.0</ele>
        <time>2013-06-04T19:35:34Z</time>
      </trkpt>
      <trkpt lat="41.073600" lon="-3.722517">
        <ele>1937.0</ele>
        <time>2013-06-04T19:35:35Z</time>
      </trkpt>
      <trkpt lat="41.073667" lon="-3.722450">
        <ele>1936.0</ele>
        <time>2013-06-04T19:35:36Z</time>
      </trkpt>
      <trkpt lat="41.073750" lon="-3.722383">
        <ele>1935.0</ele>
        <time>2013-06-04T19:35:37Z</time>
      </trkpt>
      <trkpt lat="41.073833" lon="-3.722300">
        <ele>1934.0</ele>
        <time>2013-06-04T19:35:38Z</time>
      </trkpt>
      <trkpt lat="41.073917" lon="-3.722233">
        <ele>1933.0</ele>
        <time>2013-06-04T19:35:39Z</time>
      </trkpt>
      <trkpt lat="41.074000" lon="-3.722150">
        <ele>1932.0</ele>
        <time>2013-06-04T19:35:40Z</time>
      </trkpt>
      <trkpt lat="41.074083" lon="-3.722067">
        <ele>1931.0</ele>
        <time>2013-06-04T19:35:41Z</time>
      </trkpt>
      <trkpt lat="41.074150" lon="-3.721983">
        <ele>1930.0</ele>
        <time>2013-06-04T19:35:42Z</time>
      </trkpt>
      <trkpt lat="41.074233" lon="-3.721900">
        <ele>1929.0</ele>
        <time>2013-06-04T19:35:43Z</time>
      </trkpt>
      <trkpt lat="41.074300" lon="-3.721800">
        <ele>1928.0</ele>
        <time>2013-06-04T19:35:44Z</time>
      </trkpt>
      <trkpt lat="41.074383" lon="-3.721717">
        <ele>1927.0</ele>
        <time>2013-06-04T19:35:45Z</time>
      </trkpt>
      <trkpt lat="41.074450" lon="-3.721617">
        <ele>1927.0</ele>
        <time>2013-06-04T19:35:46Z</time>
      </trkpt>
      <trkpt lat="41.074533" lon="-3.721517">
        <ele>1926.0</ele>
        <time>2013-06-04T19:35:47Z</time>
      </trkpt>
      <trkpt lat="41.074600" lon="-3.721417">
        <ele>1925.0</ele>
        <time>2013-06-04T19:35:48Z</time>
      </trkpt>
      <trkpt lat="41.074683" lon="-3.721317">
        <ele>1924.0</ele>
        <time>2013-06-04T19:35:49Z</time>
      </trkpt>
      <trkpt lat="41.074767" lon="-3.721233">
        <ele>1923.0</ele>
        <time>2013-06-04T19:35:50Z</time>
      </trkpt>
      <trkpt lat="41.074833" lon="-3.721133">
        <ele>1923.0</ele>
        <time>2013-06-04T19:35:51Z</time>
      </trkpt>
      <trkpt lat="41.074900" lon="-3.721033">
        <ele>1922.0</ele>
        <time>2013-06-04T19:35:52Z</time>
      </trkpt>
      <trkpt lat="41.074950" lon="-3.720917">
        <ele>1922.0</ele>
        <time>2013-06-04T19:35:53Z</time>
      </trkpt>
      <trkpt lat="41.075017" lon="-3.720817">
        <ele>1921.0</ele>
        <time>2013-06-04T19:35:54Z</time>
      </trkpt>
      <trkpt lat="41.075083" lon="-3.720717">
        <ele>1920.0</ele>
        <time>2013-06-04T19:35:55Z</time>
      </trkpt>
      <trkpt lat="41.075167" lon="-3.720633">
        <ele>1919.0</ele>
        <time>2013-06-04T19:35:56Z</time>
      </trkpt>
      <trkpt lat="41.075233" lon="-3.720550">
        <ele>1919.0</ele>
        <time>2013-06-04T19:35:57Z</time>
      </trkpt>
      <trkpt lat="41.075300" lon="-3.720483">
        <ele>1918.0</ele>
        <time>2013-06-04T19:35:58Z</time>
      </trkpt>
      <trkpt lat="41.075367" lon="-3.720417">
        <ele>1917.0</ele>
        <time>2013-06-04T19:35:59Z</time>
      </trkpt>
      <trkpt lat="41.075433" lon="-3.720350">
        <ele>1917.0</ele>
        <time>2013-06-04T19:36:00Z</time>
      </trkpt>
      <trkpt lat="41.075517" lon="-3.720300">
        <ele>1916.0</ele>
        <time>2013-06-04T19:36:01Z</time>
      </trkpt>
      <trkpt lat="41.075583" lon="-3.720250">
        <ele>1915.0</ele>
        <time>2013-06-04T19:36:02Z</time>
      </trkpt>
      <trkpt lat="41.075667" lon="-3.720217">
        <ele>1914.0</ele>
        <time>2013-06-04T19:36:03Z</time>
      </trkpt>
      <trkpt lat="41.075733" lon="-3.720183">
        <ele>1913.0</ele>
        <time>2013-06-04T19:36:04Z</time>
      </trkpt>
      <trkpt lat="41.075800" lon="-3.720150">
        <ele>1912.0</ele>
        <time>2013-06-04T19:36:05Z</time>
      </trkpt>
      <trkpt lat="41.075883" lon="-3.720117">
        <ele>1911.0</ele>
        <time>2013-06-04T19:36:06Z</time>
      </trkpt>
      <trkpt lat="41.075967" lon="-3.720083">
        <ele>1909.0</ele>
        <time>2013-06-04T19:36:07Z</time>
      </trkpt>
      <trkpt lat="41.076033" lon="-3.720050">
        <ele>1908.0</ele>
        <time>2013-06-04T19:36:08Z</time>
      </trkpt>
      <trkpt lat="41.076117" lon="-3.720033">
        <ele>1907.0</ele>
        <time>2013-06-04T19:36:09Z</time>
      </trkpt>
      <trkpt lat="41.076200" lon="-3.720000">
        <ele>1907.0</ele>
        <time>2013-06-04T19:36:10Z</time>
      </trkpt>
      <trkpt lat="41.076267" lon="-3.719983">
        <ele>1906.0</ele>
        <time>2013-06-04T19:36:11Z</time>
      </trkpt>
      <trkpt lat="41.076350" lon="-3.719950">
        <ele>1905.0</ele>
        <time>2013-06-04T19:36:12Z</time>
      </trkpt>
      <trkpt lat="41.076417" lon="-3.719917">
        <ele>1904.0</ele>
        <time>2013-06-04T19:36:13Z</time>
      </trkpt>
      <trkpt lat="41.076500" lon="-3.719900">
        <ele>1903.0</ele>
        <time>2013-06-04T19:36:14Z</time>
      </trkpt>
      <trkpt lat="41.076567" lon="-3.719867">
        <ele>1902.0</ele>
        <time>2013-06-04T19:36:15Z</time>
      </trkpt>
      <trkpt lat="41.076650" lon="-3.719833">
        <ele>1901.0</ele>
        <time>2013-06-04T19:36:16Z</time>
      </trkpt>
      <trkpt lat="41.076733" lon="-3.719800">
        <ele>1900.0</ele>
        <time>2013-06-04T19:36:17Z</time>
      </trkpt>
      <trkpt lat="41.076800" lon="-3.719767">
        <ele>1900.0</ele>
        <time>2013-06-04T19:36:18Z</time>
      </trkpt>
      <trkpt lat="41.076883" lon="-3.719750">
        <ele>1899.0</ele>
        <time>2013-06-04T19:36:19Z</time>
      </trkpt>
      <trkpt lat="41.076950" lon="-3.719717">
        <ele>1897.0</ele>
        <time>2013-06-04T19:36:20Z</time>
      </trkpt>
      <trkpt lat="41.077033" lon="-3.719683">
        <ele>1896.0</ele>
        <time>2013-06-04T19:36:21Z</time>
      </trkpt>
      <trkpt lat="41.077117" lon="-3.719650">
        <ele>1895.0</ele>
        <time>2013-06-04T19:36:22Z</time>
      </trkpt>
      <trkpt lat="41.077200" lon="-3.719617">
        <ele>1894.0</ele>
        <time>2013-06-04T19:36:23Z</time>
      </trkpt>
      <trkpt lat="41.077267" lon="-3.719583">
        <ele>1893.0</ele>
        <time>2013-06-04T19:36:24Z</time>
      </trkpt>
      <trkpt lat="41.077350" lon="-3.719550">
        <ele>1892.0</ele>
        <time>2013-06-04T19:36:25Z</time>
      </trkpt>
      <trkpt lat="41.077417" lon="-3.719517">
        <ele>1891.0</ele>
        <time>2013-06-04T19:36:26Z</time>
      </trkpt>
      <trkpt lat="41.077500" lon="-3.719483">
        <ele>1890.0</ele>
        <time>2013-06-04T19:36:27Z</time>
      </trkpt>
      <trkpt lat="41.077583" lon="-3.719450">
        <ele>1889.0</ele>
        <time>2013-06-04T19:36:28Z</time>
      </trkpt>
      <trkpt lat="41.077667" lon="-3.719417">
        <ele>1888.0</ele>
        <time>2013-06-04T19:36:29Z</time>
      </trkpt>
      <trkpt lat="41.077750" lon="-3.719400">
        <ele>1887.0</ele>
        <time>2013-06-04T19:36:30Z</time>
      </trkpt>
      <trkpt lat="41.077817" lon="-3.719367">
        <ele>1887.0</ele>
        <time>2013-06-04T19:36:31Z</time>
      </trkpt>
      <trkpt lat="41.077900" lon="-3.719333">
        <ele>1886.0</ele>
        <time>2013-06-04T19:36:32Z</time>
      </trkpt>
      <trkpt lat="41.077983" lon="-3.719300">
        <ele>1885.0</ele>
        <time>2013-06-04T19:36:33Z</time>
      </trkpt>
      <trkpt lat="41.078067" lon="-3.719267">
        <ele>1883.0</ele>
        <time>2013-06-04T19:36:34Z</time>
      </trkpt>
      <trkpt lat="41.078150" lon="-3.719233">
        <ele>1883.0</ele>
        <time>2013-06-04T19:36:35Z</time>
      </trkpt>
      <trkpt lat="41.078217" lon="-3.719200">
        <ele>1882.0</ele>
        <time>2013-06-04T19:36:36Z</time>
      </trkpt>
      <trkpt lat="41.078300" lon="-3.719167">
        <ele>1881.0</ele>
        <time>2013-06-04T19:36:37Z</time>
      </trkpt>
      <trkpt lat="41.078383" lon="-3.719133">
        <ele>1881.0</ele>
        <time>2013-06-04T19:36:38Z</time>
      </trkpt>
      <trkpt lat="41.078450" lon="-3.719100">
        <ele>1880.0</ele>
        <time>2013-06-04T19:36:39Z</time>
      </trkpt>
      <trkpt lat="41.078533" lon="-3.719067">
        <ele>1879.0</ele>
        <time>2013-06-04T19:36:40Z</time>
      </trkpt>
      <trkpt lat="41.078617" lon="-3.719050">
        <ele>1878.0</ele>
        <time>2013-06-04T19:36:41Z</time>
      </trkpt>
      <trkpt lat="41.078700" lon="-3.719017">
        <ele>1877.0</ele>
        <time>2013-06-04T19:36:42Z</time>
      </trkpt>
      <trkpt lat="41.078767" lon="-3.718983">
        <ele>1876.0</ele>
        <time>2013-06-04T19:36:43Z</time>
      </trkpt>
      <trkpt lat="41.078850" lon="-3.718950">
        <ele>1876.0</ele>
        <time>2013-06-04T19:36:44Z</time>
      </trkpt>
      <trkpt lat="41.078933" lon="-3.718917">
        <ele>1875.0</ele>
        <time>2013-06-04T19:36:45Z</time>
      </trkpt>
      <trkpt lat="41.079000" lon="-3.718883">
        <ele>1874.0</ele>
        <time>2013-06-04T19:36:46Z</time>
      </trkpt>
      <trkpt lat="41.079083" lon="-3.718850">
        <ele>1873.0</ele>
        <time>2013-06-04T19:36:47Z</time>
      </trkpt>
      <trkpt lat="41.079167" lon="-3.718817">
        <ele>1872.0</ele>
        <time>2013-06-04T19:36:48Z</time>
      </trkpt>
      <trkpt lat="41.079233" lon="-3.718767">
        <ele>1871.0</ele>
        <time>2013-06-04T19:36:49Z</time>
      </trkpt>
      <trkpt lat="41.079317" lon="-3.718733">
        <ele>1870.0</ele>
        <time>2013-06-04T19:36:50Z</time>
      </trkpt>
      <trkpt lat="41.079400" lon="-3.718683">
        <ele>1869.0</ele>
        <time>2013-06-04T19:36:51Z</time>
      </trkpt>
      <trkpt lat="41.079483" lon="-3.718633">
        <ele>1868.0</ele>
        <time>2013-06-04T19:36:52Z</time>
      </trkpt>
      <trkpt lat="41.079567" lon="-3.718583">
        <ele>1867.0</ele>
        <time>2013-06-04T19:36:53Z</time>
      </trkpt>
      <trkpt lat="41.079633" lon="-3.718550">
        <ele>1867.0</ele>
        <time>2013-06-04T19:36:54Z</time>
      </trkpt>
      <trkpt lat="41.079717" lon="-3.718500">
        <ele>1866.0</ele>
        <time>2013-06-04T19:36:55Z</time>
      </trkpt>
      <trkpt lat="41.079800" lon="-3.718467">
        <ele>1865.0</ele>
        <time>2013-06-04T19:36:56Z</time>
      </trkpt>
      <trkpt lat="41.079883" lon="-3.718433">
        <ele>1864.0</ele>
        <time>2013-06-04T19:36:57Z</time>
      </trkpt>
      <trkpt lat="41.079950" lon="-3.718400">
        <ele>1863.0</ele>
        <time>2013-06-04T19:36:58Z</time>
      </trkpt>
      <trkpt lat="41.080033" lon="-3.718367">
        <ele>1862.0</ele>
        <time>2013-06-04T19:36:59Z</time>
      </trkpt>
      <trkpt lat="41.080117" lon="-3.718333">
        <ele>1861.0</ele>
        <time>2013-06-04T19:37:00Z</time>
      </trkpt>
      <trkpt lat="41.080200" lon="-3.718300">
        <ele>1861.0</ele>
        <time>2013-06-04T19:37:01Z</time>
      </trkpt>
      <trkpt lat="41.080283" lon="-3.718267">
        <ele>1860.0</ele>
        <time>2013-06-04T19:37:02Z</time>
      </trkpt>
      <trkpt lat="41.080367" lon="-3.718250">
        <ele>1859.0</ele>
        <time>2013-06-04T19:37:03Z</time>
      </trkpt>
      <trkpt lat="41.080433" lon="-3.718217">
        <ele>1858.0</ele>
        <time>2013-06-04T19:37:04Z</time>
      </trkpt>
      <trkpt lat="41.080517" lon="-3.718200">
        <ele>1857.0</ele>
        <time>2013-06-04T19:37:05Z</time>
      </trkpt>
      <trkpt lat="41.080600" lon="-3.718167">
        <ele>1856.0</ele>
        <time>2013-06-04T19:37:06Z</time>
      </trkpt>
      <trkpt lat="41.080667" lon="-3.718150">
        <ele>1855.0</ele>
        <time>2013-06-04T19:37:07Z</time>
      </trkpt>
      <trkpt lat="41.080750" lon="-3.718133">
        <ele>1854.0</ele>
        <time>2013-06-04T19:37:08Z</time>
      </trkpt>
      <trkpt lat="41.080833" lon="-3.718100">
        <ele>1854.0</ele>
        <time>2013-06-04T19:37:09Z</time>
      </trkpt>
      <trkpt lat="41.080900" lon="-3.718083">
        <ele>1853.0</ele>
        <time>2013-06-04T19:37:10Z</time>
      </trkpt>
      <trkpt lat="41.080983" lon="-3.718067">
        <ele>1852.0</ele>
        <time>2013-06-04T19:37:11Z</time>
      </trkpt>
      <trkpt lat="41.081067" lon="-3.718033">
        <ele>1851.0</ele>
        <time>2013-06-04T19:37:12Z</time>
      </trkpt>
      <trkpt lat="41.081133" lon="-3.718017">
        <ele>1851.0</ele>
        <time>2013-06-04T19:37:13Z</time>
      </trkpt>
      <trkpt lat="41.081217" lon="-3.718000">
        <ele>1850.0</ele>
        <time>2013-06-04T19:37:14Z</time>
      </trkpt>
      <trkpt lat="41.081283" lon="-3.717967">
        <ele>1848.0</ele>
        <time>2013-06-04T19:37:15Z</time>
      </trkpt>
      <trkpt lat="41.081367" lon="-3.717950">
        <ele>1847.0</ele>
        <time>2013-06-04T19:37:16Z</time>
      </trkpt>
      <trkpt lat="41.081450" lon="-3.717933">
        <ele>1846.0</ele>
        <time>2013-06-04T19:37:17Z</time>
      </trkpt>
      <trkpt lat="41.081517" lon="-3.717900">
        <ele>1846.0</ele>
        <time>2013-06-04T19:37:18Z</time>
      </trkpt>
      <trkpt lat="41.081600" lon="-3.717883">
        <ele>1845.0</ele>
        <time>2013-06-04T19:37:19Z</time>
      </trkpt>
      <trkpt lat="41.081683" lon="-3.717867">
        <ele>1844.0</ele>
        <time>2013-06-04T19:37:20Z</time>
      </trkpt>
      <trkpt lat="41.081767" lon="-3.717833">
        <ele>1843.0</ele>
        <time>2013-06-04T19:37:21Z</time>
      </trkpt>
      <trkpt lat="41.081850" lon="-3.717800">
        <ele>1842.0</ele>
        <time>2013-06-04T19:37:22Z</time>
      </trkpt>
      <trkpt lat="41.081917" lon="-3.717783">
        <ele>1841.0</ele>
        <time>2013-06-04T19:37:23Z</time>
      </trkpt>
      <trkpt lat="41.082000" lon="-3.717767">
        <ele>1840.0</ele>
        <time>2013-06-04T19:37:24Z</time>
      </trkpt>
      <trkpt lat="41.082083" lon="-3.717750">
        <ele>1839.0</ele>
        <time>2013-06-04T19:37:25Z</time>
      </trkpt>
      <trkpt lat="41.082167" lon="-3.717733">
        <ele>1838.0</ele>
        <time>2013-06-04T19:37:26Z</time>
      </trkpt>
      <trkpt lat="41.082233" lon="-3.717717">
        <ele>1837.0</ele>
        <time>2013-06-04T19:37:27Z</time>
      </trkpt>
      <trkpt lat="41.082317" lon="-3.717700">
        <ele>1837.0</ele>
        <time>2013-06-04T19:37:28Z</time>
      </trkpt>
      <trkpt lat="41.082400" lon="-3.717683">
        <ele>1836.0</ele>
        <time>2013-06-04T19:37:29Z</time>
      </trkpt>
      <trkpt lat="41.082483" lon="-3.717667">
        <ele>1835.0</ele>
        <time>2013-06-04T19:37:30Z</time>
      </trkpt>
      <trkpt lat="41.082567" lon="-3.717667">
        <ele>1834.0</ele>
        <time>2013-06-04T19:37:31Z</time>
      </trkpt>
      <trkpt lat="41.082633" lon="-3.717650">
        <ele>1834.0</ele>
        <time>2013-06-04T19:37:32Z</time>
      </trkpt>
      <trkpt lat="41.082717" lon="-3.717633">
        <ele>1833.0</ele>
        <time>2013-06-04T19:37:33Z</time>
      </trkpt>
      <trkpt lat="41.082783" lon="-3.717633">
        <ele>1832.0</ele>
        <time>2013-06-04T19:37:34Z</time>
      </trkpt>
      <trkpt lat="41.082867" lon="-3.717617">
        <ele>1831.0</ele>
        <time>2013-06-04T19:37:35Z</time>
      </trkpt>
      <trkpt lat="41.082950" lon="-3.717617">
        <ele>1831.0</ele>
        <time>2013-06-04T19:37:36Z</time>
      </trkpt>
      <trkpt lat="41.083017" lon="-3.717600">
        <ele>1830.0</ele>
        <time>2013-06-04T19:37:37Z</time>
      </trkpt>
      <trkpt lat="41.083100" lon="-3.717600">
        <ele>1829.0</ele>
        <time>2013-06-04T19:37:38Z</time>
      </trkpt>
      <trkpt lat="41.083183" lon="-3.717583">
        <ele>1828.0</ele>
        <time>2013-06-04T19:37:39Z</time>
      </trkpt>
      <trkpt lat="41.083250" lon="-3.717583">
        <ele>1827.0</ele>
        <time>2013-06-04T19:37:40Z</time>
      </trkpt>
      <trkpt lat="41.083333" lon="-3.717567">
        <ele>1826.0</ele>
        <time>2013-06-04T19:37:41Z</time>
      </trkpt>
      <trkpt lat="41.083400" lon="-3.717567">
        <ele>1825.0</ele>
        <time>2013-06-04T19:37:42Z</time>
      </trkpt>
      <trkpt lat="41.083483" lon="-3.717550">
        <ele>1824.0</ele>
        <time>2013-06-04T19:37:43Z</time>
      </trkpt>
      <trkpt lat="41.083567" lon="-3.717550">
        <ele>1823.0</ele>
        <time>2013-06-04T19:37:44Z</time>
      </trkpt>
      <trkpt lat="41.083650" lon="-3.717533">
        <ele>1822.0</ele>
        <time>2013-06-04T19:37:45Z</time>
      </trkpt>
      <trkpt lat="41.083733" lon="-3.717533">
        <ele>1822.0</ele>
        <time>2013-06-04T19:37:46Z</time>
      </trkpt>
      <trkpt lat="41.083800" lon="-3.717517">
        <ele>1821.0</ele>
        <time>2013-06-04T19:37:47Z</time>
      </trkpt>
      <trkpt lat="41.083883" lon="-3.717517">
        <ele>1820.0</ele>
        <time>2013-06-04T19:37:48Z</time>
      </trkpt>
      <trkpt lat="41.083967" lon="-3.717500">
        <ele>1819.0</ele>
        <time>2013-06-04T19:37:49Z</time>
      </trkpt>
      <trkpt lat="41.084033" lon="-3.717500">
        <ele>1818.0</ele>
        <time>2013-06-04T19:37:50Z</time>
      </trkpt>
      <trkpt lat="41.084117" lon="-3.717500">
        <ele>1817.0</ele>
        <time>2013-06-04T19:37:51Z</time>
      </trkpt>
      <trkpt lat="41.084200" lon="-3.717483">
        <ele>1816.0</ele>
        <time>2013-06-04T19:37:52Z</time>
      </trkpt>
      <trkpt lat="41.084267" lon="-3.717483">
        <ele>1816.0</ele>
        <time>2013-06-04T19:37:53Z</time>
      </trkpt>
      <trkpt lat="41.084350" lon="-3.717467">
        <ele>1815.0</ele>
        <time>2013-06-04T19:37:54Z</time>
      </trkpt>
      <trkpt lat="41.084433" lon="-3.717467">
        <ele>1814.0</ele>
        <time>2013-06-04T19:37:55Z</time>
      </trkpt>
      <trkpt lat="41.084517" lon="-3.717450">
        <ele>1813.0</ele>
        <time>2013-06-04T19:37:56Z</time>
      </trkpt>
      <trkpt lat="41.084600" lon="-3.717433">
        <ele>1812.0</ele>
        <time>2013-06-04T19:37:57Z</time>
      </trkpt>
      <trkpt lat="41.084667" lon="-3.717400">
        <ele>1811.0</ele>
        <time>2013-06-04T19:37:58Z</time>
      </trkpt>
      <trkpt lat="41.084750" lon="-3.717400">
        <ele>1810.0</ele>
        <time>2013-06-04T19:37:59Z</time>
      </trkpt>
      <trkpt lat="41.084833" lon="-3.717383">
        <ele>1809.0</ele>
        <time>2013-06-04T19:38:00Z</time>
      </trkpt>
      <trkpt lat="41.084917" lon="-3.717367">
        <ele>1808.0</ele>
        <time>2013-06-04T19:38:01Z</time>
      </trkpt>
      <trkpt lat="41.085000" lon="-3.717350">
        <ele>1807.0</ele>
        <time>2013-06-04T19:38:02Z</time>
      </trkpt>
      <trkpt lat="41.085083" lon="-3.717317">
        <ele>1806.0</ele>
        <time>2013-06-04T19:38:03Z</time>
      </trkpt>
      <trkpt lat="41.085167" lon="-3.717300">
        <ele>1805.0</ele>
        <time>2013-06-04T19:38:04Z</time>
      </trkpt>
      <trkpt lat="41.085233" lon="-3.717267">
        <ele>1804.0</ele>
        <time>2013-06-04T19:38:05Z</time>
      </trkpt>
      <trkpt lat="41.085317" lon="-3.717250">
        <ele>1803.0</ele>
        <time>2013-06-04T19:38:06Z</time>
      </trkpt>
      <trkpt lat="41.085400" lon="-3.717233">
        <ele>1802.0</ele>
        <time>2013-06-04T19:38:07Z</time>
      </trkpt>
      <trkpt lat="41.085483" lon="-3.717200">
        <ele>1802.0</ele>
        <time>2013-06-04T19:38:08Z</time>
      </trkpt>
      <trkpt lat="41.085567" lon="-3.717167">
        <ele>1801.0</ele>
        <time>2013-06-04T19:38:09Z</time>
      </trkpt>
      <trkpt lat="41.085650" lon="-3.717150">
        <ele>1800.0</ele>
        <time>2013-06-04T19:38:10Z</time>
      </trkpt>
      <trkpt lat="41.085733" lon="-3.717117">
        <ele>1799.0</ele>
        <time>2013-06-04T19:38:11Z</time>
      </trkpt>
      <trkpt lat="41.085817" lon="-3.717083">
        <ele>1799.0</ele>
        <time>2013-06-04T19:38:12Z</time>
      </trkpt>
      <trkpt lat="41.085883" lon="-3.717050">
        <ele>1797.0</ele>
        <time>2013-06-04T19:38:13Z</time>
      </trkpt>
      <trkpt lat="41.085967" lon="-3.717017">
        <ele>1796.0</ele>
        <time>2013-06-04T19:38:14Z</time>
      </trkpt>
      <trkpt lat="41.086067" lon="-3.717000">
        <ele>1795.0</ele>
        <time>2013-06-04T19:38:15Z</time>
      </trkpt>
      <trkpt lat="41.086150" lon="-3.716967">
        <ele>1794.0</ele>
        <time>2013-06-04T19:38:16Z</time>
      </trkpt>
      <trkpt lat="41.086233" lon="-3.716933">
        <ele>1794.0</ele>
        <time>2013-06-04T19:38:17Z</time>
      </trkpt>
      <trkpt lat="41.086300" lon="-3.716900">
        <ele>1793.0</ele>
        <time>2013-06-04T19:38:18Z</time>
      </trkpt>
      <trkpt lat="41.086383" lon="-3.716867">
        <ele>1792.0</ele>
        <time>2013-06-04T19:38:19Z</time>
      </trkpt>
      <trkpt lat="41.086467" lon="-3.716833">
        <ele>1791.0</ele>
        <time>2013-06-04T19:38:20Z</time>
      </trkpt>
      <trkpt lat="41.086550" lon="-3.716817">
        <ele>1790.0</ele>
        <time>2013-06-04T19:38:21Z</time>
      </trkpt>
      <trkpt lat="41.086633" lon="-3.716783">
        <ele>1788.0</ele>
        <time>2013-06-04T19:38:22Z</time>
      </trkpt>
      <trkpt lat="41.086733" lon="-3.716767">
        <ele>1788.0</ele>
        <time>2013-06-04T19:38:23Z</time>
      </trkpt>
      <trkpt lat="41.086800" lon="-3.716733">
        <ele>1787.0</ele>
        <time>2013-06-04T19:38:24Z</time>
      </trkpt>
      <trkpt lat="41.086883" lon="-3.716717">
        <ele>1786.0</ele>
        <time>2013-06-04T19:38:25Z</time>
      </trkpt>
      <trkpt lat="41.086967" lon="-3.716683">
        <ele>1784.0</ele>
        <time>2013-06-04T19:38:26Z</time>
      </trkpt>
      <trkpt lat="41.087050" lon="-3.716667">
        <ele>1783.0</ele>
        <time>2013-06-04T19:38:27Z</time>
      </trkpt>
      <trkpt lat="41.087133" lon="-3.716633">
        <ele>1782.0</ele>
        <time>2013-06-04T19:38:28Z</time>
      </trkpt>
      <trkpt lat="41.087217" lon="-3.716617">
        <ele>1781.0</ele>
        <time>2013-06-04T19:38:29Z</time>
      </trkpt>
      <trkpt lat="41.087300" lon="-3.716600">
        <ele>1780.0</ele>
        <time>2013-06-04T19:38:30Z</time>
      </trkpt>
      <trkpt lat="41.087383" lon="-3.716567">
        <ele>1779.0</ele>
        <time>2013-06-04T19:38:31Z</time>
      </trkpt>
      <trkpt lat="41.087467" lon="-3.716550">
        <ele>1778.0</ele>
        <time>2013-06-04T19:38:32Z</time>
      </trkpt>
      <trkpt lat="41.087550" lon="-3.716533">
        <ele>1777.0</ele>
        <time>2013-06-04T19:38:33Z</time>
      </trkpt>
      <trkpt lat="41.087633" lon="-3.716500">
        <ele>1776.0</ele>
        <time>2013-06-04T19:38:34Z</time>
      </trkpt>
      <trkpt lat="41.087717" lon="-3.716483">
        <ele>1775.0</ele>
        <time>2013-06-04T19:38:35Z</time>
      </trkpt>
      <trkpt lat="41.087800" lon="-3.716467">
        <ele>1774.0</ele>
        <time>2013-06-04T19:38:36Z</time>
      </trkpt>
      <trkpt lat="41.087883" lon="-3.716450">
        <ele>1772.0</ele>
        <time>2013-06-04T19:38:37Z</time>
      </trkpt>
      <trkpt lat="41.087967" lon="-3.716433">
        <ele>1771.0</ele>
        <time>2013-06-04T19:38:38Z</time>
      </trkpt>
      <trkpt lat="41.088050" lon="-3.716417">
        <ele>1770.0</ele>
        <time>2013-06-04T19:38:39Z</time>
      </trkpt>
      <trkpt lat="41.088133" lon="-3.716400">
        <ele>1769.0</ele>
        <time>2013-06-04T19:38:40Z</time>
      </trkpt>
      <trkpt lat="41.088217" lon="-3.716383">
        <ele>1768.0</ele>
        <time>2013-06-04T19:38:41Z</time>
      </trkpt>
      <trkpt lat="41.088283" lon="-3.716367">
        <ele>1767.0</ele>
        <time>2013-06-04T19:38:42Z</time>
      </trkpt>
      <trkpt lat="41.088367" lon="-3.716333">
        <ele>1767.0</ele>
        <time>2013-06-04T19:38:43Z</time>
      </trkpt>
      <trkpt lat="41.088450" lon="-3.716317">
        <ele>1766.0</ele>
        <time>2013-06-04T19:38:44Z</time>
      </trkpt>
      <trkpt lat="41.088533" lon="-3.716300">
        <ele>1764.0</ele>
        <time>2013-06-04T19:38:45Z</time>
      </trkpt>
      <trkpt lat="41.088617" lon="-3.716267">
        <ele>1763.0</ele>
        <time>2013-06-04T19:38:46Z</time>
      </trkpt>
      <trkpt lat="41.088700" lon="-3.716250">
        <ele>1762.0</ele>
        <time>2013-06-04T19:38:47Z</time>
      </trkpt>
      <trkpt lat="41.088783" lon="-3.716233">
        <ele>1761.0</ele>
        <time>2013-06-04T19:38:48Z</time>
      </trkpt>
      <trkpt lat="41.088867" lon="-3.716200">
        <ele>1760.0</ele>
        <time>2013-06-04T19:38:49Z</time>
      </trkpt>
      <trkpt lat="41.088950" lon="-3.716183">
        <ele>1759.0</ele>
        <time>2013-06-04T19:38:50Z</time>
      </trkpt>
      <trkpt lat="41.089017" lon="-3.716167">
        <ele>1758.0</ele>
        <time>2013-06-04T19:38:51Z</time>
      </trkpt>
      <trkpt lat="41.089100" lon="-3.716133">
        <ele>1757.0</ele>
        <time>2013-06-04T19:38:52Z</time>
      </trkpt>
      <trkpt lat="41.089183" lon="-3.716117">
        <ele>1756.0</ele>
        <time>2013-06-04T19:38:53Z</time>
      </trkpt>
      <trkpt lat="41.089267" lon="-3.716100">
        <ele>1755.0</ele>
        <time>2013-06-04T19:38:54Z</time>
      </trkpt>
      <trkpt lat="41.089350" lon="-3.716067">
        <ele>1754.0</ele>
        <time>2013-06-04T19:38:55Z</time>
      </trkpt>
      <trkpt lat="41.089433" lon="-3.716050">
        <ele>1752.0</ele>
        <time>2013-06-04T19:38:56Z</time>
      </trkpt>
      <trkpt lat="41.089517" lon="-3.716033">
        <ele>1751.0</ele>
        <time>2013-06-04T19:38:57Z</time>
      </trkpt>
      <trkpt lat="41.089600" lon="-3.716017">
        <ele>1750.0</ele>
        <time>2013-06-04T19:38:58Z</time>
      </trkpt>
      <trkpt lat="41.089683" lon="-3.716000">
        <ele>1749.0</ele>
        <time>2013-06-04T19:38:59Z</time>
      </trkpt>
      <trkpt lat="41.089767" lon="-3.715983">
        <ele>1748.0</ele>
        <time>2013-06-04T19:39:00Z</time>
      </trkpt>
      <trkpt lat="41.089850" lon="-3.715967">
        <ele>1747.0</ele>
        <time>2013-06-04T19:39:01Z</time>
      </trkpt>
      <trkpt lat="41.089933" lon="-3.715950">
        <ele>1746.0</ele>
        <time>2013-06-04T19:39:02Z</time>
      </trkpt>
      <trkpt lat="41.090017" lon="-3.715950">
        <ele>1745.0</ele>
        <time>2013-06-04T19:39:03Z</time>
      </trkpt>
      <trkpt lat="41.090100" lon="-3.715933">
        <ele>1744.0</ele>
        <time>2013-06-04T19:39:04Z</time>
      </trkpt>
      <trkpt lat="41.090167" lon="-3.715933">
        <ele>1743.0</ele>
        <time>2013-06-04T19:39:05Z</time>
      </trkpt>
      <trkpt lat="41.090250" lon="-3.715917">
        <ele>1742.0</ele>
        <time>2013-06-04T19:39:06Z</time>
      </trkpt>
      <trkpt lat="41.090333" lon="-3.715900">
        <ele>1741.0</ele>
        <time>2013-06-04T19:39:07Z</time>
      </trkpt>
      <trkpt lat="41.090417" lon="-3.715883">
        <ele>1740.0</ele>
        <time>2013-06-04T19:39:08Z</time>
      </trkpt>
      <trkpt lat="41.090500" lon="-3.715850">
        <ele>1739.0</ele>
        <time>2013-06-04T19:39:09Z</time>
      </trkpt>
      <trkpt lat="41.090583" lon="-3.715833">
        <ele>1738.0</ele>
        <time>2013-06-04T19:39:10Z</time>
      </trkpt>
      <trkpt lat="41.090667" lon="-3.715800">
        <ele>1737.0</ele>
        <time>2013-06-04T19:39:11Z</time>
      </trkpt>
      <trkpt lat="41.090750" lon="-3.715783">
        <ele>1736.0</ele>
        <time>2013-06-04T19:39:12Z</time>
      </trkpt>
      <trkpt lat="41.090833" lon="-3.715750">
        <ele>1735.0</ele>
        <time>2013-06-04T19:39:13Z</time>
      </trkpt>
      <trkpt lat="41.090917" lon="-3.715717">
        <ele>1734.0</ele>
        <time>2013-06-04T19:39:14Z</time>
      </trkpt>
      <trkpt lat="41.091000" lon="-3.715683">
        <ele>1733.0</ele>
        <time>2013-06-04T19:39:15Z</time>
      </trkpt>
      <trkpt lat="41.091083" lon="-3.715650">
        <ele>1732.0</ele>
        <time>2013-06-04T19:39:16Z</time>
      </trkpt>
      <trkpt lat="41.091167" lon="-3.715633">
        <ele>1731.0</ele>
        <time>2013-06-04T19:39:17Z</time>
      </trkpt>
      <trkpt lat="41.091250" lon="-3.715600">
        <ele>1730.0</ele>
        <time>2013-06-04T19:39:18Z</time>
      </trkpt>
      <trkpt lat="41.091333" lon="-3.715567">
        <ele>1729.0</ele>
        <time>2013-06-04T19:39:19Z</time>
      </trkpt>
      <trkpt lat="41.091417" lon="-3.715533">
        <ele>1728.0</ele>
        <time>2013-06-04T19:39:20Z</time>
      </trkpt>
      <trkpt lat="41.091500" lon="-3.715500">
        <ele>1727.0</ele>
        <time>2013-06-04T19:39:21Z</time>
      </trkpt>
      <trkpt lat="41.091583" lon="-3.715467">
        <ele>1726.0</ele>
        <time>2013-06-04T19:39:22Z</time>
      </trkpt>
      <trkpt lat="41.091667" lon="-3.715433">
        <ele>1725.0</ele>
        <time>2013-06-04T19:39:23Z</time>
      </trkpt>
      <trkpt lat="41.091750" lon="-3.715400">
        <ele>1724.0</ele>
        <time>2013-06-04T19:39:24Z</time>
      </trkpt>
      <trkpt lat="41.091833" lon="-3.715367">
        <ele>1723.0</ele>
        <time>2013-06-04T19:39:25Z</time>
      </trkpt>
      <trkpt lat="41.091917" lon="-3.715333">
        <ele>1722.0</ele>
        <time>2013-06-04T19:39:26Z</time>
      </trkpt>
      <trkpt lat="41.092000" lon="-3.715317">
        <ele>1721.0</ele>
        <time>2013-06-04T19:39:27Z</time>
      </trkpt>
      <trkpt lat="41.092083" lon="-3.715283">
        <ele>1720.0</ele>
        <time>2013-06-04T19:39:28Z</time>
      </trkpt>
      <trkpt lat="41.092167" lon="-3.715250">
        <ele>1718.0</ele>
        <time>2013-06-04T19:39:29Z</time>
      </trkpt>
      <trkpt lat="41.092250" lon="-3.715233">
        <ele>1717.0</ele>
        <time>2013-06-04T19:39:30Z</time>
      </trkpt>
      <trkpt lat="41.092317" lon="-3.715217">
        <ele>1716.0</ele>
        <time>2013-06-04T19:39:31Z</time>
      </trkpt>
      <trkpt lat="41.092400" lon="-3.715183">
        <ele>1715.0</ele>
        <time>2013-06-04T19:39:32Z</time>
      </trkpt>
      <trkpt lat="41.092483" lon="-3.715167">
        <ele>1714.0</ele>
        <time>2013-06-04T19:39:33Z</time>
      </trkpt>
      <trkpt lat="41.092567" lon="-3.715150">
        <ele>1713.0</ele>
        <time>2013-06-04T19:39:34Z</time>
      </trkpt>
      <trkpt lat="41.092650" lon="-3.715133">
        <ele>1712.0</ele>
        <time>2013-06-04T19:39:35Z</time>
      </trkpt>
      <trkpt lat="41.092717" lon="-3.715117">
        <ele>1710.0</ele>
        <time>2013-06-04T19:39:36Z</time>
      </trkpt>
      <trkpt lat="41.092800" lon="-3.715100">
        <ele>1709.0</ele>
        <time>2013-06-04T19:39:37Z</time>
      </trkpt>
      <trkpt lat="41.092883" lon="-3.715083">
        <ele>1708.0</ele>
        <time>2013-06-04T19:39:38Z</time>
      </trkpt>
      <trkpt lat="41.092967" lon="-3.715067">
        <ele>1707.0</ele>
        <time>2013-06-04T19:39:39Z</time>
      </trkpt>
      <trkpt lat="41.093050" lon="-3.715050">
        <ele>1705.0</ele>
        <time>2013-06-04T19:39:40Z</time>
      </trkpt>
      <trkpt lat="41.093117" lon="-3.715033">
        <ele>1704.0</ele>
        <time>2013-06-04T19:39:41Z</time>
      </trkpt>
      <trkpt lat="41.093200" lon="-3.715017">
        <ele>1703.0</ele>
        <time>2013-06-04T19:39:42Z</time>
      </trkpt>
      <trkpt lat="41.093283" lon="-3.715000">
        <ele>1702.0</ele>
        <time>2013-06-04T19:39:43Z</time>
      </trkpt>
      <trkpt lat="41.093367" lon="-3.714983">
        <ele>1701.0</ele>
        <time>2013-06-04T19:39:44Z</time>
      </trkpt>
      <trkpt lat="41.093450" lon="-3.714950">
        <ele>1700.0</ele>
        <time>2013-06-04T19:39:45Z</time>
      </trkpt>
      <trkpt lat="41.093517" lon="-3.714933">
        <ele>1699.0</ele>
        <time>2013-06-04T19:39:46Z</time>
      </trkpt>
      <trkpt lat="41.093600" lon="-3.714900">
        <ele>1697.0</ele>
        <time>2013-06-04T19:39:47Z</time>
      </trkpt>
      <trkpt lat="41.093683" lon="-3.714883">
        <ele>1697.0</ele>
        <time>2013-06-04T19:39:48Z</time>
      </trkpt>
      <trkpt lat="41.093767" lon="-3.714867">
        <ele>1696.0</ele>
        <time>2013-06-04T19:39:49Z</time>
      </trkpt>
      <trkpt lat="41.093850" lon="-3.714833">
        <ele>1694.0</ele>
        <time>2013-06-04T19:39:50Z</time>
      </trkpt>
      <trkpt lat="41.093933" lon="-3.714817">
        <ele>1693.0</ele>
        <time>2013-06-04T19:39:51Z</time>
      </trkpt>
      <trkpt lat="41.094000" lon="-3.714800">
        <ele>1692.0</ele>
        <time>2013-06-04T19:39:52Z</time>
      </trkpt>
      <trkpt lat="41.094083" lon="-3.714783">
        <ele>1691.0</ele>
        <time>2013-06-04T19:39:53Z</time>
      </trkpt>
      <trkpt lat="41.094167" lon="-3.714767">
        <ele>1690.0</ele>
        <time>2013-06-04T19:39:54Z</time>
      </trkpt>
      <trkpt lat="41.094250" lon="-3.714750">
        <ele>1689.0</ele>
        <time>2013-06-04T19:39:55Z</time>
      </trkpt>
      <trkpt lat="41.094333" lon="-3.714733">
        <ele>1688.0</ele>
        <time>2013-06-04T19:39:56Z</time>
      </trkpt>
      <trkpt lat="41.094417" lon="-3.714700">
        <ele>1687.0</ele>
        <time>2013-06-04T19:39:57Z</time>
      </trkpt>
      <trkpt lat="41.094500" lon="-3.714667">
        <ele>1686.0</ele>
        <time>2013-06-04T19:39:58Z</time>
      </trkpt>
      <trkpt lat="41.094583" lon="-3.714633">
        <ele>1685.0</ele>
        <time>2013-06-04T19:39:59Z</time>
      </trkpt>
      <trkpt lat="41.094667" lon="-3.714617">
        <ele>1684.0</ele>
        <time>2013-06-04T19:40:00Z</time>
      </trkpt>
      <trkpt lat="41.094750" lon="-3.714583">
        <ele>1684.0</ele>
        <time>2013-06-04T19:40:01Z</time>
      </trkpt>
      <trkpt lat="41.094817" lon="-3.714550">
        <ele>1683.0</ele>
        <time>2013-06-04T19:40:02Z</time>
      </trkpt>
      <trkpt lat="41.094900" lon="-3.714517">
        <ele>1682.0</ele>
        <time>2013-06-04T19:40:03Z</time>
      </trkpt>
      <trkpt lat="41.094983" lon="-3.714483">
        <ele>1681.0</ele>
        <time>2013-06-04T19:40:04Z</time>
      </trkpt>
      <trkpt lat="41.095067" lon="-3.714450">
        <ele>1680.0</ele>
        <time>2013-06-04T19:40:05Z</time>
      </trkpt>
      <trkpt lat="41.095150" lon="-3.714417">
        <ele>1679.0</ele>
        <time>2013-06-04T19:40:06Z</time>
      </trkpt>
      <trkpt lat="41.095233" lon="-3.714383">
        <ele>1678.0</ele>
        <time>2013-06-04T19:40:07Z</time>
      </trkpt>
      <trkpt lat="41.095300" lon="-3.714350">
        <ele>1677.0</ele>
        <time>2013-06-04T19:40:08Z</time>
      </trkpt>
      <trkpt lat="41.095383" lon="-3.714317">
        <ele>1676.0</ele>
        <time>2013-06-04T19:40:09Z</time>
      </trkpt>
      <trkpt lat="41.095467" lon="-3.714283">
        <ele>1675.0</ele>
        <time>2013-06-04T19:40:10Z</time>
      </trkpt>
      <trkpt lat="41.095550" lon="-3.714250">
        <ele>1674.0</ele>
        <time>2013-06-04T19:40:11Z</time>
      </trkpt>
      <trkpt lat="41.095633" lon="-3.714217">
        <ele>1673.0</ele>
        <time>2013-06-04T19:40:12Z</time>
      </trkpt>
      <trkpt lat="41.095717" lon="-3.714183">
        <ele>1672.0</ele>
        <time>2013-06-04T19:40:13Z</time>
      </trkpt>
      <trkpt lat="41.095783" lon="-3.714150">
        <ele>1671.0</ele>
        <time>2013-06-04T19:40:14Z</time>
      </trkpt>
      <trkpt lat="41.095867" lon="-3.714117">
        <ele>1670.0</ele>
        <time>2013-06-04T19:40:15Z</time>
      </trkpt>
      <trkpt lat="41.095950" lon="-3.714083">
        <ele>1669.0</ele>
        <time>2013-06-04T19:40:16Z</time>
      </trkpt>
      <trkpt lat="41.096033" lon="-3.714067">
        <ele>1668.0</ele>
        <time>2013-06-04T19:40:17Z</time>
      </trkpt>
      <trkpt lat="41.096117" lon="-3.714033">
        <ele>1667.0</ele>
        <time>2013-06-04T19:40:18Z</time>
      </trkpt>
      <trkpt lat="41.096200" lon="-3.714000">
        <ele>1666.0</ele>
        <time>2013-06-04T19:40:19Z</time>
      </trkpt>
      <trkpt lat="41.096267" lon="-3.713983">
        <ele>1665.0</ele>
        <time>2013-06-04T19:40:20Z</time>
      </trkpt>
      <trkpt lat="41.096350" lon="-3.713967">
        <ele>1664.0</ele>
        <time>2013-06-04T19:40:21Z</time>
      </trkpt>
      <trkpt lat="41.096433" lon="-3.713950">
        <ele>1663.0</ele>
        <time>2013-06-04T19:40:22Z</time>
      </trkpt>
      <trkpt lat="41.096500" lon="-3.713933">
        <ele>1662.0</ele>
        <time>2013-06-04T19:40:23Z</time>
      </trkpt>
      <trkpt lat="41.096583" lon="-3.713917">
        <ele>1661.0</ele>
        <time>2013-06-04T19:40:24Z</time>
      </trkpt>
      <trkpt lat="41.096667" lon="-3.713900">
        <ele>1660.0</ele>
        <time>2013-06-04T19:40:25Z</time>
      </trkpt>
      <trkpt lat="41.096733" lon="-3.713883">
        <ele>1659.0</ele>
        <time>2013-06-04T19:40:26Z</time>
      </trkpt>
      <trkpt lat="41.096817" lon="-3.713867">
        <ele>1658.0</ele>
        <time>2013-06-04T19:40:27Z</time>
      </trkpt>
      <trkpt lat="41.096900" lon="-3.713850">
        <ele>1657.0</ele>
        <time>2013-06-04T19:40:28Z</time>
      </trkpt>
      <trkpt lat="41.096967" lon="-3.713850">
        <ele>1656.0</ele>
        <time>2013-06-04T19:40:29Z</time>
      </trkpt>
      <trkpt lat="41.097050" lon="-3.713833">
        <ele>1655.0</ele>
        <time>2013-06-04T19:40:30Z</time>
      </trkpt>
      <trkpt lat="41.097117" lon="-3.713817">
        <ele>1654.0</ele>
        <time>2013-06-04T19:40:31Z</time>
      </trkpt>
      <trkpt lat="41.097200" lon="-3.713817">
        <ele>1653.0</ele>
        <time>2013-06-04T19:40:32Z</time>
      </trkpt>
      <trkpt lat="41.097267" lon="-3.713800">
        <ele>1652.0</ele>
        <time>2013-06-04T19:40:33Z</time>
      </trkpt>
      <trkpt lat="41.097350" lon="-3.713800">
        <ele>1651.0</ele>
        <time>2013-06-04T19:40:34Z</time>
      </trkpt>
      <trkpt lat="41.097417" lon="-3.713800">
        <ele>1650.0</ele>
        <time>2013-06-04T19:40:35Z</time>
      </trkpt>
      <trkpt lat="41.097483" lon="-3.713800">
        <ele>1649.0</ele>
        <time>2013-06-04T19:40:36Z</time>
      </trkpt>
      <trkpt lat="41.097567" lon="-3.713783">
        <ele>1648.0</ele>
        <time>2013-06-04T19:40:37Z</time>
      </trkpt>
      <trkpt lat="41.097633" lon="-3.713783">
        <ele>1647.0</ele>
        <time>2013-06-04T19:40:38Z</time>
      </trkpt>
      <trkpt lat="41.097717" lon="-3.713783">
        <ele>1646.0</ele>
        <time>2013-06-04T19:40:39Z</time>
      </trkpt>
      <trkpt lat="41.097783" lon="-3.713800">
        <ele>1645.0</ele>
        <time>2013-06-04T19:40:40Z</time>
      </trkpt>
      <trkpt lat="41.097850" lon="-3.713800">
        <ele>1644.0</ele>
        <time>2013-06-04T19:40:41Z</time>
      </trkpt>
      <trkpt lat="41.097917" lon="-3.713800">
        <ele>1643.0</ele>
        <time>2013-06-04T19:40:42Z</time>
      </trkpt>
      <trkpt lat="41.098000" lon="-3.713800">
        <ele>1642.0</ele>
        <time>2013-06-04T19:40:43Z</time>
      </trkpt>
      <trkpt lat="41.098067" lon="-3.713817">
        <ele>1641.0</ele>
        <time>2013-06-04T19:40:44Z</time>
      </trkpt>
      <trkpt lat="41.098133" lon="-3.713817">
        <ele>1640.0</ele>
        <time>2013-06-04T19:40:45Z</time>
      </trkpt>
      <trkpt lat="41.098200" lon="-3.713817">
        <ele>1639.0</ele>
        <time>2013-06-04T19:40:46Z</time>
      </trkpt>
      <trkpt lat="41.098267" lon="-3.713833">
        <ele>1638.0</ele>
        <time>2013-06-04T19:40:47Z</time>
      </trkpt>
      <trkpt lat="41.098350" lon="-3.713833">
        <ele>1637.0</ele>
        <time>2013-06-04T19:40:48Z</time>
      </trkpt>
      <trkpt lat="41.098417" lon="-3.713850">
        <ele>1636.0</ele>
        <time>2013-06-04T19:40:49Z</time>
      </trkpt>
      <trkpt lat="41.098483" lon="-3.713850">
        <ele>1635.0</ele>
        <time>2013-06-04T19:40:50Z</time>
      </trkpt>
      <trkpt lat="41.098550" lon="-3.713867">
        <ele>1634.0</ele>
        <time>2013-06-04T19:40:51Z</time>
      </trkpt>
      <trkpt lat="41.098617" lon="-3.713883">
        <ele>1633.0</ele>
        <time>2013-06-04T19:40:52Z</time>
      </trkpt>
      <trkpt lat="41.098683" lon="-3.713900">
        <ele>1632.0</ele>
        <time>2013-06-04T19:40:53Z</time>
      </trkpt>
      <trkpt lat="41.098750" lon="-3.713917">
        <ele>1631.0</ele>
        <time>2013-06-04T19:40:54Z</time>
      </trkpt>
      <trkpt lat="41.098817" lon="-3.713933">
        <ele>1630.0</ele>
        <time>2013-06-04T19:40:55Z</time>
      </trkpt>
      <trkpt lat="41.098883" lon="-3.713950">
        <ele>1629.0</ele>
        <time>2013-06-04T19:40:56Z</time>
      </trkpt>
      <trkpt lat="41.098950" lon="-3.713967">
        <ele>1628.0</ele>
        <time>2013-06-04T19:40:57Z</time>
      </trkpt>
      <trkpt lat="41.099017" lon="-3.713983">
        <ele>1627.0</ele>
        <time>2013-06-04T19:40:58Z</time>
      </trkpt>
      <trkpt lat="41.099083" lon="-3.714000">
        <ele>1626.0</ele>
        <time>2013-06-04T19:40:59Z</time>
      </trkpt>
      <trkpt lat="41.099133" lon="-3.714033">
        <ele>1626.0</ele>
        <time>2013-06-04T19:41:00Z</time>
      </trkpt>
      <trkpt lat="41.099200" lon="-3.714050">
        <ele>1625.0</ele>
        <time>2013-06-04T19:41:01Z</time>
      </trkpt>
      <trkpt lat="41.099267" lon="-3.714083">
        <ele>1624.0</ele>
        <time>2013-06-04T19:41:02Z</time>
      </trkpt>
      <trkpt lat="41.099317" lon="-3.714100">
        <ele>1624.0</ele>
        <time>2013-06-04T19:41:03Z</time>
      </trkpt>
      <trkpt lat="41.099383" lon="-3.714133">
        <ele>1623.0</ele>
        <time>2013-06-04T19:41:04Z</time>
      </trkpt>
      <trkpt lat="41.099433" lon="-3.714167">
        <ele>1622.0</ele>
        <time>2013-06-04T19:41:05Z</time>
      </trkpt>
      <trkpt lat="41.099500" lon="-3.714183">
        <ele>1621.0</ele>
        <time>2013-06-04T19:41:06Z</time>
      </trkpt>
      <trkpt lat="41.099550" lon="-3.714217">
        <ele>1621.0</ele>
        <time>2013-06-04T19:41:07Z</time>
      </trkpt>
      <trkpt lat="41.099617" lon="-3.714250">
        <ele>1620.0</ele>
        <time>2013-06-04T19:41:08Z</time>
      </trkpt>
      <trkpt lat="41.099683" lon="-3.714283">
        <ele>1619.0</ele>
        <time>2013-06-04T19:41:09Z</time>
      </trkpt>
      <trkpt lat="41.099733" lon="-3.714300">
        <ele>1618.0</ele>
        <time>2013-06-04T19:41:10Z</time>
      </trkpt>
      <trkpt lat="41.099800" lon="-3.714333">
        <ele>1618.0</ele>
        <time>2013-06-04T19:41:11Z</time>
      </trkpt>
      <trkpt lat="41.099850" lon="-3.714350">
        <ele>1617.0</ele>
        <time>2013-06-04T19:41:12Z</time>
      </trkpt>
      <trkpt lat="41.099917" lon="-3.714383">
        <ele>1616.0</ele>
        <time>2013-06-04T19:41:13Z</time>
      </trkpt>
      <trkpt lat="41.099983" lon="-3.714417">
        <ele>1615.0</ele>
        <time>2013-06-04T19:41:14Z</time>
      </trkpt>
      <trkpt lat="41.100050" lon="-3.714433">
        <ele>1614.0</ele>
        <time>2013-06-04T19:41:15Z</time>
      </trkpt>
      <trkpt lat="41.100117" lon="-3.714450">
        <ele>1614.0</ele>
        <time>2013-06-04T19:41:16Z</time>
      </trkpt>
      <trkpt lat="41.100167" lon="-3.714483">
        <ele>1613.0</ele>
        <time>2013-06-04T19:41:17Z</time>
      </trkpt>
      <trkpt lat="41.100233" lon="-3.714500">
        <ele>1612.0</ele>
        <time>2013-06-04T19:41:18Z</time>
      </trkpt>
      <trkpt lat="41.100300" lon="-3.714517">
        <ele>1612.0</ele>
        <time>2013-06-04T19:41:19Z</time>
      </trkpt>
      <trkpt lat="41.100367" lon="-3.714550">
        <ele>1611.0</ele>
        <time>2013-06-04T19:41:20Z</time>
      </trkpt>
      <trkpt lat="41.100417" lon="-3.714567">
        <ele>1610.0</ele>
        <time>2013-06-04T19:41:21Z</time>
      </trkpt>
      <trkpt lat="41.100483" lon="-3.714600">
        <ele>1609.0</ele>
        <time>2013-06-04T19:41:22Z</time>
      </trkpt>
      <trkpt lat="41.100550" lon="-3.714617">
        <ele>1608.0</ele>
        <time>2013-06-04T19:41:23Z</time>
      </trkpt>
      <trkpt lat="41.100617" lon="-3.714650">
        <ele>1607.0</ele>
        <time>2013-06-04T19:41:24Z</time>
      </trkpt>
      <trkpt lat="41.100683" lon="-3.714667">
        <ele>1607.0</ele>
        <time>2013-06-04T19:41:25Z</time>
      </trkpt>
      <trkpt lat="41.100750" lon="-3.714683">
        <ele>1606.0</ele>
        <time>2013-06-04T19:41:26Z</time>
      </trkpt>
      <trkpt lat="41.100800" lon="-3.714700">
        <ele>1605.0</ele>
        <time>2013-06-04T19:41:27Z</time>
      </trkpt>
      <trkpt lat="41.100867" lon="-3.714733">
        <ele>1604.0</ele>
        <time>2013-06-04T19:41:28Z</time>
      </trkpt>
      <trkpt lat="41.100933" lon="-3.714750">
        <ele>1603.0</ele>
        <time>2013-06-04T19:41:29Z</time>
      </trkpt>
      <trkpt lat="41.100983" lon="-3.714767">
        <ele>1602.0</ele>
        <time>2013-06-04T19:41:30Z</time>
      </trkpt>
      <trkpt lat="41.101050" lon="-3.714783">
        <ele>1601.0</ele>
        <time>2013-06-04T19:41:31Z</time>
      </trkpt>
      <trkpt lat="41.101117" lon="-3.714800">
        <ele>1600.0</ele>
        <time>2013-06-04T19:41:32Z</time>
      </trkpt>
      <trkpt lat="41.101183" lon="-3.714817">
        <ele>1599.0</ele>
        <time>2013-06-04T19:41:33Z</time>
      </trkpt>
      <trkpt lat="41.101250" lon="-3.714850">
        <ele>1598.0</ele>
        <time>2013-06-04T19:41:34Z</time>
      </trkpt>
      <trkpt lat="41.101317" lon="-3.714867">
        <ele>1598.0</ele>
        <time>2013-06-04T19:41:35Z</time>
      </trkpt>
      <trkpt lat="41.101383" lon="-3.714883">
        <ele>1597.0</ele>
        <time>2013-06-04T19:41:36Z</time>
      </trkpt>
      <trkpt lat="41.101450" lon="-3.714883">
        <ele>1596.0</ele>
        <time>2013-06-04T19:41:37Z</time>
      </trkpt>
      <trkpt lat="41.101517" lon="-3.714900">
        <ele>1595.0</ele>
        <time>2013-06-04T19:41:38Z</time>
      </trkpt>
      <trkpt lat="41.101583" lon="-3.714917">
        <ele>1594.0</ele>
        <time>2013-06-04T19:41:39Z</time>
      </trkpt>
      <trkpt lat="41.101650" lon="-3.714917">
        <ele>1593.0</ele>
        <time>2013-06-04T19:41:40Z</time>
      </trkpt>
      <trkpt lat="41.101717" lon="-3.714917">
        <ele>1592.0</ele>
        <time>2013-06-04T19:41:41Z</time>
      </trkpt>
      <trkpt lat="41.101783" lon="-3.714917">
        <ele>1592.0</ele>
        <time>2013-06-04T19:41:42Z</time>
      </trkpt>
      <trkpt lat="41.101867" lon="-3.714917">
        <ele>1591.0</ele>
        <time>2013-06-04T19:41:43Z</time>
      </trkpt>
      <trkpt lat="41.101933" lon="-3.714917">
        <ele>1590.0</ele>
        <time>2013-06-04T19:41:44Z</time>
      </trkpt>
      <trkpt lat="41.102000" lon="-3.714900">
        <ele>1588.0</ele>
        <time>2013-06-04T19:41:45Z</time>
      </trkpt>
      <trkpt lat="41.102083" lon="-3.714900">
        <ele>1587.0</ele>
        <time>2013-06-04T19:41:46Z</time>
      </trkpt>
      <trkpt lat="41.102150" lon="-3.714883">
        <ele>1586.0</ele>
        <time>2013-06-04T19:41:47Z</time>
      </trkpt>
      <trkpt lat="41.102233" lon="-3.714867">
        <ele>1585.0</ele>
        <time>2013-06-04T19:41:48Z</time>
      </trkpt>
      <trkpt lat="41.102300" lon="-3.714850">
        <ele>1584.0</ele>
        <time>2013-06-04T19:41:49Z</time>
      </trkpt>
      <trkpt lat="41.102383" lon="-3.714833">
        <ele>1583.0</ele>
        <time>2013-06-04T19:41:50Z</time>
      </trkpt>
      <trkpt lat="41.102467" lon="-3.714800">
        <ele>1582.0</ele>
        <time>2013-06-04T19:41:51Z</time>
      </trkpt>
      <trkpt lat="41.102533" lon="-3.714783">
        <ele>1581.0</ele>
        <time>2013-06-04T19:41:52Z</time>
      </trkpt>
      <trkpt lat="41.102617" lon="-3.714750">
        <ele>1581.0</ele>
        <time>2013-06-04T19:41:53Z</time>
      </trkpt>
      <trkpt lat="41.102700" lon="-3.714717">
        <ele>1580.0</ele>
        <time>2013-06-04T19:41:54Z</time>
      </trkpt>
      <trkpt lat="41.102767" lon="-3.714683">
        <ele>1579.0</ele>
        <time>2013-06-04T19:41:55Z</time>
      </trkpt>
      <trkpt lat="41.102850" lon="-3.714667">
        <ele>1578.0</ele>
        <time>2013-06-04T19:41:56Z</time>
      </trkpt>
      <trkpt lat="41.102917" lon="-3.714650">
        <ele>1577.0</ele>
        <time>2013-06-04T19:41:57Z</time>
      </trkpt>
      <trkpt lat="41.103000" lon="-3.714633">
        <ele>1576.0</ele>
        <time>2013-06-04T19:41:58Z</time>
      </trkpt>
      <trkpt lat="41.103067" lon="-3.714617">
        <ele>1575.0</ele>
        <time>2013-06-04T19:41:59Z</time>
      </trkpt>
      <trkpt lat="41.103150" lon="-3.714600">
        <ele>1574.0</ele>
        <time>2013-06-04T19:42:00Z</time>
      </trkpt>
      <trkpt lat="41.103217" lon="-3.714583">
        <ele>1573.0</ele>
        <time>2013-06-04T19:42:01Z</time>
      </trkpt>
      <trkpt lat="41.103283" lon="-3.714567">
        <ele>1572.0</ele>
        <time>2013-06-04T19:42:02Z</time>
      </trkpt>
      <trkpt lat="41.103367" lon="-3.714567">
        <ele>1571.0</ele>
        <time>2013-06-04T19:42:03Z</time>
      </trkpt>
      <trkpt lat="41.103433" lon="-3.714550">
        <ele>1570.0</ele>
        <time>2013-06-04T19:42:04Z</time>
      </trkpt>
      <trkpt lat="41.103500" lon="-3.714533">
        <ele>1569.0</ele>
        <time>2013-06-04T19:42:05Z</time>
      </trkpt>
      <trkpt lat="41.103583" lon="-3.714517">
        <ele>1569.0</ele>
        <time>2013-06-04T19:42:06Z</time>
      </trkpt>
      <trkpt lat="41.103650" lon="-3.714500">
        <ele>1568.0</ele>
        <time>2013-06-04T19:42:07Z</time>
      </trkpt>
      <trkpt lat="41.103717" lon="-3.714500">
        <ele>1567.0</ele>
        <time>2013-06-04T19:42:08Z</time>
      </trkpt>
      <trkpt lat="41.103800" lon="-3.714483">
        <ele>1567.0</ele>
        <time>2013-06-04T19:42:09Z</time>
      </trkpt>
      <trkpt lat="41.103867" lon="-3.714467">
        <ele>1566.0</ele>
        <time>2013-06-04T19:42:10Z</time>
      </trkpt>
      <trkpt lat="41.103933" lon="-3.714450">
        <ele>1566.0</ele>
        <time>2013-06-04T19:42:11Z</time>
      </trkpt>
      <trkpt lat="41.104000" lon="-3.714433">
        <ele>1565.0</ele>
        <time>2013-06-04T19:42:12Z</time>
      </trkpt>
      <trkpt lat="41.104083" lon="-3.714417">
        <ele>1564.0</ele>
        <time>2013-06-04T19:42:13Z</time>
      </trkpt>
      <trkpt lat="41.104150" lon="-3.714400">
        <ele>1563.0</ele>
        <time>2013-06-04T19:42:14Z</time>
      </trkpt>
      <trkpt lat="41.104217" lon="-3.714383">
        <ele>1562.0</ele>
        <time>2013-06-04T19:42:15Z</time>
      </trkpt>
      <trkpt lat="41.104300" lon="-3.714367">
        <ele>1562.0</ele>
        <time>2013-06-04T19:42:16Z</time>
      </trkpt>
      <trkpt lat="41.104383" lon="-3.714350">
        <ele>1561.0</ele>
        <time>2013-06-04T19:42:17Z</time>
      </trkpt>
      <trkpt lat="41.104450" lon="-3.714317">
        <ele>1560.0</ele>
        <time>2013-06-04T19:42:18Z</time>
      </trkpt>
      <trkpt lat="41.104533" lon="-3.714300">
        <ele>1560.0</ele>
        <time>2013-06-04T19:42:19Z</time>
      </trkpt>
      <trkpt lat="41.104600" lon="-3.714283">
        <ele>1559.0</ele>
        <time>2013-06-04T19:42:20Z</time>
      </trkpt>
      <trkpt lat="41.104667" lon="-3.714267">
        <ele>1559.0</ele>
        <time>2013-06-04T19:42:21Z</time>
      </trkpt>
      <trkpt lat="41.104733" lon="-3.714267">
        <ele>1558.0</ele>
        <time>2013-06-04T19:42:22Z</time>
      </trkpt>
      <trkpt lat="41.104800" lon="-3.714267">
        <ele>1558.0</ele>
        <time>2013-06-04T19:42:23Z</time>
      </trkpt>
      <trkpt lat="41.104850" lon="-3.714300">
        <ele>1557.0</ele>
        <time>2013-06-04T19:42:24Z</time>
      </trkpt>
      <trkpt lat="41.104917" lon="-3.714317">
        <ele>1557.0</ele>
        <time>2013-06-04T19:42:25Z</time>
      </trkpt>
      <trkpt lat="41.104967" lon="-3.714350">
        <ele>1556.0</ele>
        <time>2013-06-04T19:42:26Z</time>
      </trkpt>
      <trkpt lat="41.105000" lon="-3.714383">
        <ele>1555.0</ele>
        <time>2013-06-04T19:42:27Z</time>
      </trkpt>
      <trkpt lat="41.105050" lon="-3.714433">
        <ele>1554.0</ele>
        <time>2013-06-04T19:42:28Z</time>
      </trkpt>
      <trkpt lat="41.105083" lon="-3.714483">
        <ele>1554.0</ele>
        <time>2013-06-04T19:42:29Z</time>
      </trkpt>
      <trkpt lat="41.105100" lon="-3.714550">
        <ele>1553.0</ele>
        <time>2013-06-04T19:42:30Z</time>
      </trkpt>
      <trkpt lat="41.105100" lon="-3.714617">
        <ele>1552.0</ele>
        <time>2013-06-04T19:42:31Z</time>
      </trkpt>
      <trkpt lat="41.105100" lon="-3.714700">
        <ele>1551.0</ele>
        <time>2013-06-04T19:42:32Z</time>
      </trkpt>
      <trkpt lat="41.105117" lon="-3.714767">
        <ele>1551.0</ele>
        <time>2013-06-04T19:42:33Z</time>
      </trkpt>
      <trkpt lat="41.105100" lon="-3.714833">
        <ele>1551.0</ele>
        <time>2013-06-04T19:42:34Z</time>
      </trkpt>
      <trkpt lat="41.105100" lon="-3.714900">
        <ele>1550.0</ele>
        <time>2013-06-04T19:42:35Z</time>
      </trkpt>
      <trkpt lat="41.105083" lon="-3.714967">
        <ele>1549.0</ele>
        <time>2013-06-04T19:42:36Z</time>
      </trkpt>
      <trkpt lat="41.105050" lon="-3.715033">
        <ele>1548.0</ele>
        <time>2013-06-04T19:42:37Z</time>
      </trkpt>
      <trkpt lat="41.105000" lon="-3.715100">
        <ele>1548.0</ele>
        <time>2013-06-04T19:42:38Z</time>
      </trkpt>
      <trkpt lat="41.104950" lon="-3.715167">
        <ele>1547.0</ele>
        <time>2013-06-04T19:42:39Z</time>
      </trkpt>
      <trkpt lat="41.104900" lon="-3.715233">
        <ele>1547.0</ele>
        <time>2013-06-04T19:42:40Z</time>
      </trkpt>
      <trkpt lat="41.104850" lon="-3.715283">
        <ele>1546.0</ele>
        <time>2013-06-04T19:42:41Z</time>
      </trkpt>
      <trkpt lat="41.104800" lon="-3.715350">
        <ele>1545.0</ele>
        <time>2013-06-04T19:42:42Z</time>
      </trkpt>
      <trkpt lat="41.104750" lon="-3.715417">
        <ele>1544.0</ele>
        <time>2013-06-04T19:42:43Z</time>
      </trkpt>
      <trkpt lat="41.104683" lon="-3.715483">
        <ele>1544.0</ele>
        <time>2013-06-04T19:42:44Z</time>
      </trkpt>
      <trkpt lat="41.104633" lon="-3.715550">
        <ele>1544.0</ele>
        <time>2013-06-04T19:42:45Z</time>
      </trkpt>
      <trkpt lat="41.104583" lon="-3.715617">
        <ele>1543.0</ele>
        <time>2013-06-04T19:42:46Z</time>
      </trkpt>
      <trkpt lat="41.104533" lon="-3.715683">
        <ele>1543.0</ele>
        <time>2013-06-04T19:42:47Z</time>
      </trkpt>
      <trkpt lat="41.104500" lon="-3.715750">
        <ele>1543.0</ele>
        <time>2013-06-04T19:42:48Z</time>
      </trkpt>
      <trkpt lat="41.104483" lon="-3.715817">
        <ele>1543.0</ele>
        <time>2013-06-04T19:42:49Z</time>
      </trkpt>
      <trkpt lat="41.104483" lon="-3.715883">
        <ele>1542.0</ele>
        <time>2013-06-04T19:42:50Z</time>
      </trkpt>
      <trkpt lat="41.104500" lon="-3.715967">
        <ele>1541.0</ele>
        <time>2013-06-04T19:42:51Z</time>
      </trkpt>
      <trkpt lat="41.104517" lon="-3.716033">
        <ele>1540.0</ele>
        <time>2013-06-04T19:42:52Z</time>
      </trkpt>
      <trkpt lat="41.104517" lon="-3.716117">
        <ele>1540.0</ele>
        <time>2013-06-04T19:42:53Z</time>
      </trkpt>
      <trkpt lat="41.104517" lon="-3.716183">
        <ele>1539.0</ele>
        <time>2013-06-04T19:42:54Z</time>
      </trkpt>
      <trkpt lat="41.104517" lon="-3.716267">
        <ele>1539.0</ele>
        <time>2013-06-04T19:42:55Z</time>
      </trkpt>
      <trkpt lat="41.104517" lon="-3.716333">
        <ele>1538.0</ele>
        <time>2013-06-04T19:42:56Z</time>
      </trkpt>
      <trkpt lat="41.104533" lon="-3.716417">
        <ele>1538.0</ele>
        <time>2013-06-04T19:42:57Z</time>
      </trkpt>
      <trkpt lat="41.104533" lon="-3.716483">
        <ele>1538.0</ele>
        <time>2013-06-04T19:42:58Z</time>
      </trkpt>
      <trkpt lat="41.104567" lon="-3.716533">
        <ele>1538.0</ele>
        <time>2013-06-04T19:42:59Z</time>
      </trkpt>
      <trkpt lat="41.104600" lon="-3.716583">
        <ele>1538.0</ele>
        <time>2013-06-04T19:43:00Z</time>
      </trkpt>
      <trkpt lat="41.104650" lon="-3.716617">
        <ele>1537.0</ele>
        <time>2013-06-04T19:43:01Z</time>
      </trkpt>
      <trkpt lat="41.104700" lon="-3.716633">
        <ele>1536.0</ele>
        <time>2013-06-04T19:43:02Z</time>
      </trkpt>
      <trkpt lat="41.104767" lon="-3.716650">
        <ele>1535.0</ele>
        <time>2013-06-04T19:43:03Z</time>
      </trkpt>
      <trkpt lat="41.104817" lon="-3.716683">
        <ele>1534.0</ele>
        <time>2013-06-04T19:43:04Z</time>
      </trkpt>
      <trkpt lat="41.104883" lon="-3.716717">
        <ele>1535.0</ele>
        <time>2013-06-04T19:43:05Z</time>
      </trkpt>
      <trkpt lat="41.104933" lon="-3.716733">
        <ele>1535.0</ele>
        <time>2013-06-04T19:43:06Z</time>
      </trkpt>
      <trkpt lat="41.104983" lon="-3.716717">
        <ele>1535.0</ele>
        <time>2013-06-04T19:43:07Z</time>
      </trkpt>
      <trkpt lat="41.105067" lon="-3.716667">
        <ele>1534.0</ele>
        <time>2013-06-04T19:43:08Z</time>
      </trkpt>
      <trkpt lat="41.105133" lon="-3.716583">
        <ele>1532.0</ele>
        <time>2013-06-04T19:43:09Z</time>
      </trkpt>
      <trkpt lat="41.105200" lon="-3.716483">
        <ele>1532.0</ele>
        <time>2013-06-04T19:43:10Z</time>
      </trkpt>
      <trkpt lat="41.105250" lon="-3.716367">
        <ele>1532.0</ele>
        <time>2013-06-04T19:43:11Z</time>
      </trkpt>
      <trkpt lat="41.105283" lon="-3.716233">
        <ele>1532.0</ele>
        <time>2013-06-04T19:43:12Z</time>
      </trkpt>
      <trkpt lat="41.105300" lon="-3.716100">
        <ele>1531.0</ele>
        <time>2013-06-04T19:43:13Z</time>
      </trkpt>
      <trkpt lat="41.105317" lon="-3.715950">
        <ele>1529.0</ele>
        <time>2013-06-04T19:43:14Z</time>
      </trkpt>
      <trkpt lat="41.105317" lon="-3.715783">
        <ele>1528.0</ele>
        <time>2013-06-04T19:43:15Z</time>
      </trkpt>
      <trkpt lat="41.105317" lon="-3.715617">
        <ele>1527.0</ele>
        <time>2013-06-04T19:43:16Z</time>
      </trkpt>
      <trkpt lat="41.105300" lon="-3.715433">
        <ele>1526.0</ele>
        <time>2013-06-04T19:43:17Z</time>
      </trkpt>
      <trkpt lat="41.105267" lon="-3.715267">
        <ele>1525.0</ele>
        <time>2013-06-04T19:43:18Z</time>
      </trkpt>
      <trkpt lat="41.105250" lon="-3.715100">
        <ele>1525.0</ele>
        <time>2013-06-04T19:43:19Z</time>
      </trkpt>
      <trkpt lat="41.105233" lon="-3.714933">
        <ele>1524.0</ele>
        <time>2013-06-04T19:43:20Z</time>
      </trkpt>
      <trkpt lat="41.105233" lon="-3.714767">
        <ele>1523.0</ele>
        <time>2013-06-04T19:43:21Z</time>
      </trkpt>
      <trkpt lat="41.105217" lon="-3.714600">
        <ele>1521.0</ele>
        <time>2013-06-04T19:43:22Z</time>
      </trkpt>
      <trkpt lat="41.105217" lon="-3.714433">
        <ele>1520.0</ele>
        <time>2013-06-04T19:43:23Z</time>
      </trkpt>
      <trkpt lat="41.105200" lon="-3.714267">
        <ele>1520.0</ele>
        <time>2013-06-04T19:43:24Z</time>
      </trkpt>
      <trkpt lat="41.105200" lon="-3.714117">
        <ele>1520.0</ele>
        <time>2013-06-04T19:43:25Z</time>
      </trkpt>
      <trkpt lat="41.105217" lon="-3.713967">
        <ele>1520.0</ele>
        <time>2013-06-04T19:43:26Z</time>
      </trkpt>
      <trkpt lat="41.105217" lon="-3.713800">
        <ele>1519.0</ele>
        <time>2013-06-04T19:43:27Z</time>
      </trkpt>
      <trkpt lat="41.105217" lon="-3.713650">
        <ele>1518.0</ele>
        <time>2013-06-04T19:43:28Z</time>
      </trkpt>
      <trkpt lat="41.105217" lon="-3.713500">
        <ele>1517.0</ele>
        <time>2013-06-04T19:43:29Z</time>
      </trkpt>
      <trkpt lat="41.105233" lon="-3.713333">
        <ele>1516.0</ele>
        <time>2013-06-04T19:43:30Z</time>
      </trkpt>
      <trkpt lat="41.105233" lon="-3.713167">
        <ele>1515.0</ele>
        <time>2013-06-04T19:43:31Z</time>
      </trkpt>
      <trkpt lat="41.105250" lon="-3.713000">
        <ele>1515.0</ele>
        <time>2013-06-04T19:43:32Z</time>
      </trkpt>
      <trkpt lat="41.105267" lon="-3.712850">
        <ele>1514.0</ele>
        <time>2013-06-04T19:43:33Z</time>
      </trkpt>
      <trkpt lat="41.105300" lon="-3.712700">
        <ele>1514.0</ele>
        <time>2013-06-04T19:43:34Z</time>
      </trkpt>
      <trkpt lat="41.105317" lon="-3.712550">
        <ele>1514.0</ele>
        <time>2013-06-04T19:43:35Z</time>
      </trkpt>
      <trkpt lat="41.105350" lon="-3.712417">
        <ele>1513.0</ele>
        <time>2013-06-04T19:43:36Z</time>
      </trkpt>
      <trkpt lat="41.105383" lon="-3.712283">
        <ele>1513.0</ele>
        <time>2013-06-04T19:43:37Z</time>
      </trkpt>
      <trkpt lat="41.105417" lon="-3.712133">
        <ele>1512.0</ele>
        <time>2013-06-04T19:43:38Z</time>
      </trkpt>
      <trkpt lat="41.105450" lon="-3.712000">
        <ele>1512.0</ele>
        <time>2013-06-04T19:43:39Z</time>
      </trkpt>
      <trkpt lat="41.105500" lon="-3.711883">
        <ele>1512.0</ele>
        <time>2013-06-04T19:43:40Z</time>
      </trkpt>
      <trkpt lat="41.105533" lon="-3.711750">
        <ele>1511.0</ele>
        <time>2013-06-04T19:43:41Z</time>
      </trkpt>
      <trkpt lat="41.105583" lon="-3.711633">
        <ele>1510.0</ele>
        <time>2013-06-04T19:43:42Z</time>
      </trkpt>
      <trkpt lat="41.105633" lon="-3.711517">
        <ele>1510.0</ele>
        <time>2013-06-04T19:43:43Z</time>
      </trkpt>
      <trkpt lat="41.105700" lon="-3.711400">
        <ele>1509.0</ele>
        <time>2013-06-04T19:43:44Z</time>
      </trkpt>
      <trkpt lat="41.105750" lon="-3.711317">
        <ele>1509.0</ele>
        <time>2013-06-04T19:43:45Z</time>
      </trkpt>
      <trkpt lat="41.105817" lon="-3.711250">
        <ele>1508.0</ele>
        <time>2013-06-04T19:43:46Z</time>
      </trkpt>
      <trkpt lat="41.105883" lon="-3.711183">
        <ele>1507.0</ele>
        <time>2013-06-04T19:43:47Z</time>
      </trkpt>
      <trkpt lat="41.105950" lon="-3.711150">
        <ele>1506.0</ele>
        <time>2013-06-04T19:43:48Z</time>
      </trkpt>
      <trkpt lat="41.106017" lon="-3.711117">
        <ele>1506.0</ele>
        <time>2013-06-04T19:43:49Z</time>
      </trkpt>
      <trkpt lat="41.106067" lon="-3.711117">
        <ele>1505.0</ele>
        <time>2013-06-04T19:43:50Z</time>
      </trkpt>
      <trkpt lat="41.106133" lon="-3.711117">
        <ele>1505.0</ele>
        <time>2013-06-04T19:43:51Z</time>
      </trkpt>
      <trkpt lat="41.106183" lon="-3.711117">
        <ele>1505.0</ele>
        <time>2013-06-04T19:43:52Z</time>
      </trkpt>
      <trkpt lat="41.106217" lon="-3.711133">
        <ele>1504.0</ele>
        <time>2013-06-04T19:43:53Z</time>
      </trkpt>
      <trkpt lat="41.106267" lon="-3.711167">
        <ele>1503.0</ele>
        <time>2013-06-04T19:43:54Z</time>
      </trkpt>
      <trkpt lat="41.106317" lon="-3.711200">
        <ele>1502.0</ele>
        <time>2013-06-04T19:43:55Z</time>
      </trkpt>
      <trkpt lat="41.106350" lon="-3.711267">
        <ele>1501.0</ele>
        <time>2013-06-04T19:43:56Z</time>
      </trkpt>
      <trkpt lat="41.106383" lon="-3.711317">
        <ele>1501.0</ele>
        <time>2013-06-04T19:43:57Z</time>
      </trkpt>
      <trkpt lat="41.106400" lon="-3.711367">
        <ele>1501.0</ele>
        <time>2013-06-04T19:43:58Z</time>
      </trkpt>
      <trkpt lat="41.106417" lon="-3.711433">
        <ele>1501.0</ele>
        <time>2013-06-04T19:43:59Z</time>
      </trkpt>
      <trkpt lat="41.106433" lon="-3.711483">
        <ele>1500.0</ele>
        <time>2013-06-04T19:44:00Z</time>
      </trkpt>
      <trkpt lat="41.106433" lon="-3.711550">
        <ele>1499.0</ele>
        <time>2013-06-04T19:44:01Z</time>
      </trkpt>
      <trkpt lat="41.106450" lon="-3.711633">
        <ele>1498.0</ele>
        <time>2013-06-04T19:44:02Z</time>
      </trkpt>
      <trkpt lat="41.106450" lon="-3.711700">
        <ele>1498.0</ele>
        <time>2013-06-04T19:44:03Z</time>
      </trkpt>
      <trkpt lat="41.106433" lon="-3.711783">
        <ele>1498.0</ele>
        <time>2013-06-04T19:44:04Z</time>
      </trkpt>
      <trkpt lat="41.106433" lon="-3.711850">
        <ele>1498.0</ele>
        <time>2013-06-04T19:44:05Z</time>
      </trkpt>
      <trkpt lat="41.106400" lon="-3.711917">
        <ele>1497.0</ele>
        <time>2013-06-04T19:44:06Z</time>
      </trkpt>
      <trkpt lat="41.106383" lon="-3.711983">
        <ele>1497.0</ele>
        <time>2013-06-04T19:44:07Z</time>
      </trkpt>
      <trkpt lat="41.106350" lon="-3.712067">
        <ele>1497.0</ele>
        <time>2013-06-04T19:44:08Z</time>
      </trkpt>
      <trkpt lat="41.106317" lon="-3.712133">
        <ele>1497.0</ele>
        <time>2013-06-04T19:44:09Z</time>
      </trkpt>
      <trkpt lat="41.106267" lon="-3.712200">
        <ele>1496.0</ele>
        <time>2013-06-04T19:44:10Z</time>
      </trkpt>
      <trkpt lat="41.106233" lon="-3.712267">
        <ele>1496.0</ele>
        <time>2013-06-04T19:44:11Z</time>
      </trkpt>
      <trkpt lat="41.106183" lon="-3.712333">
        <ele>1495.0</ele>
        <time>2013-06-04T19:44:12Z</time>
      </trkpt>
      <trkpt lat="41.106133" lon="-3.712400">
        <ele>1495.0</ele>
        <time>2013-06-04T19:44:13Z</time>
      </trkpt>
      <trkpt lat="41.106083" lon="-3.712467">
        <ele>1494.0</ele>
        <time>2013-06-04T19:44:14Z</time>
      </trkpt>
      <trkpt lat="41.106033" lon="-3.712533">
        <ele>1494.0</ele>
        <time>2013-06-04T19:44:15Z</time>
      </trkpt>
      <trkpt lat="41.105983" lon="-3.712617">
        <ele>1493.0</ele>
        <time>2013-06-04T19:44:16Z</time>
      </trkpt>
      <trkpt lat="41.105950" lon="-3.712683">
        <ele>1493.0</ele>
        <time>2013-06-04T19:44:17Z</time>
      </trkpt>
      <trkpt lat="41.105900" lon="-3.712750">
        <ele>1492.0</ele>
        <time>2013-06-04T19:44:18Z</time>
      </trkpt>
      <trkpt lat="41.105867" lon="-3.712833">
        <ele>1492.0</ele>
        <time>2013-06-04T19:44:19Z</time>
      </trkpt>
      <trkpt lat="41.105833" lon="-3.712900">
        <ele>1491.0</ele>
        <time>2013-06-04T19:44:20Z</time>
      </trkpt>
      <trkpt lat="41.105800" lon="-3.712983">
        <ele>1490.0</ele>
        <time>2013-06-04T19:44:21Z</time>
      </trkpt>
      <trkpt lat="41.105767" lon="-3.713050">
        <ele>1489.0</ele>
        <time>2013-06-04T19:44:22Z</time>
      </trkpt>
      <trkpt lat="41.105733" lon="-3.713133">
        <ele>1489.0</ele>
        <time>2013-06-04T19:44:23Z</time>
      </trkpt>
      <trkpt lat="41.105717" lon="-3.713200">
        <ele>1488.0</ele>
        <time>2013-06-04T19:44:24Z</time>
      </trkpt>
      <trkpt lat="41.105683" lon="-3.713283">
        <ele>1488.0</ele>
        <time>2013-06-04T19:44:25Z</time>
      </trkpt>
      <trkpt lat="41.105650" lon="-3.713350">
        <ele>1487.0</ele>
        <time>2013-06-04T19:44:26Z</time>
      </trkpt>
      <trkpt lat="41.105633" lon="-3.713417">
        <ele>1486.0</ele>
        <time>2013-06-04T19:44:27Z</time>
      </trkpt>
      <trkpt lat="41.105600" lon="-3.713483">
        <ele>1485.0</ele>
        <time>2013-06-04T19:44:28Z</time>
      </trkpt>
      <trkpt lat="41.105583" lon="-3.713550">
        <ele>1484.0</ele>
        <time>2013-06-04T19:44:29Z</time>
      </trkpt>
      <trkpt lat="41.105567" lon="-3.713633">
        <ele>1483.0</ele>
        <time>2013-06-04T19:44:30Z</time>
      </trkpt>
      <trkpt lat="41.105550" lon="-3.713700">
        <ele>1483.0</ele>
        <time>2013-06-04T19:44:31Z</time>
      </trkpt>
      <trkpt lat="41.105533" lon="-3.713750">
        <ele>1482.0</ele>
        <time>2013-06-04T19:44:32Z</time>
      </trkpt>
      <trkpt lat="41.105533" lon="-3.713817">
        <ele>1481.0</ele>
        <time>2013-06-04T19:44:33Z</time>
      </trkpt>
      <trkpt lat="41.105517" lon="-3.713900">
        <ele>1480.0</ele>
        <time>2013-06-04T19:44:34Z</time>
      </trkpt>
      <trkpt lat="41.105500" lon="-3.713967">
        <ele>1478.0</ele>
        <time>2013-06-04T19:44:35Z</time>
      </trkpt>
      <trkpt lat="41.105500" lon="-3.714050">
        <ele>1478.0</ele>
        <time>2013-06-04T19:44:36Z</time>
      </trkpt>
      <trkpt lat="41.105517" lon="-3.714100">
        <ele>1477.0</ele>
        <time>2013-06-04T19:44:37Z</time>
      </trkpt>
      <trkpt lat="41.105533" lon="-3.714150">
        <ele>1477.0</ele>
        <time>2013-06-04T19:44:38Z</time>
      </trkpt>
      <trkpt lat="41.105567" lon="-3.714150">
        <ele>1476.0</ele>
        <time>2013-06-04T19:44:39Z</time>
      </trkpt>
      <trkpt lat="41.105633" lon="-3.714133">
        <ele>1474.0</ele>
        <time>2013-06-04T19:44:40Z</time>
      </trkpt>
      <trkpt lat="41.105717" lon="-3.714067">
        <ele>1472.0</ele>
        <time>2013-06-04T19:44:41Z</time>
      </trkpt>
      <trkpt lat="41.105783" lon="-3.713983">
        <ele>1471.0</ele>
        <time>2013-06-04T19:44:42Z</time>
      </trkpt>
      <trkpt lat="41.105850" lon="-3.713900">
        <ele>1472.0</ele>
        <time>2013-06-04T19:44:43Z</time>
      </trkpt>
      <trkpt lat="41.105900" lon="-3.713817">
        <ele>1473.0</ele>
        <time>2013-06-04T19:44:44Z</time>
      </trkpt>
      <trkpt lat="41.105950" lon="-3.713733">
        <ele>1472.0</ele>
        <time>2013-06-04T19:44:45Z</time>
      </trkpt>
      <trkpt lat="41.106017" lon="-3.713667">
        <ele>1470.0</ele>
        <time>2013-06-04T19:44:46Z</time>
      </trkpt>
      <trkpt lat="41.106083" lon="-3.713583">
        <ele>1468.0</ele>
        <time>2013-06-04T19:44:47Z</time>
      </trkpt>
      <trkpt lat="41.106150" lon="-3.713483">
        <ele>1467.0</ele>
        <time>2013-06-04T19:44:48Z</time>
      </trkpt>
      <trkpt lat="41.106233" lon="-3.713400">
        <ele>1467.0</ele>
        <time>2013-06-04T19:44:49Z</time>
      </trkpt>
      <trkpt lat="41.106283" lon="-3.713317">
        <ele>1468.0</ele>
        <time>2013-06-04T19:44:50Z</time>
      </trkpt>
      <trkpt lat="41.106350" lon="-3.713250">
        <ele>1468.0</ele>
        <time>2013-06-04T19:44:51Z</time>
      </trkpt>
      <trkpt lat="41.106400" lon="-3.713183">
        <ele>1467.0</ele>
        <time>2013-06-04T19:44:52Z</time>
      </trkpt>
      <trkpt lat="41.106467" lon="-3.713117">
        <ele>1466.0</ele>
        <time>2013-06-04T19:44:53Z</time>
      </trkpt>
      <trkpt lat="41.106550" lon="-3.713050">
        <ele>1465.0</ele>
        <time>2013-06-04T19:44:54Z</time>
      </trkpt>
      <trkpt lat="41.106617" lon="-3.712983">
        <ele>1463.0</ele>
        <time>2013-06-04T19:44:55Z</time>
      </trkpt>
      <trkpt lat="41.106683" lon="-3.712933">
        <ele>1463.0</ele>
        <time>2013-06-04T19:44:56Z</time>
      </trkpt>
      <trkpt lat="41.106750" lon="-3.712867">
        <ele>1462.0</ele>
        <time>2013-06-04T19:44:57Z</time>
      </trkpt>
      <trkpt lat="41.106817" lon="-3.712817">
        <ele>1462.0</ele>
        <time>2013-06-04T19:44:58Z</time>
      </trkpt>
      <trkpt lat="41.106883" lon="-3.712767">
        <ele>1462.0</ele>
        <time>2013-06-04T19:44:59Z</time>
      </trkpt>
      <trkpt lat="41.106950" lon="-3.712733">
        <ele>1462.0</ele>
        <time>2013-06-04T19:45:00Z</time>
      </trkpt>
      <trkpt lat="41.107017" lon="-3.712700">
        <ele>1461.0</ele>
        <time>2013-06-04T19:45:01Z</time>
      </trkpt>
      <trkpt lat="41.107083" lon="-3.712667">
        <ele>1461.0</ele>
        <time>2013-06-04T19:45:02Z</time>
      </trkpt>
      <trkpt lat="41.107150" lon="-3.712633">
        <ele>1460.0</ele>
        <time>2013-06-04T19:45:03Z</time>
      </trkpt>
      <trkpt lat="41.107217" lon="-3.712617">
        <ele>1459.0</ele>
        <time>2013-06-04T19:45:04Z</time>
      </trkpt>
      <trkpt lat="41.107283" lon="-3.712583">
        <ele>1458.0</ele>
        <time>2013-06-04T19:45:05Z</time>
      </trkpt>
      <trkpt lat="41.107350" lon="-3.712567">
        <ele>1456.0</ele>
        <time>2013-06-04T19:45:06Z</time>
      </trkpt>
      <trkpt lat="41.107417" lon="-3.712550">
        <ele>1455.0</ele>
        <time>2013-06-04T19:45:07Z</time>
      </trkpt>
      <trkpt lat="41.107483" lon="-3.712533">
        <ele>1453.0</ele>
        <time>2013-06-04T19:45:08Z</time>
      </trkpt>
      <trkpt lat="41.107550" lon="-3.712533">
        <ele>1452.0</ele>
        <time>2013-06-04T19:45:09Z</time>
      </trkpt>
      <trkpt lat="41.107617" lon="-3.712550">
        <ele>1451.0</ele>
        <time>2013-06-04T19:45:10Z</time>
      </trkpt>
      <trkpt lat="41.107667" lon="-3.712567">
        <ele>1450.0</ele>
        <time>2013-06-04T19:45:11Z</time>
      </trkpt>
      <trkpt lat="41.107717" lon="-3.712583">
        <ele>1449.0</ele>
        <time>2013-06-04T19:45:12Z</time>
      </trkpt>
      <trkpt lat="41.107767" lon="-3.712617">
        <ele>1447.0</ele>
        <time>2013-06-04T19:45:13Z</time>
      </trkpt>
      <trkpt lat="41.107800" lon="-3.712650">
        <ele>1445.0</ele>
        <time>2013-06-04T19:45:14Z</time>
      </trkpt>
      <trkpt lat="41.107833" lon="-3.712683">
        <ele>1443.0</ele>
        <time>2013-06-04T19:45:15Z</time>
      </trkpt>
      <trkpt lat="41.107883" lon="-3.712733">
        <ele>1441.0</ele>
        <time>2013-06-04T19:45:16Z</time>
      </trkpt>
      <trkpt lat="41.107917" lon="-3.712783">
        <ele>1438.0</ele>
        <time>2013-06-04T19:45:17Z</time>
      </trkpt>
      <trkpt lat="41.107933" lon="-3.712850">
        <ele>1436.0</ele>
        <time>2013-06-04T19:45:18Z</time>
      </trkpt>
      <trkpt lat="41.107933" lon="-3.712933">
        <ele>1434.0</ele>
        <time>2013-06-04T19:45:19Z</time>
      </trkpt>
      <trkpt lat="41.107917" lon="-3.713033">
        <ele>1432.0</ele>
        <time>2013-06-04T19:45:20Z</time>
      </trkpt>
      <trkpt lat="41.107883" lon="-3.713117">
        <ele>1431.0</ele>
        <time>2013-06-04T19:45:21Z</time>
      </trkpt>
      <trkpt lat="41.107833" lon="-3.713200">
        <ele>1429.0</ele>
        <time>2013-06-04T19:45:22Z</time>
      </trkpt>
      <trkpt lat="41.107767" lon="-3.713267">
        <ele>1428.0</ele>
        <time>2013-06-04T19:45:23Z</time>
      </trkpt>
      <trkpt lat="41.107700" lon="-3.713333">
        <ele>1426.0</ele>
        <time>2013-06-04T19:45:24Z</time>
      </trkpt>
      <trkpt lat="41.107617" lon="-3.713400">
        <ele>1424.0</ele>
        <time>2013-06-04T19:45:25Z</time>
      </trkpt>
      <trkpt lat="41.107550" lon="-3.713467">
        <ele>1421.0</ele>
        <time>2013-06-04T19:45:26Z</time>
      </trkpt>
      <trkpt lat="41.107467" lon="-3.713550">
        <ele>1419.0</ele>
        <time>2013-06-04T19:45:27Z</time>
      </trkpt>
      <trkpt lat="41.107400" lon="-3.713633">
        <ele>1418.0</ele>
        <time>2013-06-04T19:45:28Z</time>
      </trkpt>
      <trkpt lat="41.107333" lon="-3.713717">
        <ele>1416.0</ele>
        <time>2013-06-04T19:45:29Z</time>
      </trkpt>
      <trkpt lat="41.107267" lon="-3.713800">
        <ele>1415.0</ele>
        <time>2013-06-04T19:45:30Z</time>
      </trkpt>
      <trkpt lat="41.107200" lon="-3.713883">
        <ele>1414.0</ele>
        <time>2013-06-04T19:45:31Z</time>
      </trkpt>
      <trkpt lat="41.107133" lon="-3.713967">
        <ele>1412.0</ele>
        <time>2013-06-04T19:45:32Z</time>
      </trkpt>
      <trkpt lat="41.107067" lon="-3.714050">
        <ele>1411.0</ele>
        <time>2013-06-04T19:45:33Z</time>
      </trkpt>
      <trkpt lat="41.107000" lon="-3.714150">
        <ele>1409.0</ele>
        <time>2013-06-04T19:45:34Z</time>
      </trkpt>
      <trkpt lat="41.106950" lon="-3.714233">
        <ele>1408.0</ele>
        <time>2013-06-04T19:45:35Z</time>
      </trkpt>
      <trkpt lat="41.106883" lon="-3.714317">
        <ele>1408.0</ele>
        <time>2013-06-04T19:45:36Z</time>
      </trkpt>
      <trkpt lat="41.106833" lon="-3.714400">
        <ele>1408.0</ele>
        <time>2013-06-04T19:45:37Z</time>
      </trkpt>
      <trkpt lat="41.106767" lon="-3.714467">
        <ele>1408.0</ele>
        <time>2013-06-04T19:45:38Z</time>
      </trkpt>
      <trkpt lat="41.106717" lon="-3.714533">
        <ele>1406.0</ele>
        <time>2013-06-04T19:45:39Z</time>
      </trkpt>
      <trkpt lat="41.106667" lon="-3.714617">
        <ele>1404.0</ele>
        <time>2013-06-04T19:45:40Z</time>
      </trkpt>
      <trkpt lat="41.106617" lon="-3.714717">
        <ele>1402.0</ele>
        <time>2013-06-04T19:45:41Z</time>
      </trkpt>
      <trkpt lat="41.106567" lon="-3.714817">
        <ele>1400.0</ele>
        <time>2013-06-04T19:45:42Z</time>
      </trkpt>
      <trkpt lat="41.106517" lon="-3.714917">
        <ele>1399.0</ele>
        <time>2013-06-04T19:45:43Z</time>
      </trkpt>
      <trkpt lat="41.106450" lon="-3.715000">
        <ele>1398.0</ele>
        <time>2013-06-04T19:45:44Z</time>
      </trkpt>
      <trkpt lat="41.106417" lon="-3.715083">
        <ele>1398.0</ele>
        <time>2013-06-04T19:45:45Z</time>
      </trkpt>
      <trkpt lat="41.106367" lon="-3.715183">
        <ele>1397.0</ele>
        <time>2013-06-04T19:45:46Z</time>
      </trkpt>
      <trkpt lat="41.106333" lon="-3.715283">
        <ele>1395.0</ele>
        <time>2013-06-04T19:45:47Z</time>
      </trkpt>
      <trkpt lat="41.106283" lon="-3.715383">
        <ele>1395.0</ele>
        <time>2013-06-04T19:45:48Z</time>
      </trkpt>
      <trkpt lat="41.106233" lon="-3.715500">
        <ele>1395.0</ele>
        <time>2013-06-04T19:45:49Z</time>
      </trkpt>
      <trkpt lat="41.106183" lon="-3.715600">
        <ele>1397.0</ele>
        <time>2013-06-04T19:45:50Z</time>
      </trkpt>
      <trkpt lat="41.106133" lon="-3.715683">
        <ele>1398.0</ele>
        <time>2013-06-04T19:45:51Z</time>
      </trkpt>
      <trkpt lat="41.106067" lon="-3.715750">
        <ele>1399.0</ele>
        <time>2013-06-04T19:45:52Z</time>
      </trkpt>
      <trkpt lat="41.106017" lon="-3.715833">
        <ele>1398.0</ele>
        <time>2013-06-04T19:45:53Z</time>
      </trkpt>
      <trkpt lat="41.105967" lon="-3.715917">
        <ele>1398.0</ele>
        <time>2013-06-04T19:45:54Z</time>
      </trkpt>
      <trkpt lat="41.105967" lon="-3.716000">
        <ele>1398.0</ele>
        <time>2013-06-04T19:45:55Z</time>
      </trkpt>
      <trkpt lat="41.105983" lon="-3.716067">
        <ele>1396.0</ele>
        <time>2013-06-04T19:45:56Z</time>
      </trkpt>
      <trkpt lat="41.106033" lon="-3.716100">
        <ele>1395.0</ele>
        <time>2013-06-04T19:45:57Z</time>
      </trkpt>
      <trkpt lat="41.106117" lon="-3.716067">
        <ele>1393.0</ele>
        <time>2013-06-04T19:45:58Z</time>
      </trkpt>
      <trkpt lat="41.106183" lon="-3.716000">
        <ele>1391.0</ele>
        <time>2013-06-04T19:45:59Z</time>
      </trkpt>
      <trkpt lat="41.106250" lon="-3.715900">
        <ele>1391.0</ele>
        <time>2013-06-04T19:46:00Z</time>
      </trkpt>
      <trkpt lat="41.106300" lon="-3.715800">
        <ele>1392.0</ele>
        <time>2013-06-04T19:46:01Z</time>
      </trkpt>
      <trkpt lat="41.106333" lon="-3.715750">
        <ele>1393.0</ele>
        <time>2013-06-04T19:46:02Z</time>
      </trkpt>
      <trkpt lat="41.106383" lon="-3.715733">
        <ele>1391.0</ele>
        <time>2013-06-04T19:46:03Z</time>
      </trkpt>
      <trkpt lat="41.106450" lon="-3.715767">
        <ele>1388.0</ele>
        <time>2013-06-04T19:46:04Z</time>
      </trkpt>
      <trkpt lat="41.106483" lon="-3.715850">
        <ele>1384.0</ele>
        <time>2013-06-04T19:46:05Z</time>
      </trkpt>
      <trkpt lat="41.106483" lon="-3.715967">
        <ele>1382.0</ele>
        <time>2013-06-04T19:46:06Z</time>
      </trkpt>
      <trkpt lat="41.106417" lon="-3.716083">
        <ele>1380.0</ele>
        <time>2013-06-04T19:46:07Z</time>
      </trkpt>
      <trkpt lat="41.106317" lon="-3.716150">
        <ele>1379.0</ele>
        <time>2013-06-04T19:46:08Z</time>
      </trkpt>
      <trkpt lat="41.106217" lon="-3.716200">
        <ele>1379.0</ele>
        <time>2013-06-04T19:46:09Z</time>
      </trkpt>
      <trkpt lat="41.106133" lon="-3.716250">
        <ele>1381.0</ele>
        <time>2013-06-04T19:46:10Z</time>
      </trkpt>
      <trkpt lat="41.106067" lon="-3.716317">
        <ele>1380.0</ele>
        <time>2013-06-04T19:46:11Z</time>
      </trkpt>
      <trkpt lat="41.106033" lon="-3.716417">
        <ele>1379.0</ele>
        <time>2013-06-04T19:46:12Z</time>
      </trkpt>
      <trkpt lat="41.106050" lon="-3.716517">
        <ele>1377.0</ele>
        <time>2013-06-04T19:46:13Z</time>
      </trkpt>
      <trkpt lat="41.106117" lon="-3.716583">
        <ele>1376.0</ele>
        <time>2013-06-04T19:46:14Z</time>
      </trkpt>
      <trkpt lat="41.106183" lon="-3.716583">
        <ele>1375.0</ele>
        <time>2013-06-04T19:46:15Z</time>
      </trkpt>
      <trkpt lat="41.106250" lon="-3.716533">
        <ele>1374.0</ele>
        <time>2013-06-04T19:46:16Z</time>
      </trkpt>
      <trkpt lat="41.106300" lon="-3.716450">
        <ele>1374.0</ele>
        <time>2013-06-04T19:46:17Z</time>
      </trkpt>
      <trkpt lat="41.106333" lon="-3.716350">
        <ele>1374.0</ele>
        <time>2013-06-04T19:46:18Z</time>
      </trkpt>
      <trkpt lat="41.106367" lon="-3.716250">
        <ele>1374.0</ele>
        <time>2013-06-04T19:46:19Z</time>
      </trkpt>
      <trkpt lat="41.106417" lon="-3.716183">
        <ele>1373.0</ele>
        <time>2013-06-04T19:46:20Z</time>
      </trkpt>
      <trkpt lat="41.106467" lon="-3.716150">
        <ele>1372.0</ele>
        <time>2013-06-04T19:46:21Z</time>
      </trkpt>
      <trkpt lat="41.106517" lon="-3.716150">
        <ele>1369.0</ele>
        <time>2013-06-04T19:46:22Z</time>
      </trkpt>
      <trkpt lat="41.106567" lon="-3.716183">
        <ele>1367.0</ele>
        <time>2013-06-04T19:46:23Z</time>
      </trkpt>
      <trkpt lat="41.106600" lon="-3.716267">
        <ele>1364.0</ele>
        <time>2013-06-04T19:46:24Z</time>
      </trkpt>
      <trkpt lat="41.106583" lon="-3.716367">
        <ele>1362.0</ele>
        <time>2013-06-04T19:46:25Z</time>
      </trkpt>
      <trkpt lat="41.106533" lon="-3.716450">
        <ele>1360.0</ele>
        <time>2013-06-04T19:46:26Z</time>
      </trkpt>
      <trkpt lat="41.106433" lon="-3.716500">
        <ele>1358.0</ele>
        <time>2013-06-04T19:46:27Z</time>
      </trkpt>
      <trkpt lat="41.106317" lon="-3.716500">
        <ele>1356.0</ele>
        <time>2013-06-04T19:46:28Z</time>
      </trkpt>
      <trkpt lat="41.106200" lon="-3.716417">
        <ele>1355.0</ele>
        <time>2013-06-04T19:46:29Z</time>
      </trkpt>
      <trkpt lat="41.106133" lon="-3.716300">
        <ele>1354.0</ele>
        <time>2013-06-04T19:46:30Z</time>
      </trkpt>
      <trkpt lat="41.106117" lon="-3.716167">
        <ele>1352.0</ele>
        <time>2013-06-04T19:46:31Z</time>
      </trkpt>
      <trkpt lat="41.106117" lon="-3.716050">
        <ele>1351.0</ele>
        <time>2013-06-04T19:46:32Z</time>
      </trkpt>
      <trkpt lat="41.106150" lon="-3.715950">
        <ele>1351.0</ele>
        <time>2013-06-04T19:46:33Z</time>
      </trkpt>
      <trkpt lat="41.106183" lon="-3.715867">
        <ele>1350.0</ele>
        <time>2013-06-04T19:46:34Z</time>
      </trkpt>
      <trkpt lat="41.106250" lon="-3.715817">
        <ele>1348.0</ele>
        <time>2013-06-04T19:46:35Z</time>
      </trkpt>
      <trkpt lat="41.106300" lon="-3.715817">
        <ele>1346.0</ele>
        <time>2013-06-04T19:46:36Z</time>
      </trkpt>
      <trkpt lat="41.106367" lon="-3.715850">
        <ele>1344.0</ele>
        <time>2013-06-04T19:46:37Z</time>
      </trkpt>
      <trkpt lat="41.106433" lon="-3.715917">
        <ele>1343.0</ele>
        <time>2013-06-04T19:46:38Z</time>
      </trkpt>
      <trkpt lat="41.106450" lon="-3.716000">
        <ele>1342.0</ele>
        <time>2013-06-04T19:46:39Z</time>
      </trkpt>
      <trkpt lat="41.106467" lon="-3.716083">
        <ele>1341.0</ele>
        <time>2013-06-04T19:46:40Z</time>
      </trkpt>
      <trkpt lat="41.106467" lon="-3.716167">
        <ele>1341.0</ele>
        <time>2013-06-04T19:46:41Z</time>
      </trkpt>
      <trkpt lat="41.106467" lon="-3.716267">
        <ele>1339.0</ele>
        <time>2013-06-04T19:46:42Z</time>
      </trkpt>
      <trkpt lat="41.106483" lon="-3.716350">
        <ele>1338.0</ele>
        <time>2013-06-04T19:46:43Z</time>
      </trkpt>
      <trkpt lat="41.106483" lon="-3.716450">
        <ele>1337.0</ele>
        <time>2013-06-04T19:46:44Z</time>
      </trkpt>
      <trkpt lat="41.106467" lon="-3.716550">
        <ele>1337.0</ele>
        <time>2013-06-04T19:46:45Z</time>
      </trkpt>
      <trkpt lat="41.106417" lon="-3.716617">
        <ele>1336.0</ele>
        <time>2013-06-04T19:46:46Z</time>
      </trkpt>
      <trkpt lat="41.106317" lon="-3.716667">
        <ele>1334.0</ele>
        <time>2013-06-04T19:46:47Z</time>
      </trkpt>
      <trkpt lat="41.106217" lon="-3.716667">
        <ele>1333.0</ele>
        <time>2013-06-04T19:46:48Z</time>
      </trkpt>
      <trkpt lat="41.106117" lon="-3.716617">
        <ele>1333.0</ele>
        <time>2013-06-04T19:46:49Z</time>
      </trkpt>
      <trkpt lat="41.106050" lon="-3.716517">
        <ele>1332.0</ele>
        <time>2013-06-04T19:46:50Z</time>
      </trkpt>
      <trkpt lat="41.106000" lon="-3.716383">
        <ele>1331.0</ele>
        <time>2013-06-04T19:46:51Z</time>
      </trkpt>
      <trkpt lat="41.105983" lon="-3.716250">
        <ele>1329.0</ele>
        <time>2013-06-04T19:46:52Z</time>
      </trkpt>
      <trkpt lat="41.106000" lon="-3.716117">
        <ele>1328.0</ele>
        <time>2013-06-04T19:46:53Z</time>
      </trkpt>
      <trkpt lat="41.106033" lon="-3.716000">
        <ele>1327.0</ele>
        <time>2013-06-04T19:46:54Z</time>
      </trkpt>
      <trkpt lat="41.106100" lon="-3.715933">
        <ele>1327.0</ele>
        <time>2013-06-04T19:46:55Z</time>
      </trkpt>
      <trkpt lat="41.106167" lon="-3.715900">
        <ele>1325.0</ele>
        <time>2013-06-04T19:46:56Z</time>
      </trkpt>
      <trkpt lat="41.106233" lon="-3.715917">
        <ele>1324.0</ele>
        <time>2013-06-04T19:46:57Z</time>
      </trkpt>
      <trkpt lat="41.106283" lon="-3.715967">
        <ele>1322.0</ele>
        <time>2013-06-04T19:46:58Z</time>
      </trkpt>
      <trkpt lat="41.106300" lon="-3.716050">
        <ele>1321.0</ele>
        <time>2013-06-04T19:46:59Z</time>
      </trkpt>
      <trkpt lat="41.106300" lon="-3.716150">
        <ele>1319.0</ele>
        <time>2013-06-04T19:47:00Z</time>
      </trkpt>
      <trkpt lat="41.106267" lon="-3.716233">
        <ele>1318.0</ele>
        <time>2013-06-04T19:47:01Z</time>
      </trkpt>
      <trkpt lat="41.106250" lon="-3.716333">
        <ele>1317.0</ele>
        <time>2013-06-04T19:47:02Z</time>
      </trkpt>
      <trkpt lat="41.106250" lon="-3.716417">
        <ele>1316.0</ele>
        <time>2013-06-04T19:47:03Z</time>
      </trkpt>
      <trkpt lat="41.106283" lon="-3.716483">
        <ele>1315.0</ele>
        <time>2013-06-04T19:47:04Z</time>
      </trkpt>
      <trkpt lat="41.106350" lon="-3.716533">
        <ele>1313.0</ele>
        <time>2013-06-04T19:47:05Z</time>
      </trkpt>
      <trkpt lat="41.106433" lon="-3.716517">
        <ele>1311.0</ele>
        <time>2013-06-04T19:47:06Z</time>
      </trkpt>
      <trkpt lat="41.106517" lon="-3.716450">
        <ele>1309.0</ele>
        <time>2013-06-04T19:47:07Z</time>
      </trkpt>
      <trkpt lat="41.106567" lon="-3.716333">
        <ele>1308.0</ele>
        <time>2013-06-04T19:47:08Z</time>
      </trkpt>
      <trkpt lat="41.106600" lon="-3.716200">
        <ele>1308.0</ele>
        <time>2013-06-04T19:47:09Z</time>
      </trkpt>
      <trkpt lat="41.106633" lon="-3.716117">
        <ele>1308.0</ele>
        <time>2013-06-04T19:47:10Z</time>
      </trkpt>
      <trkpt lat="41.106683" lon="-3.716050">
        <ele>1307.0</ele>
        <time>2013-06-04T19:47:11Z</time>
      </trkpt>
      <trkpt lat="41.106750" lon="-3.716050">
        <ele>1304.0</ele>
        <time>2013-06-04T19:47:12Z</time>
      </trkpt>
      <trkpt lat="41.106817" lon="-3.716083">
        <ele>1301.0</ele>
        <time>2013-06-04T19:47:13Z</time>
      </trkpt>
      <trkpt lat="41.106850" lon="-3.716183">
        <ele>1298.0</ele>
        <time>2013-06-04T19:47:14Z</time>
      </trkpt>
      <trkpt lat="41.106850" lon="-3.716317">
        <ele>1295.0</ele>
        <time>2013-06-04T19:47:15Z</time>
      </trkpt>
      <trkpt lat="41.106800" lon="-3.716417">
        <ele>1294.0</ele>
        <time>2013-06-04T19:47:16Z</time>
      </trkpt>
      <trkpt lat="41.106750" lon="-3.716517">
        <ele>1295.0</ele>
        <time>2013-06-04T19:47:17Z</time>
      </trkpt>
      <trkpt lat="41.106750" lon="-3.716600">
        <ele>1295.0</ele>
        <time>2013-06-04T19:47:18Z</time>
      </trkpt>
      <trkpt lat="41.106767" lon="-3.716667">
        <ele>1294.0</ele>
        <time>2013-06-04T19:47:19Z</time>
      </trkpt>
      <trkpt lat="41.106850" lon="-3.716700">
        <ele>1291.0</ele>
        <time>2013-06-04T19:47:20Z</time>
      </trkpt>
      <trkpt lat="41.106933" lon="-3.716700">
        <ele>1288.0</ele>
        <time>2013-06-04T19:47:21Z</time>
      </trkpt>
      <trkpt lat="41.107033" lon="-3.716650">
        <ele>1287.0</ele>
        <time>2013-06-04T19:47:22Z</time>
      </trkpt>
      <trkpt lat="41.107083" lon="-3.716550">
        <ele>1287.0</ele>
        <time>2013-06-04T19:47:23Z</time>
      </trkpt>
      <trkpt lat="41.107133" lon="-3.716450">
        <ele>1287.0</ele>
        <time>2013-06-04T19:47:24Z</time>
      </trkpt>
      <trkpt lat="41.107167" lon="-3.716333">
        <ele>1286.0</ele>
        <time>2013-06-04T19:47:25Z</time>
      </trkpt>
      <trkpt lat="41.107200" lon="-3.716233">
        <ele>1284.0</ele>
        <time>2013-06-04T19:47:26Z</time>
      </trkpt>
      <trkpt lat="41.107250" lon="-3.716117">
        <ele>1282.0</ele>
        <time>2013-06-04T19:47:27Z</time>
      </trkpt>
      <trkpt lat="41.107317" lon="-3.716017">
        <ele>1281.0</ele>
        <time>2013-06-04T19:47:28Z</time>
      </trkpt>
      <trkpt lat="41.107367" lon="-3.715917">
        <ele>1280.0</ele>
        <time>2013-06-04T19:47:29Z</time>
      </trkpt>
      <trkpt lat="41.107417" lon="-3.715833">
        <ele>1280.0</ele>
        <time>2013-06-04T19:47:30Z</time>
      </trkpt>
      <trkpt lat="41.107467" lon="-3.715750">
        <ele>1279.0</ele>
        <time>2013-06-04T19:47:31Z</time>
      </trkpt>
      <trkpt lat="41.107533" lon="-3.715700">
        <ele>1277.0</ele>
        <time>2013-06-04T19:47:32Z</time>
      </trkpt>
      <trkpt lat="41.107600" lon="-3.715667">
        <ele>1275.0</ele>
        <time>2013-06-04T19:47:33Z</time>
      </trkpt>
      <trkpt lat="41.107683" lon="-3.715617">
        <ele>1274.0</ele>
        <time>2013-06-04T19:47:34Z</time>
      </trkpt>
      <trkpt lat="41.107767" lon="-3.715583">
        <ele>1274.0</ele>
        <time>2013-06-04T19:47:35Z</time>
      </trkpt>
      <trkpt lat="41.107850" lon="-3.715533">
        <ele>1273.0</ele>
        <time>2013-06-04T19:47:36Z</time>
      </trkpt>
      <trkpt lat="41.107917" lon="-3.715500">
        <ele>1273.0</ele>
        <time>2013-06-04T19:47:37Z</time>
      </trkpt>
      <trkpt lat="41.107983" lon="-3.715483">
        <ele>1271.0</ele>
        <time>2013-06-04T19:47:38Z</time>
      </trkpt>
      <trkpt lat="41.108067" lon="-3.715467">
        <ele>1269.0</ele>
        <time>2013-06-04T19:47:39Z</time>
      </trkpt>
      <trkpt lat="41.108150" lon="-3.715467">
        <ele>1267.0</ele>
        <time>2013-06-04T19:47:40Z</time>
      </trkpt>
      <trkpt lat="41.108233" lon="-3.715467">
        <ele>1266.0</ele>
        <time>2013-06-04T19:47:41Z</time>
      </trkpt>
      <trkpt lat="41.108317" lon="-3.715467">
        <ele>1266.0</ele>
        <time>2013-06-04T19:47:42Z</time>
      </trkpt>
      <trkpt lat="41.108400" lon="-3.715483">
        <ele>1265.0</ele>
        <time>2013-06-04T19:47:43Z</time>
      </trkpt>
      <trkpt lat="41.108467" lon="-3.715483">
        <ele>1264.0</ele>
        <time>2013-06-04T19:47:44Z</time>
      </trkpt>
      <trkpt lat="41.108550" lon="-3.715500">
        <ele>1263.0</ele>
        <time>2013-06-04T19:47:45Z</time>
      </trkpt>
      <trkpt lat="41.108633" lon="-3.715517">
        <ele>1262.0</ele>
        <time>2013-06-04T19:47:46Z</time>
      </trkpt>
      <trkpt lat="41.108700" lon="-3.715550">
        <ele>1261.0</ele>
        <time>2013-06-04T19:47:47Z</time>
      </trkpt>
      <trkpt lat="41.108783" lon="-3.715567">
        <ele>1260.0</ele>
        <time>2013-06-04T19:47:48Z</time>
      </trkpt>
      <trkpt lat="41.108850" lon="-3.715600">
        <ele>1259.0</ele>
        <time>2013-06-04T19:47:49Z</time>
      </trkpt>
      <trkpt lat="41.108917" lon="-3.715633">
        <ele>1258.0</ele>
        <time>2013-06-04T19:47:50Z</time>
      </trkpt>
      <trkpt lat="41.108967" lon="-3.715683">
        <ele>1257.0</ele>
        <time>2013-06-04T19:47:51Z</time>
      </trkpt>
      <trkpt lat="41.109033" lon="-3.715733">
        <ele>1255.0</ele>
        <time>2013-06-04T19:47:52Z</time>
      </trkpt>
      <trkpt lat="41.109083" lon="-3.715783">
        <ele>1254.0</ele>
        <time>2013-06-04T19:47:53Z</time>
      </trkpt>
      <trkpt lat="41.109150" lon="-3.715833">
        <ele>1253.0</ele>
        <time>2013-06-04T19:47:54Z</time>
      </trkpt>
      <trkpt lat="41.109200" lon="-3.715900">
        <ele>1252.0</ele>
        <time>2013-06-04T19:47:55Z</time>
      </trkpt>
      <trkpt lat="41.109267" lon="-3.715967">
        <ele>1251.0</ele>
        <time>2013-06-04T19:47:56Z</time>
      </trkpt>
      <trkpt lat="41.109317" lon="-3.716033">
        <ele>1250.0</ele>
        <time>2013-06-04T19:47:57Z</time>
      </trkpt>
      <trkpt lat="41.109383" lon="-3.716100">
        <ele>1249.0</ele>
        <time>2013-06-04T19:47:58Z</time>
      </trkpt>
      <trkpt lat="41.109433" lon="-3.716183">
        <ele>1248.0</ele>
        <time>2013-06-04T19:47:59Z</time>
      </trkpt>
      <trkpt lat="41.109483" lon="-3.716250">
        <ele>1246.0</ele>
        <time>2013-06-04T19:48:00Z</time>
      </trkpt>
      <trkpt lat="41.109517" lon="-3.716333">
        <ele>1245.0</ele>
        <time>2013-06-04T19:48:01Z</time>
      </trkpt>
      <trkpt lat="41.109567" lon="-3.716417">
        <ele>1244.0</ele>
        <time>2013-06-04T19:48:02Z</time>
      </trkpt>
      <trkpt lat="41.109600" lon="-3.716500">
        <ele>1242.0</ele>
        <time>2013-06-04T19:48:03Z</time>
      </trkpt>
      <trkpt lat="41.109633" lon="-3.716600">
        <ele>1241.0</ele>
        <time>2013-06-04T19:48:04Z</time>
      </trkpt>
      <trkpt lat="41.109683" lon="-3.716683">
        <ele>1240.0</ele>
        <time>2013-06-04T19:48:05Z</time>
      </trkpt>
      <trkpt lat="41.109733" lon="-3.716750">
        <ele>1240.0</ele>
        <time>2013-06-04T19:48:06Z</time>
      </trkpt>
      <trkpt lat="41.109767" lon="-3.716817">
        <ele>1240.0</ele>
        <time>2013-06-04T19:48:07Z</time>
      </trkpt>
      <trkpt lat="41.109800" lon="-3.716883">
        <ele>1238.0</ele>
        <time>2013-06-04T19:48:08Z</time>
      </trkpt>
      <trkpt lat="41.109833" lon="-3.716967">
        <ele>1236.0</ele>
        <time>2013-06-04T19:48:09Z</time>
      </trkpt>
      <trkpt lat="41.109883" lon="-3.717050">
        <ele>1234.0</ele>
        <time>2013-06-04T19:48:10Z</time>
      </trkpt>
      <trkpt lat="41.109917" lon="-3.717133">
        <ele>1232.0</ele>
        <time>2013-06-04T19:48:11Z</time>
      </trkpt>
      <trkpt lat="41.109950" lon="-3.717217">
        <ele>1231.0</ele>
        <time>2013-06-04T19:48:12Z</time>
      </trkpt>
      <trkpt lat="41.109983" lon="-3.717300">
        <ele>1230.0</ele>
        <time>2013-06-04T19:48:13Z</time>
      </trkpt>
      <trkpt lat="41.110000" lon="-3.717383">
        <ele>1229.0</ele>
        <time>2013-06-04T19:48:14Z</time>
      </trkpt>
      <trkpt lat="41.110017" lon="-3.717467">
        <ele>1228.0</ele>
        <time>2013-06-04T19:48:15Z</time>
      </trkpt>
      <trkpt lat="41.110050" lon="-3.717550">
        <ele>1226.0</ele>
        <time>2013-06-04T19:48:16Z</time>
      </trkpt>
      <trkpt lat="41.110067" lon="-3.717633">
        <ele>1225.0</ele>
        <time>2013-06-04T19:48:17Z</time>
      </trkpt>
      <trkpt lat="41.110083" lon="-3.717733">
        <ele>1223.0</ele>
        <time>2013-06-04T19:48:18Z</time>
      </trkpt>
      <trkpt lat="41.110100" lon="-3.717817">
        <ele>1222.0</ele>
        <time>2013-06-04T19:48:19Z</time>
      </trkpt>
      <trkpt lat="41.110117" lon="-3.717900">
        <ele>1221.0</ele>
        <time>2013-06-04T19:48:20Z</time>
      </trkpt>
      <trkpt lat="41.110117" lon="-3.718000">
        <ele>1220.0</ele>
        <time>2013-06-04T19:48:21Z</time>
      </trkpt>
      <trkpt lat="41.110117" lon="-3.718083">
        <ele>1218.0</ele>
        <time>2013-06-04T19:48:22Z</time>
      </trkpt>
      <trkpt lat="41.110117" lon="-3.718167">
        <ele>1216.0</ele>
        <time>2013-06-04T19:48:23Z</time>
      </trkpt>
      <trkpt lat="41.110133" lon="-3.718267">
        <ele>1215.0</ele>
        <time>2013-06-04T19:48:24Z</time>
      </trkpt>
      <trkpt lat="41.110133" lon="-3.718367">
        <ele>1214.0</ele>
        <time>2013-06-04T19:48:25Z</time>
      </trkpt>
      <trkpt lat="41.110117" lon="-3.718450">
        <ele>1213.0</ele>
        <time>2013-06-04T19:48:26Z</time>
      </trkpt>
      <trkpt lat="41.110100" lon="-3.718533">
        <ele>1212.0</ele>
        <time>2013-06-04T19:48:27Z</time>
      </trkpt>
      <trkpt lat="41.110050" lon="-3.718600">
        <ele>1211.0</ele>
        <time>2013-06-04T19:48:28Z</time>
      </trkpt>
      <trkpt lat="41.110000" lon="-3.718633">
        <ele>1209.0</ele>
        <time>2013-06-04T19:48:29Z</time>
      </trkpt>
      <trkpt lat="41.109917" lon="-3.718650">
        <ele>1206.0</ele>
        <time>2013-06-04T19:48:30Z</time>
      </trkpt>
      <trkpt lat="41.109817" lon="-3.718617">
        <ele>1203.0</ele>
        <time>2013-06-04T19:48:31Z</time>
      </trkpt>
      <trkpt lat="41.109733" lon="-3.718517">
        <ele>1201.0</ele>
        <time>2013-06-04T19:48:32Z</time>
      </trkpt>
      <trkpt lat="41.109700" lon="-3.718383">
        <ele>1199.0</ele>
        <time>2013-06-04T19:48:33Z</time>
      </trkpt>
      <trkpt lat="41.109683" lon="-3.718250">
        <ele>1199.0</ele>
        <time>2013-06-04T19:48:34Z</time>
      </trkpt>
      <trkpt lat="41.109683" lon="-3.718133">
        <ele>1199.0</ele>
        <time>2013-06-04T19:48:35Z</time>
      </trkpt>
      <trkpt lat="41.109700" lon="-3.718017">
        <ele>1198.0</ele>
        <time>2013-06-04T19:48:36Z</time>
      </trkpt>
      <trkpt lat="41.109683" lon="-3.717900">
        <ele>1197.0</ele>
        <time>2013-06-04T19:48:37Z</time>
      </trkpt>
      <trkpt lat="41.109633" lon="-3.717800">
        <ele>1195.0</ele>
        <time>2013-06-04T19:48:38Z</time>
      </trkpt>
      <trkpt lat="41.109550" lon="-3.717750">
        <ele>1192.0</ele>
        <time>2013-06-04T19:48:39Z</time>
      </trkpt>
      <trkpt lat="41.109450" lon="-3.717750">
        <ele>1189.0</ele>
        <time>2013-06-04T19:48:40Z</time>
      </trkpt>
      <trkpt lat="41.109367" lon="-3.717817">
        <ele>1187.0</ele>
        <time>2013-06-04T19:48:41Z</time>
      </trkpt>
      <trkpt lat="41.109317" lon="-3.717933">
        <ele>1186.0</ele>
        <time>2013-06-04T19:48:42Z</time>
      </trkpt>
      <trkpt lat="41.109283" lon="-3.718017">
        <ele>1188.0</ele>
        <time>2013-06-04T19:48:43Z</time>
      </trkpt>
      <trkpt lat="41.109250" lon="-3.718067">
        <ele>1189.0</ele>
        <time>2013-06-04T19:48:44Z</time>
      </trkpt>
      <trkpt lat="41.109200" lon="-3.718083">
        <ele>1187.0</ele>
        <time>2013-06-04T19:48:45Z</time>
      </trkpt>
      <trkpt lat="41.109117" lon="-3.718067">
        <ele>1183.0</ele>
        <time>2013-06-04T19:48:46Z</time>
      </trkpt>
      <trkpt lat="41.109033" lon="-3.718017">
        <ele>1180.0</ele>
        <time>2013-06-04T19:48:47Z</time>
      </trkpt>
      <trkpt lat="41.108983" lon="-3.717917">
        <ele>1179.0</ele>
        <time>2013-06-04T19:48:48Z</time>
      </trkpt>
      <trkpt lat="41.108950" lon="-3.717783">
        <ele>1177.0</ele>
        <time>2013-06-04T19:48:49Z</time>
      </trkpt>
      <trkpt lat="41.108950" lon="-3.717667">
        <ele>1176.0</ele>
        <time>2013-06-04T19:48:50Z</time>
      </trkpt>
      <trkpt lat="41.108950" lon="-3.717550">
        <ele>1176.0</ele>
        <time>2013-06-04T19:48:51Z</time>
      </trkpt>
      <trkpt lat="41.108900" lon="-3.717450">
        <ele>1175.0</ele>
        <time>2013-06-04T19:48:52Z</time>
      </trkpt>
      <trkpt lat="41.108850" lon="-3.717383">
        <ele>1174.0</ele>
        <time>2013-06-04T19:48:53Z</time>
      </trkpt>
      <trkpt lat="41.108783" lon="-3.717333">
        <ele>1174.0</ele>
        <time>2013-06-04T19:48:54Z</time>
      </trkpt>
      <trkpt lat="41.108733" lon="-3.717300">
        <ele>1174.0</ele>
        <time>2013-06-04T19:48:55Z</time>
      </trkpt>
      <trkpt lat="41.108700" lon="-3.717267">
        <ele>1173.0</ele>
        <time>2013-06-04T19:48:56Z</time>
      </trkpt>
      <trkpt lat="41.108667" lon="-3.717217">
        <ele>1172.0</ele>
        <time>2013-06-04T19:48:57Z</time>
      </trkpt>
      <trkpt lat="41.108650" lon="-3.717200">
        <ele>1172.0</ele>
        <time>2013-06-04T19:48:58Z</time>
      </trkpt>
      <trkpt lat="41.108633" lon="-3.717183">
        <ele>1171.0</ele>
        <time>2013-06-04T19:48:59Z</time>
      </trkpt>
      <trkpt lat="41.108633" lon="-3.717200">
        <ele>1170.0</ele>
        <time>2013-06-04T19:49:00Z</time>
      </trkpt>
      <trkpt lat="41.108633" lon="-3.717200">
        <ele>1170.0</ele>
        <time>2013-06-04T19:49:01Z</time>
      </trkpt>
      <trkpt lat="41.108617" lon="-3.717200">
        <ele>1170.0</ele>
        <time>2013-06-04T19:49:02Z</time>
      </trkpt>
      <trkpt lat="41.108617" lon="-3.717200">
        <ele>1171.0</ele>
        <time>2013-06-04T19:49:03Z</time>
      </trkpt>
      <trkpt lat="41.108600" lon="-3.717200">
        <ele>1171.0</ele>
        <time>2013-06-04T19:49:04Z</time>
      </trkpt>
      <trkpt lat="41.108600" lon="-3.717200">
        <ele>1171.0</ele>
        <time>2013-06-04T19:49:05Z</time>
      </trkpt>
      <trkpt lat="41.108617" lon="-3.717217">
        <ele>1171.0</ele>
        <time>2013-06-04T19:49:06Z</time>
      </trkpt>
      <trkpt lat="41.108617" lon="-3.717217">
        <ele>1171.0</ele>
        <time>2013-06-04T19:49:07Z</time>
      </trkpt>
      <trkpt lat="41.108617" lon="-3.717217">
        <ele>1172.0</ele>
        <time>2013-06-04T19:49:08Z</time>
      </trkpt>
      <trkpt lat="41.108617" lon="-3.717217">
        <ele>1172.0</ele>
        <time>2013-06-04T19:49:09Z</time>
      </trkpt>
      <trkpt lat="41.108617" lon="-3.717217">
        <ele>1172.0</ele>
        <time>2013-06-04T19:49:10Z</time>
      </trkpt>
      <trkpt lat="41.108617" lon="-3.717217">
        <ele>1172.0</ele>
        <time>2013-06-04T19:49:11Z</time>
      </trkpt>
      <trkpt lat="41.108617" lon="-3.717217">
        <ele>1173.0</ele>
        <time>2013-06-04T19:49:12Z</time>
      </trkpt>
      <trkpt lat="41.108617" lon="-3.717217">
        <ele>1173.0</ele>
        <time>2013-06-04T19:49:13Z</time>
      </trkpt>
      <trkpt lat="41.108617" lon="-3.717217">
        <ele>1173.0</ele>
        <time>2013-06-04T19:49:14Z</time>
      </trkpt>
      <trkpt lat="41.108567" lon="-3.717233">
        <ele>1174.0</ele>
        <time>2013-06-04T19:49:15Z</time>
      </trkpt>
      <trkpt lat="41.108550" lon="-3.717217">
        <ele>1174.0</ele>
        <time>2013-06-04T19:49:16Z</time>
      </trkpt>
    </trkseg>
  </trk>
</gpx>
